<?xml version='1.0' encoding='UTF-8'?><gpx version="1.1" creator="JPX - https://github.com/jenetics/jpx" xmlns="http://www.topografix.com/GPX/1/1"><trk><trkseg><trkpt lat="45.64425449981423" lon="9.333139618757105"><ele>224.0</ele><time>2026-04-20T13:42:15.999Z</time></trkpt><trkpt lat="45.64433019580753" lon="9.33318887409444"><ele>223.99999999999997</ele><time>2026-04-20T13:42:16.999Z</time></trkpt><trkpt lat="45.64445879462781" lon="9.33325085341491"><ele>223.99999999999997</ele><time>2026-04-20T13:42:18.999Z</time></trkpt><trkpt lat="45.64453075684923" lon="9.3333001566516"><ele>224.0</ele><time>2026-04-20T13:42:19.999Z</time></trkpt><trkpt lat="45.644607104243" lon="9.333351719848006"><ele>224.0</ele><time>2026-04-20T13:42:20.999Z</time></trkpt><trkpt lat="45.64467224444021" lon="9.333390124883227"><ele>224.25</ele><time>2026-04-20T13:42:21.999Z</time></trkpt><trkpt lat="45.6447805938155" lon="9.33344766318318"><ele>224.5</ele><time>2026-04-20T13:42:23.999Z</time></trkpt><trkpt lat="45.644878452088925" lon="9.3334264618144"><ele>224.75</ele><time>2026-04-20T13:42:25.999Z</time></trkpt><trkpt lat="45.64495323463721" lon="9.33331782649332"><ele>225.0</ele><time>2026-04-20T13:42:27.999Z</time></trkpt><trkpt lat="45.64508343691885" lon="9.333395926312987"><ele>225.0</ele><time>2026-04-20T13:42:28.999Z</time></trkpt><trkpt lat="45.64503432810683" lon="9.3334724552929"><ele>225.0</ele><time>2026-04-20T13:42:38.999Z</time></trkpt><trkpt lat="45.64498945072931" lon="9.333561808094393"><ele>225.0</ele><time>2026-04-20T13:42:40.999Z</time></trkpt><trkpt lat="45.64491744286224" lon="9.333671895795215"><ele>225.0</ele><time>2026-04-20T13:42:42.999Z</time></trkpt><trkpt lat="45.64484978316555" lon="9.333787192152087"><ele>225.0</ele><time>2026-04-20T13:42:44.999Z</time></trkpt><trkpt lat="45.64480266985017" lon="9.333855636076638"><ele>225.0</ele><time>2026-04-20T13:42:46.999Z</time></trkpt><trkpt lat="45.64475481977175" lon="9.333931170846023"><ele>225.0</ele><time>2026-04-20T13:42:47.999Z</time></trkpt><trkpt lat="45.64470976414926" lon="9.334040450195523"><ele>225.0</ele><time>2026-04-20T13:42:49.999Z</time></trkpt><trkpt lat="45.64461405077668" lon="9.334091774995493"><ele>225.0</ele><time>2026-04-20T13:42:51.999Z</time></trkpt><trkpt lat="45.64458379317403" lon="9.334206808885682"><ele>225.0</ele><time>2026-04-20T13:42:53.999Z</time></trkpt><trkpt lat="45.644530215215916" lon="9.33431134503735"><ele>225.0</ele><time>2026-04-20T13:42:55.999Z</time></trkpt><trkpt lat="45.64447876574664" lon="9.334384429090852"><ele>225.0</ele><time>2026-04-20T13:42:57.999Z</time></trkpt><trkpt lat="45.644429901671366" lon="9.334487707539466"><ele>224.5</ele><time>2026-04-20T13:43:00.999Z</time></trkpt><trkpt lat="45.64438080716085" lon="9.334566596838373"><ele>224.0</ele><time>2026-04-20T13:43:02.999Z</time></trkpt><trkpt lat="45.644319189609035" lon="9.334678034860833"><ele>223.5</ele><time>2026-04-20T13:43:04.999Z</time></trkpt><trkpt lat="45.64426431185406" lon="9.334752162145488"><ele>223.0</ele><time>2026-04-20T13:43:06Z</time></trkpt><trkpt lat="45.64421391526545" lon="9.334809868777855"><ele>222.5</ele><time>2026-04-20T13:43:07Z</time></trkpt><trkpt lat="45.64416313874556" lon="9.334879631310352"><ele>222.0</ele><time>2026-04-20T13:43:08Z</time></trkpt><trkpt lat="45.644086857067755" lon="9.334983004643433"><ele>222.0</ele><time>2026-04-20T13:43:09Z</time></trkpt><trkpt lat="45.644058942121504" lon="9.335077758377741"><ele>222.0</ele><time>2026-04-20T13:43:10Z</time></trkpt><trkpt lat="45.64400556071858" lon="9.335160239133009"><ele>222.0</ele><time>2026-04-20T13:43:11Z</time></trkpt><trkpt lat="45.64393927253428" lon="9.335264757171984"><ele>222.0</ele><time>2026-04-20T13:43:12Z</time></trkpt><trkpt lat="45.643841625034085" lon="9.335413924326684"><ele>222.0</ele><time>2026-04-20T13:43:13Z</time></trkpt><trkpt lat="45.64376897463233" lon="9.335524125505378"><ele>222.0</ele><time>2026-04-20T13:43:14Z</time></trkpt><trkpt lat="45.64368632894817" lon="9.335648344352819"><ele>222.0</ele><time>2026-04-20T13:43:15Z</time></trkpt><trkpt lat="45.643610241393674" lon="9.335748062023844"><ele>222.0</ele><time>2026-04-20T13:43:16Z</time></trkpt><trkpt lat="45.643545197659094" lon="9.335834162638209"><ele>222.0</ele><time>2026-04-20T13:43:17Z</time></trkpt><trkpt lat="45.643470626442934" lon="9.335965151288555"><ele>222.0</ele><time>2026-04-20T13:43:19Z</time></trkpt><trkpt lat="45.64341583383898" lon="9.336054363578546"><ele>222.0</ele><time>2026-04-20T13:43:20Z</time></trkpt><trkpt lat="45.64335416570229" lon="9.336111423756842"><ele>222.0</ele><time>2026-04-20T13:43:21Z</time></trkpt><trkpt lat="45.6432866408331" lon="9.336238551652052"><ele>222.0</ele><time>2026-04-20T13:43:23Z</time></trkpt><trkpt lat="45.64322286129762" lon="9.336319558612924"><ele>222.0</ele><time>2026-04-20T13:43:25Z</time></trkpt><trkpt lat="45.643165621543595" lon="9.336369839595559"><ele>222.0</ele><time>2026-04-20T13:43:29Z</time></trkpt><trkpt lat="45.643116948388055" lon="9.336434748279984"><ele>222.0</ele><time>2026-04-20T13:43:32Z</time></trkpt><trkpt lat="45.64305339377214" lon="9.336519299479091"><ele>221.75</ele><time>2026-04-20T13:43:34Z</time></trkpt><trkpt lat="45.64297775268103" lon="9.336471003974344"><ele>221.5</ele><time>2026-04-20T13:43:35Z</time></trkpt><trkpt lat="45.64289798269037" lon="9.336456730108956"><ele>221.25</ele><time>2026-04-20T13:43:36Z</time></trkpt><trkpt lat="45.64269593756591" lon="9.336425949627916"><ele>221.0</ele><time>2026-04-20T13:43:37Z</time></trkpt><trkpt lat="45.6425828715031" lon="9.33643439226447"><ele>219.4</ele><time>2026-04-20T13:43:38Z</time></trkpt><trkpt lat="45.642487188005106" lon="9.336428337306877"><ele>217.8</ele><time>2026-04-20T13:43:39Z</time></trkpt><trkpt lat="45.642394422994784" lon="9.336421843988859"><ele>216.20000000000002</ele><time>2026-04-20T13:43:40Z</time></trkpt><trkpt lat="45.64229855029823" lon="9.336419041550537"><ele>214.60000000000002</ele><time>2026-04-20T13:43:41Z</time></trkpt><trkpt lat="45.64220844222964" lon="9.33641343097541"><ele>213.0</ele><time>2026-04-20T13:43:42Z</time></trkpt><trkpt lat="45.642114621290744" lon="9.336407870432078"><ele>213.0</ele><time>2026-04-20T13:43:43Z</time></trkpt><trkpt lat="45.64203375512567" lon="9.336402203845868"><ele>213.0</ele><time>2026-04-20T13:43:44Z</time></trkpt><trkpt lat="45.641925292469374" lon="9.33642114628182"><ele>213.0</ele><time>2026-04-20T13:43:46Z</time></trkpt><trkpt lat="45.641829325902584" lon="9.336443494077502"><ele>213.0</ele><time>2026-04-20T13:43:48Z</time></trkpt><trkpt lat="45.641741502594364" lon="9.33654772646847"><ele>213.0</ele><time>2026-04-20T13:43:50Z</time></trkpt><trkpt lat="45.64166181237486" lon="9.33664896484499"><ele>211.4</ele><time>2026-04-20T13:43:52Z</time></trkpt><trkpt lat="45.64161620831275" lon="9.33672264966273"><ele>209.8</ele><time>2026-04-20T13:43:54Z</time></trkpt><trkpt lat="45.64155364842996" lon="9.33678037222028"><ele>208.2</ele><time>2026-04-20T13:44:00Z</time></trkpt><trkpt lat="45.641436215917246" lon="9.336648017112717"><ele>206.6</ele><time>2026-04-20T13:44:02Z</time></trkpt><trkpt lat="45.64136617168198" lon="9.336549539704693"><ele>205.0</ele><time>2026-04-20T13:44:03Z</time></trkpt><trkpt lat="45.64130427334694" lon="9.336463308645211"><ele>204.25</ele><time>2026-04-20T13:44:04Z</time></trkpt><trkpt lat="45.64122897760339" lon="9.336370465973138"><ele>203.5</ele><time>2026-04-20T13:44:05Z</time></trkpt><trkpt lat="45.641143714171136" lon="9.336262559654921"><ele>202.75</ele><time>2026-04-20T13:44:06Z</time></trkpt><trkpt lat="45.64104504897984" lon="9.336133610778317"><ele>202.0</ele><time>2026-04-20T13:44:07Z</time></trkpt><trkpt lat="45.64094615479074" lon="9.335995845759014"><ele>202.0</ele><time>2026-04-20T13:44:08Z</time></trkpt><trkpt lat="45.64084190438008" lon="9.335872302390406"><ele>202.0</ele><time>2026-04-20T13:44:09Z</time></trkpt><trkpt lat="45.640744688099645" lon="9.335748377105588"><ele>202.0</ele><time>2026-04-20T13:44:10Z</time></trkpt><trkpt lat="45.64064320895538" lon="9.33562261365461"><ele>202.0</ele><time>2026-04-20T13:44:11Z</time></trkpt><trkpt lat="45.640550428867385" lon="9.335501189510913"><ele>201.75</ele><time>2026-04-20T13:44:12Z</time></trkpt><trkpt lat="45.64046855031021" lon="9.335390954704645"><ele>201.5</ele><time>2026-04-20T13:44:13Z</time></trkpt><trkpt lat="45.64038067270171" lon="9.33527938870347"><ele>201.25</ele><time>2026-04-20T13:44:14Z</time></trkpt><trkpt lat="45.64029334448088" lon="9.335171573039105"><ele>201.0</ele><time>2026-04-20T13:44:15Z</time></trkpt><trkpt lat="45.64021601322473" lon="9.33507065191801"><ele>201.0</ele><time>2026-04-20T13:44:16Z</time></trkpt><trkpt lat="45.64013362123485" lon="9.334971272000542"><ele>201.0</ele><time>2026-04-20T13:44:17Z</time></trkpt><trkpt lat="45.64004913564622" lon="9.334873557628601"><ele>201.0</ele><time>2026-04-20T13:44:18Z</time></trkpt><trkpt lat="45.63999352517525" lon="9.334784410050238"><ele>201.0</ele><time>2026-04-20T13:44:19Z</time></trkpt><trkpt lat="45.63992490608291" lon="9.334702470692898"><ele>201.0</ele><time>2026-04-20T13:44:20Z</time></trkpt><trkpt lat="45.63986551944332" lon="9.334621374162069"><ele>201.16666666666666</ele><time>2026-04-20T13:44:21Z</time></trkpt><trkpt lat="45.639815672953944" lon="9.334549448202695"><ele>201.33333333333331</ele><time>2026-04-20T13:44:22Z</time></trkpt><trkpt lat="45.63976517821967" lon="9.334486333367908"><ele>201.5</ele><time>2026-04-20T13:44:23Z</time></trkpt><trkpt lat="45.639704108" lon="9.334423462086642"><ele>201.66666666666666</ele><time>2026-04-20T13:44:24Z</time></trkpt><trkpt lat="45.63965534647044" lon="9.334331400538977"><ele>201.83333333333331</ele><time>2026-04-20T13:44:25Z</time></trkpt><trkpt lat="45.63959099357088" lon="9.334247353858137"><ele>202.0</ele><time>2026-04-20T13:44:26Z</time></trkpt><trkpt lat="45.63952243217158" lon="9.334159493567508"><ele>201.8</ele><time>2026-04-20T13:44:27Z</time></trkpt><trkpt lat="45.63945592655939" lon="9.334080262868206"><ele>201.6</ele><time>2026-04-20T13:44:28Z</time></trkpt><trkpt lat="45.639370429641204" lon="9.333994484895443"><ele>201.4</ele><time>2026-04-20T13:44:29Z</time></trkpt><trkpt lat="45.63928551480187" lon="9.333886630553238"><ele>201.20000000000002</ele><time>2026-04-20T13:44:30Z</time></trkpt><trkpt lat="45.63921469875586" lon="9.333781394829398"><ele>201.0</ele><time>2026-04-20T13:44:31Z</time></trkpt><trkpt lat="45.63913723444669" lon="9.333683975105995"><ele>201.75</ele><time>2026-04-20T13:44:32Z</time></trkpt><trkpt lat="45.6390514050718" lon="9.333578502888045"><ele>202.5</ele><time>2026-04-20T13:44:33Z</time></trkpt><trkpt lat="45.63896178424733" lon="9.333464154239271"><ele>203.25</ele><time>2026-04-20T13:44:34Z</time></trkpt><trkpt lat="45.63886740600165" lon="9.333346211357192"><ele>204.0</ele><time>2026-04-20T13:44:35Z</time></trkpt><trkpt lat="45.6387842800708" lon="9.33322948839864"><ele>204.0</ele><time>2026-04-20T13:44:36Z</time></trkpt><trkpt lat="45.63871639154568" lon="9.333132217592194"><ele>204.0</ele><time>2026-04-20T13:44:37Z</time></trkpt><trkpt lat="45.638656629410136" lon="9.333056644731965"><ele>204.0</ele><time>2026-04-20T13:44:38Z</time></trkpt><trkpt lat="45.638607028030144" lon="9.332991186659939"><ele>204.0</ele><time>2026-04-20T13:45:00.999Z</time></trkpt><trkpt lat="45.63847775331805" lon="9.333011294770849"><ele>204.0</ele><time>2026-04-20T13:45:05.999Z</time></trkpt><trkpt lat="45.6384051141805" lon="9.33308176282071"><ele>203.39999999999998</ele><time>2026-04-20T13:45:06.999Z</time></trkpt><trkpt lat="45.63833065611833" lon="9.33318492757298"><ele>202.8</ele><time>2026-04-20T13:45:07.999Z</time></trkpt><trkpt lat="45.63825565337763" lon="9.33328612562992"><ele>202.2</ele><time>2026-04-20T13:45:08.999Z</time></trkpt><trkpt lat="45.63819280608537" lon="9.333380517000823"><ele>201.60000000000002</ele><time>2026-04-20T13:45:09.999Z</time></trkpt><trkpt lat="45.63812797710412" lon="9.333487237200044"><ele>201.0</ele><time>2026-04-20T13:45:10.999Z</time></trkpt><trkpt lat="45.63806913813472" lon="9.333548956235953"><ele>201.0</ele><time>2026-04-20T13:45:12Z</time></trkpt><trkpt lat="45.63802352477212" lon="9.333619522095967"><ele>201.0</ele><time>2026-04-20T13:45:13Z</time></trkpt><trkpt lat="45.63793698859796" lon="9.333732903184686"><ele>201.0</ele><time>2026-04-20T13:45:14Z</time></trkpt><trkpt lat="45.637842462186526" lon="9.333871752176194"><ele>201.0</ele><time>2026-04-20T13:45:15Z</time></trkpt><trkpt lat="45.637751257445416" lon="9.333988699876528"><ele>201.0</ele><time>2026-04-20T13:45:16Z</time></trkpt><trkpt lat="45.637670085818954" lon="9.334098154454484"><ele>201.20000000000002</ele><time>2026-04-20T13:45:17Z</time></trkpt><trkpt lat="45.63759895992776" lon="9.334178570110005"><ele>201.4</ele><time>2026-04-20T13:45:18Z</time></trkpt><trkpt lat="45.637532242504165" lon="9.334262178927878"><ele>201.6</ele><time>2026-04-20T13:45:19Z</time></trkpt><trkpt lat="45.63747041444635" lon="9.334350991230542"><ele>201.8</ele><time>2026-04-20T13:45:20Z</time></trkpt><trkpt lat="45.637396145291966" lon="9.33445075742576"><ele>202.0</ele><time>2026-04-20T13:45:21Z</time></trkpt><trkpt lat="45.63731497155183" lon="9.334559663810326"><ele>202.0</ele><time>2026-04-20T13:45:22Z</time></trkpt><trkpt lat="45.637215435097296" lon="9.334700614506007"><ele>202.0</ele><time>2026-04-20T13:45:23Z</time></trkpt><trkpt lat="45.63712080940035" lon="9.334844652632588"><ele>202.0</ele><time>2026-04-20T13:45:24Z</time></trkpt><trkpt lat="45.637023191483664" lon="9.334976769721964"><ele>202.0</ele><time>2026-04-20T13:45:25Z</time></trkpt><trkpt lat="45.63691737316955" lon="9.335117272128294"><ele>201.75</ele><time>2026-04-20T13:45:26Z</time></trkpt><trkpt lat="45.636805513585514" lon="9.335242043600045"><ele>201.5</ele><time>2026-04-20T13:45:27Z</time></trkpt><trkpt lat="45.63669991794781" lon="9.335372369082709"><ele>201.25</ele><time>2026-04-20T13:45:28Z</time></trkpt><trkpt lat="45.63659737927741" lon="9.335519987866242"><ele>201.0</ele><time>2026-04-20T13:45:29Z</time></trkpt><trkpt lat="45.63650030213768" lon="9.33565545356787"><ele>201.0</ele><time>2026-04-20T13:45:30Z</time></trkpt><trkpt lat="45.63641850848546" lon="9.335766030860178"><ele>201.0</ele><time>2026-04-20T13:45:31Z</time></trkpt><trkpt lat="45.63633445112749" lon="9.33587614309264"><ele>201.0</ele><time>2026-04-20T13:45:32Z</time></trkpt><trkpt lat="45.636224841954125" lon="9.336019820822848"><ele>201.0</ele><time>2026-04-20T13:45:33Z</time></trkpt><trkpt lat="45.636132092547285" lon="9.336142445056177"><ele>201.25</ele><time>2026-04-20T13:45:34Z</time></trkpt><trkpt lat="45.636057281129766" lon="9.336247999307519"><ele>201.5</ele><time>2026-04-20T13:45:35Z</time></trkpt><trkpt lat="45.63599717918449" lon="9.336339569492901"><ele>201.75</ele><time>2026-04-20T13:45:36Z</time></trkpt><trkpt lat="45.63593287023044" lon="9.33645483913155"><ele>202.0</ele><time>2026-04-20T13:45:38Z</time></trkpt><trkpt lat="45.63553092510351" lon="9.336971418566796"><ele>202.0</ele><time>2026-04-20T13:45:42Z</time></trkpt><trkpt lat="45.635426906234095" lon="9.337110130098324"><ele>202.0</ele><time>2026-04-20T13:45:43Z</time></trkpt><trkpt lat="45.63531883071037" lon="9.337251587192966"><ele>202.0</ele><time>2026-04-20T13:45:44Z</time></trkpt><trkpt lat="45.635218131024175" lon="9.337384074853915"><ele>202.0</ele><time>2026-04-20T13:45:45Z</time></trkpt><trkpt lat="45.63511177661021" lon="9.337527639726208"><ele>202.0</ele><time>2026-04-20T13:45:46Z</time></trkpt><trkpt lat="45.63500817676789" lon="9.337667619558074"><ele>202.0</ele><time>2026-04-20T13:45:47Z</time></trkpt><trkpt lat="45.63491346906489" lon="9.337793849821749"><ele>202.0</ele><time>2026-04-20T13:45:48Z</time></trkpt><trkpt lat="45.63481060102668" lon="9.337918860202182"><ele>202.0</ele><time>2026-04-20T13:45:49Z</time></trkpt><trkpt lat="45.63469410206675" lon="9.338072442970242"><ele>202.0</ele><time>2026-04-20T13:45:50Z</time></trkpt><trkpt lat="45.63457486921931" lon="9.338228113029665"><ele>202.0</ele><time>2026-04-20T13:45:51Z</time></trkpt><trkpt lat="45.634470017483515" lon="9.33838065442621"><ele>202.0</ele><time>2026-04-20T13:45:52Z</time></trkpt><trkpt lat="45.63437098092302" lon="9.338511086272772"><ele>202.0</ele><time>2026-04-20T13:45:53Z</time></trkpt><trkpt lat="45.634278869094956" lon="9.33863492873279"><ele>201.75</ele><time>2026-04-20T13:45:54Z</time></trkpt><trkpt lat="45.63418884564008" lon="9.33875851898948"><ele>201.5</ele><time>2026-04-20T13:45:55Z</time></trkpt><trkpt lat="45.63408222929217" lon="9.33891071878476"><ele>201.25</ele><time>2026-04-20T13:45:56Z</time></trkpt><trkpt lat="45.6339758740061" lon="9.339058073172664"><ele>201.0</ele><time>2026-04-20T13:45:57Z</time></trkpt><trkpt lat="45.633885745076" lon="9.339182983759207"><ele>201.0</ele><time>2026-04-20T13:45:58Z</time></trkpt><trkpt lat="45.63380235453622" lon="9.339294051348164"><ele>201.0</ele><time>2026-04-20T13:45:59Z</time></trkpt><trkpt lat="45.63373083052025" lon="9.339405643662722"><ele>201.0</ele><time>2026-04-20T13:46:00Z</time></trkpt><trkpt lat="45.633654480505975" lon="9.339509831042328"><ele>201.0</ele><time>2026-04-20T13:46:01Z</time></trkpt><trkpt lat="45.63359448121431" lon="9.339591925083184"><ele>201.0</ele><time>2026-04-20T13:46:02Z</time></trkpt><trkpt lat="45.63354989375409" lon="9.339660781868186"><ele>201.0</ele><time>2026-04-20T13:46:03Z</time></trkpt><trkpt lat="45.63345902852792" lon="9.339777987002911"><ele>201.0</ele><time>2026-04-20T13:46:05Z</time></trkpt><trkpt lat="45.63338049238884" lon="9.3398684891322"><ele>201.0</ele><time>2026-04-20T13:46:06Z</time></trkpt><trkpt lat="45.63331546552713" lon="9.339964973530526"><ele>201.0</ele><time>2026-04-20T13:46:07Z</time></trkpt><trkpt lat="45.63322939024036" lon="9.340058872218044"><ele>201.0</ele><time>2026-04-20T13:46:08Z</time></trkpt><trkpt lat="45.633129784650876" lon="9.340164235115774"><ele>201.0</ele><time>2026-04-20T13:46:09Z</time></trkpt><trkpt lat="45.633030496109726" lon="9.340275534325404"><ele>201.0</ele><time>2026-04-20T13:46:10Z</time></trkpt><trkpt lat="45.632948764522325" lon="9.340391417971022"><ele>201.0</ele><time>2026-04-20T13:46:11Z</time></trkpt><trkpt lat="45.632854841947896" lon="9.34052415767958"><ele>201.0</ele><time>2026-04-20T13:46:12Z</time></trkpt><trkpt lat="45.6327478304505" lon="9.34063808316789"><ele>200.60000000000002</ele><time>2026-04-20T13:46:13Z</time></trkpt><trkpt lat="45.632666977686995" lon="9.340750497007464"><ele>200.2</ele><time>2026-04-20T13:46:14Z</time></trkpt><trkpt lat="45.63259511349996" lon="9.340861096504103"><ele>199.8</ele><time>2026-04-20T13:46:15Z</time></trkpt><trkpt lat="45.63252543634069" lon="9.340949098478779"><ele>199.39999999999998</ele><time>2026-04-20T13:46:16Z</time></trkpt><trkpt lat="45.63246133439486" lon="9.341031268509633"><ele>199.0</ele><time>2026-04-20T13:46:17Z</time></trkpt><trkpt lat="45.632381813102555" lon="9.341086231951751"><ele>199.0</ele><time>2026-04-20T13:46:22Z</time></trkpt><trkpt lat="45.63227521056234" lon="9.341192347028676"><ele>199.0</ele><time>2026-04-20T13:46:24Z</time></trkpt><trkpt lat="45.632202561713925" lon="9.341248557347086"><ele>199.0</ele><time>2026-04-20T13:46:25Z</time></trkpt><trkpt lat="45.63215264403898" lon="9.341345759202948"><ele>199.0</ele><time>2026-04-20T13:46:26Z</time></trkpt><trkpt lat="45.632111534618865" lon="9.341464550463611"><ele>199.0</ele><time>2026-04-20T13:46:27Z</time></trkpt><trkpt lat="45.63206859418398" lon="9.341554079045398"><ele>199.2</ele><time>2026-04-20T13:46:28Z</time></trkpt><trkpt lat="45.632012534964375" lon="9.341632642933048"><ele>199.39999999999998</ele><time>2026-04-20T13:46:29Z</time></trkpt><trkpt lat="45.63193844684899" lon="9.341733231800609"><ele>199.6</ele><time>2026-04-20T13:46:30Z</time></trkpt><trkpt lat="45.631833714915324" lon="9.341861055466095"><ele>199.8</ele><time>2026-04-20T13:46:31Z</time></trkpt><trkpt lat="45.63174459589891" lon="9.341973700265592"><ele>200.0</ele><time>2026-04-20T13:46:32Z</time></trkpt><trkpt lat="45.631650282523815" lon="9.342111803085519"><ele>200.33333333333334</ele><time>2026-04-20T13:46:33Z</time></trkpt><trkpt lat="45.63153164719612" lon="9.342293123966767"><ele>200.66666666666669</ele><time>2026-04-20T13:46:34Z</time></trkpt><trkpt lat="45.6314081843112" lon="9.342452745713098"><ele>201.0</ele><time>2026-04-20T13:46:35Z</time></trkpt><trkpt lat="45.631282370893814" lon="9.342597668255008"><ele>201.0</ele><time>2026-04-20T13:46:36Z</time></trkpt><trkpt lat="45.63116293517787" lon="9.342758394347438"><ele>201.0</ele><time>2026-04-20T13:46:37Z</time></trkpt><trkpt lat="45.63105542564887" lon="9.342907056763542"><ele>201.0</ele><time>2026-04-20T13:46:38Z</time></trkpt><trkpt lat="45.63094343710361" lon="9.343066079249429"><ele>200.75</ele><time>2026-04-20T13:46:39Z</time></trkpt><trkpt lat="45.63084310116933" lon="9.3432134549302"><ele>200.5</ele><time>2026-04-20T13:46:40Z</time></trkpt><trkpt lat="45.63073802831302" lon="9.34336061387614"><ele>200.25</ele><time>2026-04-20T13:46:41Z</time></trkpt><trkpt lat="45.630630549759495" lon="9.343513374987328"><ele>200.0</ele><time>2026-04-20T13:46:42Z</time></trkpt><trkpt lat="45.63052781826228" lon="9.343667972525319"><ele>200.0</ele><time>2026-04-20T13:46:43Z</time></trkpt><trkpt lat="45.63042355738878" lon="9.343810370910324"><ele>200.0</ele><time>2026-04-20T13:46:44Z</time></trkpt><trkpt lat="45.63032882870924" lon="9.3439386450069"><ele>200.0</ele><time>2026-04-20T13:46:45Z</time></trkpt><trkpt lat="45.63023525787185" lon="9.344074049894425"><ele>200.0</ele><time>2026-04-20T13:46:46Z</time></trkpt><trkpt lat="45.630148885701274" lon="9.344220273241705"><ele>200.0</ele><time>2026-04-20T13:46:47Z</time></trkpt><trkpt lat="45.63005105034447" lon="9.344363776210376"><ele>200.0</ele><time>2026-04-20T13:46:47.999Z</time></trkpt><trkpt lat="45.62997654600677" lon="9.344439253541312"><ele>200.0</ele><time>2026-04-20T13:46:48.999Z</time></trkpt><trkpt lat="45.62988306831088" lon="9.344527579312379"><ele>200.0</ele><time>2026-04-20T13:46:49.999Z</time></trkpt><trkpt lat="45.62979939000862" lon="9.344646371016122"><ele>200.0</ele><time>2026-04-20T13:46:50.999Z</time></trkpt><trkpt lat="45.629715771637336" lon="9.344760945270314"><ele>200.0</ele><time>2026-04-20T13:46:51.999Z</time></trkpt><trkpt lat="45.62960866147497" lon="9.344833846990841"><ele>200.0</ele><time>2026-04-20T13:46:52.999Z</time></trkpt><trkpt lat="45.629486979029764" lon="9.344891450577428"><ele>200.0</ele><time>2026-04-20T13:46:53.999Z</time></trkpt><trkpt lat="45.6293667989219" lon="9.344939896775792"><ele>200.25</ele><time>2026-04-20T13:46:54.999Z</time></trkpt><trkpt lat="45.6292587573721" lon="9.344997772209467"><ele>200.5</ele><time>2026-04-20T13:46:55.999Z</time></trkpt><trkpt lat="45.62915391035276" lon="9.345058594526515"><ele>200.75</ele><time>2026-04-20T13:46:56.999Z</time></trkpt><trkpt lat="45.629047323966105" lon="9.3451182656551"><ele>201.0</ele><time>2026-04-20T13:46:57.999Z</time></trkpt><trkpt lat="45.62894642857857" lon="9.345181630330211"><ele>201.0</ele><time>2026-04-20T13:46:58.999Z</time></trkpt><trkpt lat="45.62884921908949" lon="9.34523492003331"><ele>201.0</ele><time>2026-04-20T13:46:59.999Z</time></trkpt><trkpt lat="45.62874543675253" lon="9.345293733101919"><ele>201.0</ele><time>2026-04-20T13:47:00.999Z</time></trkpt><trkpt lat="45.628651043276214" lon="9.34536194612976"><ele>201.0</ele><time>2026-04-20T13:47:01.999Z</time></trkpt><trkpt lat="45.628560206989306" lon="9.345423198843523"><ele>201.0</ele><time>2026-04-20T13:47:02.999Z</time></trkpt><trkpt lat="45.6284805576118" lon="9.345473670347376"><ele>200.83333333333334</ele><time>2026-04-20T13:47:03.999Z</time></trkpt><trkpt lat="45.62839888603073" lon="9.345518607872377"><ele>200.66666666666669</ele><time>2026-04-20T13:47:04.999Z</time></trkpt><trkpt lat="45.628321606341906" lon="9.345558795153408"><ele>200.5</ele><time>2026-04-20T13:47:05.999Z</time></trkpt><trkpt lat="45.62823982769418" lon="9.3456027716951"><ele>200.33333333333334</ele><time>2026-04-20T13:47:06.999Z</time></trkpt><trkpt lat="45.62815897101552" lon="9.34565407585032"><ele>200.16666666666669</ele><time>2026-04-20T13:47:07.999Z</time></trkpt><trkpt lat="45.628067178857215" lon="9.345706082338971"><ele>200.0</ele><time>2026-04-20T13:47:08.999Z</time></trkpt><trkpt lat="45.62796432506918" lon="9.34573738809424"><ele>200.6</ele><time>2026-04-20T13:47:09.999Z</time></trkpt><trkpt lat="45.62790806020691" lon="9.345778914339848"><ele>201.2</ele><time>2026-04-20T13:47:10.999Z</time></trkpt><trkpt lat="45.62783874394027" lon="9.345828009363636"><ele>201.8</ele><time>2026-04-20T13:47:13.999Z</time></trkpt><trkpt lat="45.6278840329252" lon="9.34609901431317"><ele>202.4</ele><time>2026-04-20T13:47:14.999Z</time></trkpt><trkpt lat="45.62788737792752" lon="9.34624530886594"><ele>203.0</ele><time>2026-04-20T13:47:15.999Z</time></trkpt><trkpt lat="45.62790109767125" lon="9.346403126788278"><ele>203.2</ele><time>2026-04-20T13:47:16.999Z</time></trkpt><trkpt lat="45.62790858377613" lon="9.346607955596511"><ele>203.4</ele><time>2026-04-20T13:47:18Z</time></trkpt><trkpt lat="45.62792624955584" lon="9.346784305651903"><ele>203.6</ele><time>2026-04-20T13:47:19Z</time></trkpt><trkpt lat="45.627944186629925" lon="9.346894017645846"><ele>203.79999999999998</ele><time>2026-04-20T13:47:20Z</time></trkpt><trkpt lat="45.627943282618915" lon="9.347008270274312"><ele>204.0</ele><time>2026-04-20T13:47:22Z</time></trkpt><trkpt lat="45.6279465885849" lon="9.347169356256554"><ele>204.0</ele><time>2026-04-20T13:47:25Z</time></trkpt><trkpt lat="45.62797487226192" lon="9.347293281508149"><ele>204.0</ele><time>2026-04-20T13:47:27Z</time></trkpt><trkpt lat="45.6280530702809" lon="9.347396438358563"><ele>204.0</ele><time>2026-04-20T13:47:29Z</time></trkpt><trkpt lat="45.62808504047734" lon="9.34752399856474"><ele>204.0</ele><time>2026-04-20T13:47:31Z</time></trkpt><trkpt lat="45.62808845401816" lon="9.347642843693746"><ele>204.0</ele><time>2026-04-20T13:47:33Z</time></trkpt><trkpt lat="45.62812316411413" lon="9.347739272928175"><ele>204.0</ele><time>2026-04-20T13:47:35Z</time></trkpt><trkpt lat="45.6281317811747" lon="9.347883674350955"><ele>204.0</ele><time>2026-04-20T13:47:37Z</time></trkpt><trkpt lat="45.62813966948274" lon="9.347991090306316"><ele>204.0</ele><time>2026-04-20T13:47:38Z</time></trkpt><trkpt lat="45.6281443556015" lon="9.34817541312454"><ele>204.0</ele><time>2026-04-20T13:47:40Z</time></trkpt><trkpt lat="45.628148913437265" lon="9.348270422733478"><ele>204.0</ele><time>2026-04-20T13:47:43Z</time></trkpt><trkpt lat="45.62816804234756" lon="9.348171952568212"><ele>204.0</ele><time>2026-04-20T13:47:49Z</time></trkpt><trkpt lat="45.628123883843315" lon="9.347972995025465"><ele>204.0</ele><time>2026-04-20T13:47:51Z</time></trkpt><trkpt lat="45.62812453671803" lon="9.347840272671183"><ele>204.0</ele><time>2026-04-20T13:47:52Z</time></trkpt><trkpt lat="45.62810989803273" lon="9.347722614187003"><ele>204.0</ele><time>2026-04-20T13:47:53Z</time></trkpt><trkpt lat="45.62809203272743" lon="9.347616953387185"><ele>204.0</ele><time>2026-04-20T13:47:54Z</time></trkpt><trkpt lat="45.62808232622366" lon="9.347451664307368"><ele>204.0</ele><time>2026-04-20T13:47:56Z</time></trkpt><trkpt lat="45.62806784081092" lon="9.34734046228252"><ele>204.0</ele><time>2026-04-20T13:47:58Z</time></trkpt><trkpt lat="45.62801071836025" lon="9.347295721890607"><ele>204.0</ele><time>2026-04-20T13:48:01Z</time></trkpt><trkpt lat="45.627971864367616" lon="9.347224634072129"><ele>204.0</ele><time>2026-04-20T13:48:06Z</time></trkpt><trkpt lat="45.627925509631375" lon="9.347146023800267"><ele>204.0</ele><time>2026-04-20T13:48:09Z</time></trkpt><trkpt lat="45.62790401690634" lon="9.347049975924746"><ele>204.0</ele><time>2026-04-20T13:48:12Z</time></trkpt><trkpt lat="45.627967228323214" lon="9.34698118368405"><ele>204.0</ele><time>2026-04-20T13:48:16Z</time></trkpt><trkpt lat="45.62797611941172" lon="9.34689049871912"><ele>204.0</ele><time>2026-04-20T13:48:18Z</time></trkpt><trkpt lat="45.62796891326086" lon="9.346797458982014"><ele>204.0</ele><time>2026-04-20T13:48:19Z</time></trkpt><trkpt lat="45.62795180599798" lon="9.346656600951968"><ele>204.0</ele><time>2026-04-20T13:48:20Z</time></trkpt><trkpt lat="45.627941450198826" lon="9.346536660271116"><ele>204.0</ele><time>2026-04-20T13:48:21Z</time></trkpt><trkpt lat="45.627941313476015" lon="9.346423273035263"><ele>204.0</ele><time>2026-04-20T13:48:22Z</time></trkpt><trkpt lat="45.62794408396056" lon="9.346325530918811"><ele>204.0</ele><time>2026-04-20T13:48:23Z</time></trkpt><trkpt lat="45.62794387698852" lon="9.346230896532818"><ele>204.0</ele><time>2026-04-20T13:48:24Z</time></trkpt><trkpt lat="45.62793557913251" lon="9.346118832063704"><ele>204.0</ele><time>2026-04-20T13:48:25Z</time></trkpt><trkpt lat="45.62793683068568" lon="9.345980566858143"><ele>203.83333333333334</ele><time>2026-04-20T13:48:27Z</time></trkpt><trkpt lat="45.62792191928486" lon="9.345886765763149"><ele>203.66666666666669</ele><time>2026-04-20T13:48:31Z</time></trkpt><trkpt lat="45.62785043633579" lon="9.345822763869617"><ele>203.5</ele><time>2026-04-20T13:48:33Z</time></trkpt><trkpt lat="45.62777572578746" lon="9.345855350280026"><ele>203.33333333333334</ele><time>2026-04-20T13:48:34Z</time></trkpt><trkpt lat="45.62771331008423" lon="9.345910626170129"><ele>203.16666666666669</ele><time>2026-04-20T13:48:35Z</time></trkpt><trkpt lat="45.62763025737797" lon="9.345967725026396"><ele>203.0</ele><time>2026-04-20T13:48:36Z</time></trkpt><trkpt lat="45.62751106119804" lon="9.345986600983071"><ele>203.0</ele><time>2026-04-20T13:48:37Z</time></trkpt><trkpt lat="45.627368408835686" lon="9.346060442131607"><ele>203.0</ele><time>2026-04-20T13:48:38Z</time></trkpt><trkpt lat="45.6272043522521" lon="9.34614201664673"><ele>203.0</ele><time>2026-04-20T13:48:39Z</time></trkpt><trkpt lat="45.627062249764755" lon="9.346220751028897"><ele>203.66666666666669</ele><time>2026-04-20T13:48:40Z</time></trkpt><trkpt lat="45.62692432074923" lon="9.346295552664023"><ele>204.33333333333331</ele><time>2026-04-20T13:48:41Z</time></trkpt><trkpt lat="45.62675640538365" lon="9.34638674777034"><ele>205.0</ele><time>2026-04-20T13:48:42Z</time></trkpt><trkpt lat="45.62659529408201" lon="9.346470863822898"><ele>205.0</ele><time>2026-04-20T13:48:43Z</time></trkpt><trkpt lat="45.62644851205469" lon="9.346543673417724"><ele>205.0</ele><time>2026-04-20T13:48:44Z</time></trkpt><trkpt lat="45.62630456917842" lon="9.346619808265238"><ele>205.0</ele><time>2026-04-20T13:48:45Z</time></trkpt><trkpt lat="45.626169453660324" lon="9.346700857391117"><ele>204.75</ele><time>2026-04-20T13:48:46Z</time></trkpt><trkpt lat="45.62604708464065" lon="9.346777917844534"><ele>204.5</ele><time>2026-04-20T13:48:47Z</time></trkpt><trkpt lat="45.62592366891832" lon="9.346870480411965"><ele>204.25</ele><time>2026-04-20T13:48:48Z</time></trkpt><trkpt lat="45.62581175721307" lon="9.346961212269091"><ele>204.0</ele><time>2026-04-20T13:48:49Z</time></trkpt><trkpt lat="45.625731645944754" lon="9.347040996311584"><ele>204.0</ele><time>2026-04-20T13:48:50Z</time></trkpt><trkpt lat="45.625675814232125" lon="9.347098093878564"><ele>204.0</ele><time>2026-04-20T13:48:51Z</time></trkpt><trkpt lat="45.62560199388957" lon="9.347157412715065"><ele>204.0</ele><time>2026-04-20T13:48:53Z</time></trkpt><trkpt lat="45.625480814945455" lon="9.347251920531534"><ele>204.0</ele><time>2026-04-20T13:48:56.999Z</time></trkpt><trkpt lat="45.62537059792762" lon="9.347320803655164"><ele>204.0</ele><time>2026-04-20T13:48:57.999Z</time></trkpt><trkpt lat="45.62526563641962" lon="9.347424616543377"><ele>202.33333333333331</ele><time>2026-04-20T13:48:58.999Z</time></trkpt><trkpt lat="45.62512063433714" lon="9.347557545094888"><ele>200.66666666666666</ele><time>2026-04-20T13:48:59.999Z</time></trkpt><trkpt lat="45.62495487398195" lon="9.34769151975753"><ele>199.0</ele><time>2026-04-20T13:49:00.999Z</time></trkpt><trkpt lat="45.62482549577984" lon="9.347832048694917"><ele>199.0</ele><time>2026-04-20T13:49:02.999Z</time></trkpt><trkpt lat="45.624691287735345" lon="9.347950909055777"><ele>199.0</ele><time>2026-04-20T13:49:03.999Z</time></trkpt><trkpt lat="45.624560795884186" lon="9.348062707363026"><ele>199.0</ele><time>2026-04-20T13:49:04.999Z</time></trkpt><trkpt lat="45.62443020201899" lon="9.348167360824178"><ele>198.33333333333331</ele><time>2026-04-20T13:49:05.999Z</time></trkpt><trkpt lat="45.62428942704485" lon="9.348267683643408"><ele>197.66666666666669</ele><time>2026-04-20T13:49:06.999Z</time></trkpt><trkpt lat="45.62413270780373" lon="9.348364200223743"><ele>197.0</ele><time>2026-04-20T13:49:07.999Z</time></trkpt><trkpt lat="45.6239513775995" lon="9.348449464433381"><ele>197.0</ele><time>2026-04-20T13:49:08.999Z</time></trkpt><trkpt lat="45.623793000310975" lon="9.34852047128645"><ele>197.0</ele><time>2026-04-20T13:49:09.999Z</time></trkpt><trkpt lat="45.62363380419129" lon="9.34858471227946"><ele>197.0</ele><time>2026-04-20T13:49:10.999Z</time></trkpt><trkpt lat="45.62348979048562" lon="9.348647393277533"><ele>196.66666666666669</ele><time>2026-04-20T13:49:11.999Z</time></trkpt><trkpt lat="45.62335870133164" lon="9.348710786545373"><ele>196.33333333333331</ele><time>2026-04-20T13:49:12.999Z</time></trkpt><trkpt lat="45.623212434639605" lon="9.348779692405927"><ele>196.0</ele><time>2026-04-20T13:49:13.999Z</time></trkpt><trkpt lat="45.62305373075862" lon="9.348855845975896"><ele>196.0</ele><time>2026-04-20T13:49:14.999Z</time></trkpt><trkpt lat="45.62291760004408" lon="9.348922216269642"><ele>196.0</ele><time>2026-04-20T13:49:15.999Z</time></trkpt><trkpt lat="45.62278640382394" lon="9.348979740329087"><ele>196.0</ele><time>2026-04-20T13:49:16.999Z</time></trkpt><trkpt lat="45.62266409579567" lon="9.349031931758743"><ele>196.0</ele><time>2026-04-20T13:49:17.999Z</time></trkpt><trkpt lat="45.62256017622852" lon="9.349076603318684"><ele>195.99999999999997</ele><time>2026-04-20T13:49:18.999Z</time></trkpt><trkpt lat="45.62246370443809" lon="9.349122186130545"><ele>196.0</ele><time>2026-04-20T13:49:19.999Z</time></trkpt><trkpt lat="45.62238392989539" lon="9.349147843629806"><ele>196.0</ele><time>2026-04-20T13:49:20.999Z</time></trkpt><trkpt lat="45.62231819646964" lon="9.349167410404835"><ele>196.0</ele><time>2026-04-20T13:49:24Z</time></trkpt><trkpt lat="45.622398183217356" lon="9.34915990367089"><ele>195.99999999999997</ele><time>2026-04-20T13:49:29Z</time></trkpt><trkpt lat="45.62242248500979" lon="9.349000030023154"><ele>196.0</ele><time>2026-04-20T13:49:31Z</time></trkpt><trkpt lat="45.62246503360104" lon="9.348912679957015"><ele>196.0</ele><time>2026-04-20T13:49:32Z</time></trkpt><trkpt lat="45.622711119096095" lon="9.349042536837494"><ele>196.0</ele><time>2026-04-20T13:49:33Z</time></trkpt><trkpt lat="45.622757144132635" lon="9.34911987804585"><ele>196.0</ele><time>2026-04-20T13:49:35Z</time></trkpt><trkpt lat="45.622763234983616" lon="9.349330186765226"><ele>196.0</ele><time>2026-04-20T13:49:37Z</time></trkpt><trkpt lat="45.62276936228465" lon="9.34948331784833"><ele>196.0</ele><time>2026-04-20T13:49:38Z</time></trkpt><trkpt lat="45.6227930812042" lon="9.349677813740465"><ele>196.0</ele><time>2026-04-20T13:49:39Z</time></trkpt><trkpt lat="45.62281483082776" lon="9.349883180688156"><ele>196.0</ele><time>2026-04-20T13:49:40Z</time></trkpt><trkpt lat="45.62282988980656" lon="9.350089208496499"><ele>196.8</ele><time>2026-04-20T13:49:41Z</time></trkpt><trkpt lat="45.62284010711065" lon="9.350265270905112"><ele>197.60000000000002</ele><time>2026-04-20T13:49:42Z</time></trkpt><trkpt lat="45.62284813746521" lon="9.350394660242715"><ele>198.4</ele><time>2026-04-20T13:49:43Z</time></trkpt><trkpt lat="45.62286651916245" lon="9.350520854044861"><ele>199.2</ele><time>2026-04-20T13:49:44Z</time></trkpt><trkpt lat="45.62288085705069" lon="9.35066886122003"><ele>200.0</ele><time>2026-04-20T13:49:45Z</time></trkpt><trkpt lat="45.62288377842697" lon="9.350805059883793"><ele>200.0</ele><time>2026-04-20T13:49:46Z</time></trkpt><trkpt lat="45.622902711219346" lon="9.35094022670747"><ele>200.0</ele><time>2026-04-20T13:49:47Z</time></trkpt><trkpt lat="45.622924201346066" lon="9.351102389639632"><ele>200.0</ele><time>2026-04-20T13:49:48Z</time></trkpt><trkpt lat="45.62293772700818" lon="9.351265746302703"><ele>200.0</ele><time>2026-04-20T13:49:49Z</time></trkpt><trkpt lat="45.62297393969359" lon="9.351421541740509"><ele>200.0</ele><time>2026-04-20T13:49:50Z</time></trkpt><trkpt lat="45.622973629491334" lon="9.351582336497001"><ele>199.6</ele><time>2026-04-20T13:49:51Z</time></trkpt><trkpt lat="45.62298984270261" lon="9.351745248632325"><ele>199.2</ele><time>2026-04-20T13:49:52Z</time></trkpt><trkpt lat="45.623020911788664" lon="9.351905569801666"><ele>198.8</ele><time>2026-04-20T13:49:53Z</time></trkpt><trkpt lat="45.623043101032" lon="9.352058536345282"><ele>198.4</ele><time>2026-04-20T13:49:54Z</time></trkpt><trkpt lat="45.62306149782512" lon="9.352192800120541"><ele>198.0</ele><time>2026-04-20T13:49:55Z</time></trkpt><trkpt lat="45.623057356506536" lon="9.35231861829969"><ele>198.0</ele><time>2026-04-20T13:49:56Z</time></trkpt><trkpt lat="45.6230833335369" lon="9.352424933208038"><ele>198.0</ele><time>2026-04-20T13:49:57Z</time></trkpt><trkpt lat="45.62307647811711" lon="9.352547876106959"><ele>198.0</ele><time>2026-04-20T13:49:58Z</time></trkpt><trkpt lat="45.623076392635234" lon="9.352661364585913"><ele>198.0</ele><time>2026-04-20T13:49:59Z</time></trkpt><trkpt lat="45.6230960602599" lon="9.352804066373878"><ele>198.0</ele><time>2026-04-20T13:50:01Z</time></trkpt><trkpt lat="45.62312780866979" lon="9.352911016811142"><ele>198.0</ele><time>2026-04-20T13:50:05Z</time></trkpt><trkpt lat="45.62328390722175" lon="9.352951921610586"><ele>198.0</ele><time>2026-04-20T13:50:07Z</time></trkpt><trkpt lat="45.62334866071082" lon="9.35293496553396"><ele>198.0</ele><time>2026-04-20T13:50:08Z</time></trkpt><trkpt lat="45.623455150243856" lon="9.352946535035645"><ele>198.0</ele><time>2026-04-20T13:50:09Z</time></trkpt><trkpt lat="45.623574080605245" lon="9.35293012243402"><ele>198.0</ele><time>2026-04-20T13:50:10Z</time></trkpt><trkpt lat="45.6237127209933" lon="9.352952442096633"><ele>198.0</ele><time>2026-04-20T13:50:11Z</time></trkpt><trkpt lat="45.62385698475357" lon="9.352965414703583"><ele>198.5</ele><time>2026-04-20T13:50:12Z</time></trkpt><trkpt lat="45.62399146878102" lon="9.352958218318001"><ele>199.0</ele><time>2026-04-20T13:50:13Z</time></trkpt><trkpt lat="45.62410985745269" lon="9.35296808536217"><ele>199.5</ele><time>2026-04-20T13:50:14Z</time></trkpt><trkpt lat="45.62421491448119" lon="9.35296454763309"><ele>200.0</ele><time>2026-04-20T13:50:15Z</time></trkpt><trkpt lat="45.62433260474266" lon="9.35293802089036"><ele>200.0</ele><time>2026-04-20T13:50:16Z</time></trkpt><trkpt lat="45.62442477809586" lon="9.352901586316637"><ele>200.0</ele><time>2026-04-20T13:50:17Z</time></trkpt><trkpt lat="45.62450610172196" lon="9.352864162554397"><ele>200.0</ele><time>2026-04-20T13:50:18Z</time></trkpt><trkpt lat="45.62460045720016" lon="9.352829549684051"><ele>200.0</ele><time>2026-04-20T13:50:20Z</time></trkpt><trkpt lat="45.624724871261584" lon="9.352849036551056"><ele>200.0</ele><time>2026-04-20T13:50:22Z</time></trkpt><trkpt lat="45.62481982341994" lon="9.352864559790161"><ele>199.8</ele><time>2026-04-20T13:50:23Z</time></trkpt><trkpt lat="45.62493088239783" lon="9.352858696266399"><ele>199.6</ele><time>2026-04-20T13:50:24Z</time></trkpt><trkpt lat="45.62502151252248" lon="9.352887309633143"><ele>199.39999999999998</ele><time>2026-04-20T13:50:25Z</time></trkpt><trkpt lat="45.62512669230653" lon="9.352878667948842"><ele>199.2</ele><time>2026-04-20T13:50:26Z</time></trkpt><trkpt lat="45.625237213986125" lon="9.352888030930783"><ele>199.0</ele><time>2026-04-20T13:50:27Z</time></trkpt><trkpt lat="45.62536290215561" lon="9.35289925574625"><ele>198.6</ele><time>2026-04-20T13:50:28Z</time></trkpt><trkpt lat="45.62548412535209" lon="9.352908862474218"><ele>198.2</ele><time>2026-04-20T13:50:29Z</time></trkpt><trkpt lat="45.62559043982344" lon="9.352919847199392"><ele>197.79999999999998</ele><time>2026-04-20T13:50:30Z</time></trkpt><trkpt lat="45.625699715328246" lon="9.352933625769412"><ele>197.39999999999998</ele><time>2026-04-20T13:50:31Z</time></trkpt><trkpt lat="45.625802810105064" lon="9.352951525733355"><ele>197.0</ele><time>2026-04-20T13:50:32Z</time></trkpt><trkpt lat="45.62591115889336" lon="9.352941074380167"><ele>197.0</ele><time>2026-04-20T13:50:33Z</time></trkpt><trkpt lat="45.62601528626622" lon="9.352968843199015"><ele>197.0</ele><time>2026-04-20T13:50:34Z</time></trkpt><trkpt lat="45.62611880580073" lon="9.35295700309295"><ele>197.0</ele><time>2026-04-20T13:50:35Z</time></trkpt><trkpt lat="45.626212572674106" lon="9.352962908256016"><ele>197.0</ele><time>2026-04-20T13:50:36Z</time></trkpt><trkpt lat="45.626308301835785" lon="9.35297201992288"><ele>197.0</ele><time>2026-04-20T13:50:37Z</time></trkpt><trkpt lat="45.626404200732416" lon="9.352986188379239"><ele>197.75</ele><time>2026-04-20T13:50:38Z</time></trkpt><trkpt lat="45.62652661755069" lon="9.3530137694633"><ele>198.5</ele><time>2026-04-20T13:50:39Z</time></trkpt><trkpt lat="45.62666661718969" lon="9.3530111782811"><ele>199.25</ele><time>2026-04-20T13:50:40Z</time></trkpt><trkpt lat="45.62681574816729" lon="9.353032368509872"><ele>200.0</ele><time>2026-04-20T13:50:41Z</time></trkpt><trkpt lat="45.62699242952786" lon="9.353043789696423"><ele>201.0</ele><time>2026-04-20T13:50:42Z</time></trkpt><trkpt lat="45.627170922006506" lon="9.353049403740998"><ele>202.0</ele><time>2026-04-20T13:50:43Z</time></trkpt><trkpt lat="45.627327809206584" lon="9.353058078932753"><ele>203.0</ele><time>2026-04-20T13:50:44Z</time></trkpt><trkpt lat="45.62747136852906" lon="9.353070803051368"><ele>203.0</ele><time>2026-04-20T13:50:45Z</time></trkpt><trkpt lat="45.62763758159908" lon="9.353110584731288"><ele>203.0</ele><time>2026-04-20T13:50:46Z</time></trkpt><trkpt lat="45.62781685314903" lon="9.353172921947786"><ele>203.0</ele><time>2026-04-20T13:50:47Z</time></trkpt><trkpt lat="45.628010527023314" lon="9.3532472082253"><ele>202.66666666666669</ele><time>2026-04-20T13:50:48Z</time></trkpt><trkpt lat="45.62821929768518" lon="9.353310076574259"><ele>202.33333333333331</ele><time>2026-04-20T13:50:49Z</time></trkpt><trkpt lat="45.62843940622363" lon="9.353349685808197"><ele>202.0</ele><time>2026-04-20T13:50:50Z</time></trkpt><trkpt lat="45.62863424241972" lon="9.353399809004205"><ele>202.33333333333331</ele><time>2026-04-20T13:50:51Z</time></trkpt><trkpt lat="45.62882447789841" lon="9.353430640472174"><ele>202.66666666666669</ele><time>2026-04-20T13:50:52Z</time></trkpt><trkpt lat="45.62899855667869" lon="9.353456042575756"><ele>203.0</ele><time>2026-04-20T13:50:53Z</time></trkpt><trkpt lat="45.62916517398386" lon="9.353469572827533"><ele>203.0</ele><time>2026-04-20T13:50:54Z</time></trkpt><trkpt lat="45.629319718186565" lon="9.353489765604902"><ele>203.0</ele><time>2026-04-20T13:50:55Z</time></trkpt><trkpt lat="45.62949692973452" lon="9.353503753309017"><ele>203.0</ele><time>2026-04-20T13:50:56Z</time></trkpt><trkpt lat="45.62968805622213" lon="9.353508777489676"><ele>203.66666666666669</ele><time>2026-04-20T13:50:57Z</time></trkpt><trkpt lat="45.629884549123005" lon="9.353504385057027"><ele>204.33333333333331</ele><time>2026-04-20T13:50:58Z</time></trkpt><trkpt lat="45.63005610141067" lon="9.353479314162586"><ele>205.0</ele><time>2026-04-20T13:50:59Z</time></trkpt><trkpt lat="45.63019622549513" lon="9.353488733022502"><ele>205.33333333333331</ele><time>2026-04-20T13:51:00Z</time></trkpt><trkpt lat="45.63031505117406" lon="9.353480166193389"><ele>205.66666666666666</ele><time>2026-04-20T13:51:01Z</time></trkpt><trkpt lat="45.630399246760085" lon="9.353460296195882"><ele>206.0</ele><time>2026-04-20T13:51:02Z</time></trkpt><trkpt lat="45.63047408591873" lon="9.353437864812838"><ele>206.33333333333331</ele><time>2026-04-20T13:51:03Z</time></trkpt><trkpt lat="45.63055050485619" lon="9.35343562040597"><ele>206.66666666666666</ele><time>2026-04-20T13:51:04Z</time></trkpt><trkpt lat="45.630629166538164" lon="9.353430993904233"><ele>207.0</ele><time>2026-04-20T13:51:05Z</time></trkpt><trkpt lat="45.63069954863931" lon="9.35342793848658"><ele>207.0</ele><time>2026-04-20T13:51:06Z</time></trkpt><trkpt lat="45.63082602542869" lon="9.353421352594744"><ele>207.0</ele><time>2026-04-20T13:51:08Z</time></trkpt><trkpt lat="45.63095718445025" lon="9.353419261663849"><ele>207.0</ele><time>2026-04-20T13:51:10Z</time></trkpt><trkpt lat="45.631051065209114" lon="9.353442052715518"><ele>207.0</ele><time>2026-04-20T13:51:11Z</time></trkpt><trkpt lat="45.63114937898806" lon="9.353444584146557"><ele>207.39999999999998</ele><time>2026-04-20T13:51:12Z</time></trkpt><trkpt lat="45.63124781210439" lon="9.353451796652209"><ele>207.79999999999998</ele><time>2026-04-20T13:51:13Z</time></trkpt><trkpt lat="45.631340065060996" lon="9.353481616488367"><ele>208.2</ele><time>2026-04-20T13:51:14Z</time></trkpt><trkpt lat="45.631432275285945" lon="9.353551966276507"><ele>208.6</ele><time>2026-04-20T13:51:15Z</time></trkpt><trkpt lat="45.6315354048586" lon="9.353652851453777"><ele>209.0</ele><time>2026-04-20T13:51:16Z</time></trkpt><trkpt lat="45.631648575868205" lon="9.353765158859689"><ele>209.66666666666669</ele><time>2026-04-20T13:51:17Z</time></trkpt><trkpt lat="45.63174115958313" lon="9.353953502057111"><ele>210.33333333333331</ele><time>2026-04-20T13:51:18Z</time></trkpt><trkpt lat="45.63185319864853" lon="9.35415446307158"><ele>211.0</ele><time>2026-04-20T13:51:19Z</time></trkpt><trkpt lat="45.63195323630568" lon="9.354336988408303"><ele>211.0</ele><time>2026-04-20T13:51:20Z</time></trkpt><trkpt lat="45.63205605292434" lon="9.354497190493626"><ele>211.0</ele><time>2026-04-20T13:51:21Z</time></trkpt><trkpt lat="45.63213954040099" lon="9.354620265884282"><ele>211.0</ele><time>2026-04-20T13:51:22Z</time></trkpt><trkpt lat="45.63223563439712" lon="9.354760726256467"><ele>211.0</ele><time>2026-04-20T13:51:24Z</time></trkpt><trkpt lat="45.63230967015041" lon="9.35485279969763"><ele>210.83333333333331</ele><time>2026-04-20T13:51:26Z</time></trkpt><trkpt lat="45.63235274042752" lon="9.3549271044672"><ele>210.66666666666666</ele><time>2026-04-20T13:51:28Z</time></trkpt><trkpt lat="45.63233839134047" lon="9.355073714515544"><ele>210.5</ele><time>2026-04-20T13:51:31Z</time></trkpt><trkpt lat="45.63228333017684" lon="9.355189228883223"><ele>210.33333333333331</ele><time>2026-04-20T13:51:33Z</time></trkpt><trkpt lat="45.63226654854187" lon="9.35528898972181"><ele>210.16666666666666</ele><time>2026-04-20T13:51:35Z</time></trkpt><trkpt lat="45.63232496257951" lon="9.355344801419085"><ele>210.0</ele><time>2026-04-20T13:51:36Z</time></trkpt><trkpt lat="45.632406871611316" lon="9.355331641799634"><ele>210.0</ele><time>2026-04-20T13:51:37Z</time></trkpt><trkpt lat="45.63247380598302" lon="9.355331949879186"><ele>210.0</ele><time>2026-04-20T13:51:38Z</time></trkpt><trkpt lat="45.6325430220751" lon="9.355348391270729"><ele>210.0</ele><time>2026-04-20T13:51:41Z</time></trkpt><trkpt lat="45.63253498142259" lon="9.355504734307132"><ele>210.0</ele><time>2026-04-20T13:51:42Z</time></trkpt><trkpt lat="45.632525292294666" lon="9.355640037951417"><ele>210.0</ele><time>2026-04-20T13:51:43Z</time></trkpt><trkpt lat="45.632516101660485" lon="9.355792045885144"><ele>210.0</ele><time>2026-04-20T13:51:44Z</time></trkpt><trkpt lat="45.63250870831215" lon="9.355972559173656"><ele>209.33333333333331</ele><time>2026-04-20T13:51:45Z</time></trkpt><trkpt lat="45.63249895998585" lon="9.356166286366774"><ele>208.66666666666666</ele><time>2026-04-20T13:51:46Z</time></trkpt><trkpt lat="45.63248305945675" lon="9.356385673584738"><ele>208.0</ele><time>2026-04-20T13:51:47Z</time></trkpt><trkpt lat="45.632471253551785" lon="9.356622771367727"><ele>208.0</ele><time>2026-04-20T13:51:48Z</time></trkpt><trkpt lat="45.63245531060849" lon="9.356857754831038"><ele>208.0</ele><time>2026-04-20T13:51:49Z</time></trkpt><trkpt lat="45.63244682301894" lon="9.357082559396254"><ele>208.0</ele><time>2026-04-20T13:51:50Z</time></trkpt><trkpt lat="45.63243550303594" lon="9.35730818760576"><ele>207.66666666666666</ele><time>2026-04-20T13:51:51Z</time></trkpt><trkpt lat="45.632424765254335" lon="9.357544884809572"><ele>207.33333333333331</ele><time>2026-04-20T13:51:52Z</time></trkpt><trkpt lat="45.63241076802555" lon="9.357769985096635"><ele>207.0</ele><time>2026-04-20T13:51:53Z</time></trkpt><trkpt lat="45.63239575306987" lon="9.357996121650572"><ele>207.25</ele><time>2026-04-20T13:51:54Z</time></trkpt><trkpt lat="45.632383782400666" lon="9.358204884022822"><ele>207.5</ele><time>2026-04-20T13:51:55Z</time></trkpt><trkpt lat="45.632392854656764" lon="9.358411017258343"><ele>207.75</ele><time>2026-04-20T13:51:56Z</time></trkpt><trkpt lat="45.63236953760412" lon="9.358628420176968"><ele>208.0</ele><time>2026-04-20T13:51:57Z</time></trkpt><trkpt lat="45.632357629726755" lon="9.358840178649762"><ele>208.33333333333331</ele><time>2026-04-20T13:51:58Z</time></trkpt><trkpt lat="45.63234942117022" lon="9.359058523545128"><ele>208.66666666666669</ele><time>2026-04-20T13:51:59Z</time></trkpt><trkpt lat="45.63233796572811" lon="9.359276356373234"><ele>209.0</ele><time>2026-04-20T13:52:00Z</time></trkpt><trkpt lat="45.632328084001855" lon="9.359485422916663"><ele>208.66666666666669</ele><time>2026-04-20T13:52:01Z</time></trkpt><trkpt lat="45.63232022618151" lon="9.359702770279636"><ele>208.33333333333331</ele><time>2026-04-20T13:52:02Z</time></trkpt><trkpt lat="45.63231842056524" lon="9.359932421329907"><ele>208.0</ele><time>2026-04-20T13:52:03Z</time></trkpt><trkpt lat="45.63229979116121" lon="9.360154294478182"><ele>208.0</ele><time>2026-04-20T13:52:04Z</time></trkpt><trkpt lat="45.632289977893855" lon="9.360338108982518"><ele>208.0</ele><time>2026-04-20T13:52:05Z</time></trkpt><trkpt lat="45.632307779160314" lon="9.36050470665579"><ele>208.0</ele><time>2026-04-20T13:52:06Z</time></trkpt><trkpt lat="45.632368865336424" lon="9.360665853587692"><ele>208.0</ele><time>2026-04-20T13:52:07Z</time></trkpt><trkpt lat="45.63246776319879" lon="9.360791049946862"><ele>208.4</ele><time>2026-04-20T13:52:08Z</time></trkpt><trkpt lat="45.632567656216466" lon="9.360910816301045"><ele>208.8</ele><time>2026-04-20T13:52:09Z</time></trkpt><trkpt lat="45.63265438294006" lon="9.361026662066916"><ele>209.2</ele><time>2026-04-20T13:52:10Z</time></trkpt><trkpt lat="45.632724782151215" lon="9.36111680374676"><ele>209.6</ele><time>2026-04-20T13:52:11Z</time></trkpt><trkpt lat="45.63279013804966" lon="9.36120892026216"><ele>210.0</ele><time>2026-04-20T13:52:12Z</time></trkpt><trkpt lat="45.632854041902704" lon="9.361266228436193"><ele>210.25</ele><time>2026-04-20T13:52:13Z</time></trkpt><trkpt lat="45.63290588883158" lon="9.3613405259824"><ele>210.5</ele><time>2026-04-20T13:52:14Z</time></trkpt><trkpt lat="45.63298303325963" lon="9.36165311568681"><ele>210.75</ele><time>2026-04-20T13:52:19Z</time></trkpt><trkpt lat="45.633000801293086" lon="9.361796272559983"><ele>211.0</ele><time>2026-04-20T13:52:20Z</time></trkpt><trkpt lat="45.633003230194575" lon="9.361973840432755"><ele>211.33333333333331</ele><time>2026-04-20T13:52:21Z</time></trkpt><trkpt lat="45.63299474157235" lon="9.362197458521743"><ele>211.66666666666669</ele><time>2026-04-20T13:52:22Z</time></trkpt><trkpt lat="45.63297499772916" lon="9.362419605526657"><ele>212.0</ele><time>2026-04-20T13:52:23Z</time></trkpt><trkpt lat="45.63294828132104" lon="9.362617420796683"><ele>212.0</ele><time>2026-04-20T13:52:24Z</time></trkpt><trkpt lat="45.63293047141689" lon="9.362860932837663"><ele>212.0</ele><time>2026-04-20T13:52:25Z</time></trkpt><trkpt lat="45.63290542045279" lon="9.36307012925659"><ele>212.0</ele><time>2026-04-20T13:52:26Z</time></trkpt><trkpt lat="45.63288099607565" lon="9.363251814542162"><ele>212.0</ele><time>2026-04-20T13:52:27Z</time></trkpt><trkpt lat="45.63285827801576" lon="9.363436773325533"><ele>212.0</ele><time>2026-04-20T13:52:28Z</time></trkpt><trkpt lat="45.632834881137065" lon="9.36362835795816"><ele>212.0</ele><time>2026-04-20T13:52:29Z</time></trkpt><trkpt lat="45.632813923256705" lon="9.363799305047223"><ele>212.0</ele><time>2026-04-20T13:52:30Z</time></trkpt><trkpt lat="45.632789157890954" lon="9.363952034350772"><ele>212.0</ele><time>2026-04-20T13:52:31Z</time></trkpt><trkpt lat="45.632755339634464" lon="9.364111476497857"><ele>211.25</ele><time>2026-04-20T13:52:32Z</time></trkpt><trkpt lat="45.63270821159028" lon="9.364309617284848"><ele>210.5</ele><time>2026-04-20T13:52:33Z</time></trkpt><trkpt lat="45.63266450138012" lon="9.364510978084077"><ele>209.75</ele><time>2026-04-20T13:52:34Z</time></trkpt><trkpt lat="45.63267404822499" lon="9.364711215376465"><ele>209.0</ele><time>2026-04-20T13:52:35Z</time></trkpt><trkpt lat="45.63266856780719" lon="9.364902368770316"><ele>209.0</ele><time>2026-04-20T13:52:36Z</time></trkpt><trkpt lat="45.63270329141212" lon="9.365099290436486"><ele>209.0</ele><time>2026-04-20T13:52:37Z</time></trkpt><trkpt lat="45.632772139999574" lon="9.365272709935628"><ele>209.0</ele><time>2026-04-20T13:52:38Z</time></trkpt><trkpt lat="45.632789610076436" lon="9.365478383515418"><ele>209.0</ele><time>2026-04-20T13:52:39Z</time></trkpt><trkpt lat="45.63282226606099" lon="9.365637164540798"><ele>209.2</ele><time>2026-04-20T13:52:40Z</time></trkpt><trkpt lat="45.63284556941192" lon="9.365776336255529"><ele>209.39999999999998</ele><time>2026-04-20T13:52:41Z</time></trkpt><trkpt lat="45.63287489391158" lon="9.36590858388751"><ele>209.6</ele><time>2026-04-20T13:52:42Z</time></trkpt><trkpt lat="45.63290280127161" lon="9.366056115863229"><ele>209.8</ele><time>2026-04-20T13:52:43Z</time></trkpt><trkpt lat="45.632927133862026" lon="9.366201198870339"><ele>210.0</ele><time>2026-04-20T13:52:44Z</time></trkpt><trkpt lat="45.6329556077892" lon="9.366356672651465"><ele>209.6</ele><time>2026-04-20T13:52:45Z</time></trkpt><trkpt lat="45.63298317963262" lon="9.366522491001136"><ele>209.2</ele><time>2026-04-20T13:52:46Z</time></trkpt><trkpt lat="45.63301387700234" lon="9.366679385540063"><ele>208.8</ele><time>2026-04-20T13:52:47Z</time></trkpt><trkpt lat="45.63304782766377" lon="9.366824172396864"><ele>208.4</ele><time>2026-04-20T13:52:48Z</time></trkpt><trkpt lat="45.63307785947862" lon="9.366952324207425"><ele>208.0</ele><time>2026-04-20T13:52:49Z</time></trkpt><trkpt lat="45.63310422276002" lon="9.367064146686056"><ele>208.0</ele><time>2026-04-20T13:52:50Z</time></trkpt><trkpt lat="45.63311025816159" lon="9.367180997546141"><ele>208.0</ele><time>2026-04-20T13:52:51Z</time></trkpt><trkpt lat="45.633142841245466" lon="9.367265605621329"><ele>208.0</ele><time>2026-04-20T13:52:52Z</time></trkpt><trkpt lat="45.63310914388419" lon="9.367390002853554"><ele>208.0</ele><time>2026-04-20T13:52:53Z</time></trkpt><trkpt lat="45.63306797654543" lon="9.367495886483265"><ele>208.0</ele><time>2026-04-20T13:52:54Z</time></trkpt><trkpt lat="45.63292197267988" lon="9.367536373317915"><ele>208.0</ele><time>2026-04-20T13:52:55Z</time></trkpt><trkpt lat="45.63279523114497" lon="9.367619700931519"><ele>208.0</ele><time>2026-04-20T13:52:56Z</time></trkpt><trkpt lat="45.63267121910597" lon="9.367687244021225"><ele>208.0</ele><time>2026-04-20T13:52:57Z</time></trkpt><trkpt lat="45.63254115945106" lon="9.367762721075724"><ele>208.0</ele><time>2026-04-20T13:52:58Z</time></trkpt><trkpt lat="45.63240459495066" lon="9.367839468087478"><ele>208.0</ele><time>2026-04-20T13:52:59Z</time></trkpt><trkpt lat="45.632275771266116" lon="9.367919417776726"><ele>208.0</ele><time>2026-04-20T13:53:00Z</time></trkpt><trkpt lat="45.6321504405093" lon="9.367992026485135"><ele>208.0</ele><time>2026-04-20T13:53:01Z</time></trkpt><trkpt lat="45.63201989407391" lon="9.368057900693906"><ele>208.0</ele><time>2026-04-20T13:53:02Z</time></trkpt><trkpt lat="45.63188336261445" lon="9.368125315202613"><ele>208.0</ele><time>2026-04-20T13:53:03Z</time></trkpt><trkpt lat="45.631748103148176" lon="9.36819481818202"><ele>208.0</ele><time>2026-04-20T13:53:04Z</time></trkpt><trkpt lat="45.63160946841763" lon="9.368265622064465"><ele>208.0</ele><time>2026-04-20T13:53:05Z</time></trkpt><trkpt lat="45.63147825515771" lon="9.36833449956706"><ele>208.0</ele><time>2026-04-20T13:53:06Z</time></trkpt><trkpt lat="45.631342552756315" lon="9.368399549951802"><ele>208.0</ele><time>2026-04-20T13:53:07Z</time></trkpt><trkpt lat="45.631213721755614" lon="9.368451159356212"><ele>208.0</ele><time>2026-04-20T13:53:08Z</time></trkpt><trkpt lat="45.63107670956479" lon="9.368493411852631"><ele>208.0</ele><time>2026-04-20T13:53:09Z</time></trkpt><trkpt lat="45.63093798939908" lon="9.368531523798715"><ele>208.0</ele><time>2026-04-20T13:53:10Z</time></trkpt><trkpt lat="45.6308061013875" lon="9.368572384063585"><ele>207.75</ele><time>2026-04-20T13:53:11Z</time></trkpt><trkpt lat="45.63067863231241" lon="9.368612529823073"><ele>207.5</ele><time>2026-04-20T13:53:12Z</time></trkpt><trkpt lat="45.63055873659812" lon="9.368657422045795"><ele>207.25</ele><time>2026-04-20T13:53:13Z</time></trkpt><trkpt lat="45.63042667488454" lon="9.36869738768675"><ele>207.0</ele><time>2026-04-20T13:53:14Z</time></trkpt><trkpt lat="45.63029528190511" lon="9.368727880071765"><ele>206.75</ele><time>2026-04-20T13:53:15Z</time></trkpt><trkpt lat="45.630172848719155" lon="9.368743137202529"><ele>206.5</ele><time>2026-04-20T13:53:16Z</time></trkpt><trkpt lat="45.630025844563605" lon="9.368740530875215"><ele>206.25</ele><time>2026-04-20T13:53:17Z</time></trkpt><trkpt lat="45.62988207762047" lon="9.368727698321615"><ele>206.0</ele><time>2026-04-20T13:53:18Z</time></trkpt><trkpt lat="45.62974328668357" lon="9.368723880104795"><ele>206.0</ele><time>2026-04-20T13:53:19Z</time></trkpt><trkpt lat="45.629614976475246" lon="9.368709775317313"><ele>206.0</ele><time>2026-04-20T13:53:20Z</time></trkpt><trkpt lat="45.62944441763823" lon="9.368678762739144"><ele>206.0</ele><time>2026-04-20T13:53:21Z</time></trkpt><trkpt lat="45.629302481998714" lon="9.368661115150706"><ele>206.0</ele><time>2026-04-20T13:53:22Z</time></trkpt><trkpt lat="45.629160875821654" lon="9.368649048996595"><ele>205.75</ele><time>2026-04-20T13:53:23Z</time></trkpt><trkpt lat="45.62901529139787" lon="9.368650035349795"><ele>205.5</ele><time>2026-04-20T13:53:24Z</time></trkpt><trkpt lat="45.62886599878895" lon="9.368657029173566"><ele>205.25</ele><time>2026-04-20T13:53:25Z</time></trkpt><trkpt lat="45.62872131926246" lon="9.368675721586762"><ele>205.0</ele><time>2026-04-20T13:53:26Z</time></trkpt><trkpt lat="45.62856046742237" lon="9.368692687677232"><ele>205.66666666666666</ele><time>2026-04-20T13:53:27Z</time></trkpt><trkpt lat="45.628403325815654" lon="9.368717985165615"><ele>206.33333333333331</ele><time>2026-04-20T13:53:28Z</time></trkpt><trkpt lat="45.628249230768375" lon="9.368769323976396"><ele>207.0</ele><time>2026-04-20T13:53:29Z</time></trkpt><trkpt lat="45.62810805455212" lon="9.368780322676113"><ele>207.0</ele><time>2026-04-20T13:53:30Z</time></trkpt><trkpt lat="45.62799079306688" lon="9.368814410424909"><ele>207.0</ele><time>2026-04-20T13:53:31Z</time></trkpt><trkpt lat="45.62789915807876" lon="9.368841712417938"><ele>207.0</ele><time>2026-04-20T13:53:32Z</time></trkpt><trkpt lat="45.62780500716815" lon="9.368880606708805"><ele>207.0</ele><time>2026-04-20T13:53:33Z</time></trkpt><trkpt lat="45.62769898261952" lon="9.368919855444114"><ele>207.0</ele><time>2026-04-20T13:53:42Z</time></trkpt><trkpt lat="45.62760522435467" lon="9.368935036535522"><ele>206.75</ele><time>2026-04-20T13:53:44Z</time></trkpt><trkpt lat="45.62765103968576" lon="9.369236245425713"><ele>206.5</ele><time>2026-04-20T13:53:48Z</time></trkpt><trkpt lat="45.62765890095289" lon="9.369367256229468"><ele>206.25</ele><time>2026-04-20T13:53:49Z</time></trkpt><trkpt lat="45.627665455277466" lon="9.369499443499754"><ele>206.0</ele><time>2026-04-20T13:53:50Z</time></trkpt><trkpt lat="45.62767342377447" lon="9.369639314345235"><ele>206.0</ele><time>2026-04-20T13:53:51Z</time></trkpt><trkpt lat="45.62765619564789" lon="9.369845728349649"><ele>206.0</ele><time>2026-04-20T13:53:53Z</time></trkpt><trkpt lat="45.62761769736649" lon="9.36992086599219"><ele>206.0</ele><time>2026-04-20T13:53:54Z</time></trkpt><trkpt lat="45.62758795549742" lon="9.370016006956304"><ele>206.0</ele><time>2026-04-20T13:53:55Z</time></trkpt><trkpt lat="45.62755337221939" lon="9.37011493631199"><ele>206.0</ele><time>2026-04-20T13:53:57Z</time></trkpt><trkpt lat="45.62751460385874" lon="9.370233970943975"><ele>206.0</ele><time>2026-04-20T13:54:00Z</time></trkpt><trkpt lat="45.627475578097936" lon="9.370335602809563"><ele>206.0</ele><time>2026-04-20T13:54:01Z</time></trkpt><trkpt lat="45.62747137664112" lon="9.370468842603309"><ele>206.0</ele><time>2026-04-20T13:54:02Z</time></trkpt><trkpt lat="45.62746864461334" lon="9.370614399174743"><ele>206.0</ele><time>2026-04-20T13:54:03Z</time></trkpt><trkpt lat="45.62747052341575" lon="9.370767055237502"><ele>206.0</ele><time>2026-04-20T13:54:04Z</time></trkpt><trkpt lat="45.62747406271604" lon="9.37092482652563"><ele>205.75</ele><time>2026-04-20T13:54:05Z</time></trkpt><trkpt lat="45.62747160988233" lon="9.371077313740717"><ele>205.5</ele><time>2026-04-20T13:54:06Z</time></trkpt><trkpt lat="45.62746838400457" lon="9.37124059051445"><ele>205.25</ele><time>2026-04-20T13:54:07Z</time></trkpt><trkpt lat="45.627467673755916" lon="9.371401563164042"><ele>205.0</ele><time>2026-04-20T13:54:08Z</time></trkpt><trkpt lat="45.62747060388542" lon="9.371569637482436"><ele>205.0</ele><time>2026-04-20T13:54:09Z</time></trkpt><trkpt lat="45.6274665951505" lon="9.37173257636118"><ele>205.0</ele><time>2026-04-20T13:54:10Z</time></trkpt><trkpt lat="45.62746397694295" lon="9.37189133439503"><ele>205.0</ele><time>2026-04-20T13:54:11Z</time></trkpt><trkpt lat="45.62746636398763" lon="9.37205183745215"><ele>205.0</ele><time>2026-04-20T13:54:12Z</time></trkpt><trkpt lat="45.62746604055235" lon="9.372200433690706"><ele>205.0</ele><time>2026-04-20T13:54:13Z</time></trkpt><trkpt lat="45.62745894068848" lon="9.372343543544366"><ele>204.8</ele><time>2026-04-20T13:54:14Z</time></trkpt><trkpt lat="45.62745974594077" lon="9.372494454903414"><ele>204.6</ele><time>2026-04-20T13:54:15Z</time></trkpt><trkpt lat="45.62745761205659" lon="9.372634544785976"><ele>204.39999999999998</ele><time>2026-04-20T13:54:16Z</time></trkpt><trkpt lat="45.62746020315205" lon="9.372773043225633"><ele>204.2</ele><time>2026-04-20T13:54:17Z</time></trkpt><trkpt lat="45.62746435516161" lon="9.372899021843306"><ele>204.0</ele><time>2026-04-20T13:54:18Z</time></trkpt><trkpt lat="45.62746488023523" lon="9.373012151457955"><ele>203.6</ele><time>2026-04-20T13:54:19Z</time></trkpt><trkpt lat="45.62746637048818" lon="9.373114989608904"><ele>203.2</ele><time>2026-04-20T13:54:20Z</time></trkpt><trkpt lat="45.62747773732598" lon="9.37326210289612"><ele>202.79999999999998</ele><time>2026-04-20T13:54:22Z</time></trkpt><trkpt lat="45.6275206685544" lon="9.373380568773495"><ele>202.39999999999998</ele><time>2026-04-20T13:54:25Z</time></trkpt><trkpt lat="45.627678602786084" lon="9.373372914894336"><ele>202.0</ele><time>2026-04-20T13:54:26Z</time></trkpt><trkpt lat="45.627769490302875" lon="9.373375274631906"><ele>201.75</ele><time>2026-04-20T13:54:27Z</time></trkpt><trkpt lat="45.62787445649196" lon="9.373362727462803"><ele>201.5</ele><time>2026-04-20T13:54:28Z</time></trkpt><trkpt lat="45.62799331555905" lon="9.373329800701754"><ele>201.25</ele><time>2026-04-20T13:54:29Z</time></trkpt><trkpt lat="45.62811031381116" lon="9.373284172374815"><ele>201.0</ele><time>2026-04-20T13:54:30Z</time></trkpt><trkpt lat="45.62821977726841" lon="9.373270242553827"><ele>201.0</ele><time>2026-04-20T13:54:31Z</time></trkpt><trkpt lat="45.628322620680265" lon="9.37325249780562"><ele>201.0</ele><time>2026-04-20T13:54:32Z</time></trkpt><trkpt lat="45.62841679989622" lon="9.373239092790925"><ele>201.0</ele><time>2026-04-20T13:54:33Z</time></trkpt><trkpt lat="45.62849945795677" lon="9.37322798266716"><ele>201.0</ele><time>2026-04-20T13:54:34Z</time></trkpt><trkpt lat="45.62856788212806" lon="9.373239618966073"><ele>201.0</ele><time>2026-04-20T13:54:35Z</time></trkpt><trkpt lat="45.62865094147141" lon="9.373317156487142"><ele>201.0</ele><time>2026-04-20T13:54:37Z</time></trkpt><trkpt lat="45.62868007569274" lon="9.373493906625459"><ele>200.8</ele><time>2026-04-20T13:54:39Z</time></trkpt><trkpt lat="45.62868472470499" lon="9.373624182729342"><ele>200.60000000000002</ele><time>2026-04-20T13:54:40Z</time></trkpt><trkpt lat="45.62870284882274" lon="9.373740441308883"><ele>200.4</ele><time>2026-04-20T13:54:41Z</time></trkpt><trkpt lat="45.6287370496898" lon="9.373819365314162"><ele>200.2</ele><time>2026-04-20T13:54:42Z</time></trkpt><trkpt lat="45.62879602140645" lon="9.373926263720126"><ele>200.0</ele><time>2026-04-20T13:54:44Z</time></trkpt><trkpt lat="45.62887777848465" lon="9.374074193630605"><ele>200.0</ele><time>2026-04-20T13:54:46Z</time></trkpt><trkpt lat="45.62893351149004" lon="9.374192309081574"><ele>200.0</ele><time>2026-04-20T13:54:48Z</time></trkpt><trkpt lat="45.628971115275355" lon="9.37428005150532"><ele>200.0</ele><time>2026-04-20T13:54:52Z</time></trkpt><trkpt lat="45.62903899143945" lon="9.3743775343336"><ele>200.0</ele><time>2026-04-20T13:54:56Z</time></trkpt><trkpt lat="45.62911447430453" lon="9.374462793933487"><ele>200.0</ele><time>2026-04-20T13:54:59Z</time></trkpt><trkpt lat="45.62922253724905" lon="9.37441129769578"><ele>200.00000000000003</ele><time>2026-04-20T13:55:01Z</time></trkpt><trkpt lat="45.62933820086506" lon="9.37432859735367"><ele>200.0</ele><time>2026-04-20T13:55:03Z</time></trkpt><trkpt lat="45.62939969914404" lon="9.374306757101147"><ele>200.0</ele><time>2026-04-20T13:55:04Z</time></trkpt><trkpt lat="45.62948117039074" lon="9.374280713696606"><ele>200.0</ele><time>2026-04-20T13:55:05Z</time></trkpt><trkpt lat="45.62955322764163" lon="9.374252785755232"><ele>200.00000000000003</ele><time>2026-04-20T13:55:06Z</time></trkpt><trkpt lat="45.62962049228522" lon="9.37421067107577"><ele>200.0</ele><time>2026-04-20T13:55:07Z</time></trkpt><trkpt lat="45.62968962066259" lon="9.374147987850792"><ele>200.2</ele><time>2026-04-20T13:55:08Z</time></trkpt><trkpt lat="45.62974929461339" lon="9.374108779497949"><ele>200.4</ele><time>2026-04-20T13:55:09Z</time></trkpt><trkpt lat="45.629881918007264" lon="9.374104966207033"><ele>200.60000000000002</ele><time>2026-04-20T13:55:11Z</time></trkpt><trkpt lat="45.62996848105556" lon="9.374127476076968"><ele>200.8</ele><time>2026-04-20T13:55:12Z</time></trkpt><trkpt lat="45.63006968287253" lon="9.374136032441193"><ele>201.0</ele><time>2026-04-20T13:55:13Z</time></trkpt><trkpt lat="45.63015697025371" lon="9.37414208561223"><ele>201.0</ele><time>2026-04-20T13:55:14Z</time></trkpt><trkpt lat="45.630243259663835" lon="9.374150900440375"><ele>201.0</ele><time>2026-04-20T13:55:15Z</time></trkpt><trkpt lat="45.63030901532793" lon="9.374159418365688"><ele>201.0</ele><time>2026-04-20T13:55:16Z</time></trkpt><trkpt lat="45.63039036734392" lon="9.37416055141765"><ele>201.0</ele><time>2026-04-20T13:55:17Z</time></trkpt><trkpt lat="45.63046253113768" lon="9.374169094189792"><ele>201.0</ele><time>2026-04-20T13:55:18Z</time></trkpt><trkpt lat="45.630594479025646" lon="9.374181228329489"><ele>201.0</ele><time>2026-04-20T13:55:20Z</time></trkpt><trkpt lat="45.63071229726197" lon="9.374195402448084"><ele>200.83333333333334</ele><time>2026-04-20T13:55:22Z</time></trkpt><trkpt lat="45.630782264889746" lon="9.374194728627906"><ele>200.66666666666669</ele><time>2026-04-20T13:55:23Z</time></trkpt><trkpt lat="45.63089131730943" lon="9.374214390314307"><ele>200.5</ele><time>2026-04-20T13:55:25Z</time></trkpt><trkpt lat="45.630970852541935" lon="9.374217495375541"><ele>200.33333333333334</ele><time>2026-04-20T13:55:28Z</time></trkpt><trkpt lat="45.63106464142904" lon="9.374232125967136"><ele>200.16666666666669</ele><time>2026-04-20T13:55:33Z</time></trkpt><trkpt lat="45.63114679546688" lon="9.374236433054511"><ele>200.0</ele><time>2026-04-20T13:55:35Z</time></trkpt><trkpt lat="45.631208161306425" lon="9.374257020778128"><ele>200.6</ele><time>2026-04-20T13:55:37Z</time></trkpt><trkpt lat="45.631266363714715" lon="9.374329742439992"><ele>201.2</ele><time>2026-04-20T13:55:39Z</time></trkpt><trkpt lat="45.63133678119439" lon="9.374330447169154"><ele>201.8</ele><time>2026-04-20T13:55:41Z</time></trkpt><trkpt lat="45.63144055752216" lon="9.374293281867933"><ele>202.4</ele><time>2026-04-20T13:55:43Z</time></trkpt><trkpt lat="45.63156551721908" lon="9.374218971485051"><ele>203.0</ele><time>2026-04-20T13:55:45Z</time></trkpt><trkpt lat="45.631644790666556" lon="9.37418426865266"><ele>203.00000000000003</ele><time>2026-04-20T13:55:46Z</time></trkpt><trkpt lat="45.63171952564871" lon="9.374173768817034"><ele>203.0</ele><time>2026-04-20T13:55:47Z</time></trkpt><trkpt lat="45.63179800413183" lon="9.374166838512663"><ele>203.0</ele><time>2026-04-20T13:55:48Z</time></trkpt><trkpt lat="45.6318800134242" lon="9.374170460518688"><ele>203.0</ele><time>2026-04-20T13:55:49Z</time></trkpt><trkpt lat="45.63196536297642" lon="9.374186379909647"><ele>203.00000000000003</ele><time>2026-04-20T13:55:50Z</time></trkpt><trkpt lat="45.63203519691312" lon="9.374197195886941"><ele>203.0</ele><time>2026-04-20T13:55:51Z</time></trkpt><trkpt lat="45.632104594639614" lon="9.374204162823867"><ele>203.2</ele><time>2026-04-20T13:55:52Z</time></trkpt><trkpt lat="45.63222423101158" lon="9.374200045257002"><ele>203.4</ele><time>2026-04-20T13:55:54Z</time></trkpt><trkpt lat="45.63230490198067" lon="9.374177127330778"><ele>203.6</ele><time>2026-04-20T13:55:56Z</time></trkpt><trkpt lat="45.6323666199697" lon="9.374229911905974"><ele>203.79999999999998</ele><time>2026-04-20T13:55:59Z</time></trkpt><trkpt lat="45.63239961876605" lon="9.374412333098647"><ele>204.0</ele><time>2026-04-20T13:56:01Z</time></trkpt><trkpt lat="45.63240668607527" lon="9.37453468060293"><ele>204.0</ele><time>2026-04-20T13:56:02Z</time></trkpt><trkpt lat="45.632417379288526" lon="9.37466317280595"><ele>204.0</ele><time>2026-04-20T13:56:03Z</time></trkpt><trkpt lat="45.632433474994784" lon="9.374798667658597"><ele>204.0</ele><time>2026-04-20T13:56:04Z</time></trkpt><trkpt lat="45.63244147853571" lon="9.374927467560308"><ele>204.0</ele><time>2026-04-20T13:56:05Z</time></trkpt><trkpt lat="45.63244703495564" lon="9.375040580305722"><ele>204.0</ele><time>2026-04-20T13:56:06Z</time></trkpt><trkpt lat="45.63247203170758" lon="9.375164109964626"><ele>204.0</ele><time>2026-04-20T13:56:07Z</time></trkpt><trkpt lat="45.63248452451761" lon="9.375295823455428"><ele>204.0</ele><time>2026-04-20T13:56:09Z</time></trkpt><trkpt lat="45.6325179334355" lon="9.37539970823161"><ele>204.0</ele><time>2026-04-20T13:56:13Z</time></trkpt><trkpt lat="45.632582232679994" lon="9.375380850705604"><ele>204.0</ele><time>2026-04-20T13:56:15Z</time></trkpt><trkpt lat="45.63270449275113" lon="9.375328016151846"><ele>204.0</ele><time>2026-04-20T13:56:17Z</time></trkpt><trkpt lat="45.63277690222854" lon="9.375306055983424"><ele>204.0</ele><time>2026-04-20T13:56:18Z</time></trkpt><trkpt lat="45.632893250310175" lon="9.375289862256544"><ele>204.6</ele><time>2026-04-20T13:56:20Z</time></trkpt><trkpt lat="45.63301325382838" lon="9.375264951851339"><ele>205.2</ele><time>2026-04-20T13:56:22Z</time></trkpt><trkpt lat="45.63314056365626" lon="9.375242695867822"><ele>205.79999999999998</ele><time>2026-04-20T13:56:24Z</time></trkpt><trkpt lat="45.633250862397915" lon="9.3751704716849"><ele>206.39999999999998</ele><time>2026-04-20T13:56:26Z</time></trkpt><trkpt lat="45.63330606010017" lon="9.37512453339483"><ele>207.0</ele><time>2026-04-20T13:56:27Z</time></trkpt><trkpt lat="45.63340136574646" lon="9.375099043629413"><ele>207.0</ele><time>2026-04-20T13:56:29Z</time></trkpt><trkpt lat="45.633506851647155" lon="9.375112184715597"><ele>207.0</ele><time>2026-04-20T13:56:31Z</time></trkpt><trkpt lat="45.63360163839325" lon="9.375100972532667"><ele>207.0</ele><time>2026-04-20T13:56:33Z</time></trkpt><trkpt lat="45.63368715510724" lon="9.375032134036386"><ele>207.0</ele><time>2026-04-20T13:56:35Z</time></trkpt><trkpt lat="45.633797259685664" lon="9.375065532349348"><ele>207.0</ele><time>2026-04-20T13:56:37Z</time></trkpt><trkpt lat="45.63386776400249" lon="9.375085894164508"><ele>207.75</ele><time>2026-04-20T13:56:38Z</time></trkpt><trkpt lat="45.63400396097976" lon="9.375056744105972"><ele>208.5</ele><time>2026-04-20T13:56:40Z</time></trkpt><trkpt lat="45.634099134606586" lon="9.375040272697843"><ele>209.25</ele><time>2026-04-20T13:56:41Z</time></trkpt><trkpt lat="45.63422744143895" lon="9.37503602318525"><ele>210.0</ele><time>2026-04-20T13:56:42Z</time></trkpt><trkpt lat="45.63434343643201" lon="9.375039529630609"><ele>210.0</ele><time>2026-04-20T13:56:43Z</time></trkpt><trkpt lat="45.63443794882704" lon="9.375045587713197"><ele>210.0</ele><time>2026-04-20T13:56:44Z</time></trkpt><trkpt lat="45.634516330423274" lon="9.375049852929129"><ele>210.0</ele><time>2026-04-20T13:56:45Z</time></trkpt><trkpt lat="45.6345846655657" lon="9.375056716050617"><ele>210.0</ele><time>2026-04-20T13:56:46Z</time></trkpt><trkpt lat="45.63464940086475" lon="9.375071544969062"><ele>210.0</ele><time>2026-04-20T13:56:47Z</time></trkpt><trkpt lat="45.63472194879382" lon="9.37509427185997"><ele>210.0</ele><time>2026-04-20T13:56:48Z</time></trkpt><trkpt lat="45.63480084632291" lon="9.375137093230224"><ele>210.2</ele><time>2026-04-20T13:56:49Z</time></trkpt><trkpt lat="45.634899463119865" lon="9.375181985960806"><ele>210.4</ele><time>2026-04-20T13:56:50Z</time></trkpt><trkpt lat="45.63496741118491" lon="9.375209426001165"><ele>210.60000000000002</ele><time>2026-04-20T13:56:51Z</time></trkpt><trkpt lat="45.63509831321998" lon="9.375231272583296"><ele>210.8</ele><time>2026-04-20T13:56:53Z</time></trkpt><trkpt lat="45.63516096559612" lon="9.37522118851977"><ele>211.0</ele><time>2026-04-20T13:56:54Z</time></trkpt><trkpt lat="45.63525602416493" lon="9.3752073736072"><ele>211.16666666666666</ele><time>2026-04-20T13:56:56Z</time></trkpt><trkpt lat="45.63534117235314" lon="9.375194719115408"><ele>211.33333333333331</ele><time>2026-04-20T13:56:59Z</time></trkpt><trkpt lat="45.63538362873312" lon="9.375122321958154"><ele>211.5</ele><time>2026-04-20T13:57:01Z</time></trkpt><trkpt lat="45.6354325953776" lon="9.375240926135568"><ele>211.66666666666669</ele><time>2026-04-20T13:57:06Z</time></trkpt><trkpt lat="45.6354531378078" lon="9.375345482930404"><ele>211.83333333333334</ele><time>2026-04-20T13:57:07Z</time></trkpt><trkpt lat="45.6354571317367" lon="9.375477974313371"><ele>212.0</ele><time>2026-04-20T13:57:08Z</time></trkpt><trkpt lat="45.63545655368031" lon="9.375635062171167"><ele>212.0</ele><time>2026-04-20T13:57:09Z</time></trkpt><trkpt lat="45.63545488855584" lon="9.375835930984051"><ele>212.0</ele><time>2026-04-20T13:57:10Z</time></trkpt><trkpt lat="45.63545881262241" lon="9.37606857326793"><ele>212.0</ele><time>2026-04-20T13:57:11Z</time></trkpt><trkpt lat="45.63546091913716" lon="9.376277723127545"><ele>212.0</ele><time>2026-04-20T13:57:12Z</time></trkpt><trkpt lat="45.635468070743215" lon="9.376500966490791"><ele>212.25</ele><time>2026-04-20T13:57:13Z</time></trkpt><trkpt lat="45.63547608617607" lon="9.376703318746443"><ele>212.5</ele><time>2026-04-20T13:57:14Z</time></trkpt><trkpt lat="45.635478885960524" lon="9.376909934464283"><ele>212.75</ele><time>2026-04-20T13:57:15Z</time></trkpt><trkpt lat="45.63549135646185" lon="9.37711130503452"><ele>213.0</ele><time>2026-04-20T13:57:16Z</time></trkpt><trkpt lat="45.635498337009786" lon="9.377270127427973"><ele>214.0</ele><time>2026-04-20T13:57:17Z</time></trkpt><trkpt lat="45.63549651791672" lon="9.377411048489243"><ele>215.0</ele><time>2026-04-20T13:57:18Z</time></trkpt><trkpt lat="45.635496609662944" lon="9.377547350912597"><ele>216.0</ele><time>2026-04-20T13:57:19Z</time></trkpt><trkpt lat="45.635503284841995" lon="9.377663596311226"><ele>217.0</ele><time>2026-04-20T13:57:20Z</time></trkpt><trkpt lat="45.63551112116432" lon="9.377798349067572"><ele>218.0</ele><time>2026-04-20T13:57:22Z</time></trkpt><trkpt lat="45.63564748288251" lon="9.377848054031835"><ele>218.0</ele><time>2026-04-20T13:57:24Z</time></trkpt><trkpt lat="45.63576771766425" lon="9.37788483921716"><ele>218.0</ele><time>2026-04-20T13:57:25Z</time></trkpt><trkpt lat="45.63588361962892" lon="9.377929145329617"><ele>218.0</ele><time>2026-04-20T13:57:26Z</time></trkpt><trkpt lat="45.63597506230971" lon="9.37797190283558"><ele>218.0</ele><time>2026-04-20T13:57:27Z</time></trkpt><trkpt lat="45.636039060817915" lon="9.378006244563187"><ele>218.0</ele><time>2026-04-20T13:57:28Z</time></trkpt><trkpt lat="45.63613262982971" lon="9.378048693942745"><ele>219.0</ele><time>2026-04-20T13:57:29Z</time></trkpt><trkpt lat="45.63622564140889" lon="9.378095601653785"><ele>220.0</ele><time>2026-04-20T13:57:30Z</time></trkpt><trkpt lat="45.63633129092164" lon="9.378137890320774"><ele>221.0</ele><time>2026-04-20T13:57:31Z</time></trkpt><trkpt lat="45.63642617115912" lon="9.378184399255483"><ele>222.0</ele><time>2026-04-20T13:57:32Z</time></trkpt><trkpt lat="45.63651652706223" lon="9.378230302627864"><ele>223.0</ele><time>2026-04-20T13:57:33Z</time></trkpt><trkpt lat="45.63659390753861" lon="9.378263541454855"><ele>223.0</ele><time>2026-04-20T13:57:34Z</time></trkpt><trkpt lat="45.6366570983846" lon="9.378288626689223"><ele>223.0</ele><time>2026-04-20T13:57:35Z</time></trkpt><trkpt lat="45.636747741741736" lon="9.37832808822185"><ele>223.0</ele><time>2026-04-20T13:57:37Z</time></trkpt><trkpt lat="45.63670416022734" lon="9.378549812656292"><ele>223.0</ele><time>2026-04-20T13:57:40Z</time></trkpt><trkpt lat="45.63670387889018" lon="9.378660874839298"><ele>223.0</ele><time>2026-04-20T13:57:41Z</time></trkpt><trkpt lat="45.63668874331248" lon="9.378770967109846"><ele>223.33333333333331</ele><time>2026-04-20T13:57:42Z</time></trkpt><trkpt lat="45.636649464796314" lon="9.378878971150321"><ele>223.66666666666666</ele><time>2026-04-20T13:57:43Z</time></trkpt><trkpt lat="45.63662889735524" lon="9.378986528524777"><ele>224.0</ele><time>2026-04-20T13:57:44Z</time></trkpt><trkpt lat="45.63661338073781" lon="9.379101176039919"><ele>224.33333333333331</ele><time>2026-04-20T13:57:45Z</time></trkpt><trkpt lat="45.63658525455189" lon="9.37919800094502"><ele>224.66666666666666</ele><time>2026-04-20T13:57:46Z</time></trkpt><trkpt lat="45.63657457052679" lon="9.379300105941198"><ele>225.0</ele><time>2026-04-20T13:57:47Z</time></trkpt><trkpt lat="45.636562192105416" lon="9.379397805723036"><ele>225.0</ele><time>2026-04-20T13:57:48Z</time></trkpt><trkpt lat="45.63654591845902" lon="9.379499022442838"><ele>225.0</ele><time>2026-04-20T13:57:49Z</time></trkpt><trkpt lat="45.63652500539991" lon="9.379593794364993"><ele>225.0</ele><time>2026-04-20T13:57:50Z</time></trkpt><trkpt lat="45.636509247929276" lon="9.37971739259129"><ele>225.0</ele><time>2026-04-20T13:57:51Z</time></trkpt><trkpt lat="45.63648034459175" lon="9.379860962719645"><ele>225.0</ele><time>2026-04-20T13:57:52Z</time></trkpt><trkpt lat="45.636425867708105" lon="9.380027106886699"><ele>224.5</ele><time>2026-04-20T13:57:53Z</time></trkpt><trkpt lat="45.63638898884826" lon="9.380220686581591"><ele>224.0</ele><time>2026-04-20T13:57:54Z</time></trkpt><trkpt lat="45.63633957763681" lon="9.380431300880497"><ele>223.5</ele><time>2026-04-20T13:57:55Z</time></trkpt><trkpt lat="45.636297161646226" lon="9.380611245625479"><ele>223.0</ele><time>2026-04-20T13:57:56Z</time></trkpt><trkpt lat="45.63625209400662" lon="9.380800344219356"><ele>222.8</ele><time>2026-04-20T13:57:57Z</time></trkpt><trkpt lat="45.63620993732516" lon="9.380978742460227"><ele>222.60000000000002</ele><time>2026-04-20T13:57:58Z</time></trkpt><trkpt lat="45.636156931840894" lon="9.381128249851963"><ele>222.39999999999998</ele><time>2026-04-20T13:57:59Z</time></trkpt><trkpt lat="45.63614014359802" lon="9.381272460564137"><ele>222.2</ele><time>2026-04-20T13:58:00Z</time></trkpt><trkpt lat="45.636112885257766" lon="9.381377190970428"><ele>222.0</ele><time>2026-04-20T13:58:01Z</time></trkpt><trkpt lat="45.636089518154456" lon="9.381471534431576"><ele>221.5</ele><time>2026-04-20T13:58:02Z</time></trkpt><trkpt lat="45.6360754592053" lon="9.381635072446693"><ele>221.0</ele><time>2026-04-20T13:58:04Z</time></trkpt><trkpt lat="45.636037904669195" lon="9.38181653763287"><ele>220.5</ele><time>2026-04-20T13:58:06Z</time></trkpt><trkpt lat="45.63595918851251" lon="9.382007205309716"><ele>220.0</ele><time>2026-04-20T13:58:08Z</time></trkpt><trkpt lat="45.63590280669531" lon="9.382148920752336"><ele>220.0</ele><time>2026-04-20T13:58:09Z</time></trkpt><trkpt lat="45.635857857108284" lon="9.38223736615233"><ele>220.0</ele><time>2026-04-20T13:58:10Z</time></trkpt><trkpt lat="45.63581822443832" lon="9.382330190161387"><ele>220.0</ele><time>2026-04-20T13:58:11Z</time></trkpt><trkpt lat="45.63578189842074" lon="9.38245492854198"><ele>220.0</ele><time>2026-04-20T13:58:12Z</time></trkpt><trkpt lat="45.63572274642056" lon="9.382606985193112"><ele>220.0</ele><time>2026-04-20T13:58:13Z</time></trkpt><trkpt lat="45.63565222082714" lon="9.382726509406911"><ele>220.0</ele><time>2026-04-20T13:58:14Z</time></trkpt><trkpt lat="45.63558936422735" lon="9.382849574463643"><ele>220.0</ele><time>2026-04-20T13:58:15Z</time></trkpt><trkpt lat="45.63553637929021" lon="9.382977891398895"><ele>220.0</ele><time>2026-04-20T13:58:16Z</time></trkpt><trkpt lat="45.63549481555212" lon="9.383113865943132"><ele>220.0</ele><time>2026-04-20T13:58:17Z</time></trkpt><trkpt lat="45.635460967082366" lon="9.383257845959438"><ele>220.0</ele><time>2026-04-20T13:58:18Z</time></trkpt><trkpt lat="45.635423727084756" lon="9.38343706733582"><ele>218.66666666666666</ele><time>2026-04-20T13:58:19Z</time></trkpt><trkpt lat="45.635387445182346" lon="9.383645298026536"><ele>217.33333333333331</ele><time>2026-04-20T13:58:20Z</time></trkpt><trkpt lat="45.63534635139233" lon="9.38387252594846"><ele>216.0</ele><time>2026-04-20T13:58:21Z</time></trkpt><trkpt lat="45.635300275274524" lon="9.384087937972984"><ele>216.0</ele><time>2026-04-20T13:58:22Z</time></trkpt><trkpt lat="45.63524974958052" lon="9.384294512974929"><ele>216.0</ele><time>2026-04-20T13:58:23Z</time></trkpt><trkpt lat="45.635188954533064" lon="9.384511752993298"><ele>216.0</ele><time>2026-04-20T13:58:24Z</time></trkpt><trkpt lat="45.635121556872235" lon="9.384749747840361"><ele>216.0</ele><time>2026-04-20T13:58:25Z</time></trkpt><trkpt lat="45.635069316121744" lon="9.38494412330739"><ele>216.0</ele><time>2026-04-20T13:58:26Z</time></trkpt><trkpt lat="45.635028806997965" lon="9.385108567685068"><ele>216.0</ele><time>2026-04-20T13:58:27Z</time></trkpt><trkpt lat="45.63499339632483" lon="9.385270864226161"><ele>216.0</ele><time>2026-04-20T13:58:28Z</time></trkpt><trkpt lat="45.63495219102267" lon="9.385457214982667"><ele>215.5</ele><time>2026-04-20T13:58:29Z</time></trkpt><trkpt lat="45.6349145172467" lon="9.385643167699858"><ele>215.0</ele><time>2026-04-20T13:58:30Z</time></trkpt><trkpt lat="45.63487058109874" lon="9.385832967631696"><ele>214.5</ele><time>2026-04-20T13:58:31Z</time></trkpt><trkpt lat="45.63481860215827" lon="9.386036346218537"><ele>214.0</ele><time>2026-04-20T13:58:32Z</time></trkpt><trkpt lat="45.63476964075227" lon="9.386253620334264"><ele>214.66666666666666</ele><time>2026-04-20T13:58:33Z</time></trkpt><trkpt lat="45.634719381523134" lon="9.386485097362469"><ele>215.33333333333331</ele><time>2026-04-20T13:58:34Z</time></trkpt><trkpt lat="45.6346801485729" lon="9.38669968924743"><ele>216.0</ele><time>2026-04-20T13:58:35Z</time></trkpt><trkpt lat="45.63464180836144" lon="9.386873221514273"><ele>216.0</ele><time>2026-04-20T13:58:36Z</time></trkpt><trkpt lat="45.63460393688521" lon="9.387028692508308"><ele>216.00000000000003</ele><time>2026-04-20T13:58:37Z</time></trkpt><trkpt lat="45.63457508769522" lon="9.387173190221423"><ele>216.00000000000003</ele><time>2026-04-20T13:58:38Z</time></trkpt><trkpt lat="45.63454205190545" lon="9.387307954882463"><ele>216.0</ele><time>2026-04-20T13:58:39Z</time></trkpt><trkpt lat="45.63450254920206" lon="9.387439468616815"><ele>216.0</ele><time>2026-04-20T13:58:40Z</time></trkpt><trkpt lat="45.63447282007995" lon="9.387548026117155"><ele>215.5</ele><time>2026-04-20T13:58:41Z</time></trkpt><trkpt lat="45.63444868142014" lon="9.387637006846575"><ele>215.0</ele><time>2026-04-20T13:58:42Z</time></trkpt><trkpt lat="45.63441377631903" lon="9.387769046043761"><ele>214.5</ele><time>2026-04-20T13:58:44Z</time></trkpt><trkpt lat="45.6343695140011" lon="9.387862594746224"><ele>214.0</ele><time>2026-04-20T13:58:48Z</time></trkpt><trkpt lat="45.63426858348663" lon="9.387872070609497"><ele>213.5</ele><time>2026-04-20T13:58:52Z</time></trkpt><trkpt lat="45.634196278113045" lon="9.387812249537268"><ele>213.0</ele><time>2026-04-20T13:58:53Z</time></trkpt><trkpt lat="45.63410804289436" lon="9.387741049895439"><ele>213.0</ele><time>2026-04-20T13:58:55Z</time></trkpt><trkpt lat="45.63404163168668" lon="9.387685922346527"><ele>213.0</ele><time>2026-04-20T13:58:56Z</time></trkpt><trkpt lat="45.633975473365794" lon="9.38761437782393"><ele>213.0</ele><time>2026-04-20T13:58:57Z</time></trkpt><trkpt lat="45.633919681265795" lon="9.387540668866546"><ele>213.0</ele><time>2026-04-20T13:58:58Z</time></trkpt><trkpt lat="45.633863930772506" lon="9.387476409927475"><ele>213.0</ele><time>2026-04-20T13:58:59Z</time></trkpt><trkpt lat="45.63379527022615" lon="9.387418007491375"><ele>213.0</ele><time>2026-04-20T13:59:00Z</time></trkpt><trkpt lat="45.63371340410924" lon="9.387362750875793"><ele>213.2</ele><time>2026-04-20T13:59:01Z</time></trkpt><trkpt lat="45.63363784233543" lon="9.387333221974627"><ele>213.4</ele><time>2026-04-20T13:59:02Z</time></trkpt><trkpt lat="45.63352949320271" lon="9.387284033710122"><ele>213.59999999999997</ele><time>2026-04-20T13:59:03Z</time></trkpt><trkpt lat="45.633418458979456" lon="9.387235058060762"><ele>213.79999999999998</ele><time>2026-04-20T13:59:04Z</time></trkpt><trkpt lat="45.6333184160775" lon="9.387197672646572"><ele>214.0</ele><time>2026-04-20T13:59:05Z</time></trkpt><trkpt lat="45.63321563290568" lon="9.387169559423974"><ele>214.0</ele><time>2026-04-20T13:59:06Z</time></trkpt><trkpt lat="45.633101625013644" lon="9.387156865598689"><ele>214.0</ele><time>2026-04-20T13:59:07Z</time></trkpt><trkpt lat="45.632968042981126" lon="9.38713165513356"><ele>214.0</ele><time>2026-04-20T13:59:08Z</time></trkpt><trkpt lat="45.63282272809756" lon="9.38710935252653"><ele>214.0</ele><time>2026-04-20T13:59:09Z</time></trkpt><trkpt lat="45.63267152610464" lon="9.38708893207664"><ele>214.25</ele><time>2026-04-20T13:59:10Z</time></trkpt><trkpt lat="45.63252525777448" lon="9.387068781231132"><ele>214.5</ele><time>2026-04-20T13:59:11Z</time></trkpt><trkpt lat="45.63238838935969" lon="9.387045191253563"><ele>214.75</ele><time>2026-04-20T13:59:12Z</time></trkpt><trkpt lat="45.63224692506769" lon="9.387019822879095"><ele>215.0</ele><time>2026-04-20T13:59:13Z</time></trkpt><trkpt lat="45.6321335705771" lon="9.38700574949394"><ele>215.0</ele><time>2026-04-20T13:59:14Z</time></trkpt><trkpt lat="45.632015942928966" lon="9.386992243075852"><ele>215.0</ele><time>2026-04-20T13:59:15Z</time></trkpt><trkpt lat="45.63187988792407" lon="9.386984744846057"><ele>215.0</ele><time>2026-04-20T13:59:16Z</time></trkpt><trkpt lat="45.63176146223335" lon="9.386981973361669"><ele>215.0</ele><time>2026-04-20T13:59:17Z</time></trkpt><trkpt lat="45.631644786674286" lon="9.386986497309437"><ele>214.83333333333334</ele><time>2026-04-20T13:59:18Z</time></trkpt><trkpt lat="45.6315403122904" lon="9.386996427804235"><ele>214.66666666666669</ele><time>2026-04-20T13:59:19Z</time></trkpt><trkpt lat="45.631444963778634" lon="9.386998131455805"><ele>214.5</ele><time>2026-04-20T13:59:20Z</time></trkpt><trkpt lat="45.63137586514696" lon="9.387005673655125"><ele>214.33333333333331</ele><time>2026-04-20T13:59:21Z</time></trkpt><trkpt lat="45.6312978739921" lon="9.386982876023996"><ele>214.16666666666666</ele><time>2026-04-20T13:59:22Z</time></trkpt><trkpt lat="45.63120699630751" lon="9.387007742429072"><ele>214.0</ele><time>2026-04-20T13:59:23Z</time></trkpt><trkpt lat="45.63109206007346" lon="9.38702543228921"><ele>213.5</ele><time>2026-04-20T13:59:24Z</time></trkpt><trkpt lat="45.63094609476174" lon="9.387068970651026"><ele>213.0</ele><time>2026-04-20T13:59:25Z</time></trkpt><trkpt lat="45.630805915208704" lon="9.387084054900253"><ele>212.5</ele><time>2026-04-20T13:59:26Z</time></trkpt><trkpt lat="45.630678207678066" lon="9.38712660096609"><ele>212.0</ele><time>2026-04-20T13:59:27Z</time></trkpt><trkpt lat="45.63056279616204" lon="9.387149506314486"><ele>212.0</ele><time>2026-04-20T13:59:28Z</time></trkpt><trkpt lat="45.630465214582486" lon="9.3871486346127"><ele>212.0</ele><time>2026-04-20T13:59:29Z</time></trkpt><trkpt lat="45.630366290100476" lon="9.387157670686571"><ele>212.0</ele><time>2026-04-20T13:59:30Z</time></trkpt><trkpt lat="45.63026573847588" lon="9.387158494257655"><ele>212.0</ele><time>2026-04-20T13:59:31Z</time></trkpt><trkpt lat="45.63017105656666" lon="9.38715769395437"><ele>212.0</ele><time>2026-04-20T13:59:32Z</time></trkpt><trkpt lat="45.63008963353756" lon="9.387175925599488"><ele>211.8</ele><time>2026-04-20T13:59:33Z</time></trkpt><trkpt lat="45.63000853986758" lon="9.38717369413981"><ele>211.6</ele><time>2026-04-20T13:59:34Z</time></trkpt><trkpt lat="45.62988956847004" lon="9.387163285155122"><ele>211.4</ele><time>2026-04-20T13:59:36Z</time></trkpt><trkpt lat="45.62981746050271" lon="9.38715523744899"><ele>211.20000000000002</ele><time>2026-04-20T13:59:38Z</time></trkpt><trkpt lat="45.62970622000005" lon="9.38716174488262"><ele>211.0</ele><time>2026-04-20T13:59:47Z</time></trkpt><trkpt lat="45.62963257196786" lon="9.387154376491193"><ele>210.99999999999997</ele><time>2026-04-20T13:59:48Z</time></trkpt><trkpt lat="45.62955487865267" lon="9.387149680607543"><ele>211.0</ele><time>2026-04-20T13:59:49Z</time></trkpt><trkpt lat="45.62947075244174" lon="9.387142786591763"><ele>211.0</ele><time>2026-04-20T13:59:50Z</time></trkpt><trkpt lat="45.629386926699084" lon="9.38713019739424"><ele>211.0</ele><time>2026-04-20T13:59:51Z</time></trkpt><trkpt lat="45.62930521078371" lon="9.38711740926078"><ele>210.99999999999997</ele><time>2026-04-20T13:59:52Z</time></trkpt><trkpt lat="45.62922638835925" lon="9.38708048990424"><ele>211.0</ele><time>2026-04-20T13:59:53Z</time></trkpt><trkpt lat="45.62914063281317" lon="9.387083668977684"><ele>211.16666666666666</ele><time>2026-04-20T13:59:54Z</time></trkpt><trkpt lat="45.629058242944495" lon="9.387072068375979"><ele>211.33333333333331</ele><time>2026-04-20T13:59:55Z</time></trkpt><trkpt lat="45.62896891074801" lon="9.38706126287294"><ele>211.5</ele><time>2026-04-20T13:59:56Z</time></trkpt><trkpt lat="45.62888540604705" lon="9.387070004711111"><ele>211.66666666666669</ele><time>2026-04-20T13:59:57Z</time></trkpt><trkpt lat="45.62880804011965" lon="9.387077841017517"><ele>211.83333333333334</ele><time>2026-04-20T13:59:58Z</time></trkpt><trkpt lat="45.62873359558444" lon="9.387077089622348"><ele>212.0</ele><time>2026-04-20T13:59:59Z</time></trkpt><trkpt lat="45.62864540704021" lon="9.387049812278828"><ele>211.39999999999998</ele><time>2026-04-20T14:00:00Z</time></trkpt><trkpt lat="45.6285455491958" lon="9.387050162987377"><ele>210.79999999999998</ele><time>2026-04-20T14:00:01Z</time></trkpt><trkpt lat="45.628450597864" lon="9.387075502195426"><ele>210.2</ele><time>2026-04-20T14:00:02Z</time></trkpt><trkpt lat="45.62836719889536" lon="9.387111288608907"><ele>209.6</ele><time>2026-04-20T14:00:03Z</time></trkpt><trkpt lat="45.6282685838681" lon="9.387126684576492"><ele>209.0</ele><time>2026-04-20T14:00:04Z</time></trkpt><trkpt lat="45.62819250586507" lon="9.387146221252184"><ele>209.00000000000003</ele><time>2026-04-20T14:00:05Z</time></trkpt><trkpt lat="45.62810829863209" lon="9.387156689015578"><ele>209.0</ele><time>2026-04-20T14:00:07Z</time></trkpt><trkpt lat="45.628042659869024" lon="9.387169594762948"><ele>209.0</ele><time>2026-04-20T14:00:14Z</time></trkpt><trkpt lat="45.62804736978398" lon="9.387303254427268"><ele>209.0</ele><time>2026-04-20T14:00:16Z</time></trkpt><trkpt lat="45.62807623741852" lon="9.387445791384534"><ele>209.00000000000003</ele><time>2026-04-20T14:00:18Z</time></trkpt><trkpt lat="45.62807058804248" lon="9.387566992772918"><ele>209.0</ele><time>2026-04-20T14:00:19Z</time></trkpt><trkpt lat="45.628083595372175" lon="9.387664458101389"><ele>209.0</ele><time>2026-04-20T14:00:20Z</time></trkpt><trkpt lat="45.62810110226439" lon="9.387795639072358"><ele>209.0</ele><time>2026-04-20T14:00:22Z</time></trkpt><trkpt lat="45.62812259177958" lon="9.387932977299974"><ele>209.0</ele><time>2026-04-20T14:00:24Z</time></trkpt><trkpt lat="45.628158034700625" lon="9.388095450062236"><ele>209.0</ele><time>2026-04-20T14:00:26Z</time></trkpt><trkpt lat="45.62818697043544" lon="9.388194131946467"><ele>209.0</ele><time>2026-04-20T14:00:27Z</time></trkpt><trkpt lat="45.62821719522811" lon="9.38828364746205"><ele>208.50000000000003</ele><time>2026-04-20T14:00:28Z</time></trkpt><trkpt lat="45.62824821828016" lon="9.388372265581161"><ele>208.0</ele><time>2026-04-20T14:00:29Z</time></trkpt><trkpt lat="45.628274024017124" lon="9.388491137161411"><ele>207.5</ele><time>2026-04-20T14:00:31Z</time></trkpt><trkpt lat="45.62830727578031" lon="9.388625759837247"><ele>207.0</ele><time>2026-04-20T14:00:33Z</time></trkpt><trkpt lat="45.628297270052926" lon="9.388721729435678"><ele>206.50000000000003</ele><time>2026-04-20T14:00:34Z</time></trkpt><trkpt lat="45.62832244731213" lon="9.388871384919112"><ele>206.0</ele><time>2026-04-20T14:00:36Z</time></trkpt><trkpt lat="45.628337312540374" lon="9.389048386375377"><ele>206.00000000000003</ele><time>2026-04-20T14:00:38Z</time></trkpt><trkpt lat="45.62835217464611" lon="9.389152073583436"><ele>206.0</ele><time>2026-04-20T14:00:39Z</time></trkpt><trkpt lat="45.628366902318206" lon="9.389259608878882"><ele>206.0</ele><time>2026-04-20T14:00:40Z</time></trkpt><trkpt lat="45.62838074949179" lon="9.38938289570612"><ele>206.0</ele><time>2026-04-20T14:00:41Z</time></trkpt><trkpt lat="45.6283958749381" lon="9.389513689167234"><ele>206.00000000000003</ele><time>2026-04-20T14:00:42Z</time></trkpt><trkpt lat="45.62840534904732" lon="9.389650654680562"><ele>206.0</ele><time>2026-04-20T14:00:43Z</time></trkpt><trkpt lat="45.62842772129892" lon="9.389813557868804"><ele>206.0</ele><time>2026-04-20T14:00:44Z</time></trkpt><trkpt lat="45.62846488597409" lon="9.389999302121039"><ele>206.0</ele><time>2026-04-20T14:00:45Z</time></trkpt><trkpt lat="45.628486254841185" lon="9.39020078455819"><ele>206.0</ele><time>2026-04-20T14:00:46Z</time></trkpt><trkpt lat="45.62849153143974" lon="9.390368901196481"><ele>206.0</ele><time>2026-04-20T14:00:47Z</time></trkpt><trkpt lat="45.628461744465916" lon="9.390588288335048"><ele>206.0</ele><time>2026-04-20T14:00:48Z</time></trkpt><trkpt lat="45.62850599807355" lon="9.390260098834839"><ele>206.0</ele><time>2026-04-20T14:00:49Z</time></trkpt><trkpt lat="45.62850500298836" lon="9.39038361470829"><ele>206.0</ele><time>2026-04-20T14:00:51Z</time></trkpt><trkpt lat="45.62841057691382" lon="9.390393106819932"><ele>206.0</ele><time>2026-04-20T14:00:53Z</time></trkpt><trkpt lat="45.62832622554368" lon="9.39036346369358"><ele>206.0</ele><time>2026-04-20T14:00:55Z</time></trkpt><trkpt lat="45.6282898505495" lon="9.390268955963407"><ele>206.0</ele><time>2026-04-20T14:00:57Z</time></trkpt><trkpt lat="45.62820753326848" lon="9.390134111081576"><ele>206.0</ele><time>2026-04-20T14:01:03Z</time></trkpt><trkpt lat="45.62815902795402" lon="9.390075574438136"><ele>206.0</ele><time>2026-04-20T14:01:04Z</time></trkpt><trkpt lat="45.62804634356605" lon="9.39015519522927"><ele>206.0</ele><time>2026-04-20T14:01:08Z</time></trkpt><trkpt lat="45.62802096534549" lon="9.390263781482028"><ele>206.0</ele><time>2026-04-20T14:01:15Z</time></trkpt><trkpt lat="45.628178376437624" lon="9.390449358879886"><ele>206.0</ele><time>2026-04-20T14:01:17Z</time></trkpt><trkpt lat="45.62826594572594" lon="9.390486500074921"><ele>206.0</ele><time>2026-04-20T14:01:18Z</time></trkpt><trkpt lat="45.62835067063196" lon="9.39053056029492"><ele>206.0</ele><time>2026-04-20T14:01:19Z</time></trkpt><trkpt lat="45.628434237853256" lon="9.390589490274795"><ele>206.0</ele><time>2026-04-20T14:01:20Z</time></trkpt><trkpt lat="45.62851337366677" lon="9.390643824302085"><ele>206.0</ele><time>2026-04-20T14:01:21Z</time></trkpt><trkpt lat="45.628579072874295" lon="9.390719054096241"><ele>206.0</ele><time>2026-04-20T14:01:22Z</time></trkpt><trkpt lat="45.62861018158907" lon="9.390828163640107"><ele>206.0</ele><time>2026-04-20T14:01:23Z</time></trkpt><trkpt lat="45.62863505681809" lon="9.390964413103514"><ele>206.0</ele><time>2026-04-20T14:01:24Z</time></trkpt><trkpt lat="45.628650691356896" lon="9.39110938995258"><ele>206.00000000000003</ele><time>2026-04-20T14:01:25Z</time></trkpt><trkpt lat="45.62866580315998" lon="9.391259242835131"><ele>206.0</ele><time>2026-04-20T14:01:26Z</time></trkpt><trkpt lat="45.62867126581019" lon="9.391396851797982"><ele>206.0</ele><time>2026-04-20T14:01:27Z</time></trkpt><trkpt lat="45.628635958449124" lon="9.391515795171069"><ele>206.0</ele><time>2026-04-20T14:01:28Z</time></trkpt><trkpt lat="45.628617957405574" lon="9.391608192061474"><ele>206.00000000000003</ele><time>2026-04-20T14:01:29Z</time></trkpt><trkpt lat="45.628597001643875" lon="9.391724508772283"><ele>206.0</ele><time>2026-04-20T14:01:31Z</time></trkpt><trkpt lat="45.62879398734282" lon="9.391900040406778"><ele>206.28571428571428</ele><time>2026-04-20T14:01:34Z</time></trkpt><trkpt lat="45.62885220856028" lon="9.391969154372644"><ele>206.57142857142856</ele><time>2026-04-20T14:01:35Z</time></trkpt><trkpt lat="45.62890640463156" lon="9.392028826746934"><ele>206.85714285714283</ele><time>2026-04-20T14:01:36Z</time></trkpt><trkpt lat="45.62895721261484" lon="9.392083616696194"><ele>207.14285714285714</ele><time>2026-04-20T14:01:37Z</time></trkpt><trkpt lat="45.62900604303067" lon="9.39215026084993"><ele>207.42857142857144</ele><time>2026-04-20T14:01:38Z</time></trkpt><trkpt lat="45.62907582750101" lon="9.39224387171393"><ele>207.7142857142857</ele><time>2026-04-20T14:01:40Z</time></trkpt><trkpt lat="45.62913010133234" lon="9.392310332904016"><ele>208.0</ele><time>2026-04-20T14:01:42Z</time></trkpt><trkpt lat="45.629208663937284" lon="9.392405326308243"><ele>208.49999999999997</ele><time>2026-04-20T14:01:44Z</time></trkpt><trkpt lat="45.629261625830786" lon="9.392473950467659"><ele>209.0</ele><time>2026-04-20T14:01:45Z</time></trkpt><trkpt lat="45.62930682648024" lon="9.392540141856692"><ele>209.5</ele><time>2026-04-20T14:01:46Z</time></trkpt><trkpt lat="45.62936311555576" lon="9.392632877889309"><ele>210.0</ele><time>2026-04-20T14:01:47Z</time></trkpt><trkpt lat="45.629426832801244" lon="9.392729254282457"><ele>210.49999999999997</ele><time>2026-04-20T14:01:48Z</time></trkpt><trkpt lat="45.62946542390616" lon="9.392834223433045"><ele>211.0</ele><time>2026-04-20T14:01:49Z</time></trkpt><trkpt lat="45.629503740524655" lon="9.39294544469229"><ele>211.25</ele><time>2026-04-20T14:01:50Z</time></trkpt><trkpt lat="45.6295247443722" lon="9.393073154932221"><ele>211.5</ele><time>2026-04-20T14:01:51Z</time></trkpt><trkpt lat="45.62953834717315" lon="9.393225392831141"><ele>211.75</ele><time>2026-04-20T14:01:52Z</time></trkpt><trkpt lat="45.629569052833176" lon="9.393404577344036"><ele>212.0</ele><time>2026-04-20T14:01:53Z</time></trkpt><trkpt lat="45.62956360460384" lon="9.393607301724693"><ele>212.0</ele><time>2026-04-20T14:01:54Z</time></trkpt><trkpt lat="45.62957358961606" lon="9.39379054212484"><ele>212.0</ele><time>2026-04-20T14:01:55Z</time></trkpt><trkpt lat="45.629582638399775" lon="9.393941797637723"><ele>212.0</ele><time>2026-04-20T14:01:56Z</time></trkpt><trkpt lat="45.62959761279484" lon="9.39408993212611"><ele>212.0</ele><time>2026-04-20T14:01:57Z</time></trkpt><trkpt lat="45.62960579822849" lon="9.394215942156922"><ele>212.0</ele><time>2026-04-20T14:01:58Z</time></trkpt><trkpt lat="45.62963297060132" lon="9.394341966996793"><ele>212.25</ele><time>2026-04-20T14:01:59Z</time></trkpt><trkpt lat="45.62965641617428" lon="9.394485880648482"><ele>212.5</ele><time>2026-04-20T14:02:00Z</time></trkpt><trkpt lat="45.62967890022776" lon="9.394621295613874"><ele>212.75</ele><time>2026-04-20T14:02:01Z</time></trkpt><trkpt lat="45.62972540689155" lon="9.394778288632272"><ele>213.0</ele><time>2026-04-20T14:02:02Z</time></trkpt><trkpt lat="45.62977753601397" lon="9.39495176422939"><ele>213.16666666666666</ele><time>2026-04-20T14:02:03Z</time></trkpt><trkpt lat="45.6298093212069" lon="9.395088794224243"><ele>213.33333333333331</ele><time>2026-04-20T14:02:04Z</time></trkpt><trkpt lat="45.629839732439045" lon="9.39520364122808"><ele>213.5</ele><time>2026-04-20T14:02:05Z</time></trkpt><trkpt lat="45.62986500205151" lon="9.39531270937913"><ele>213.66666666666666</ele><time>2026-04-20T14:02:06Z</time></trkpt><trkpt lat="45.62990175407394" lon="9.395430395280757"><ele>213.83333333333331</ele><time>2026-04-20T14:02:07Z</time></trkpt><trkpt lat="45.62991951204148" lon="9.395521390556524"><ele>214.0</ele><time>2026-04-20T14:02:08Z</time></trkpt><trkpt lat="45.629932580894085" lon="9.395621612406304"><ele>213.5</ele><time>2026-04-20T14:02:09Z</time></trkpt><trkpt lat="45.62992197573905" lon="9.395747861056078"><ele>213.0</ele><time>2026-04-20T14:02:10Z</time></trkpt><trkpt lat="45.629957589912124" lon="9.39587583023536"><ele>212.5</ele><time>2026-04-20T14:02:11Z</time></trkpt><trkpt lat="45.62996340207778" lon="9.396064614714737"><ele>212.0</ele><time>2026-04-20T14:02:12Z</time></trkpt><trkpt lat="45.62995716025526" lon="9.396272890269875"><ele>212.5</ele><time>2026-04-20T14:02:13Z</time></trkpt><trkpt lat="45.629970991347726" lon="9.396474567232886"><ele>213.0</ele><time>2026-04-20T14:02:14Z</time></trkpt><trkpt lat="45.629965076281174" lon="9.396669558931267"><ele>213.5</ele><time>2026-04-20T14:02:15Z</time></trkpt><trkpt lat="45.62997977181535" lon="9.396863393771428"><ele>214.0</ele><time>2026-04-20T14:02:16Z</time></trkpt><trkpt lat="45.6299806742552" lon="9.3970530358767"><ele>213.39999999999998</ele><time>2026-04-20T14:02:17Z</time></trkpt><trkpt lat="45.62999001582166" lon="9.39722946338488"><ele>212.79999999999998</ele><time>2026-04-20T14:02:18Z</time></trkpt><trkpt lat="45.63001234331447" lon="9.3974182390795"><ele>212.2</ele><time>2026-04-20T14:02:19Z</time></trkpt><trkpt lat="45.63002178270666" lon="9.397566672495612"><ele>211.60000000000002</ele><time>2026-04-20T14:02:20Z</time></trkpt><trkpt lat="45.63003634749296" lon="9.397677160438136"><ele>211.0</ele><time>2026-04-20T14:02:21Z</time></trkpt><trkpt lat="45.6300744694178" lon="9.397835893657065"><ele>211.0</ele><time>2026-04-20T14:02:23Z</time></trkpt><trkpt lat="45.63017219439136" lon="9.397938333014086"><ele>211.0</ele><time>2026-04-20T14:02:25Z</time></trkpt><trkpt lat="45.63024745145251" lon="9.397951719796094"><ele>211.0</ele><time>2026-04-20T14:02:26Z</time></trkpt><trkpt lat="45.63033936448991" lon="9.39795697147479"><ele>211.0</ele><time>2026-04-20T14:02:27Z</time></trkpt><trkpt lat="45.630432738329915" lon="9.397969770177564"><ele>211.0</ele><time>2026-04-20T14:02:28Z</time></trkpt><trkpt lat="45.63051980090455" lon="9.397979129403451"><ele>211.33333333333331</ele><time>2026-04-20T14:02:29Z</time></trkpt><trkpt lat="45.63061581047874" lon="9.397977625648263"><ele>211.66666666666666</ele><time>2026-04-20T14:02:30Z</time></trkpt><trkpt lat="45.630723528431446" lon="9.397970063138994"><ele>212.0</ele><time>2026-04-20T14:02:31Z</time></trkpt><trkpt lat="45.6307868971537" lon="9.397972660754919"><ele>212.33333333333331</ele><time>2026-04-20T14:02:32Z</time></trkpt><trkpt lat="45.63085777985851" lon="9.39806232494714"><ele>212.66666666666666</ele><time>2026-04-20T14:02:35Z</time></trkpt><trkpt lat="45.63085322356759" lon="9.398158725947876"><ele>213.0</ele><time>2026-04-20T14:02:36Z</time></trkpt><trkpt lat="45.63083507433491" lon="9.398307142616689"><ele>213.33333333333331</ele><time>2026-04-20T14:02:37Z</time></trkpt><trkpt lat="45.63081849663992" lon="9.398509144048925"><ele>213.66666666666666</ele><time>2026-04-20T14:02:38Z</time></trkpt><trkpt lat="45.63081253766228" lon="9.398715831337325"><ele>214.0</ele><time>2026-04-20T14:02:39Z</time></trkpt><trkpt lat="45.63081127247514" lon="9.398958188786855"><ele>214.33333333333331</ele><time>2026-04-20T14:02:40Z</time></trkpt><trkpt lat="45.630817250918405" lon="9.399232368679721"><ele>214.66666666666669</ele><time>2026-04-20T14:02:41Z</time></trkpt><trkpt lat="45.630829847065385" lon="9.399479622581717"><ele>215.0</ele><time>2026-04-20T14:02:42Z</time></trkpt><trkpt lat="45.630845439385446" lon="9.39972227169891"><ele>215.0</ele><time>2026-04-20T14:02:43Z</time></trkpt><trkpt lat="45.63084747960838" lon="9.399942802793657"><ele>215.0</ele><time>2026-04-20T14:02:44Z</time></trkpt><trkpt lat="45.63083513708786" lon="9.400175328767011"><ele>215.0</ele><time>2026-04-20T14:02:45Z</time></trkpt><trkpt lat="45.63080810213561" lon="9.400429712678548"><ele>214.75</ele><time>2026-04-20T14:02:46Z</time></trkpt><trkpt lat="45.63078761578265" lon="9.400654803172587"><ele>214.5</ele><time>2026-04-20T14:02:47Z</time></trkpt><trkpt lat="45.6307804541494" lon="9.400846112076108"><ele>214.25</ele><time>2026-04-20T14:02:48Z</time></trkpt><trkpt lat="45.63078326494331" lon="9.401031531566549"><ele>214.0</ele><time>2026-04-20T14:02:49Z</time></trkpt><trkpt lat="45.63080975763453" lon="9.401241000250215"><ele>214.0</ele><time>2026-04-20T14:02:50Z</time></trkpt><trkpt lat="45.63085279345261" lon="9.401477017646073"><ele>214.0</ele><time>2026-04-20T14:02:51Z</time></trkpt><trkpt lat="45.6308970587225" lon="9.401674749211066"><ele>214.0</ele><time>2026-04-20T14:02:52Z</time></trkpt><trkpt lat="45.63092726470243" lon="9.401855326404103"><ele>214.0</ele><time>2026-04-20T14:02:53Z</time></trkpt><trkpt lat="45.63093209811972" lon="9.402035735682567"><ele>214.66666666666666</ele><time>2026-04-20T14:02:54Z</time></trkpt><trkpt lat="45.63091578462974" lon="9.402247436533155"><ele>215.33333333333331</ele><time>2026-04-20T14:02:55Z</time></trkpt><trkpt lat="45.630889996063615" lon="9.40248438900854"><ele>216.0</ele><time>2026-04-20T14:02:56Z</time></trkpt><trkpt lat="45.630875096427246" lon="9.402743144161644"><ele>216.0</ele><time>2026-04-20T14:02:57Z</time></trkpt><trkpt lat="45.630875151341456" lon="9.402956928876309"><ele>216.0</ele><time>2026-04-20T14:02:58Z</time></trkpt><trkpt lat="45.6308812952657" lon="9.403148478497863"><ele>216.0</ele><time>2026-04-20T14:02:59Z</time></trkpt><trkpt lat="45.63089240589515" lon="9.403344206511477"><ele>216.0</ele><time>2026-04-20T14:03:00Z</time></trkpt><trkpt lat="45.630925513987414" lon="9.403542652091057"><ele>215.66666666666669</ele><time>2026-04-20T14:03:01Z</time></trkpt><trkpt lat="45.630985026886194" lon="9.403775710158376"><ele>215.33333333333334</ele><time>2026-04-20T14:03:02Z</time></trkpt><trkpt lat="45.6310520427727" lon="9.404008815020678"><ele>215.0</ele><time>2026-04-20T14:03:03Z</time></trkpt><trkpt lat="45.63112412617246" lon="9.404219150270984"><ele>215.25</ele><time>2026-04-20T14:03:04Z</time></trkpt><trkpt lat="45.631200449159074" lon="9.404415334247785"><ele>215.5</ele><time>2026-04-20T14:03:05Z</time></trkpt><trkpt lat="45.63128724265492" lon="9.404608587134438"><ele>215.75</ele><time>2026-04-20T14:03:06Z</time></trkpt><trkpt lat="45.631355929182426" lon="9.404766099140158"><ele>216.0</ele><time>2026-04-20T14:03:07Z</time></trkpt><trkpt lat="45.63142504320315" lon="9.404929596778926"><ele>216.0</ele><time>2026-04-20T14:03:08Z</time></trkpt><trkpt lat="45.63147796294234" lon="9.405088454762826"><ele>216.00000000000003</ele><time>2026-04-20T14:03:09Z</time></trkpt><trkpt lat="45.63151370684555" lon="9.405241904398867"><ele>216.00000000000003</ele><time>2026-04-20T14:03:10Z</time></trkpt><trkpt lat="45.63152706935884" lon="9.405386019818588"><ele>216.0</ele><time>2026-04-20T14:03:11Z</time></trkpt><trkpt lat="45.63153363821969" lon="9.405510159964448"><ele>216.0</ele><time>2026-04-20T14:03:12Z</time></trkpt><trkpt lat="45.63153303085729" lon="9.405630725154944"><ele>216.0</ele><time>2026-04-20T14:03:13Z</time></trkpt><trkpt lat="45.631535866132275" lon="9.40576314901788"><ele>216.00000000000003</ele><time>2026-04-20T14:03:14Z</time></trkpt><trkpt lat="45.631540504818894" lon="9.405882634052112"><ele>216.00000000000003</ele><time>2026-04-20T14:03:15Z</time></trkpt><trkpt lat="45.63156849084391" lon="9.406005468031173"><ele>216.0</ele><time>2026-04-20T14:03:16Z</time></trkpt><trkpt lat="45.63162928171345" lon="9.406135922236226"><ele>216.0</ele><time>2026-04-20T14:03:17Z</time></trkpt><trkpt lat="45.63170533758245" lon="9.406290578568608"><ele>216.0</ele><time>2026-04-20T14:03:18Z</time></trkpt><trkpt lat="45.63176465009322" lon="9.406418379481577"><ele>216.0</ele><time>2026-04-20T14:03:19Z</time></trkpt><trkpt lat="45.63183254438311" lon="9.406576868636144"><ele>216.0</ele><time>2026-04-20T14:03:20Z</time></trkpt><trkpt lat="45.63192118574822" lon="9.406752902475176"><ele>216.0</ele><time>2026-04-20T14:03:21Z</time></trkpt><trkpt lat="45.63200402508579" lon="9.406868485044749"><ele>216.25</ele><time>2026-04-20T14:03:22Z</time></trkpt><trkpt lat="45.632098065982575" lon="9.406954473367119"><ele>216.5</ele><time>2026-04-20T14:03:23Z</time></trkpt><trkpt lat="45.63220516042872" lon="9.407034326679144"><ele>216.75</ele><time>2026-04-20T14:03:24Z</time></trkpt><trkpt lat="45.6323198595137" lon="9.40709362483521"><ele>217.0</ele><time>2026-04-20T14:03:25Z</time></trkpt><trkpt lat="45.63244772601998" lon="9.407176092570294"><ele>216.8</ele><time>2026-04-20T14:03:26Z</time></trkpt><trkpt lat="45.63258544379217" lon="9.407204256397566"><ele>216.6</ele><time>2026-04-20T14:03:27Z</time></trkpt><trkpt lat="45.63270443338049" lon="9.407256519036599"><ele>216.40000000000003</ele><time>2026-04-20T14:03:28Z</time></trkpt><trkpt lat="45.632796929617236" lon="9.40729927565542"><ele>216.20000000000002</ele><time>2026-04-20T14:03:29Z</time></trkpt><trkpt lat="45.63287699605324" lon="9.407338992612416"><ele>216.0</ele><time>2026-04-20T14:03:30Z</time></trkpt><trkpt lat="45.632937979811445" lon="9.407369615140276"><ele>216.0</ele><time>2026-04-20T14:03:31Z</time></trkpt><trkpt lat="45.633003393928696" lon="9.407396715687385"><ele>216.0</ele><time>2026-04-20T14:03:33Z</time></trkpt><trkpt lat="45.633089800045425" lon="9.407353763208999"><ele>216.0</ele><time>2026-04-20T14:03:37Z</time></trkpt><trkpt lat="45.63311020281611" lon="9.407257898955718"><ele>216.0</ele><time>2026-04-20T14:03:38Z</time></trkpt><trkpt lat="45.63313471158606" lon="9.407109488587436"><ele>216.0</ele><time>2026-04-20T14:03:39Z</time></trkpt><trkpt lat="45.633161026439154" lon="9.40697441802852"><ele>216.0</ele><time>2026-04-20T14:03:40Z</time></trkpt><trkpt lat="45.633202027640515" lon="9.406839663862515"><ele>216.0</ele><time>2026-04-20T14:03:42Z</time></trkpt><trkpt lat="45.63326355897423" lon="9.406805962854813"><ele>216.00000000000003</ele><time>2026-04-20T14:03:43Z</time></trkpt><trkpt lat="45.633338084489004" lon="9.40678751472534"><ele>216.00000000000003</ele><time>2026-04-20T14:03:44Z</time></trkpt><trkpt lat="45.63341990077507" lon="9.40680406790924"><ele>216.0</ele><time>2026-04-20T14:03:45Z</time></trkpt><trkpt lat="45.633523673950194" lon="9.406877809182491"><ele>216.0</ele><time>2026-04-20T14:03:46Z</time></trkpt><trkpt lat="45.63364403360586" lon="9.406934901381293"><ele>216.0</ele><time>2026-04-20T14:03:47Z</time></trkpt><trkpt lat="45.633753899407075" lon="9.406970420803564"><ele>216.00000000000003</ele><time>2026-04-20T14:03:48Z</time></trkpt><trkpt lat="45.633843736799555" lon="9.406999723553815"><ele>216.00000000000003</ele><time>2026-04-20T14:03:49Z</time></trkpt><trkpt lat="45.63393873481177" lon="9.407038446633544"><ele>216.0</ele><time>2026-04-20T14:03:50Z</time></trkpt><trkpt lat="45.63403491644764" lon="9.407083973183962"><ele>216.0</ele><time>2026-04-20T14:03:51Z</time></trkpt><trkpt lat="45.63410679633818" lon="9.407121376887826"><ele>216.0</ele><time>2026-04-20T14:03:52Z</time></trkpt><trkpt lat="45.6341897870225" lon="9.407156436273784"><ele>216.00000000000003</ele><time>2026-04-20T14:03:53Z</time></trkpt><trkpt lat="45.63425934264365" lon="9.407183823930232"><ele>216.00000000000003</ele><time>2026-04-20T14:03:54Z</time></trkpt><trkpt lat="45.634325707230175" lon="9.40717478890768"><ele>216.0</ele><time>2026-04-20T14:03:56Z</time></trkpt><trkpt lat="45.634387187981574" lon="9.407022537558754"><ele>216.0</ele><time>2026-04-20T14:03:58Z</time></trkpt><trkpt lat="45.63442078035122" lon="9.406880570590042"><ele>216.0</ele><time>2026-04-20T14:03:59Z</time></trkpt><trkpt lat="45.634463890736185" lon="9.406681659980304"><ele>216.0</ele><time>2026-04-20T14:04:00Z</time></trkpt><trkpt lat="45.63452155764457" lon="9.406472240368736"><ele>216.0</ele><time>2026-04-20T14:04:01Z</time></trkpt><trkpt lat="45.63458546902292" lon="9.406267172083192"><ele>216.0</ele><time>2026-04-20T14:04:02Z</time></trkpt><trkpt lat="45.63464954599581" lon="9.406034781693261"><ele>216.0</ele><time>2026-04-20T14:04:03Z</time></trkpt><trkpt lat="45.634725692532484" lon="9.405767712519838"><ele>216.0</ele><time>2026-04-20T14:04:04Z</time></trkpt><trkpt lat="45.63480473662769" lon="9.40549044446033"><ele>216.33333333333331</ele><time>2026-04-20T14:04:05Z</time></trkpt><trkpt lat="45.63488479915254" lon="9.405197624521962"><ele>216.66666666666666</ele><time>2026-04-20T14:04:06Z</time></trkpt><trkpt lat="45.634955055618434" lon="9.404928054936132"><ele>217.0</ele><time>2026-04-20T14:04:07Z</time></trkpt><trkpt lat="45.63501411257034" lon="9.40469755281974"><ele>217.25</ele><time>2026-04-20T14:04:08Z</time></trkpt><trkpt lat="45.635058334241315" lon="9.40449947309374"><ele>217.5</ele><time>2026-04-20T14:04:09Z</time></trkpt><trkpt lat="45.63509897062571" lon="9.404311269294467"><ele>217.75</ele><time>2026-04-20T14:04:10Z</time></trkpt><trkpt lat="45.63514206018416" lon="9.404121398337834"><ele>218.0</ele><time>2026-04-20T14:04:11Z</time></trkpt><trkpt lat="45.63518846599924" lon="9.403930950405861"><ele>218.66666666666669</ele><time>2026-04-20T14:04:12Z</time></trkpt><trkpt lat="45.63524758404552" lon="9.40370434760243"><ele>219.33333333333331</ele><time>2026-04-20T14:04:13Z</time></trkpt><trkpt lat="45.63529718274615" lon="9.403452205579399"><ele>220.0</ele><time>2026-04-20T14:04:14Z</time></trkpt><trkpt lat="45.63534963535653" lon="9.403154422976138"><ele>220.33333333333331</ele><time>2026-04-20T14:04:15Z</time></trkpt><trkpt lat="45.63540103504347" lon="9.402896139649192"><ele>220.66666666666669</ele><time>2026-04-20T14:04:16Z</time></trkpt><trkpt lat="45.63545010054573" lon="9.402670257862294"><ele>221.0</ele><time>2026-04-20T14:04:17Z</time></trkpt><trkpt lat="45.63549680256495" lon="9.402442441222536"><ele>221.0</ele><time>2026-04-20T14:04:18Z</time></trkpt><trkpt lat="45.635545939213046" lon="9.402227819896563"><ele>221.0</ele><time>2026-04-20T14:04:19Z</time></trkpt><trkpt lat="45.63558389800325" lon="9.402041361095792"><ele>221.0</ele><time>2026-04-20T14:04:20Z</time></trkpt><trkpt lat="45.63562257342323" lon="9.401840839131756"><ele>221.0</ele><time>2026-04-20T14:04:21Z</time></trkpt><trkpt lat="45.63565979482573" lon="9.40166754549698"><ele>221.20000000000002</ele><time>2026-04-20T14:04:22Z</time></trkpt><trkpt lat="45.63569381127878" lon="9.401507971729297"><ele>221.40000000000003</ele><time>2026-04-20T14:04:23Z</time></trkpt><trkpt lat="45.63573832436466" lon="9.401375737046017"><ele>221.6</ele><time>2026-04-20T14:04:24Z</time></trkpt><trkpt lat="45.635770804356774" lon="9.401263782459461"><ele>221.8</ele><time>2026-04-20T14:04:25Z</time></trkpt><trkpt lat="45.63579054161348" lon="9.401163989110996"><ele>222.0</ele><time>2026-04-20T14:04:26Z</time></trkpt><trkpt lat="45.63578788684267" lon="9.40104448218056"><ele>222.0</ele><time>2026-04-20T14:04:28Z</time></trkpt><trkpt lat="45.63576872154467" lon="9.40093432061705"><ele>222.0</ele><time>2026-04-20T14:04:32Z</time></trkpt><trkpt lat="45.635795327402676" lon="9.40081833911957"><ele>222.0</ele><time>2026-04-20T14:04:33Z</time></trkpt><trkpt lat="45.63582906663227" lon="9.400688718786093"><ele>222.0</ele><time>2026-04-20T14:04:34Z</time></trkpt><trkpt lat="45.63585762200806" lon="9.400543822173224"><ele>222.0</ele><time>2026-04-20T14:04:35Z</time></trkpt><trkpt lat="45.63588572466024" lon="9.400410747643834"><ele>221.6</ele><time>2026-04-20T14:04:36Z</time></trkpt><trkpt lat="45.63591743906649" lon="9.400292280587445"><ele>221.2</ele><time>2026-04-20T14:04:37Z</time></trkpt><trkpt lat="45.63593727062867" lon="9.400170894971321"><ele>220.8</ele><time>2026-04-20T14:04:38Z</time></trkpt><trkpt lat="45.63596535877878" lon="9.400059144578597"><ele>220.4</ele><time>2026-04-20T14:04:39Z</time></trkpt><trkpt lat="45.63601256970445" lon="9.399928366475704"><ele>220.0</ele><time>2026-04-20T14:04:41Z</time></trkpt><trkpt lat="45.63607075964687" lon="9.399832353020232"><ele>220.0</ele><time>2026-04-20T14:04:42Z</time></trkpt><trkpt lat="45.63613796201341" lon="9.399708025723417"><ele>220.0</ele><time>2026-04-20T14:04:43Z</time></trkpt><trkpt lat="45.636182464973686" lon="9.399540733531897"><ele>220.0</ele><time>2026-04-20T14:04:44Z</time></trkpt><trkpt lat="45.636211413026906" lon="9.399388261159297"><ele>220.0</ele><time>2026-04-20T14:04:45Z</time></trkpt><trkpt lat="45.636240943672014" lon="9.399264449948605"><ele>220.0</ele><time>2026-04-20T14:04:46Z</time></trkpt><trkpt lat="45.63627538417964" lon="9.399132465379365"><ele>220.0</ele><time>2026-04-20T14:04:47Z</time></trkpt><trkpt lat="45.636305323836055" lon="9.398994030275354"><ele>220.0</ele><time>2026-04-20T14:04:48Z</time></trkpt><trkpt lat="45.63633378483913" lon="9.398852494767532"><ele>220.0</ele><time>2026-04-20T14:04:49Z</time></trkpt><trkpt lat="45.63636440353832" lon="9.398723228121412"><ele>220.0</ele><time>2026-04-20T14:04:50Z</time></trkpt><trkpt lat="45.63639147461111" lon="9.398603449774695"><ele>220.0</ele><time>2026-04-20T14:04:51Z</time></trkpt><trkpt lat="45.63641820494045" lon="9.398483881024264"><ele>219.99999999999997</ele><time>2026-04-20T14:04:52Z</time></trkpt><trkpt lat="45.636445285560015" lon="9.398363272152652"><ele>220.0</ele><time>2026-04-20T14:04:53Z</time></trkpt><trkpt lat="45.63646901158232" lon="9.398240558154857"><ele>220.0</ele><time>2026-04-20T14:04:54Z</time></trkpt><trkpt lat="45.636501621744685" lon="9.398123530121659"><ele>220.0</ele><time>2026-04-20T14:04:55Z</time></trkpt><trkpt lat="45.636514571638465" lon="9.398015532838933"><ele>219.99999999999997</ele><time>2026-04-20T14:04:56Z</time></trkpt><trkpt lat="45.63653578314588" lon="9.397919075347982"><ele>220.0</ele><time>2026-04-20T14:04:57Z</time></trkpt><trkpt lat="45.63658099246316" lon="9.397769902898439"><ele>219.75</ele><time>2026-04-20T14:04:59Z</time></trkpt><trkpt lat="45.63666354732922" lon="9.397637332939055"><ele>219.5</ele><time>2026-04-20T14:05:01Z</time></trkpt><trkpt lat="45.63672631146326" lon="9.397560506013996"><ele>219.25</ele><time>2026-04-20T14:05:02Z</time></trkpt><trkpt lat="45.63685477491997" lon="9.397578549295254"><ele>219.0</ele><time>2026-04-20T14:05:03Z</time></trkpt><trkpt lat="45.63699295355397" lon="9.397580974288083"><ele>219.5</ele><time>2026-04-20T14:05:04Z</time></trkpt><trkpt lat="45.63713857380041" lon="9.397619051156537"><ele>220.0</ele><time>2026-04-20T14:05:05Z</time></trkpt><trkpt lat="45.63727778437758" lon="9.397666704914707"><ele>220.5</ele><time>2026-04-20T14:05:06Z</time></trkpt><trkpt lat="45.63741586769559" lon="9.397724478109641"><ele>221.0</ele><time>2026-04-20T14:05:07Z</time></trkpt><trkpt lat="45.63755322159358" lon="9.397792054268477"><ele>221.0</ele><time>2026-04-20T14:05:08Z</time></trkpt><trkpt lat="45.637688213921365" lon="9.39787020045057"><ele>221.0</ele><time>2026-04-20T14:05:09Z</time></trkpt><trkpt lat="45.63781290396078" lon="9.397941674443638"><ele>221.0</ele><time>2026-04-20T14:05:10Z</time></trkpt><trkpt lat="45.637931544376805" lon="9.398017035172844"><ele>221.0</ele><time>2026-04-20T14:05:11Z</time></trkpt><trkpt lat="45.638056239285575" lon="9.398086484473275"><ele>221.5</ele><time>2026-04-20T14:05:12Z</time></trkpt><trkpt lat="45.63817850529795" lon="9.398155960095378"><ele>222.0</ele><time>2026-04-20T14:05:13Z</time></trkpt><trkpt lat="45.638301936641845" lon="9.398230575640246"><ele>222.5</ele><time>2026-04-20T14:05:14Z</time></trkpt><trkpt lat="45.63842823835276" lon="9.398305512514561"><ele>223.0</ele><time>2026-04-20T14:05:15Z</time></trkpt><trkpt lat="45.6385474372541" lon="9.398376985477306"><ele>222.75</ele><time>2026-04-20T14:05:16Z</time></trkpt><trkpt lat="45.638666755451226" lon="9.398452485350345"><ele>222.5</ele><time>2026-04-20T14:05:17Z</time></trkpt><trkpt lat="45.63878609204583" lon="9.398535137812514"><ele>222.25</ele><time>2026-04-20T14:05:18Z</time></trkpt><trkpt lat="45.63890276881378" lon="9.398623432368243"><ele>222.0</ele><time>2026-04-20T14:05:19Z</time></trkpt><trkpt lat="45.63901428483148" lon="9.39871513348415"><ele>222.0</ele><time>2026-04-20T14:05:20Z</time></trkpt><trkpt lat="45.63910606227414" lon="9.398804685472024"><ele>222.0</ele><time>2026-04-20T14:05:21Z</time></trkpt><trkpt lat="45.639175064328626" lon="9.398874913572483"><ele>222.0</ele><time>2026-04-20T14:05:22Z</time></trkpt><trkpt lat="45.63924794357252" lon="9.398946082346031"><ele>222.0</ele><time>2026-04-20T14:05:23Z</time></trkpt><trkpt lat="45.63930817652254" lon="9.398993708865692"><ele>222.0</ele><time>2026-04-20T14:05:24Z</time></trkpt><trkpt lat="45.639368475870384" lon="9.39905887482204"><ele>222.0</ele><time>2026-04-20T14:05:25Z</time></trkpt><trkpt lat="45.639453257831306" lon="9.399159443752003"><ele>222.0</ele><time>2026-04-20T14:05:26Z</time></trkpt><trkpt lat="45.63955635209409" lon="9.399259703723308"><ele>222.0</ele><time>2026-04-20T14:05:27Z</time></trkpt><trkpt lat="45.63961506399476" lon="9.399323834072671"><ele>222.0</ele><time>2026-04-20T14:05:28Z</time></trkpt><trkpt lat="45.639737710060466" lon="9.3994406815579"><ele>222.0</ele><time>2026-04-20T14:05:30Z</time></trkpt><trkpt lat="45.63984301298303" lon="9.39950416479858"><ele>222.0</ele><time>2026-04-20T14:05:31Z</time></trkpt><trkpt lat="45.63991836505972" lon="9.399609310650233"><ele>222.0</ele><time>2026-04-20T14:05:32Z</time></trkpt><trkpt lat="45.6399836519927" lon="9.399685521171845"><ele>222.0</ele><time>2026-04-20T14:05:33Z</time></trkpt><trkpt lat="45.6400672838905" lon="9.399783467018437"><ele>222.0</ele><time>2026-04-20T14:05:34Z</time></trkpt><trkpt lat="45.63993362027207" lon="9.39964509533857"><ele>222.6</ele><time>2026-04-20T14:05:35Z</time></trkpt><trkpt lat="45.64000382100627" lon="9.39974461519498"><ele>223.2</ele><time>2026-04-20T14:05:37Z</time></trkpt><trkpt lat="45.64007160325197" lon="9.399787831776756"><ele>223.8</ele><time>2026-04-20T14:05:38Z</time></trkpt><trkpt lat="45.640164475028435" lon="9.399836541315755"><ele>224.4</ele><time>2026-04-20T14:05:39Z</time></trkpt><trkpt lat="45.640280645071726" lon="9.399945186317906"><ele>225.0</ele><time>2026-04-20T14:05:40Z</time></trkpt><trkpt lat="45.64039997553515" lon="9.400086319591342"><ele>225.33333333333331</ele><time>2026-04-20T14:05:41Z</time></trkpt><trkpt lat="45.64052540560652" lon="9.400224831989252"><ele>225.66666666666666</ele><time>2026-04-20T14:05:42Z</time></trkpt><trkpt lat="45.640658255336724" lon="9.400356326480502"><ele>226.0</ele><time>2026-04-20T14:05:43Z</time></trkpt><trkpt lat="45.64080303115204" lon="9.40047974360985"><ele>225.66666666666666</ele><time>2026-04-20T14:05:44Z</time></trkpt><trkpt lat="45.640966374598385" lon="9.400622921466145"><ele>225.33333333333331</ele><time>2026-04-20T14:05:45Z</time></trkpt><trkpt lat="45.64113118030355" lon="9.400781744095346"><ele>225.0</ele><time>2026-04-20T14:05:46Z</time></trkpt><trkpt lat="45.641288908398515" lon="9.400943701529085"><ele>225.0</ele><time>2026-04-20T14:05:47Z</time></trkpt><trkpt lat="45.641450303241214" lon="9.401091144441196"><ele>225.0</ele><time>2026-04-20T14:05:48Z</time></trkpt><trkpt lat="45.64159836442154" lon="9.401211676245545"><ele>225.0</ele><time>2026-04-20T14:05:49Z</time></trkpt><trkpt lat="45.64172858307649" lon="9.401322751086425"><ele>225.25</ele><time>2026-04-20T14:05:50Z</time></trkpt><trkpt lat="45.64185179757377" lon="9.40142731397102"><ele>225.5</ele><time>2026-04-20T14:05:51Z</time></trkpt><trkpt lat="45.641981151967386" lon="9.4015326052026"><ele>225.75</ele><time>2026-04-20T14:05:52Z</time></trkpt><trkpt lat="45.6421016716978" lon="9.401634128681296"><ele>226.0</ele><time>2026-04-20T14:05:53Z</time></trkpt><trkpt lat="45.64222538795017" lon="9.401733850462872"><ele>226.0</ele><time>2026-04-20T14:05:54Z</time></trkpt><trkpt lat="45.64233832275982" lon="9.401828456859171"><ele>226.0</ele><time>2026-04-20T14:05:55Z</time></trkpt><trkpt lat="45.6424396249317" lon="9.40192086773287"><ele>226.0</ele><time>2026-04-20T14:05:56Z</time></trkpt><trkpt lat="45.64252364995738" lon="9.402007011435366"><ele>226.0</ele><time>2026-04-20T14:05:57Z</time></trkpt><trkpt lat="45.642609594238564" lon="9.402069848602148"><ele>226.0</ele><time>2026-04-20T14:05:58Z</time></trkpt><trkpt lat="45.64270294207526" lon="9.402125642225398"><ele>226.0</ele><time>2026-04-20T14:05:59Z</time></trkpt><trkpt lat="45.642828101713086" lon="9.40221363893447"><ele>226.0</ele><time>2026-04-20T14:06:00Z</time></trkpt><trkpt lat="45.64296334963238" lon="9.402317438053487"><ele>226.0</ele><time>2026-04-20T14:06:01Z</time></trkpt><trkpt lat="45.643094279580296" lon="9.402428179674061"><ele>227.0</ele><time>2026-04-20T14:06:02Z</time></trkpt><trkpt lat="45.64321081711906" lon="9.402522209301177"><ele>228.0</ele><time>2026-04-20T14:06:03Z</time></trkpt><trkpt lat="45.64331286844785" lon="9.402604683831612"><ele>229.0</ele><time>2026-04-20T14:06:04Z</time></trkpt><trkpt lat="45.643402214060245" lon="9.402688477056948"><ele>230.0</ele><time>2026-04-20T14:06:05Z</time></trkpt><trkpt lat="45.64349095048692" lon="9.402762253707797"><ele>230.0</ele><time>2026-04-20T14:06:06Z</time></trkpt><trkpt lat="45.643578916321786" lon="9.402824627849185"><ele>230.0</ele><time>2026-04-20T14:06:07Z</time></trkpt><trkpt lat="45.64366364116935" lon="9.402875748546716"><ele>230.0</ele><time>2026-04-20T14:06:08Z</time></trkpt><trkpt lat="45.64374645431383" lon="9.402940527633136"><ele>230.0</ele><time>2026-04-20T14:06:09Z</time></trkpt><trkpt lat="45.64383788216412" lon="9.403009368295868"><ele>230.0</ele><time>2026-04-20T14:06:10Z</time></trkpt><trkpt lat="45.6439280771066" lon="9.40307953794618"><ele>229.75</ele><time>2026-04-20T14:06:11Z</time></trkpt><trkpt lat="45.64400874572373" lon="9.403139852588883"><ele>229.5</ele><time>2026-04-20T14:06:12Z</time></trkpt><trkpt lat="45.64406358561016" lon="9.403188540823441"><ele>229.25</ele><time>2026-04-20T14:06:13Z</time></trkpt><trkpt lat="45.64414230509261" lon="9.4032506416467"><ele>229.0</ele><time>2026-04-20T14:06:15Z</time></trkpt><trkpt lat="45.644305928730056" lon="9.403431595213707"><ele>229.0</ele><time>2026-04-20T14:07:47Z</time></trkpt><trkpt lat="45.644337486386625" lon="9.40356164547424"><ele>229.0</ele><time>2026-04-20T14:07:48Z</time></trkpt><trkpt lat="45.644328857765956" lon="9.403705873686421"><ele>229.0</ele><time>2026-04-20T14:07:49Z</time></trkpt><trkpt lat="45.644284399583356" lon="9.403863877765744"><ele>229.0</ele><time>2026-04-20T14:07:50Z</time></trkpt><trkpt lat="45.644216014195656" lon="9.404055040518111"><ele>228.66666666666666</ele><time>2026-04-20T14:07:51Z</time></trkpt><trkpt lat="45.64413856011901" lon="9.404263626644287"><ele>228.33333333333331</ele><time>2026-04-20T14:07:52Z</time></trkpt><trkpt lat="45.64406800724685" lon="9.404452537370373"><ele>228.0</ele><time>2026-04-20T14:07:53Z</time></trkpt><trkpt lat="45.64399566422804" lon="9.40463588329085"><ele>228.25</ele><time>2026-04-20T14:07:54Z</time></trkpt><trkpt lat="45.64391777542598" lon="9.404818640700489"><ele>228.5</ele><time>2026-04-20T14:07:55Z</time></trkpt><trkpt lat="45.643837403607485" lon="9.40499965075836"><ele>228.75</ele><time>2026-04-20T14:07:56Z</time></trkpt><trkpt lat="45.643762717416635" lon="9.405177177087712"><ele>229.0</ele><time>2026-04-20T14:07:57Z</time></trkpt><trkpt lat="45.64368184051812" lon="9.405368285853118"><ele>228.0</ele><time>2026-04-20T14:07:58Z</time></trkpt><trkpt lat="45.64360455120646" lon="9.40554923258742"><ele>227.0</ele><time>2026-04-20T14:07:59Z</time></trkpt><trkpt lat="45.64352973211649" lon="9.405729682534282"><ele>226.0</ele><time>2026-04-20T14:08:00Z</time></trkpt><trkpt lat="45.64345473314588" lon="9.405906120232634"><ele>225.0</ele><time>2026-04-20T14:08:01Z</time></trkpt><trkpt lat="45.64337670666291" lon="9.40607903231674"><ele>225.0</ele><time>2026-04-20T14:08:02Z</time></trkpt><trkpt lat="45.64330088951458" lon="9.406252949556619"><ele>225.0</ele><time>2026-04-20T14:08:03Z</time></trkpt><trkpt lat="45.64323008919436" lon="9.40641243876996"><ele>225.0</ele><time>2026-04-20T14:08:04Z</time></trkpt><trkpt lat="45.64315807608197" lon="9.406583361798917"><ele>225.0</ele><time>2026-04-20T14:08:05Z</time></trkpt><trkpt lat="45.64308182816898" lon="9.40675995306428"><ele>225.75</ele><time>2026-04-20T14:08:06Z</time></trkpt><trkpt lat="45.64301039236445" lon="9.406921898594595"><ele>226.5</ele><time>2026-04-20T14:08:07Z</time></trkpt><trkpt lat="45.642946158042285" lon="9.407070066486693"><ele>227.25</ele><time>2026-04-20T14:08:08Z</time></trkpt><trkpt lat="45.64288238559382" lon="9.407226313168213"><ele>228.0</ele><time>2026-04-20T14:08:09Z</time></trkpt><trkpt lat="45.642812094172655" lon="9.407387957276969"><ele>228.0</ele><time>2026-04-20T14:08:10Z</time></trkpt><trkpt lat="45.642743698828085" lon="9.407558892395432"><ele>228.0</ele><time>2026-04-20T14:08:11Z</time></trkpt><trkpt lat="45.64267294252688" lon="9.407731979395765"><ele>228.0</ele><time>2026-04-20T14:08:12Z</time></trkpt><trkpt lat="45.64260339090122" lon="9.40789485989474"><ele>228.0</ele><time>2026-04-20T14:08:13Z</time></trkpt><trkpt lat="45.64253136157831" lon="9.408064243923397"><ele>228.0</ele><time>2026-04-20T14:08:14Z</time></trkpt><trkpt lat="45.64245664348764" lon="9.408231289239719"><ele>228.0</ele><time>2026-04-20T14:08:15Z</time></trkpt><trkpt lat="45.642381773222304" lon="9.408391352195608"><ele>228.0</ele><time>2026-04-20T14:08:16Z</time></trkpt><trkpt lat="45.64230288666846" lon="9.40854838533942"><ele>228.0</ele><time>2026-04-20T14:08:17Z</time></trkpt><trkpt lat="45.64222080119767" lon="9.40870969169967"><ele>227.66666666666669</ele><time>2026-04-20T14:08:18Z</time></trkpt><trkpt lat="45.64212835777149" lon="9.408871174694"><ele>227.33333333333334</ele><time>2026-04-20T14:08:19Z</time></trkpt><trkpt lat="45.64201724698037" lon="9.409044655551918"><ele>227.0</ele><time>2026-04-20T14:08:20Z</time></trkpt><trkpt lat="45.641919171440705" lon="9.409198426564929"><ele>227.0</ele><time>2026-04-20T14:08:21Z</time></trkpt><trkpt lat="45.64182035550619" lon="9.40935504614712"><ele>227.0</ele><time>2026-04-20T14:08:22Z</time></trkpt><trkpt lat="45.641744983006745" lon="9.409460743939684"><ele>227.0</ele><time>2026-04-20T14:08:23Z</time></trkpt><trkpt lat="45.64166297448892" lon="9.409567169521758"><ele>227.0</ele><time>2026-04-20T14:08:24Z</time></trkpt><trkpt lat="45.64160180003566" lon="9.409607951104741"><ele>227.0</ele><time>2026-04-20T14:08:25Z</time></trkpt><trkpt lat="45.6416116718184" lon="9.409418977931775"><ele>226.0</ele><time>2026-04-20T14:08:28Z</time></trkpt><trkpt lat="45.641211866481115" lon="9.410084609296145"><ele>226.0</ele><time>2026-04-20T14:08:29Z</time></trkpt><trkpt lat="45.64112445997751" lon="9.41016518242023"><ele>226.0</ele><time>2026-04-20T14:08:30Z</time></trkpt><trkpt lat="45.64102318184587" lon="9.410258552274918"><ele>226.0</ele><time>2026-04-20T14:08:31Z</time></trkpt><trkpt lat="45.640918020267954" lon="9.410343991867292"><ele>226.0</ele><time>2026-04-20T14:08:32Z</time></trkpt><trkpt lat="45.640818176025405" lon="9.410425270664525"><ele>225.8</ele><time>2026-04-20T14:08:33Z</time></trkpt><trkpt lat="45.64072992256194" lon="9.410503885284475"><ele>225.60000000000002</ele><time>2026-04-20T14:08:34Z</time></trkpt><trkpt lat="45.64064023855017" lon="9.410568268103791"><ele>225.4</ele><time>2026-04-20T14:08:35Z</time></trkpt><trkpt lat="45.64055538080366" lon="9.410624560626582"><ele>225.2</ele><time>2026-04-20T14:08:36Z</time></trkpt><trkpt lat="45.64048458594608" lon="9.410672894975653"><ele>225.0</ele><time>2026-04-20T14:08:37Z</time></trkpt><trkpt lat="45.64041146686292" lon="9.410705302582576"><ele>225.0</ele><time>2026-04-20T14:08:39Z</time></trkpt><trkpt lat="45.64030911734508" lon="9.410767624745173"><ele>225.0</ele><time>2026-04-20T14:09:08Z</time></trkpt><trkpt lat="45.64021123247371" lon="9.410807514694625"><ele>225.0</ele><time>2026-04-20T14:09:09Z</time></trkpt><trkpt lat="45.640101834440486" lon="9.410868115988045"><ele>225.0</ele><time>2026-04-20T14:09:10Z</time></trkpt><trkpt lat="45.639981946756095" lon="9.410930598409108"><ele>224.75</ele><time>2026-04-20T14:09:11Z</time></trkpt><trkpt lat="45.63985667196483" lon="9.41100822066122"><ele>224.5</ele><time>2026-04-20T14:09:12Z</time></trkpt><trkpt lat="45.63972492476955" lon="9.411098151956883"><ele>224.25</ele><time>2026-04-20T14:09:13Z</time></trkpt><trkpt lat="45.6395871362967" lon="9.411183199653058"><ele>224.0</ele><time>2026-04-20T14:09:14Z</time></trkpt><trkpt lat="45.63944392361319" lon="9.411263993980475"><ele>223.66666666666669</ele><time>2026-04-20T14:09:15Z</time></trkpt><trkpt lat="45.63929122302599" lon="9.4113467935787"><ele>223.33333333333331</ele><time>2026-04-20T14:09:16Z</time></trkpt><trkpt lat="45.63914530659005" lon="9.411439966044277"><ele>223.0</ele><time>2026-04-20T14:09:17Z</time></trkpt><trkpt lat="45.63897784279478" lon="9.411535282078527"><ele>223.0</ele><time>2026-04-20T14:09:18Z</time></trkpt><trkpt lat="45.63881623885394" lon="9.411634671678069"><ele>223.0</ele><time>2026-04-20T14:09:19Z</time></trkpt><trkpt lat="45.638663497838515" lon="9.411716214255694"><ele>223.0</ele><time>2026-04-20T14:09:20Z</time></trkpt><trkpt lat="45.638515050307575" lon="9.41180935172667"><ele>222.66666666666666</ele><time>2026-04-20T14:09:21Z</time></trkpt><trkpt lat="45.63835386934054" lon="9.411902799956904"><ele>222.33333333333331</ele><time>2026-04-20T14:09:22Z</time></trkpt><trkpt lat="45.638205803123796" lon="9.412001239379933"><ele>222.0</ele><time>2026-04-20T14:09:23Z</time></trkpt><trkpt lat="45.63806459193258" lon="9.412082379513533"><ele>222.0</ele><time>2026-04-20T14:09:24Z</time></trkpt><trkpt lat="45.63792409896791" lon="9.412155245374404"><ele>222.0</ele><time>2026-04-20T14:09:25Z</time></trkpt><trkpt lat="45.63778726692409" lon="9.412230935105667"><ele>222.0</ele><time>2026-04-20T14:09:26Z</time></trkpt><trkpt lat="45.63766189493589" lon="9.412294806632117"><ele>222.0</ele><time>2026-04-20T14:09:27Z</time></trkpt><trkpt lat="45.63753547821723" lon="9.412374545663356"><ele>221.0</ele><time>2026-04-20T14:09:28Z</time></trkpt><trkpt lat="45.637420100046015" lon="9.412424723171277"><ele>220.0</ele><time>2026-04-20T14:09:29Z</time></trkpt><trkpt lat="45.63731339068307" lon="9.412445079799815"><ele>219.0</ele><time>2026-04-20T14:09:30Z</time></trkpt><trkpt lat="45.63719480031255" lon="9.4124316119627"><ele>218.0</ele><time>2026-04-20T14:09:31Z</time></trkpt><trkpt lat="45.63707234296187" lon="9.412391694358137"><ele>217.0</ele><time>2026-04-20T14:09:32Z</time></trkpt><trkpt lat="45.63693903073589" lon="9.412394337292536"><ele>216.0</ele><time>2026-04-20T14:09:33Z</time></trkpt><trkpt lat="45.63681418739895" lon="9.412466584602713"><ele>215.0</ele><time>2026-04-20T14:09:34Z</time></trkpt><trkpt lat="45.63669476319364" lon="9.41258141345253"><ele>214.0</ele><time>2026-04-20T14:09:35Z</time></trkpt><trkpt lat="45.63656931050325" lon="9.412715460333795"><ele>214.0</ele><time>2026-04-20T14:09:36Z</time></trkpt><trkpt lat="45.63639241838563" lon="9.412707257395212"><ele>214.0</ele><time>2026-04-20T14:09:37Z</time></trkpt><trkpt lat="45.63621869030057" lon="9.412729805182964"><ele>214.0</ele><time>2026-04-20T14:09:38Z</time></trkpt><trkpt lat="45.636052174673516" lon="9.412742156278513"><ele>214.0</ele><time>2026-04-20T14:09:39Z</time></trkpt><trkpt lat="45.63588303145312" lon="9.41275794401652"><ele>214.0</ele><time>2026-04-20T14:09:40Z</time></trkpt><trkpt lat="45.635716812968376" lon="9.412784043951048"><ele>214.0</ele><time>2026-04-20T14:09:41Z</time></trkpt><trkpt lat="45.635544609068944" lon="9.412803859159837"><ele>214.0</ele><time>2026-04-20T14:09:42Z</time></trkpt><trkpt lat="45.63536185881505" lon="9.4128236448615"><ele>214.0</ele><time>2026-04-20T14:09:43Z</time></trkpt><trkpt lat="45.63519037977714" lon="9.412845482266839"><ele>214.0</ele><time>2026-04-20T14:09:44Z</time></trkpt><trkpt lat="45.63502169558327" lon="9.4128637567917"><ele>214.0</ele><time>2026-04-20T14:09:45Z</time></trkpt><trkpt lat="45.634840688983644" lon="9.412877170312345"><ele>214.0</ele><time>2026-04-20T14:09:46Z</time></trkpt><trkpt lat="45.6346554784727" lon="9.412900086010538"><ele>214.0</ele><time>2026-04-20T14:09:47Z</time></trkpt><trkpt lat="45.63446817729973" lon="9.412917503229265"><ele>213.33333333333331</ele><time>2026-04-20T14:09:48Z</time></trkpt><trkpt lat="45.634290812654974" lon="9.412944050184837"><ele>212.66666666666669</ele><time>2026-04-20T14:09:49Z</time></trkpt><trkpt lat="45.63411264613932" lon="9.412983270331848"><ele>212.0</ele><time>2026-04-20T14:09:50Z</time></trkpt><trkpt lat="45.633922040704" lon="9.412998626038513"><ele>213.66666666666669</ele><time>2026-04-20T14:09:51Z</time></trkpt><trkpt lat="45.6337503747626" lon="9.413037979803667"><ele>215.33333333333331</ele><time>2026-04-20T14:09:52Z</time></trkpt><trkpt lat="45.63357488753859" lon="9.413104110031531"><ele>217.0</ele><time>2026-04-20T14:09:53Z</time></trkpt><trkpt lat="45.63337863464384" lon="9.413156995754944"><ele>217.0</ele><time>2026-04-20T14:09:54Z</time></trkpt><trkpt lat="45.63320182870806" lon="9.41319040534363"><ele>217.0</ele><time>2026-04-20T14:09:55Z</time></trkpt><trkpt lat="45.63302610055779" lon="9.41324443738305"><ele>217.0</ele><time>2026-04-20T14:09:56Z</time></trkpt><trkpt lat="45.63284962101008" lon="9.413319599112377"><ele>215.66666666666666</ele><time>2026-04-20T14:09:57Z</time></trkpt><trkpt lat="45.63267716657211" lon="9.413374507145193"><ele>214.33333333333331</ele><time>2026-04-20T14:09:58Z</time></trkpt><trkpt lat="45.632512173686514" lon="9.413428613365658"><ele>213.0</ele><time>2026-04-20T14:09:59Z</time></trkpt><trkpt lat="45.63233907086737" lon="9.413481463623606"><ele>213.0</ele><time>2026-04-20T14:10:00Z</time></trkpt><trkpt lat="45.63218844059568" lon="9.413527661361607"><ele>213.0</ele><time>2026-04-20T14:10:01Z</time></trkpt><trkpt lat="45.632015627060554" lon="9.413579659205425"><ele>213.0</ele><time>2026-04-20T14:10:02Z</time></trkpt><trkpt lat="45.63185109354758" lon="9.4136398663187"><ele>213.66666666666669</ele><time>2026-04-20T14:10:03Z</time></trkpt><trkpt lat="45.63167151438687" lon="9.41369856336667"><ele>214.33333333333334</ele><time>2026-04-20T14:10:04Z</time></trkpt><trkpt lat="45.631455553596496" lon="9.413748879925217"><ele>215.0</ele><time>2026-04-20T14:10:05Z</time></trkpt><trkpt lat="45.631255399294545" lon="9.413814214410971"><ele>216.0</ele><time>2026-04-20T14:10:06Z</time></trkpt><trkpt lat="45.63107828555636" lon="9.413871766650642"><ele>217.0</ele><time>2026-04-20T14:10:07Z</time></trkpt><trkpt lat="45.63090847823818" lon="9.413925973590732"><ele>218.0</ele><time>2026-04-20T14:10:08Z</time></trkpt><trkpt lat="45.630742788236375" lon="9.413978043620645"><ele>218.0</ele><time>2026-04-20T14:10:09Z</time></trkpt><trkpt lat="45.630586670488114" lon="9.41402785626555"><ele>218.0</ele><time>2026-04-20T14:10:10Z</time></trkpt><trkpt lat="45.63041435980808" lon="9.414084377581384"><ele>218.0</ele><time>2026-04-20T14:10:11Z</time></trkpt><trkpt lat="45.630260478171095" lon="9.414133840860403"><ele>218.0</ele><time>2026-04-20T14:10:12Z</time></trkpt><trkpt lat="45.63013151060733" lon="9.414174817736605"><ele>218.0</ele><time>2026-04-20T14:10:13Z</time></trkpt><trkpt lat="45.63001142262552" lon="9.41421297332849"><ele>218.0</ele><time>2026-04-20T14:10:14Z</time></trkpt><trkpt lat="45.62986357731115" lon="9.414259948254932"><ele>218.0</ele><time>2026-04-20T14:10:15Z</time></trkpt><trkpt lat="45.6297086669301" lon="9.414310397646293"><ele>218.0</ele><time>2026-04-20T14:10:16Z</time></trkpt><trkpt lat="45.62957037969829" lon="9.414355676118717"><ele>218.0</ele><time>2026-04-20T14:10:17Z</time></trkpt><trkpt lat="45.62944052044701" lon="9.414398195082956"><ele>218.0</ele><time>2026-04-20T14:10:18Z</time></trkpt><trkpt lat="45.62933097735108" lon="9.414453078587933"><ele>218.0</ele><time>2026-04-20T14:10:19Z</time></trkpt><trkpt lat="45.62922138027711" lon="9.414490235893533"><ele>217.60000000000002</ele><time>2026-04-20T14:10:20Z</time></trkpt><trkpt lat="45.62911381138897" lon="9.41451512284337"><ele>217.20000000000002</ele><time>2026-04-20T14:10:21Z</time></trkpt><trkpt lat="45.629021194614644" lon="9.41454106444908"><ele>216.8</ele><time>2026-04-20T14:10:22Z</time></trkpt><trkpt lat="45.628934372546034" lon="9.414540998674852"><ele>216.4</ele><time>2026-04-20T14:10:23Z</time></trkpt><trkpt lat="45.628851150592446" lon="9.414509402240485"><ele>216.0</ele><time>2026-04-20T14:10:24Z</time></trkpt><trkpt lat="45.62877037246378" lon="9.41444740311367"><ele>216.0</ele><time>2026-04-20T14:10:25Z</time></trkpt><trkpt lat="45.62868830777571" lon="9.414405711109756"><ele>216.00000000000003</ele><time>2026-04-20T14:10:26Z</time></trkpt><trkpt lat="45.62860037525256" lon="9.414420005778057"><ele>216.00000000000003</ele><time>2026-04-20T14:10:27Z</time></trkpt><trkpt lat="45.62852057094095" lon="9.414491708633824"><ele>216.0</ele><time>2026-04-20T14:10:28Z</time></trkpt><trkpt lat="45.62844699793664" lon="9.41460274214454"><ele>216.0</ele><time>2026-04-20T14:10:29Z</time></trkpt><trkpt lat="45.62837245629052" lon="9.414715980587093"><ele>215.5</ele><time>2026-04-20T14:10:30Z</time></trkpt><trkpt lat="45.62826895332127" lon="9.414789929605645"><ele>215.0</ele><time>2026-04-20T14:10:31Z</time></trkpt><trkpt lat="45.62813567455404" lon="9.414841715049953"><ele>214.5</ele><time>2026-04-20T14:10:32Z</time></trkpt><trkpt lat="45.62797459731579" lon="9.414899999146371"><ele>214.0</ele><time>2026-04-20T14:10:33Z</time></trkpt><trkpt lat="45.6278038762887" lon="9.414949995310712"><ele>214.0</ele><time>2026-04-20T14:10:34Z</time></trkpt><trkpt lat="45.62766102529753" lon="9.414992356729293"><ele>214.0</ele><time>2026-04-20T14:10:35Z</time></trkpt><trkpt lat="45.627524702522656" lon="9.415040012030977"><ele>214.0</ele><time>2026-04-20T14:10:36Z</time></trkpt><trkpt lat="45.62736021257162" lon="9.415099445233254"><ele>214.0</ele><time>2026-04-20T14:10:37Z</time></trkpt><trkpt lat="45.62717454133159" lon="9.415171532392492"><ele>214.0</ele><time>2026-04-20T14:10:38Z</time></trkpt><trkpt lat="45.62699610607203" lon="9.415259744304706"><ele>214.0</ele><time>2026-04-20T14:10:39Z</time></trkpt><trkpt lat="45.626828234205995" lon="9.415369522280855"><ele>213.66666666666666</ele><time>2026-04-20T14:10:40Z</time></trkpt><trkpt lat="45.626669297218804" lon="9.415488741072215"><ele>213.33333333333331</ele><time>2026-04-20T14:10:41Z</time></trkpt><trkpt lat="45.62651509860663" lon="9.415608923667468"><ele>213.0</ele><time>2026-04-20T14:10:42Z</time></trkpt><trkpt lat="45.626359961575965" lon="9.415736928355521"><ele>213.0</ele><time>2026-04-20T14:10:43Z</time></trkpt><trkpt lat="45.626209377981354" lon="9.415885041409119"><ele>213.0</ele><time>2026-04-20T14:10:44Z</time></trkpt><trkpt lat="45.62606278939484" lon="9.416062353724246"><ele>213.0</ele><time>2026-04-20T14:10:45Z</time></trkpt><trkpt lat="45.62591280658303" lon="9.416268514814494"><ele>213.33333333333331</ele><time>2026-04-20T14:10:46Z</time></trkpt><trkpt lat="45.62576871208058" lon="9.416478157927545"><ele>213.66666666666666</ele><time>2026-04-20T14:10:47Z</time></trkpt><trkpt lat="45.62562623531326" lon="9.41666868361746"><ele>214.0</ele><time>2026-04-20T14:10:48Z</time></trkpt><trkpt lat="45.62549253769896" lon="9.416851613437572"><ele>214.0</ele><time>2026-04-20T14:10:49Z</time></trkpt><trkpt lat="45.62537305913751" lon="9.417023143524586"><ele>214.0</ele><time>2026-04-20T14:10:50Z</time></trkpt><trkpt lat="45.62526744084095" lon="9.417191268272722"><ele>214.0</ele><time>2026-04-20T14:10:51Z</time></trkpt><trkpt lat="45.62514581983622" lon="9.417374720916515"><ele>213.66666666666666</ele><time>2026-04-20T14:10:52Z</time></trkpt><trkpt lat="45.6250115972619" lon="9.417578547575092"><ele>213.33333333333331</ele><time>2026-04-20T14:10:53Z</time></trkpt><trkpt lat="45.62486744251725" lon="9.4177948862789"><ele>213.0</ele><time>2026-04-20T14:10:54Z</time></trkpt><trkpt lat="45.624724042564075" lon="9.418006271619303"><ele>214.0</ele><time>2026-04-20T14:10:55Z</time></trkpt><trkpt lat="45.62457297495697" lon="9.41820939983277"><ele>215.0</ele><time>2026-04-20T14:10:56Z</time></trkpt><trkpt lat="45.62442162898685" lon="9.418410198537517"><ele>216.0</ele><time>2026-04-20T14:10:57Z</time></trkpt><trkpt lat="45.62427558522222" lon="9.418617962741214"><ele>217.0</ele><time>2026-04-20T14:10:58Z</time></trkpt><trkpt lat="45.62413566391321" lon="9.418825237231793"><ele>218.0</ele><time>2026-04-20T14:10:59Z</time></trkpt><trkpt lat="45.62400760091513" lon="9.419022062906754"><ele>219.0</ele><time>2026-04-20T14:11:00Z</time></trkpt><trkpt lat="45.62388044502155" lon="9.419219302814009"><ele>219.0</ele><time>2026-04-20T14:11:01Z</time></trkpt><trkpt lat="45.623751623378254" lon="9.419415413714955"><ele>219.0</ele><time>2026-04-20T14:11:02Z</time></trkpt><trkpt lat="45.62361684028304" lon="9.419620423082312"><ele>219.0</ele><time>2026-04-20T14:11:03Z</time></trkpt><trkpt lat="45.62348432351699" lon="9.41982160767888"><ele>217.0</ele><time>2026-04-20T14:11:04Z</time></trkpt><trkpt lat="45.62335101588113" lon="9.420013868325725"><ele>215.0</ele><time>2026-04-20T14:11:05Z</time></trkpt><trkpt lat="45.62321617143518" lon="9.420210094399541"><ele>213.0</ele><time>2026-04-20T14:11:06Z</time></trkpt><trkpt lat="45.623086552801304" lon="9.42040058060293"><ele>212.66666666666669</ele><time>2026-04-20T14:11:07Z</time></trkpt><trkpt lat="45.62295953781695" lon="9.420594383772574"><ele>212.33333333333334</ele><time>2026-04-20T14:11:08Z</time></trkpt><trkpt lat="45.62282943246508" lon="9.420802527708567"><ele>212.0</ele><time>2026-04-20T14:11:09Z</time></trkpt><trkpt lat="45.62269071698526" lon="9.420997513972905"><ele>212.0</ele><time>2026-04-20T14:11:10Z</time></trkpt><trkpt lat="45.62256338409548" lon="9.421180171634335"><ele>212.0</ele><time>2026-04-20T14:11:11Z</time></trkpt><trkpt lat="45.622436087331884" lon="9.421360641325288"><ele>212.0</ele><time>2026-04-20T14:11:12Z</time></trkpt><trkpt lat="45.62229213096913" lon="9.421564785092118"><ele>212.0</ele><time>2026-04-20T14:11:13Z</time></trkpt><trkpt lat="45.62215220466781" lon="9.421762570373346"><ele>212.0</ele><time>2026-04-20T14:11:14Z</time></trkpt><trkpt lat="45.62203710332276" lon="9.421918473032997"><ele>212.0</ele><time>2026-04-20T14:11:15Z</time></trkpt><trkpt lat="45.62188251873535" lon="9.422096370470836"><ele>211.66666666666669</ele><time>2026-04-20T14:11:16Z</time></trkpt><trkpt lat="45.621791154287855" lon="9.422196099925536"><ele>211.33333333333331</ele><time>2026-04-20T14:11:17Z</time></trkpt><trkpt lat="45.621636912679186" lon="9.422346820610798"><ele>211.0</ele><time>2026-04-20T14:11:18Z</time></trkpt><trkpt lat="45.62147520161277" lon="9.422490963629574"><ele>211.0</ele><time>2026-04-20T14:11:19Z</time></trkpt><trkpt lat="45.62131139874394" lon="9.422630750919259"><ele>211.0</ele><time>2026-04-20T14:11:20Z</time></trkpt><trkpt lat="45.62113635467245" lon="9.422737315835223"><ele>211.0</ele><time>2026-04-20T14:11:21Z</time></trkpt><trkpt lat="45.62096248634345" lon="9.422858763992691"><ele>211.0</ele><time>2026-04-20T14:11:22Z</time></trkpt><trkpt lat="45.6207857454875" lon="9.422953791898175"><ele>211.0</ele><time>2026-04-20T14:11:23Z</time></trkpt><trkpt lat="45.62060527946855" lon="9.423030991488183"><ele>211.0</ele><time>2026-04-20T14:11:24Z</time></trkpt><trkpt lat="45.62042750324059" lon="9.423100485356073"><ele>210.75</ele><time>2026-04-20T14:11:25Z</time></trkpt><trkpt lat="45.62027034391787" lon="9.423154476914423"><ele>210.5</ele><time>2026-04-20T14:11:26Z</time></trkpt><trkpt lat="45.62013567396727" lon="9.423195631040574"><ele>210.25</ele><time>2026-04-20T14:11:27Z</time></trkpt><trkpt lat="45.62003504135945" lon="9.423246307028922"><ele>210.0</ele><time>2026-04-20T14:11:28Z</time></trkpt><trkpt lat="45.61994764107248" lon="9.42325732360283"><ele>210.0</ele><time>2026-04-20T14:11:29Z</time></trkpt><trkpt lat="45.619866847165824" lon="9.423258124791834"><ele>210.0</ele><time>2026-04-20T14:11:30Z</time></trkpt><trkpt lat="45.61976972206912" lon="9.42326694438477"><ele>210.0</ele><time>2026-04-20T14:11:32Z</time></trkpt><trkpt lat="45.619659623950966" lon="9.423277665476789"><ele>210.0</ele><time>2026-04-20T14:11:34Z</time></trkpt><trkpt lat="45.61953802042083" lon="9.42329444660263"><ele>210.0</ele><time>2026-04-20T14:11:35Z</time></trkpt><trkpt lat="45.6193930644106" lon="9.423306477066216"><ele>209.33333333333331</ele><time>2026-04-20T14:11:36Z</time></trkpt><trkpt lat="45.61924387446131" lon="9.42332574198762"><ele>208.66666666666666</ele><time>2026-04-20T14:11:37Z</time></trkpt><trkpt lat="45.61906079150406" lon="9.423328191237422"><ele>208.0</ele><time>2026-04-20T14:11:38Z</time></trkpt><trkpt lat="45.61884228982839" lon="9.423316754983665"><ele>207.66666666666666</ele><time>2026-04-20T14:11:39Z</time></trkpt><trkpt lat="45.618625937816276" lon="9.423319141065761"><ele>207.33333333333331</ele><time>2026-04-20T14:11:40Z</time></trkpt><trkpt lat="45.61841592893924" lon="9.423299942629116"><ele>207.0</ele><time>2026-04-20T14:11:41Z</time></trkpt><trkpt lat="45.61818418040712" lon="9.423297418285513"><ele>207.0</ele><time>2026-04-20T14:11:42Z</time></trkpt><trkpt lat="45.61796202642577" lon="9.423296788801126"><ele>207.0</ele><time>2026-04-20T14:11:43Z</time></trkpt><trkpt lat="45.617762182308525" lon="9.423282245106632"><ele>207.0</ele><time>2026-04-20T14:11:44Z</time></trkpt><trkpt lat="45.617566808547835" lon="9.423282451360103"><ele>206.66666666666669</ele><time>2026-04-20T14:11:45Z</time></trkpt><trkpt lat="45.61738283793825" lon="9.4232724536681"><ele>206.33333333333334</ele><time>2026-04-20T14:11:46Z</time></trkpt><trkpt lat="45.61718732040604" lon="9.423264813133553"><ele>206.0</ele><time>2026-04-20T14:11:47Z</time></trkpt><trkpt lat="45.617019781389246" lon="9.423258156815033"><ele>205.66666666666669</ele><time>2026-04-20T14:11:48Z</time></trkpt><trkpt lat="45.61682042754379" lon="9.423260839550531"><ele>205.33333333333331</ele><time>2026-04-20T14:11:49Z</time></trkpt><trkpt lat="45.616627408208686" lon="9.423249906407307"><ele>205.0</ele><time>2026-04-20T14:11:50Z</time></trkpt><trkpt lat="45.616431137136104" lon="9.42324660340137"><ele>205.0</ele><time>2026-04-20T14:11:51Z</time></trkpt><trkpt lat="45.61623268386938" lon="9.423244919749466"><ele>205.0</ele><time>2026-04-20T14:11:52Z</time></trkpt><trkpt lat="45.61604449543158" lon="9.423241136175319"><ele>205.0</ele><time>2026-04-20T14:11:53Z</time></trkpt><trkpt lat="45.615862005056734" lon="9.423224305299302"><ele>205.33333333333331</ele><time>2026-04-20T14:11:54Z</time></trkpt><trkpt lat="45.615696611194686" lon="9.42323645642095"><ele>205.66666666666669</ele><time>2026-04-20T14:11:55Z</time></trkpt><trkpt lat="45.615549072561414" lon="9.42324760648551"><ele>206.0</ele><time>2026-04-20T14:11:56Z</time></trkpt><trkpt lat="45.61538920300798" lon="9.423239789891452"><ele>205.66666666666669</ele><time>2026-04-20T14:11:57Z</time></trkpt><trkpt lat="45.61521918423932" lon="9.423238648576115"><ele>205.33333333333331</ele><time>2026-04-20T14:11:58Z</time></trkpt><trkpt lat="45.615026890187565" lon="9.423258504968812"><ele>205.0</ele><time>2026-04-20T14:11:59Z</time></trkpt><trkpt lat="45.614870518381444" lon="9.423298744584695"><ele>204.99999999999997</ele><time>2026-04-20T14:12:00Z</time></trkpt><trkpt lat="45.61474228869128" lon="9.423336823517868"><ele>205.0</ele><time>2026-04-20T14:12:01Z</time></trkpt><trkpt lat="45.61464500144015" lon="9.423376822208363"><ele>205.0</ele><time>2026-04-20T14:12:02Z</time></trkpt><trkpt lat="45.61457044142014" lon="9.42342872652738"><ele>205.0</ele><time>2026-04-20T14:12:03Z</time></trkpt><trkpt lat="45.61450185955636" lon="9.423438198541009"><ele>204.99999999999997</ele><time>2026-04-20T14:12:04Z</time></trkpt><trkpt lat="45.61444558846225" lon="9.423484159604007"><ele>205.0</ele><time>2026-04-20T14:12:07Z</time></trkpt><trkpt lat="45.61437249213789" lon="9.423515752264974"><ele>204.49999999999997</ele><time>2026-04-20T14:12:09Z</time></trkpt><trkpt lat="45.614280159576516" lon="9.423517939698968"><ele>204.0</ele><time>2026-04-20T14:12:11Z</time></trkpt><trkpt lat="45.61419187903297" lon="9.423505906011819"><ele>203.5</ele><time>2026-04-20T14:12:13Z</time></trkpt><trkpt lat="45.6141068049555" lon="9.42346792257878"><ele>203.0</ele><time>2026-04-20T14:12:14Z</time></trkpt><trkpt lat="45.61401564024979" lon="9.42345958488938"><ele>202.49999999999997</ele><time>2026-04-20T14:12:15Z</time></trkpt><trkpt lat="45.61395130640212" lon="9.423503534521465"><ele>202.0</ele><time>2026-04-20T14:12:16Z</time></trkpt><trkpt lat="45.61389824902322" lon="9.42359355179268"><ele>202.0</ele><time>2026-04-20T14:12:17Z</time></trkpt><trkpt lat="45.61388628049513" lon="9.423712143166227"><ele>202.0</ele><time>2026-04-20T14:12:18Z</time></trkpt><trkpt lat="45.61392004005588" lon="9.423823973439553"><ele>202.0</ele><time>2026-04-20T14:12:19Z</time></trkpt><trkpt lat="45.61398823531761" lon="9.423908755555953"><ele>202.0</ele><time>2026-04-20T14:12:20Z</time></trkpt><trkpt lat="45.61406783275918" lon="9.423975498644586"><ele>202.0</ele><time>2026-04-20T14:12:21Z</time></trkpt><trkpt lat="45.614152011394886" lon="9.42405936839453"><ele>202.25</ele><time>2026-04-20T14:12:22Z</time></trkpt><trkpt lat="45.61421877262881" lon="9.424180642471807"><ele>202.5</ele><time>2026-04-20T14:12:23Z</time></trkpt><trkpt lat="45.614275148547776" lon="9.424334269120802"><ele>202.75</ele><time>2026-04-20T14:12:24Z</time></trkpt><trkpt lat="45.61432320581297" lon="9.424497645161715"><ele>203.0</ele><time>2026-04-20T14:12:25Z</time></trkpt><trkpt lat="45.61437406642661" lon="9.424659209104849"><ele>202.60000000000002</ele><time>2026-04-20T14:12:26Z</time></trkpt><trkpt lat="45.61442004708375" lon="9.42481094636355"><ele>202.20000000000002</ele><time>2026-04-20T14:12:27Z</time></trkpt><trkpt lat="45.61446556727919" lon="9.424954938793606"><ele>201.8</ele><time>2026-04-20T14:12:28Z</time></trkpt><trkpt lat="45.614508430335846" lon="9.425088046106405"><ele>201.4</ele><time>2026-04-20T14:12:29Z</time></trkpt><trkpt lat="45.61455610600294" lon="9.425232271441622"><ele>201.0</ele><time>2026-04-20T14:12:30Z</time></trkpt><trkpt lat="45.614601217097146" lon="9.425384779689463"><ele>201.4</ele><time>2026-04-20T14:12:31Z</time></trkpt><trkpt lat="45.61464923389492" lon="9.425547759776832"><ele>201.8</ele><time>2026-04-20T14:12:32Z</time></trkpt><trkpt lat="45.614692341033276" lon="9.425691538893513"><ele>202.20000000000002</ele><time>2026-04-20T14:12:33Z</time></trkpt><trkpt lat="45.6147254994765" lon="9.425804505119151"><ele>202.60000000000002</ele><time>2026-04-20T14:12:34Z</time></trkpt><trkpt lat="45.61475917033541" lon="9.425900699536502"><ele>203.0</ele><time>2026-04-20T14:12:36Z</time></trkpt><trkpt lat="45.6149168051509" lon="9.42591859466223"><ele>203.0</ele><time>2026-04-20T14:12:38Z</time></trkpt><trkpt lat="45.615029771444576" lon="9.425782192702405"><ele>203.0</ele><time>2026-04-20T14:12:40Z</time></trkpt><trkpt lat="45.614988583908996" lon="9.425625005633304"><ele>203.0</ele><time>2026-04-20T14:12:41Z</time></trkpt><trkpt lat="45.614901025710836" lon="9.425541135757058"><ele>203.0</ele><time>2026-04-20T14:17:05Z</time></trkpt><trkpt lat="45.61485123118952" lon="9.425463867349958"><ele>203.0</ele><time>2026-04-20T14:17:10Z</time></trkpt><trkpt lat="45.61478886092364" lon="9.425341073908234"><ele>203.5</ele><time>2026-04-20T14:17:12Z</time></trkpt><trkpt lat="45.61467020575752" lon="9.425211731410023"><ele>204.0</ele><time>2026-04-20T14:17:14Z</time></trkpt><trkpt lat="45.6145951215982" lon="9.425115845732813"><ele>204.5</ele><time>2026-04-20T14:17:15Z</time></trkpt><trkpt lat="45.61452665922201" lon="9.42495179480926"><ele>205.0</ele><time>2026-04-20T14:17:16Z</time></trkpt><trkpt lat="45.61446665320838" lon="9.424758592931932"><ele>204.6</ele><time>2026-04-20T14:17:17Z</time></trkpt><trkpt lat="45.61441722520788" lon="9.424597437379143"><ele>204.2</ele><time>2026-04-20T14:17:18Z</time></trkpt><trkpt lat="45.61437393569435" lon="9.424467901861828"><ele>203.8</ele><time>2026-04-20T14:17:19Z</time></trkpt><trkpt lat="45.614332963560805" lon="9.424349319747874"><ele>203.4</ele><time>2026-04-20T14:17:20Z</time></trkpt><trkpt lat="45.61429805596279" lon="9.424241284063964"><ele>203.0</ele><time>2026-04-20T14:17:21Z</time></trkpt><trkpt lat="45.61426252753238" lon="9.424121336043216"><ele>203.00000000000003</ele><time>2026-04-20T14:17:22Z</time></trkpt><trkpt lat="45.614239117907005" lon="9.424017994345174"><ele>203.0</ele><time>2026-04-20T14:17:23Z</time></trkpt><trkpt lat="45.61423256550619" lon="9.423925328316557"><ele>203.0</ele><time>2026-04-20T14:17:24Z</time></trkpt><trkpt lat="45.61424089353721" lon="9.423817694482198"><ele>203.0</ele><time>2026-04-20T14:17:25Z</time></trkpt><trkpt lat="45.614282398897714" lon="9.423702017161304"><ele>203.00000000000003</ele><time>2026-04-20T14:17:26Z</time></trkpt><trkpt lat="45.61434997214957" lon="9.423601596201959"><ele>203.0</ele><time>2026-04-20T14:17:27Z</time></trkpt><trkpt lat="45.614451340259215" lon="9.423515319736008"><ele>203.5</ele><time>2026-04-20T14:17:28Z</time></trkpt><trkpt lat="45.61456886252728" lon="9.423447331862434"><ele>204.0</ele><time>2026-04-20T14:17:29Z</time></trkpt><trkpt lat="45.61469183415627" lon="9.423394754293703"><ele>204.5</ele><time>2026-04-20T14:17:30Z</time></trkpt><trkpt lat="45.614801728766246" lon="9.423358665095952"><ele>205.0</ele><time>2026-04-20T14:17:31Z</time></trkpt><trkpt lat="45.614924960978136" lon="9.423313399764027"><ele>205.0</ele><time>2026-04-20T14:17:32Z</time></trkpt><trkpt lat="45.61504468735251" lon="9.423292242393508"><ele>205.0</ele><time>2026-04-20T14:17:33Z</time></trkpt><trkpt lat="45.61518412742019" lon="9.42327405494947"><ele>205.0</ele><time>2026-04-20T14:17:34Z</time></trkpt><trkpt lat="45.61530663496747" lon="9.423275763760527"><ele>205.0</ele><time>2026-04-20T14:17:35Z</time></trkpt><trkpt lat="45.61536753014357" lon="9.42333064563132"><ele>205.25</ele><time>2026-04-20T14:17:36Z</time></trkpt><trkpt lat="45.61548434990242" lon="9.423332915224115"><ele>205.5</ele><time>2026-04-20T14:17:37Z</time></trkpt><trkpt lat="45.61563098343197" lon="9.423337249953379"><ele>205.75</ele><time>2026-04-20T14:17:38Z</time></trkpt><trkpt lat="45.615775738604555" lon="9.423340626405064"><ele>206.0</ele><time>2026-04-20T14:17:39Z</time></trkpt><trkpt lat="45.61591383777" lon="9.423347995272811"><ele>206.0</ele><time>2026-04-20T14:17:40Z</time></trkpt><trkpt lat="45.616075008069586" lon="9.423345668672024"><ele>206.0</ele><time>2026-04-20T14:17:41Z</time></trkpt><trkpt lat="45.61623160149925" lon="9.4233294703456"><ele>206.0</ele><time>2026-04-20T14:17:42Z</time></trkpt><trkpt lat="45.61637884881548" lon="9.423327111549051"><ele>205.66666666666669</ele><time>2026-04-20T14:17:43Z</time></trkpt><trkpt lat="45.61655510733752" lon="9.423331601447087"><ele>205.33333333333331</ele><time>2026-04-20T14:17:44Z</time></trkpt><trkpt lat="45.616720589580375" lon="9.423337457606785"><ele>205.0</ele><time>2026-04-20T14:17:45Z</time></trkpt><trkpt lat="45.616868031261774" lon="9.42335417206288"><ele>205.25</ele><time>2026-04-20T14:17:46Z</time></trkpt><trkpt lat="45.61701254441282" lon="9.42336174568216"><ele>205.5</ele><time>2026-04-20T14:17:47Z</time></trkpt><trkpt lat="45.617141602084175" lon="9.423365948884667"><ele>205.75</ele><time>2026-04-20T14:17:48Z</time></trkpt><trkpt lat="45.617257858323605" lon="9.423369257051915"><ele>206.0</ele><time>2026-04-20T14:17:49Z</time></trkpt><trkpt lat="45.617383884626925" lon="9.423359387541296"><ele>206.0</ele><time>2026-04-20T14:17:50Z</time></trkpt><trkpt lat="45.61752866358147" lon="9.423332044102352"><ele>206.0</ele><time>2026-04-20T14:17:51Z</time></trkpt><trkpt lat="45.61769977570053" lon="9.423353206630946"><ele>206.0</ele><time>2026-04-20T14:17:52Z</time></trkpt><trkpt lat="45.61782883558096" lon="9.423363661460783"><ele>206.0</ele><time>2026-04-20T14:17:53Z</time></trkpt><trkpt lat="45.61792877960715" lon="9.423376453649974"><ele>206.25</ele><time>2026-04-20T14:17:54Z</time></trkpt><trkpt lat="45.61801425428659" lon="9.423367484579806"><ele>206.5</ele><time>2026-04-20T14:17:55Z</time></trkpt><trkpt lat="45.61810986448693" lon="9.42336309685071"><ele>206.75</ele><time>2026-04-20T14:17:56Z</time></trkpt><trkpt lat="45.618316534664324" lon="9.423354329148953"><ele>207.0</ele><time>2026-04-20T14:17:57Z</time></trkpt><trkpt lat="45.61850689190772" lon="9.423366019923042"><ele>207.33333333333331</ele><time>2026-04-20T14:17:58Z</time></trkpt><trkpt lat="45.618678375770756" lon="9.423380633967056"><ele>207.66666666666666</ele><time>2026-04-20T14:17:59Z</time></trkpt><trkpt lat="45.618839886720856" lon="9.423385124562541"><ele>208.0</ele><time>2026-04-20T14:18:00Z</time></trkpt><trkpt lat="45.61898105147535" lon="9.423387476778817"><ele>208.0</ele><time>2026-04-20T14:18:01Z</time></trkpt><trkpt lat="45.619130939582504" lon="9.42338437822447"><ele>208.0</ele><time>2026-04-20T14:18:02Z</time></trkpt><trkpt lat="45.61929502423757" lon="9.423384807100243"><ele>208.0</ele><time>2026-04-20T14:18:03Z</time></trkpt><trkpt lat="45.619469106454055" lon="9.423368479552504"><ele>208.66666666666666</ele><time>2026-04-20T14:18:04Z</time></trkpt><trkpt lat="45.619642059879396" lon="9.423352511394697"><ele>209.33333333333331</ele><time>2026-04-20T14:18:05Z</time></trkpt><trkpt lat="45.61980693322361" lon="9.423328293248394"><ele>210.0</ele><time>2026-04-20T14:18:06Z</time></trkpt><trkpt lat="45.6199599607174" lon="9.423289752468184"><ele>210.0</ele><time>2026-04-20T14:18:07Z</time></trkpt><trkpt lat="45.620117171581526" lon="9.42324508379449"><ele>210.0</ele><time>2026-04-20T14:18:08Z</time></trkpt><trkpt lat="45.62027263493334" lon="9.423205957180304"><ele>210.0</ele><time>2026-04-20T14:18:09Z</time></trkpt><trkpt lat="45.62038859212427" lon="9.423163591883728"><ele>210.0</ele><time>2026-04-20T14:18:10Z</time></trkpt><trkpt lat="45.62047864738623" lon="9.423138174229198"><ele>210.33333333333331</ele><time>2026-04-20T14:18:11Z</time></trkpt><trkpt lat="45.620555801434286" lon="9.423120668669588"><ele>210.66666666666666</ele><time>2026-04-20T14:18:12Z</time></trkpt><trkpt lat="45.62062358160227" lon="9.423109665064873"><ele>211.0</ele><time>2026-04-20T14:18:13Z</time></trkpt><trkpt lat="45.621016536228254" lon="9.422930837595537"><ele>211.0</ele><time>2026-04-20T14:18:14Z</time></trkpt><trkpt lat="45.62114288542757" lon="9.422869778905683"><ele>211.0</ele><time>2026-04-20T14:18:15Z</time></trkpt><trkpt lat="45.62123976678983" lon="9.42277432639713"><ele>211.0</ele><time>2026-04-20T14:18:16Z</time></trkpt><trkpt lat="45.62136299813735" lon="9.422678219819453"><ele>211.0</ele><time>2026-04-20T14:18:17Z</time></trkpt><trkpt lat="45.6214878304183" lon="9.422567391600209"><ele>211.0</ele><time>2026-04-20T14:18:18Z</time></trkpt><trkpt lat="45.621623464793245" lon="9.422452684117669"><ele>211.0</ele><time>2026-04-20T14:18:19Z</time></trkpt><trkpt lat="45.62175443681296" lon="9.422336179990326"><ele>211.0</ele><time>2026-04-20T14:18:20Z</time></trkpt><trkpt lat="45.62186437824736" lon="9.422221260421521"><ele>211.0</ele><time>2026-04-20T14:18:21Z</time></trkpt><trkpt lat="45.62196362270295" lon="9.42211649772387"><ele>211.0</ele><time>2026-04-20T14:18:22Z</time></trkpt><trkpt lat="45.62204831915509" lon="9.422027553088535"><ele>211.0</ele><time>2026-04-20T14:18:23Z</time></trkpt><trkpt lat="45.622121430056886" lon="9.421977980801273"><ele>211.0</ele><time>2026-04-20T14:18:24Z</time></trkpt><trkpt lat="45.62217889800702" lon="9.421935417666571"><ele>211.0</ele><time>2026-04-20T14:18:25Z</time></trkpt><trkpt lat="45.62227176214187" lon="9.422068183283965"><ele>211.0</ele><time>2026-04-20T14:18:26Z</time></trkpt><trkpt lat="45.62234750570586" lon="9.42214540388768"><ele>210.8</ele><time>2026-04-20T14:18:27Z</time></trkpt><trkpt lat="45.62238994262576" lon="9.422283614292464"><ele>210.60000000000002</ele><time>2026-04-20T14:18:28Z</time></trkpt><trkpt lat="45.62245752774715" lon="9.422404594036472"><ele>210.4</ele><time>2026-04-20T14:18:29Z</time></trkpt><trkpt lat="45.62247912657366" lon="9.422511165906093"><ele>210.2</ele><time>2026-04-20T14:18:30Z</time></trkpt><trkpt lat="45.622492940729" lon="9.422617051357571"><ele>210.0</ele><time>2026-04-20T14:18:32Z</time></trkpt><trkpt lat="45.622590616049706" lon="9.422513324130383"><ele>210.0</ele><time>2026-04-20T14:18:37Z</time></trkpt><trkpt lat="45.62252122082413" lon="9.422471241657421"><ele>210.0</ele><time>2026-04-20T14:18:40Z</time></trkpt><trkpt lat="45.62245268999289" lon="9.422495985922644"><ele>210.0</ele><time>2026-04-20T14:18:45Z</time></trkpt><trkpt lat="45.62249224275476" lon="9.422727274611402"><ele>210.0</ele><time>2026-04-20T14:18:47Z</time></trkpt><trkpt lat="45.62254473878031" lon="9.422877571647751"><ele>210.0</ele><time>2026-04-20T14:18:48Z</time></trkpt><trkpt lat="45.62259440765197" lon="9.423048187209176"><ele>210.25</ele><time>2026-04-20T14:18:49Z</time></trkpt><trkpt lat="45.622640068007044" lon="9.42321350348675"><ele>210.5</ele><time>2026-04-20T14:18:50Z</time></trkpt><trkpt lat="45.62268154653878" lon="9.423367558880546"><ele>210.75</ele><time>2026-04-20T14:18:51Z</time></trkpt><trkpt lat="45.622723771596256" lon="9.423532562062839"><ele>211.0</ele><time>2026-04-20T14:18:52Z</time></trkpt><trkpt lat="45.62277235254937" lon="9.423712001795641"><ele>211.5</ele><time>2026-04-20T14:18:53Z</time></trkpt><trkpt lat="45.622818788974804" lon="9.423874291442784"><ele>212.0</ele><time>2026-04-20T14:18:54Z</time></trkpt><trkpt lat="45.622863351580314" lon="9.424042159450165"><ele>212.5</ele><time>2026-04-20T14:18:55Z</time></trkpt><trkpt lat="45.6229085254611" lon="9.424224611449183"><ele>213.0</ele><time>2026-04-20T14:18:56Z</time></trkpt><trkpt lat="45.62295970251281" lon="9.424414127475128"><ele>213.0</ele><time>2026-04-20T14:18:57Z</time></trkpt><trkpt lat="45.62301465251196" lon="9.42460288447974"><ele>213.0</ele><time>2026-04-20T14:18:58Z</time></trkpt><trkpt lat="45.62306740857481" lon="9.424796667877965"><ele>213.0</ele><time>2026-04-20T14:18:59Z</time></trkpt><trkpt lat="45.623123099852265" lon="9.424990403996588"><ele>213.0</ele><time>2026-04-20T14:19:00Z</time></trkpt><trkpt lat="45.62317521864618" lon="9.425176705614973"><ele>213.25</ele><time>2026-04-20T14:19:01Z</time></trkpt><trkpt lat="45.62322715883424" lon="9.42536690585564"><ele>213.5</ele><time>2026-04-20T14:19:02Z</time></trkpt><trkpt lat="45.623273359275125" lon="9.425561052611208"><ele>213.75</ele><time>2026-04-20T14:19:03Z</time></trkpt><trkpt lat="45.623321773180045" lon="9.425747433794136"><ele>214.0</ele><time>2026-04-20T14:19:04Z</time></trkpt><trkpt lat="45.62336604793294" lon="9.425921380710523"><ele>214.0</ele><time>2026-04-20T14:19:05Z</time></trkpt><trkpt lat="45.62340939133135" lon="9.426078032355848"><ele>213.99999999999997</ele><time>2026-04-20T14:19:06Z</time></trkpt><trkpt lat="45.623444411068355" lon="9.426203352578254"><ele>213.99999999999997</ele><time>2026-04-20T14:19:07Z</time></trkpt><trkpt lat="45.62346947087767" lon="9.426302572838582"><ele>214.0</ele><time>2026-04-20T14:19:08Z</time></trkpt><trkpt lat="45.62350019036868" lon="9.426427401776358"><ele>214.0</ele><time>2026-04-20T14:19:10Z</time></trkpt><trkpt lat="45.62352872711437" lon="9.42652850442971"><ele>213.75</ele><time>2026-04-20T14:19:11Z</time></trkpt><trkpt lat="45.623561785310535" lon="9.426659000774428"><ele>213.5</ele><time>2026-04-20T14:19:12Z</time></trkpt><trkpt lat="45.62360149441656" lon="9.426811068329883"><ele>213.25</ele><time>2026-04-20T14:19:13Z</time></trkpt><trkpt lat="45.62364883177988" lon="9.42698847786086"><ele>213.0</ele><time>2026-04-20T14:19:14Z</time></trkpt><trkpt lat="45.62370135218038" lon="9.427171929404201"><ele>213.66666666666669</ele><time>2026-04-20T14:19:15Z</time></trkpt><trkpt lat="45.623752672016145" lon="9.427377849749822"><ele>214.33333333333334</ele><time>2026-04-20T14:19:16Z</time></trkpt><trkpt lat="45.62380439004855" lon="9.427584392382462"><ele>215.0</ele><time>2026-04-20T14:19:17Z</time></trkpt><trkpt lat="45.62386134637396" lon="9.427803127571737"><ele>215.25</ele><time>2026-04-20T14:19:18Z</time></trkpt><trkpt lat="45.62391281828005" lon="9.428009097970179"><ele>215.5</ele><time>2026-04-20T14:19:19Z</time></trkpt><trkpt lat="45.623952264213365" lon="9.428192685431704"><ele>215.75</ele><time>2026-04-20T14:19:20Z</time></trkpt><trkpt lat="45.623983539704724" lon="9.428356911443966"><ele>216.0</ele><time>2026-04-20T14:19:21Z</time></trkpt><trkpt lat="45.624021578200114" lon="9.42853561123549"><ele>216.0</ele><time>2026-04-20T14:19:22Z</time></trkpt><trkpt lat="45.6240686329685" lon="9.428752996510273"><ele>216.0</ele><time>2026-04-20T14:19:23Z</time></trkpt><trkpt lat="45.624108416380686" lon="9.428994411086041"><ele>216.0</ele><time>2026-04-20T14:19:24Z</time></trkpt><trkpt lat="45.62413284240727" lon="9.429234729743547"><ele>216.0</ele><time>2026-04-20T14:19:25Z</time></trkpt><trkpt lat="45.62414332226959" lon="9.42945997243428"><ele>216.0</ele><time>2026-04-20T14:19:26Z</time></trkpt><trkpt lat="45.6241539041899" lon="9.42966708222348"><ele>216.0</ele><time>2026-04-20T14:19:27Z</time></trkpt><trkpt lat="45.62417670105307" lon="9.429855459692542"><ele>216.0</ele><time>2026-04-20T14:19:28Z</time></trkpt><trkpt lat="45.62420717732713" lon="9.430025736755839"><ele>216.0</ele><time>2026-04-20T14:19:29Z</time></trkpt><trkpt lat="45.62422464368971" lon="9.430194630668321"><ele>216.0</ele><time>2026-04-20T14:19:30Z</time></trkpt><trkpt lat="45.6242187785791" lon="9.43031724732982"><ele>216.0</ele><time>2026-04-20T14:19:31Z</time></trkpt><trkpt lat="45.624234062850455" lon="9.430484020488262"><ele>216.0</ele><time>2026-04-20T14:19:33Z</time></trkpt><trkpt lat="45.62444296364681" lon="9.430420914537077"><ele>216.0</ele><time>2026-04-20T14:19:34Z</time></trkpt><trkpt lat="45.62454939644568" lon="9.430443371937635"><ele>216.0</ele><time>2026-04-20T14:19:35Z</time></trkpt><trkpt lat="45.624658784700976" lon="9.430458708483068"><ele>216.0</ele><time>2026-04-20T14:19:36Z</time></trkpt><trkpt lat="45.62477991760956" lon="9.430492732256626"><ele>216.0</ele><time>2026-04-20T14:19:37Z</time></trkpt><trkpt lat="45.62490443840941" lon="9.430538167777335"><ele>216.0</ele><time>2026-04-20T14:19:38Z</time></trkpt><trkpt lat="45.62500721778418" lon="9.430568444624003"><ele>216.00000000000003</ele><time>2026-04-20T14:19:39Z</time></trkpt><trkpt lat="45.62511123587817" lon="9.430602897193056"><ele>216.00000000000003</ele><time>2026-04-20T14:19:40Z</time></trkpt><trkpt lat="45.62521982690294" lon="9.430641495164334"><ele>216.0</ele><time>2026-04-20T14:19:41Z</time></trkpt><trkpt lat="45.62531987830209" lon="9.430681047520496"><ele>216.0</ele><time>2026-04-20T14:19:42Z</time></trkpt><trkpt lat="45.62542720446308" lon="9.43070621476132"><ele>216.0</ele><time>2026-04-20T14:19:43Z</time></trkpt><trkpt lat="45.6255322550171" lon="9.430730767632957"><ele>216.00000000000003</ele><time>2026-04-20T14:19:44Z</time></trkpt><trkpt lat="45.62562541495171" lon="9.430731507573563"><ele>216.00000000000003</ele><time>2026-04-20T14:19:45Z</time></trkpt><trkpt lat="45.62571708884391" lon="9.43067428016119"><ele>216.0</ele><time>2026-04-20T14:19:46Z</time></trkpt><trkpt lat="45.62580148391925" lon="9.43057223476151"><ele>216.0</ele><time>2026-04-20T14:19:47Z</time></trkpt><trkpt lat="45.62586001226398" lon="9.430425006790054"><ele>216.0</ele><time>2026-04-20T14:19:48Z</time></trkpt><trkpt lat="45.62590727237382" lon="9.430245741920533"><ele>216.0</ele><time>2026-04-20T14:19:49Z</time></trkpt><trkpt lat="45.625938383901094" lon="9.430040546532123"><ele>216.0</ele><time>2026-04-20T14:19:50Z</time></trkpt><trkpt lat="45.62597567375751" lon="9.42984321369383"><ele>216.0</ele><time>2026-04-20T14:19:51Z</time></trkpt><trkpt lat="45.62600288574674" lon="9.429649337616697"><ele>216.0</ele><time>2026-04-20T14:19:52Z</time></trkpt><trkpt lat="45.62603648509014" lon="9.42945231161689"><ele>216.0</ele><time>2026-04-20T14:19:53Z</time></trkpt><trkpt lat="45.62608196737404" lon="9.429238518319996"><ele>216.0</ele><time>2026-04-20T14:19:54Z</time></trkpt><trkpt lat="45.62611445399807" lon="9.429015028267528"><ele>216.33333333333331</ele><time>2026-04-20T14:19:55Z</time></trkpt><trkpt lat="45.626148895289205" lon="9.428795145655867"><ele>216.66666666666666</ele><time>2026-04-20T14:19:56Z</time></trkpt><trkpt lat="45.626180005819954" lon="9.428574371246894"><ele>217.0</ele><time>2026-04-20T14:19:57Z</time></trkpt><trkpt lat="45.62621164334878" lon="9.428341417743347"><ele>217.0</ele><time>2026-04-20T14:19:58Z</time></trkpt><trkpt lat="45.62624949830847" lon="9.428099409301993"><ele>217.0</ele><time>2026-04-20T14:19:59Z</time></trkpt><trkpt lat="45.62627104222891" lon="9.42785714664727"><ele>217.0</ele><time>2026-04-20T14:20:00Z</time></trkpt><trkpt lat="45.62629459529381" lon="9.427630226201059"><ele>217.0</ele><time>2026-04-20T14:20:01Z</time></trkpt><trkpt lat="45.6263167994559" lon="9.427419038573499"><ele>217.0</ele><time>2026-04-20T14:20:02Z</time></trkpt><trkpt lat="45.626333411319095" lon="9.427221846819247"><ele>217.0</ele><time>2026-04-20T14:20:03Z</time></trkpt><trkpt lat="45.62635471281983" lon="9.427040455416492"><ele>217.0</ele><time>2026-04-20T14:20:04Z</time></trkpt><trkpt lat="45.62636632352407" lon="9.426883602135854"><ele>217.0</ele><time>2026-04-20T14:20:05Z</time></trkpt><trkpt lat="45.626383990516565" lon="9.42676409872232"><ele>217.0</ele><time>2026-04-20T14:20:06Z</time></trkpt><trkpt lat="45.62643370227978" lon="9.42660147831597"><ele>217.0</ele><time>2026-04-20T14:20:08Z</time></trkpt><trkpt lat="45.62649909412698" lon="9.426524117699229"><ele>217.0</ele><time>2026-04-20T14:20:09Z</time></trkpt><trkpt lat="45.62660286163408" lon="9.426437870764902"><ele>217.0</ele><time>2026-04-20T14:20:11Z</time></trkpt><trkpt lat="45.626678034202236" lon="9.426474920596364"><ele>217.0</ele><time>2026-04-20T14:20:12Z</time></trkpt><trkpt lat="45.62676177856086" lon="9.426496815323418"><ele>217.0</ele><time>2026-04-20T14:20:13Z</time></trkpt><trkpt lat="45.62683047218804" lon="9.426484594799021"><ele>217.0</ele><time>2026-04-20T14:20:17Z</time></trkpt><trkpt lat="45.62684341190997" lon="9.426386971894278"><ele>217.0</ele><time>2026-04-20T14:20:33Z</time></trkpt><trkpt lat="45.626857125479034" lon="9.42619270409864"><ele>217.0</ele><time>2026-04-20T14:20:37Z</time></trkpt><trkpt lat="45.62675193884462" lon="9.426169543221814"><ele>216.99999999999997</ele><time>2026-04-20T14:20:39Z</time></trkpt><trkpt lat="45.62667612143915" lon="9.426152849106591"><ele>217.0</ele><time>2026-04-20T14:20:40Z</time></trkpt><trkpt lat="45.626607539507745" lon="9.426137748158734"><ele>217.0</ele><time>2026-04-20T14:20:41Z</time></trkpt><trkpt lat="45.62651563757067" lon="9.426117512415125"><ele>217.0</ele><time>2026-04-20T14:20:43Z</time></trkpt><trkpt lat="45.62640759855681" lon="9.426093723472555"><ele>216.99999999999997</ele><time>2026-04-20T14:20:45Z</time></trkpt><trkpt lat="45.62630924807155" lon="9.42607206782353"><ele>217.0</ele><time>2026-04-20T14:20:47Z</time></trkpt><trkpt lat="45.62626310352398" lon="9.426517926454354"><ele>217.0</ele><time>2026-04-20T14:20:48Z</time></trkpt><trkpt lat="45.62628906726552" lon="9.426638212319004"><ele>217.0</ele><time>2026-04-20T14:20:49Z</time></trkpt><trkpt lat="45.62632732345243" lon="9.426785897949097"><ele>217.0</ele><time>2026-04-20T14:20:50Z</time></trkpt><trkpt lat="45.62633308960315" lon="9.426973552379769"><ele>217.0</ele><time>2026-04-20T14:20:51Z</time></trkpt><trkpt lat="45.62630445331778" lon="9.427195526385177"><ele>217.0</ele><time>2026-04-20T14:20:52Z</time></trkpt><trkpt lat="45.62626890805737" lon="9.427453786054409"><ele>217.0</ele><time>2026-04-20T14:20:53Z</time></trkpt><trkpt lat="45.626237004680675" lon="9.42770657492058"><ele>217.0</ele><time>2026-04-20T14:20:54Z</time></trkpt><trkpt lat="45.626208094828854" lon="9.427957876350035"><ele>217.0</ele><time>2026-04-20T14:20:55Z</time></trkpt><trkpt lat="45.62617836569801" lon="9.428180199112827"><ele>217.0</ele><time>2026-04-20T14:20:56Z</time></trkpt><trkpt lat="45.62615211417965" lon="9.42837903987775"><ele>217.0</ele><time>2026-04-20T14:20:57Z</time></trkpt><trkpt lat="45.62613214621898" lon="9.428560573642624"><ele>217.0</ele><time>2026-04-20T14:20:58Z</time></trkpt><trkpt lat="45.626106484450844" lon="9.428754783301747"><ele>216.75</ele><time>2026-04-20T14:20:59Z</time></trkpt><trkpt lat="45.6260713955454" lon="9.428955911732396"><ele>216.5</ele><time>2026-04-20T14:21:00Z</time></trkpt><trkpt lat="45.626041770457704" lon="9.42915946174204"><ele>216.25</ele><time>2026-04-20T14:21:01Z</time></trkpt><trkpt lat="45.626010701745905" lon="9.4293619939097"><ele>216.0</ele><time>2026-04-20T14:21:02Z</time></trkpt><trkpt lat="45.62598365101031" lon="9.429570483648066"><ele>216.0</ele><time>2026-04-20T14:21:03Z</time></trkpt><trkpt lat="45.625949636743066" lon="9.42977030745158"><ele>216.0</ele><time>2026-04-20T14:21:04Z</time></trkpt><trkpt lat="45.625914501635904" lon="9.429952864240871"><ele>216.0</ele><time>2026-04-20T14:21:05Z</time></trkpt><trkpt lat="45.62589175161488" lon="9.430109419547117"><ele>216.0</ele><time>2026-04-20T14:21:06Z</time></trkpt><trkpt lat="45.62586327487227" lon="9.430235361913702"><ele>216.0</ele><time>2026-04-20T14:21:07Z</time></trkpt><trkpt lat="45.62582672251807" lon="9.430361815661602"><ele>216.00000000000003</ele><time>2026-04-20T14:21:08Z</time></trkpt><trkpt lat="45.62578069688591" lon="9.430496693229165"><ele>216.00000000000003</ele><time>2026-04-20T14:21:09Z</time></trkpt><trkpt lat="45.62571874627703" lon="9.430602534467804"><ele>216.0</ele><time>2026-04-20T14:21:10Z</time></trkpt><trkpt lat="45.62564729190358" lon="9.430664139115924"><ele>216.0</ele><time>2026-04-20T14:21:11Z</time></trkpt><trkpt lat="45.62556002040843" lon="9.430675536273835"><ele>216.0</ele><time>2026-04-20T14:21:12Z</time></trkpt><trkpt lat="45.625437086280435" lon="9.430662588609339"><ele>216.0</ele><time>2026-04-20T14:21:13Z</time></trkpt><trkpt lat="45.625317324224994" lon="9.43061811531627"><ele>216.0</ele><time>2026-04-20T14:21:14Z</time></trkpt><trkpt lat="45.62518811870543" lon="9.43057378157574"><ele>216.0</ele><time>2026-04-20T14:21:15Z</time></trkpt><trkpt lat="45.625045811484" lon="9.430530615100233"><ele>216.0</ele><time>2026-04-20T14:21:16Z</time></trkpt><trkpt lat="45.624875710232345" lon="9.430477820892179"><ele>216.0</ele><time>2026-04-20T14:21:17Z</time></trkpt><trkpt lat="45.62472516170283" lon="9.430429513666192"><ele>216.0</ele><time>2026-04-20T14:21:18Z</time></trkpt><trkpt lat="45.624597645981005" lon="9.430384001060395"><ele>216.0</ele><time>2026-04-20T14:21:19Z</time></trkpt><trkpt lat="45.62450122881281" lon="9.430351574394436"><ele>216.00000000000003</ele><time>2026-04-20T14:21:20Z</time></trkpt><trkpt lat="45.62440834234831" lon="9.43032641516267"><ele>216.00000000000003</ele><time>2026-04-20T14:21:22Z</time></trkpt><trkpt lat="45.62434241404651" lon="9.430325507154222"><ele>216.0</ele><time>2026-04-20T14:21:24Z</time></trkpt><trkpt lat="45.62425259107481" lon="9.430362136508846"><ele>216.0</ele><time>2026-04-20T14:21:29Z</time></trkpt><trkpt lat="45.624204807030246" lon="9.430537765539558"><ele>215.5</ele><time>2026-04-20T14:21:31Z</time></trkpt><trkpt lat="45.6242291986025" lon="9.4306816058822"><ele>215.0</ele><time>2026-04-20T14:21:32Z</time></trkpt><trkpt lat="45.624260535317966" lon="9.430873025693042"><ele>214.5</ele><time>2026-04-20T14:21:33Z</time></trkpt><trkpt lat="45.62429954993029" lon="9.431059834901314"><ele>214.0</ele><time>2026-04-20T14:21:34Z</time></trkpt><trkpt lat="45.62435805145701" lon="9.431267294676259"><ele>214.33333333333331</ele><time>2026-04-20T14:21:35Z</time></trkpt><trkpt lat="45.62447264900773" lon="9.43146549638974"><ele>214.66666666666669</ele><time>2026-04-20T14:21:36Z</time></trkpt><trkpt lat="45.624584819861674" lon="9.431649290596399"><ele>215.0</ele><time>2026-04-20T14:21:37Z</time></trkpt><trkpt lat="45.62470585639036" lon="9.43183286213055"><ele>215.0</ele><time>2026-04-20T14:21:38Z</time></trkpt><trkpt lat="45.62482412303082" lon="9.432028311921226"><ele>215.0</ele><time>2026-04-20T14:21:39Z</time></trkpt><trkpt lat="45.624939294215146" lon="9.4322215807384"><ele>215.0</ele><time>2026-04-20T14:21:40Z</time></trkpt><trkpt lat="45.62505732062843" lon="9.432420493182489"><ele>215.0</ele><time>2026-04-20T14:21:41Z</time></trkpt><trkpt lat="45.625179749920385" lon="9.432624705915917"><ele>215.0</ele><time>2026-04-20T14:21:42Z</time></trkpt><trkpt lat="45.625302493485826" lon="9.432845584597185"><ele>215.0</ele><time>2026-04-20T14:21:43Z</time></trkpt><trkpt lat="45.62544224583987" lon="9.43307826739707"><ele>215.0</ele><time>2026-04-20T14:21:44Z</time></trkpt><trkpt lat="45.625584542492206" lon="9.433321936170957"><ele>215.0</ele><time>2026-04-20T14:21:45Z</time></trkpt><trkpt lat="45.62574736088592" lon="9.43354950693364"><ele>215.0</ele><time>2026-04-20T14:21:46Z</time></trkpt><trkpt lat="45.62590029799877" lon="9.433737363211735"><ele>215.0</ele><time>2026-04-20T14:21:47Z</time></trkpt><trkpt lat="45.62602890572893" lon="9.433930923770538"><ele>215.0</ele><time>2026-04-20T14:21:48Z</time></trkpt><trkpt lat="45.62615423684816" lon="9.434127117456523"><ele>215.66666666666669</ele><time>2026-04-20T14:21:49Z</time></trkpt><trkpt lat="45.62627489564322" lon="9.434340259056118"><ele>216.33333333333331</ele><time>2026-04-20T14:21:50Z</time></trkpt><trkpt lat="45.626402572532335" lon="9.434557635335809"><ele>217.0</ele><time>2026-04-20T14:21:51Z</time></trkpt><trkpt lat="45.62651597426581" lon="9.434773044653634"><ele>217.0</ele><time>2026-04-20T14:21:52Z</time></trkpt><trkpt lat="45.6266200884383" lon="9.434988358469548"><ele>217.0</ele><time>2026-04-20T14:21:53Z</time></trkpt><trkpt lat="45.626717732134665" lon="9.435199143029848"><ele>217.0</ele><time>2026-04-20T14:21:54Z</time></trkpt><trkpt lat="45.626810062683795" lon="9.43542314471141"><ele>217.0</ele><time>2026-04-20T14:21:55Z</time></trkpt><trkpt lat="45.62690160001633" lon="9.435652124445175"><ele>217.0</ele><time>2026-04-20T14:21:56Z</time></trkpt><trkpt lat="45.626978914914766" lon="9.435878512727623"><ele>217.0</ele><time>2026-04-20T14:21:57Z</time></trkpt><trkpt lat="45.62704036093369" lon="9.436119447888757"><ele>217.66666666666666</ele><time>2026-04-20T14:21:58Z</time></trkpt><trkpt lat="45.62708771272278" lon="9.436365383025361"><ele>218.33333333333331</ele><time>2026-04-20T14:21:59Z</time></trkpt><trkpt lat="45.627109007111564" lon="9.436582894480832"><ele>219.0</ele><time>2026-04-20T14:22:00Z</time></trkpt><trkpt lat="45.6271488179483" lon="9.43679456602284"><ele>219.0</ele><time>2026-04-20T14:22:01Z</time></trkpt><trkpt lat="45.62719057707417" lon="9.437019822458057"><ele>219.0</ele><time>2026-04-20T14:22:02Z</time></trkpt><trkpt lat="45.627224767829155" lon="9.437210397013084"><ele>219.0</ele><time>2026-04-20T14:22:03Z</time></trkpt><trkpt lat="45.627277596904065" lon="9.437398958406446"><ele>219.0</ele><time>2026-04-20T14:22:04Z</time></trkpt><trkpt lat="45.62733483736708" lon="9.437589575170039"><ele>219.0</ele><time>2026-04-20T14:22:05Z</time></trkpt><trkpt lat="45.627369261432214" lon="9.437768269436337"><ele>218.99999999999997</ele><time>2026-04-20T14:22:06Z</time></trkpt><trkpt lat="45.62736747115689" lon="9.43792656369685"><ele>218.99999999999997</ele><time>2026-04-20T14:22:07Z</time></trkpt><trkpt lat="45.627410826172486" lon="9.438062744740503"><ele>219.0</ele><time>2026-04-20T14:22:08Z</time></trkpt><trkpt lat="45.627489194638756" lon="9.438122051087731"><ele>219.0</ele><time>2026-04-20T14:22:09Z</time></trkpt><trkpt lat="45.62755393865483" lon="9.438064511286198"><ele>219.0</ele><time>2026-04-20T14:22:10Z</time></trkpt><trkpt lat="45.62763095457582" lon="9.438016764652932"><ele>219.0</ele><time>2026-04-20T14:22:11Z</time></trkpt><trkpt lat="45.62772615237683" lon="9.437954515379415"><ele>219.0</ele><time>2026-04-20T14:22:12Z</time></trkpt><trkpt lat="45.62785502991812" lon="9.437889284977079"><ele>219.0</ele><time>2026-04-20T14:22:13Z</time></trkpt><trkpt lat="45.62801858981884" lon="9.437869031561545"><ele>219.66666666666669</ele><time>2026-04-20T14:22:14Z</time></trkpt><trkpt lat="45.62820057171476" lon="9.43788563581963"><ele>220.33333333333334</ele><time>2026-04-20T14:22:15Z</time></trkpt><trkpt lat="45.6283753458235" lon="9.437918895575647"><ele>221.0</ele><time>2026-04-20T14:22:16Z</time></trkpt><trkpt lat="45.62856347206709" lon="9.437942964654201"><ele>221.33333333333334</ele><time>2026-04-20T14:22:17Z</time></trkpt><trkpt lat="45.62873938743731" lon="9.437978958346706"><ele>221.66666666666669</ele><time>2026-04-20T14:22:18Z</time></trkpt><trkpt lat="45.62889043276877" lon="9.437987322043895"><ele>222.0</ele><time>2026-04-20T14:22:19Z</time></trkpt><trkpt lat="45.6290102958854" lon="9.438021585623517"><ele>222.0</ele><time>2026-04-20T14:22:20Z</time></trkpt><trkpt lat="45.6290984802834" lon="9.438039266199036"><ele>222.0</ele><time>2026-04-20T14:22:21Z</time></trkpt><trkpt lat="45.6292008351755" lon="9.43809687962127"><ele>222.0</ele><time>2026-04-20T14:22:22Z</time></trkpt><trkpt lat="45.629305446739416" lon="9.438165749013507"><ele>222.0</ele><time>2026-04-20T14:22:23Z</time></trkpt><trkpt lat="45.62938913443595" lon="9.438236727433212"><ele>222.0</ele><time>2026-04-20T14:22:24Z</time></trkpt><trkpt lat="45.629484957778644" lon="9.438330658679062"><ele>222.16666666666666</ele><time>2026-04-20T14:22:26Z</time></trkpt><trkpt lat="45.6295348369164" lon="9.438394982492852"><ele>222.33333333333331</ele><time>2026-04-20T14:22:27Z</time></trkpt><trkpt lat="45.629578848033105" lon="9.438462380718695"><ele>222.5</ele><time>2026-04-20T14:22:28Z</time></trkpt><trkpt lat="45.62962166431278" lon="9.43853590325837"><ele>222.66666666666666</ele><time>2026-04-20T14:22:29Z</time></trkpt><trkpt lat="45.62967214863863" lon="9.438632934969892"><ele>222.83333333333331</ele><time>2026-04-20T14:22:30Z</time></trkpt><trkpt lat="45.62971598769411" lon="9.43874493820077"><ele>223.0</ele><time>2026-04-20T14:22:31Z</time></trkpt><trkpt lat="45.62972050973265" lon="9.438873586210148"><ele>223.16666666666666</ele><time>2026-04-20T14:22:32Z</time></trkpt><trkpt lat="45.62974913569165" lon="9.438967377077914"><ele>223.33333333333331</ele><time>2026-04-20T14:22:33Z</time></trkpt><trkpt lat="45.629798370357726" lon="9.439052327022365"><ele>223.5</ele><time>2026-04-20T14:22:34Z</time></trkpt><trkpt lat="45.62987169997503" lon="9.439086963636916"><ele>223.66666666666669</ele><time>2026-04-20T14:22:35Z</time></trkpt><trkpt lat="45.62994925663984" lon="9.439048228040996"><ele>223.83333333333334</ele><time>2026-04-20T14:22:36Z</time></trkpt><trkpt lat="45.62999213885856" lon="9.438956614135137"><ele>224.0</ele><time>2026-04-20T14:22:37Z</time></trkpt><trkpt lat="45.63000191910328" lon="9.438835768126006"><ele>223.83333333333334</ele><time>2026-04-20T14:22:38Z</time></trkpt><trkpt lat="45.62997144656531" lon="9.43872824195853"><ele>223.66666666666669</ele><time>2026-04-20T14:22:39Z</time></trkpt><trkpt lat="45.629921615418255" lon="9.43863439303243"><ele>223.5</ele><time>2026-04-20T14:22:40Z</time></trkpt><trkpt lat="45.629871906115895" lon="9.438565280131446"><ele>223.33333333333331</ele><time>2026-04-20T14:22:41Z</time></trkpt><trkpt lat="45.62991762643237" lon="9.438449144187798"><ele>223.16666666666666</ele><time>2026-04-20T14:22:42Z</time></trkpt><trkpt lat="45.62995038074244" lon="9.438362491605929"><ele>223.0</ele><time>2026-04-20T14:22:43Z</time></trkpt><trkpt lat="45.62998880978575" lon="9.43821806394129"><ele>223.0</ele><time>2026-04-20T14:22:45Z</time></trkpt><trkpt lat="45.630004318646" lon="9.438121442379028"><ele>223.0</ele><time>2026-04-20T14:22:46Z</time></trkpt><trkpt lat="45.63002798001067" lon="9.43800865031454"><ele>223.0</ele><time>2026-04-20T14:22:47Z</time></trkpt><trkpt lat="45.63006684073202" lon="9.437913518973193"><ele>223.0</ele><time>2026-04-20T14:22:48Z</time></trkpt><trkpt lat="45.63008220600972" lon="9.437814980614904"><ele>223.0</ele><time>2026-04-20T14:22:49Z</time></trkpt><trkpt lat="45.63011729000783" lon="9.43772078731462"><ele>223.0</ele><time>2026-04-20T14:22:50Z</time></trkpt><trkpt lat="45.630144899734965" lon="9.437624695045006"><ele>223.0</ele><time>2026-04-20T14:22:51Z</time></trkpt><trkpt lat="45.630190288545975" lon="9.437541211287815"><ele>222.83333333333331</ele><time>2026-04-20T14:22:52Z</time></trkpt><trkpt lat="45.6302176886416" lon="9.437434526853421"><ele>222.66666666666666</ele><time>2026-04-20T14:22:53Z</time></trkpt><trkpt lat="45.63026592965927" lon="9.43732950120059"><ele>222.5</ele><time>2026-04-20T14:22:54Z</time></trkpt><trkpt lat="45.63031203274951" lon="9.437264175625977"><ele>222.33333333333331</ele><time>2026-04-20T14:22:55Z</time></trkpt><trkpt lat="45.63040199696304" lon="9.437207771937402"><ele>222.16666666666666</ele><time>2026-04-20T14:22:57Z</time></trkpt><trkpt lat="45.63048743793189" lon="9.437150760515397"><ele>222.0</ele><time>2026-04-20T14:22:59Z</time></trkpt><trkpt lat="45.630570290001145" lon="9.437044222093288"><ele>222.0</ele><time>2026-04-20T14:23:01Z</time></trkpt><trkpt lat="45.630611241970826" lon="9.436968776240466"><ele>222.0</ele><time>2026-04-20T14:23:03Z</time></trkpt><trkpt lat="45.63065742536857" lon="9.436824327295076"><ele>222.0</ele><time>2026-04-20T14:23:05Z</time></trkpt><trkpt lat="45.63067144119217" lon="9.436713503877977"><ele>222.0</ele><time>2026-04-20T14:23:06Z</time></trkpt><trkpt lat="45.630653909530075" lon="9.436537363581992"><ele>222.0</ele><time>2026-04-20T14:23:08Z</time></trkpt><trkpt lat="45.63061083030562" lon="9.436371349289397"><ele>222.2</ele><time>2026-04-20T14:23:10Z</time></trkpt><trkpt lat="45.63055024801634" lon="9.436222045839063"><ele>222.39999999999998</ele><time>2026-04-20T14:23:12Z</time></trkpt><trkpt lat="45.63049204742987" lon="9.436073568935841"><ele>222.60000000000002</ele><time>2026-04-20T14:23:14Z</time></trkpt><trkpt lat="45.63045506940674" lon="9.435938678052757"><ele>222.8</ele><time>2026-04-20T14:23:16Z</time></trkpt><trkpt lat="45.63042795167877" lon="9.435840328261298"><ele>223.0</ele><time>2026-04-20T14:23:18Z</time></trkpt><trkpt lat="45.63040429585058" lon="9.435745108773654"><ele>222.99999999999997</ele><time>2026-04-20T14:23:21Z</time></trkpt><trkpt lat="45.63036643964614" lon="9.435606485084891"><ele>223.0</ele><time>2026-04-20T14:23:23Z</time></trkpt><trkpt lat="45.63034075259094" lon="9.435470338552028"><ele>223.0</ele><time>2026-04-20T14:23:25Z</time></trkpt><trkpt lat="45.630321540838445" lon="9.435378226480683"><ele>223.0</ele><time>2026-04-20T14:23:26Z</time></trkpt><trkpt lat="45.63030161790631" lon="9.435292491243274"><ele>222.99999999999997</ele><time>2026-04-20T14:23:27Z</time></trkpt><trkpt lat="45.63028651337939" lon="9.435199274096016"><ele>223.0</ele><time>2026-04-20T14:23:28Z</time></trkpt><trkpt lat="45.63026996901236" lon="9.435096677222418"><ele>222.71428571428572</ele><time>2026-04-20T14:23:29Z</time></trkpt><trkpt lat="45.63026254339297" lon="9.43499375285566"><ele>222.42857142857142</ele><time>2026-04-20T14:23:30Z</time></trkpt><trkpt lat="45.63024571073383" lon="9.434902616585738"><ele>222.14285714285717</ele><time>2026-04-20T14:23:31Z</time></trkpt><trkpt lat="45.6302358411649" lon="9.4348085797978"><ele>221.85714285714286</ele><time>2026-04-20T14:23:32Z</time></trkpt><trkpt lat="45.63021864790975" lon="9.434709186098017"><ele>221.57142857142858</ele><time>2026-04-20T14:23:33Z</time></trkpt><trkpt lat="45.6302005677651" lon="9.434608378464404"><ele>221.2857142857143</ele><time>2026-04-20T14:23:34Z</time></trkpt><trkpt lat="45.63018930195572" lon="9.434495192083178"><ele>221.0</ele><time>2026-04-20T14:23:35Z</time></trkpt><trkpt lat="45.63017529255493" lon="9.434350397712453"><ele>221.0</ele><time>2026-04-20T14:23:36Z</time></trkpt><trkpt lat="45.630153082227146" lon="9.43424798061622"><ele>221.00000000000003</ele><time>2026-04-20T14:23:37Z</time></trkpt><trkpt lat="45.63013280829349" lon="9.434117987985733"><ele>221.00000000000003</ele><time>2026-04-20T14:23:38Z</time></trkpt><trkpt lat="45.63012278277947" lon="9.433976454720188"><ele>221.0</ele><time>2026-04-20T14:23:39Z</time></trkpt><trkpt lat="45.63012308947664" lon="9.433818550414408"><ele>221.0</ele><time>2026-04-20T14:23:40Z</time></trkpt><trkpt lat="45.630141667206566" lon="9.433641463513583"><ele>221.0</ele><time>2026-04-20T14:23:41Z</time></trkpt><trkpt lat="45.63018086976743" lon="9.433470838614854"><ele>221.00000000000003</ele><time>2026-04-20T14:23:42Z</time></trkpt><trkpt lat="45.630207846698944" lon="9.433322817611748"><ele>221.00000000000003</ele><time>2026-04-20T14:23:43Z</time></trkpt><trkpt lat="45.63021448115823" lon="9.4331892543536"><ele>221.0</ele><time>2026-04-20T14:23:44Z</time></trkpt><trkpt lat="45.63019587806304" lon="9.433029863803329"><ele>221.0</ele><time>2026-04-20T14:23:45Z</time></trkpt><trkpt lat="45.630176961402796" lon="9.432858996676636"><ele>221.0</ele><time>2026-04-20T14:23:46Z</time></trkpt><trkpt lat="45.630167919241835" lon="9.432719457846"><ele>221.00000000000003</ele><time>2026-04-20T14:23:47Z</time></trkpt><trkpt lat="45.63016185951626" lon="9.432572698536"><ele>221.00000000000003</ele><time>2026-04-20T14:23:48Z</time></trkpt><trkpt lat="45.63015613811065" lon="9.432420566021383"><ele>221.0</ele><time>2026-04-20T14:23:49Z</time></trkpt><trkpt lat="45.63015390981284" lon="9.432263020164788"><ele>221.0</ele><time>2026-04-20T14:23:50Z</time></trkpt><trkpt lat="45.63015852533333" lon="9.432093946712572"><ele>221.0</ele><time>2026-04-20T14:23:51Z</time></trkpt><trkpt lat="45.63018694925301" lon="9.431911270566806"><ele>221.00000000000003</ele><time>2026-04-20T14:23:52Z</time></trkpt><trkpt lat="45.630198848457944" lon="9.431741227799105"><ele>221.00000000000003</ele><time>2026-04-20T14:23:53Z</time></trkpt><trkpt lat="45.63021086364584" lon="9.4316003579094"><ele>221.0</ele><time>2026-04-20T14:23:54Z</time></trkpt><trkpt lat="45.63022646347163" lon="9.43148385622322"><ele>221.0</ele><time>2026-04-20T14:23:55Z</time></trkpt><trkpt lat="45.63023605008713" lon="9.431390490951605"><ele>220.75</ele><time>2026-04-20T14:23:56Z</time></trkpt><trkpt lat="45.63025746263726" lon="9.431163996444248"><ele>220.5</ele><time>2026-04-20T14:23:58Z</time></trkpt><trkpt lat="45.63027243439261" lon="9.430994914003032"><ele>220.25</ele><time>2026-04-20T14:23:59Z</time></trkpt><trkpt lat="45.63030451315619" lon="9.430812015193489"><ele>220.0</ele><time>2026-04-20T14:24:00Z</time></trkpt><trkpt lat="45.630333764103725" lon="9.430649761166155"><ele>220.5</ele><time>2026-04-20T14:24:01Z</time></trkpt><trkpt lat="45.63035652396766" lon="9.430473399972858"><ele>221.0</ele><time>2026-04-20T14:24:02Z</time></trkpt><trkpt lat="45.63037654856097" lon="9.43032750623247"><ele>221.5</ele><time>2026-04-20T14:24:03Z</time></trkpt><trkpt lat="45.630395344667555" lon="9.430169746171067"><ele>222.0</ele><time>2026-04-20T14:24:04Z</time></trkpt><trkpt lat="45.63041968657952" lon="9.430006969499566"><ele>222.0</ele><time>2026-04-20T14:24:05Z</time></trkpt><trkpt lat="45.63043611365546" lon="9.429846258564346"><ele>222.0</ele><time>2026-04-20T14:24:06Z</time></trkpt><trkpt lat="45.630459939128585" lon="9.429695319223706"><ele>222.0</ele><time>2026-04-20T14:24:07Z</time></trkpt><trkpt lat="45.630477460513056" lon="9.42954515864168"><ele>222.0</ele><time>2026-04-20T14:24:08Z</time></trkpt><trkpt lat="45.6304948334595" lon="9.429379681019395"><ele>222.0</ele><time>2026-04-20T14:24:09Z</time></trkpt><trkpt lat="45.63051638255787" lon="9.429195571683566"><ele>222.0</ele><time>2026-04-20T14:24:10Z</time></trkpt><trkpt lat="45.63053481342552" lon="9.42900460830678"><ele>222.0</ele><time>2026-04-20T14:24:11Z</time></trkpt><trkpt lat="45.63055368935644" lon="9.428789177660478"><ele>222.0</ele><time>2026-04-20T14:24:12Z</time></trkpt><trkpt lat="45.63057131623272" lon="9.428580248623478"><ele>222.0</ele><time>2026-04-20T14:24:13Z</time></trkpt><trkpt lat="45.630586890796046" lon="9.42841093384414"><ele>222.0</ele><time>2026-04-20T14:24:14Z</time></trkpt><trkpt lat="45.63059528077209" lon="9.42828097358835"><ele>222.0</ele><time>2026-04-20T14:24:15Z</time></trkpt><trkpt lat="45.630592770893564" lon="9.428163384666775"><ele>222.0</ele><time>2026-04-20T14:24:16Z</time></trkpt><trkpt lat="45.630586587273655" lon="9.428050932618994"><ele>222.0</ele><time>2026-04-20T14:24:17Z</time></trkpt><trkpt lat="45.630579552116885" lon="9.427960249463819"><ele>222.0</ele><time>2026-04-20T14:24:18Z</time></trkpt><trkpt lat="45.630580330335945" lon="9.427869124051657"><ele>222.0</ele><time>2026-04-20T14:24:19Z</time></trkpt><trkpt lat="45.63060926723562" lon="9.42776184734559"><ele>222.0</ele><time>2026-04-20T14:24:21Z</time></trkpt><trkpt lat="45.630628357306" lon="9.427675144215197"><ele>222.0</ele><time>2026-04-20T14:24:23Z</time></trkpt><trkpt lat="45.630645589424" lon="9.427493608876354"><ele>222.0</ele><time>2026-04-20T14:24:25Z</time></trkpt><trkpt lat="45.63066116792515" lon="9.427373566402178"><ele>222.0</ele><time>2026-04-20T14:24:26Z</time></trkpt><trkpt lat="45.630679204214914" lon="9.427238956338227"><ele>222.0</ele><time>2026-04-20T14:24:27Z</time></trkpt><trkpt lat="45.63070349273076" lon="9.427084711949838"><ele>222.0</ele><time>2026-04-20T14:24:28Z</time></trkpt><trkpt lat="45.630728188490835" lon="9.426910019472095"><ele>222.0</ele><time>2026-04-20T14:24:29Z</time></trkpt><trkpt lat="45.63074837327974" lon="9.426734065010736"><ele>222.0</ele><time>2026-04-20T14:24:30Z</time></trkpt><trkpt lat="45.6307668277774" lon="9.426576629060229"><ele>222.0</ele><time>2026-04-20T14:24:31Z</time></trkpt><trkpt lat="45.630780932337494" lon="9.426460741640735"><ele>222.0</ele><time>2026-04-20T14:24:32Z</time></trkpt><trkpt lat="45.63079490911728" lon="9.426364845951131"><ele>222.0</ele><time>2026-04-20T14:24:33Z</time></trkpt><trkpt lat="45.63082575069275" lon="9.426244345844166"><ele>222.0</ele><time>2026-04-20T14:24:35Z</time></trkpt><trkpt lat="45.63089485564536" lon="9.426205577214654"><ele>222.0</ele><time>2026-04-20T14:24:37Z</time></trkpt><trkpt lat="45.63106248976413" lon="9.426197269193747"><ele>222.0</ele><time>2026-04-20T14:24:39Z</time></trkpt><trkpt lat="45.63117611955555" lon="9.426188408502778"><ele>222.0</ele><time>2026-04-20T14:24:40Z</time></trkpt><trkpt lat="45.63126911327052" lon="9.426182662530431"><ele>221.66666666666666</ele><time>2026-04-20T14:24:41Z</time></trkpt><trkpt lat="45.631339446880794" lon="9.426171531642549"><ele>221.33333333333331</ele><time>2026-04-20T14:24:42Z</time></trkpt><trkpt lat="45.63142186877848" lon="9.426102238792373"><ele>221.0</ele><time>2026-04-20T14:24:44Z</time></trkpt><trkpt lat="45.63145226692899" lon="9.426018200684627"><ele>220.66666666666666</ele><time>2026-04-20T14:24:45Z</time></trkpt><trkpt lat="45.63147559421722" lon="9.425910565052744"><ele>220.33333333333331</ele><time>2026-04-20T14:24:46Z</time></trkpt><trkpt lat="45.6314739716188" lon="9.425772300195968"><ele>220.0</ele><time>2026-04-20T14:24:47Z</time></trkpt><trkpt lat="45.63144981667185" lon="9.425620315167405"><ele>220.0</ele><time>2026-04-20T14:24:48Z</time></trkpt><trkpt lat="45.63142362194092" lon="9.42546210558426"><ele>220.0</ele><time>2026-04-20T14:24:49Z</time></trkpt><trkpt lat="45.631399399210466" lon="9.425315430447275"><ele>220.0</ele><time>2026-04-20T14:24:50Z</time></trkpt><trkpt lat="45.63137556929449" lon="9.425180839782557"><ele>220.0</ele><time>2026-04-20T14:24:51Z</time></trkpt><trkpt lat="45.63135656209657" lon="9.425050331222542"><ele>220.0</ele><time>2026-04-20T14:24:52Z</time></trkpt><trkpt lat="45.63133302222934" lon="9.424933651196085"><ele>219.99999999999997</ele><time>2026-04-20T14:24:53Z</time></trkpt><trkpt lat="45.63131860329852" lon="9.424839831680043"><ele>220.0</ele><time>2026-04-20T14:24:54Z</time></trkpt><trkpt lat="45.63130858599568" lon="9.424748608713683"><ele>220.0</ele><time>2026-04-20T14:24:55Z</time></trkpt><trkpt lat="45.631294365964784" lon="9.424645102240818"><ele>220.0</ele><time>2026-04-20T14:24:57Z</time></trkpt><trkpt lat="45.631236042901676" lon="9.424545505270185"><ele>219.99999999999997</ele><time>2026-04-20T14:24:59Z</time></trkpt><trkpt lat="45.631156179438435" lon="9.42452105545024"><ele>220.0</ele><time>2026-04-20T14:25:00Z</time></trkpt><trkpt lat="45.631056373804704" lon="9.424516649953292"><ele>220.0</ele><time>2026-04-20T14:25:01Z</time></trkpt><trkpt lat="45.63093901507313" lon="9.424474651153465"><ele>220.0</ele><time>2026-04-20T14:25:02Z</time></trkpt><trkpt lat="45.63079861302362" lon="9.42442154709471"><ele>220.0</ele><time>2026-04-20T14:25:03Z</time></trkpt><trkpt lat="45.63067809664794" lon="9.424357187863043"><ele>220.0</ele><time>2026-04-20T14:25:04Z</time></trkpt><trkpt lat="45.63054787489349" lon="9.424296006818345"><ele>220.0</ele><time>2026-04-20T14:25:05Z</time></trkpt><trkpt lat="45.63043052720465" lon="9.424198320953447"><ele>220.0</ele><time>2026-04-20T14:25:06Z</time></trkpt><trkpt lat="45.63032618442534" lon="9.424064872014025"><ele>220.0</ele><time>2026-04-20T14:25:07Z</time></trkpt><trkpt lat="45.63020427218819" lon="9.423946446188625"><ele>220.0</ele><time>2026-04-20T14:25:08Z</time></trkpt><trkpt lat="45.63009192376904" lon="9.423774156848388"><ele>219.75</ele><time>2026-04-20T14:25:09Z</time></trkpt><trkpt lat="45.6299932444682" lon="9.423610412503672"><ele>219.5</ele><time>2026-04-20T14:25:10Z</time></trkpt><trkpt lat="45.62992300026541" lon="9.423462026830117"><ele>219.25</ele><time>2026-04-20T14:25:11Z</time></trkpt><trkpt lat="45.62987289422238" lon="9.423339354732464"><ele>219.0</ele><time>2026-04-20T14:25:12Z</time></trkpt><trkpt lat="45.62982509122653" lon="9.423224179844862"><ele>219.0</ele><time>2026-04-20T14:25:13Z</time></trkpt><trkpt lat="45.629695515600176" lon="9.423397517710283"><ele>219.0</ele><time>2026-04-20T14:25:18Z</time></trkpt><trkpt lat="45.629686398944806" lon="9.42355929266232"><ele>219.0</ele><time>2026-04-20T14:25:19Z</time></trkpt><trkpt lat="45.629679661067485" lon="9.423769523328925"><ele>219.0</ele><time>2026-04-20T14:25:20Z</time></trkpt><trkpt lat="45.629674157895614" lon="9.423976490939411"><ele>219.33333333333331</ele><time>2026-04-20T14:25:21Z</time></trkpt><trkpt lat="45.62966738120623" lon="9.424167580669806"><ele>219.66666666666666</ele><time>2026-04-20T14:25:22Z</time></trkpt><trkpt lat="45.62965949252373" lon="9.424402573962206"><ele>220.0</ele><time>2026-04-20T14:25:23Z</time></trkpt><trkpt lat="45.62964812476621" lon="9.42465314383701"><ele>220.0</ele><time>2026-04-20T14:25:24Z</time></trkpt><trkpt lat="45.6296349764511" lon="9.424901621154227"><ele>220.0</ele><time>2026-04-20T14:25:25Z</time></trkpt><trkpt lat="45.62962197192776" lon="9.425169788456214"><ele>220.0</ele><time>2026-04-20T14:25:26Z</time></trkpt><trkpt lat="45.62960802589666" lon="9.425439161279915"><ele>220.0</ele><time>2026-04-20T14:25:27Z</time></trkpt><trkpt lat="45.629596564884274" lon="9.42568477648971"><ele>220.0</ele><time>2026-04-20T14:25:28Z</time></trkpt><trkpt lat="45.62958044514117" lon="9.425904213418896"><ele>220.0</ele><time>2026-04-20T14:25:29Z</time></trkpt><trkpt lat="45.629568308786254" lon="9.426070125134299"><ele>220.0</ele><time>2026-04-20T14:25:30Z</time></trkpt><trkpt lat="45.62955719429979" lon="9.426240497570312"><ele>220.0</ele><time>2026-04-20T14:25:31Z</time></trkpt><trkpt lat="45.62953629472369" lon="9.426452094137934"><ele>220.0</ele><time>2026-04-20T14:25:32Z</time></trkpt><trkpt lat="45.629509063805976" lon="9.426665808903834"><ele>220.0</ele><time>2026-04-20T14:25:33Z</time></trkpt><trkpt lat="45.629479307504575" lon="9.426868992182662"><ele>220.0</ele><time>2026-04-20T14:25:34Z</time></trkpt><trkpt lat="45.62944336593947" lon="9.427099266382525"><ele>220.5</ele><time>2026-04-20T14:25:35Z</time></trkpt><trkpt lat="45.62940997087494" lon="9.42732180914022"><ele>221.0</ele><time>2026-04-20T14:25:36Z</time></trkpt><trkpt lat="45.62938256330797" lon="9.427523343417205"><ele>221.5</ele><time>2026-04-20T14:25:37Z</time></trkpt><trkpt lat="45.62935265516947" lon="9.427718664221528"><ele>222.0</ele><time>2026-04-20T14:25:38Z</time></trkpt><trkpt lat="45.62931983445366" lon="9.427948673028855"><ele>221.75</ele><time>2026-04-20T14:25:39Z</time></trkpt><trkpt lat="45.62929156095492" lon="9.428154106553754"><ele>221.5</ele><time>2026-04-20T14:25:40Z</time></trkpt><trkpt lat="45.62926927957513" lon="9.428326229236367"><ele>221.25</ele><time>2026-04-20T14:25:41Z</time></trkpt><trkpt lat="45.62923951300023" lon="9.428524013701411"><ele>221.0</ele><time>2026-04-20T14:25:42Z</time></trkpt><trkpt lat="45.629202677686095" lon="9.42875350382245"><ele>220.5</ele><time>2026-04-20T14:25:43Z</time></trkpt><trkpt lat="45.62916834260628" lon="9.42896907161058"><ele>220.0</ele><time>2026-04-20T14:25:44Z</time></trkpt><trkpt lat="45.629139298478606" lon="9.429161151579098"><ele>219.5</ele><time>2026-04-20T14:25:45Z</time></trkpt><trkpt lat="45.6291071753266" lon="9.42935271329623"><ele>219.0</ele><time>2026-04-20T14:25:46Z</time></trkpt><trkpt lat="45.62908269601957" lon="9.42950648787623"><ele>219.0</ele><time>2026-04-20T14:25:47Z</time></trkpt><trkpt lat="45.62906198502324" lon="9.42963654490863"><ele>218.99999999999997</ele><time>2026-04-20T14:25:48Z</time></trkpt><trkpt lat="45.629048779483526" lon="9.429756829259768"><ele>218.99999999999997</ele><time>2026-04-20T14:25:49Z</time></trkpt><trkpt lat="45.62904141460257" lon="9.429914345192813"><ele>219.0</ele><time>2026-04-20T14:25:51Z</time></trkpt><trkpt lat="45.62903064825874" lon="9.430070750967092"><ele>219.0</ele><time>2026-04-20T14:25:53Z</time></trkpt><trkpt lat="45.62902554255588" lon="9.430249500538133"><ele>219.33333333333334</ele><time>2026-04-20T14:25:55Z</time></trkpt><trkpt lat="45.629017172500006" lon="9.43042168974806"><ele>219.66666666666669</ele><time>2026-04-20T14:25:57Z</time></trkpt><trkpt lat="45.629009314700895" lon="9.43052059880813"><ele>220.0</ele><time>2026-04-20T14:25:58Z</time></trkpt><trkpt lat="45.628997727885405" lon="9.430625080806784"><ele>220.33333333333334</ele><time>2026-04-20T14:25:59Z</time></trkpt><trkpt lat="45.62899076013093" lon="9.430734491820607"><ele>220.66666666666669</ele><time>2026-04-20T14:26:00Z</time></trkpt><trkpt lat="45.62897915995879" lon="9.430847710029493"><ele>221.0</ele><time>2026-04-20T14:26:01Z</time></trkpt><trkpt lat="45.628972428669506" lon="9.430967666822719"><ele>221.00000000000003</ele><time>2026-04-20T14:26:02Z</time></trkpt><trkpt lat="45.62896991224106" lon="9.431080769510999"><ele>221.0</ele><time>2026-04-20T14:26:03Z</time></trkpt><trkpt lat="45.628964019443565" lon="9.431189682096328"><ele>221.0</ele><time>2026-04-20T14:26:04Z</time></trkpt><trkpt lat="45.62896489352139" lon="9.43132765798143"><ele>221.0</ele><time>2026-04-20T14:26:05Z</time></trkpt><trkpt lat="45.62895607083753" lon="9.431436371589802"><ele>221.00000000000003</ele><time>2026-04-20T14:26:06Z</time></trkpt><trkpt lat="45.62896526950111" lon="9.431568436669469"><ele>221.0</ele><time>2026-04-20T14:26:08Z</time></trkpt><trkpt lat="45.62903246269475" lon="9.431646427326088"><ele>221.00000000000003</ele><time>2026-04-20T14:26:10Z</time></trkpt><trkpt lat="45.62909939039086" lon="9.431656007325063"><ele>221.0</ele><time>2026-04-20T14:26:11Z</time></trkpt><trkpt lat="45.6291840112586" lon="9.43164076553143"><ele>221.0</ele><time>2026-04-20T14:26:12Z</time></trkpt><trkpt lat="45.6292772696473" lon="9.431633533890405"><ele>221.0</ele><time>2026-04-20T14:26:13Z</time></trkpt><trkpt lat="45.629368821355996" lon="9.43162488856733"><ele>221.00000000000003</ele><time>2026-04-20T14:26:14Z</time></trkpt><trkpt lat="45.62944994675857" lon="9.431616474699402"><ele>221.0</ele><time>2026-04-20T14:26:15Z</time></trkpt><trkpt lat="45.62952428246402" lon="9.431622416044817"><ele>221.0</ele><time>2026-04-20T14:26:16Z</time></trkpt><trkpt lat="45.629592634543116" lon="9.431619118154888"><ele>221.00000000000003</ele><time>2026-04-20T14:26:17Z</time></trkpt><trkpt lat="45.629674812380685" lon="9.431621104207183"><ele>221.00000000000003</ele><time>2026-04-20T14:26:18Z</time></trkpt><trkpt lat="45.629774264189756" lon="9.4316177043151"><ele>221.0</ele><time>2026-04-20T14:26:19Z</time></trkpt><trkpt lat="45.629863675648686" lon="9.431613748405912"><ele>221.0</ele><time>2026-04-20T14:26:20Z</time></trkpt><trkpt lat="45.62997660373976" lon="9.431612875107572"><ele>221.00000000000003</ele><time>2026-04-20T14:26:21Z</time></trkpt><trkpt lat="45.630070541248465" lon="9.431610524782311"><ele>221.0</ele><time>2026-04-20T14:26:22Z</time></trkpt><trkpt lat="45.63016390058996" lon="9.431623028659116"><ele>221.0</ele><time>2026-04-20T14:26:24Z</time></trkpt><trkpt lat="45.63020489593935" lon="9.43171706457573"><ele>221.0</ele><time>2026-04-20T14:26:27Z</time></trkpt><trkpt lat="45.63018973666438" lon="9.431831904173128"><ele>221.00000000000003</ele><time>2026-04-20T14:26:28Z</time></trkpt><trkpt lat="45.6301825902512" lon="9.43196551101566"><ele>221.0</ele><time>2026-04-20T14:26:29Z</time></trkpt><trkpt lat="45.63016678695977" lon="9.432138067206136"><ele>221.0</ele><time>2026-04-20T14:26:30Z</time></trkpt><trkpt lat="45.63014634209757" lon="9.432314428648215"><ele>221.0</ele><time>2026-04-20T14:26:31Z</time></trkpt><trkpt lat="45.63013899530496" lon="9.432483605000431"><ele>221.0</ele><time>2026-04-20T14:26:32Z</time></trkpt><trkpt lat="45.63014617287725" lon="9.432666949281257"><ele>221.0</ele><time>2026-04-20T14:26:33Z</time></trkpt><trkpt lat="45.63016482300946" lon="9.432900710173563"><ele>220.5</ele><time>2026-04-20T14:26:34Z</time></trkpt><trkpt lat="45.630184292261" lon="9.433121798242228"><ele>220.0</ele><time>2026-04-20T14:26:35Z</time></trkpt><trkpt lat="45.63019771057959" lon="9.433290997456872"><ele>219.5</ele><time>2026-04-20T14:26:36Z</time></trkpt><trkpt lat="45.63019681581449" lon="9.433446840410962"><ele>219.0</ele><time>2026-04-20T14:26:37Z</time></trkpt><trkpt lat="45.6301784618165" lon="9.433604632020074"><ele>219.0</ele><time>2026-04-20T14:26:38Z</time></trkpt><trkpt lat="45.63013604894495" lon="9.433779603667865"><ele>219.0</ele><time>2026-04-20T14:26:39Z</time></trkpt><trkpt lat="45.63011125983933" lon="9.433938935378565"><ele>219.0</ele><time>2026-04-20T14:26:40Z</time></trkpt><trkpt lat="45.63011830928179" lon="9.434114194327428"><ele>219.0</ele><time>2026-04-20T14:26:41Z</time></trkpt><trkpt lat="45.63014993857954" lon="9.434322058918879"><ele>219.5</ele><time>2026-04-20T14:26:42Z</time></trkpt><trkpt lat="45.63018730002181" lon="9.434550864990133"><ele>220.0</ele><time>2026-04-20T14:26:43Z</time></trkpt><trkpt lat="45.63021472677348" lon="9.434734326063452"><ele>220.5</ele><time>2026-04-20T14:26:44Z</time></trkpt><trkpt lat="45.63024170434423" lon="9.434890912309871"><ele>221.0</ele><time>2026-04-20T14:26:45Z</time></trkpt><trkpt lat="45.63026622996759" lon="9.435052101652612"><ele>221.0</ele><time>2026-04-20T14:26:46Z</time></trkpt><trkpt lat="45.630287408919486" lon="9.43522310060487"><ele>221.00000000000003</ele><time>2026-04-20T14:26:47Z</time></trkpt><trkpt lat="45.63031506435064" lon="9.435378331167602"><ele>221.00000000000003</ele><time>2026-04-20T14:26:48Z</time></trkpt><trkpt lat="45.63033960039092" lon="9.43551254026984"><ele>221.0</ele><time>2026-04-20T14:26:49Z</time></trkpt><trkpt lat="45.63034924462316" lon="9.435617715263506"><ele>221.0</ele><time>2026-04-20T14:26:50Z</time></trkpt><trkpt lat="45.63036392608945" lon="9.43573863189654"><ele>221.20000000000002</ele><time>2026-04-20T14:26:51Z</time></trkpt><trkpt lat="45.63040145161874" lon="9.43585007978355"><ele>221.40000000000003</ele><time>2026-04-20T14:26:52Z</time></trkpt><trkpt lat="45.630441609455694" lon="9.435986971253893"><ele>221.6</ele><time>2026-04-20T14:26:53Z</time></trkpt><trkpt lat="45.630490959394855" lon="9.436112043553967"><ele>221.8</ele><time>2026-04-20T14:26:54Z</time></trkpt><trkpt lat="45.63053212587899" lon="9.436230857475646"><ele>222.0</ele><time>2026-04-20T14:26:55Z</time></trkpt><trkpt lat="45.630576400640365" lon="9.436343556005355"><ele>222.0</ele><time>2026-04-20T14:26:56Z</time></trkpt><trkpt lat="45.630612533754544" lon="9.436455592748434"><ele>222.0</ele><time>2026-04-20T14:26:57Z</time></trkpt><trkpt lat="45.6306423002575" lon="9.436567347638826"><ele>222.0</ele><time>2026-04-20T14:26:58Z</time></trkpt><trkpt lat="45.63065859935297" lon="9.436697257818544"><ele>222.0</ele><time>2026-04-20T14:26:59Z</time></trkpt><trkpt lat="45.63064056417716" lon="9.43680586942384"><ele>222.0</ele><time>2026-04-20T14:27:00Z</time></trkpt><trkpt lat="45.63059869075737" lon="9.436928987796941"><ele>222.0</ele><time>2026-04-20T14:27:02Z</time></trkpt><trkpt lat="45.630502957562996" lon="9.43708035593695"><ele>222.0</ele><time>2026-04-20T14:27:04Z</time></trkpt><trkpt lat="45.63042717768401" lon="9.437164471884657"><ele>222.0</ele><time>2026-04-20T14:27:05Z</time></trkpt><trkpt lat="45.630337912885814" lon="9.437224380462899"><ele>222.0</ele><time>2026-04-20T14:27:06Z</time></trkpt><trkpt lat="45.630258090582295" lon="9.437276146886425"><ele>222.0</ele><time>2026-04-20T14:27:07Z</time></trkpt><trkpt lat="45.630206756705185" lon="9.437375767222457"><ele>222.0</ele><time>2026-04-20T14:27:08Z</time></trkpt><trkpt lat="45.6301631515724" lon="9.437522689433557"><ele>222.0</ele><time>2026-04-20T14:27:09Z</time></trkpt><trkpt lat="45.63011795809254" lon="9.437661892557283"><ele>222.0</ele><time>2026-04-20T14:27:10Z</time></trkpt><trkpt lat="45.63009034468241" lon="9.437766985176445"><ele>222.0</ele><time>2026-04-20T14:27:11Z</time></trkpt><trkpt lat="45.63005978464643" lon="9.437859433608784"><ele>222.0</ele><time>2026-04-20T14:27:12Z</time></trkpt><trkpt lat="45.63003101622083" lon="9.437967942154046"><ele>222.0</ele><time>2026-04-20T14:27:13Z</time></trkpt><trkpt lat="45.630001436877826" lon="9.438088951637328"><ele>222.0</ele><time>2026-04-20T14:27:14Z</time></trkpt><trkpt lat="45.629973521442956" lon="9.438220058880066"><ele>222.2</ele><time>2026-04-20T14:27:15Z</time></trkpt><trkpt lat="45.62994478261721" lon="9.438328655672581"><ele>222.39999999999998</ele><time>2026-04-20T14:27:16Z</time></trkpt><trkpt lat="45.629920270999165" lon="9.438419720665342"><ele>222.60000000000002</ele><time>2026-04-20T14:27:17Z</time></trkpt><trkpt lat="45.62987179898733" lon="9.438575571206155"><ele>222.8</ele><time>2026-04-20T14:27:19Z</time></trkpt><trkpt lat="45.62977577970397" lon="9.438704894697866"><ele>223.0</ele><time>2026-04-20T14:27:21Z</time></trkpt><trkpt lat="45.62973382856452" lon="9.438802705257865"><ele>223.2</ele><time>2026-04-20T14:27:22Z</time></trkpt><trkpt lat="45.62973184575119" lon="9.438916111073526"><ele>223.4</ele><time>2026-04-20T14:27:23Z</time></trkpt><trkpt lat="45.62974841365286" lon="9.43902318911563"><ele>223.59999999999997</ele><time>2026-04-20T14:27:24Z</time></trkpt><trkpt lat="45.629839719328096" lon="9.439075527971639"><ele>223.79999999999998</ele><time>2026-04-20T14:27:25Z</time></trkpt><trkpt lat="45.6299197114386" lon="9.439115018707678"><ele>224.0</ele><time>2026-04-20T14:27:26Z</time></trkpt><trkpt lat="45.63004007557885" lon="9.438948103323156"><ele>224.0</ele><time>2026-04-20T14:27:27Z</time></trkpt><trkpt lat="45.63016023873118" lon="9.438917492736557"><ele>224.0</ele><time>2026-04-20T14:27:28Z</time></trkpt><trkpt lat="45.63027955584002" lon="9.438898285296654"><ele>224.0</ele><time>2026-04-20T14:27:29Z</time></trkpt><trkpt lat="45.63040303274178" lon="9.438912192018535"><ele>224.0</ele><time>2026-04-20T14:27:30Z</time></trkpt><trkpt lat="45.63052693211651" lon="9.438897518399871"><ele>223.75</ele><time>2026-04-20T14:27:31Z</time></trkpt><trkpt lat="45.63063823255398" lon="9.43889039944985"><ele>223.5</ele><time>2026-04-20T14:27:32Z</time></trkpt><trkpt lat="45.63081580162837" lon="9.438907105138634"><ele>223.25</ele><time>2026-04-20T14:27:33Z</time></trkpt><trkpt lat="45.63096842329691" lon="9.43890033508004"><ele>223.0</ele><time>2026-04-20T14:27:34Z</time></trkpt><trkpt lat="45.631118920407495" lon="9.438898669831186"><ele>222.75</ele><time>2026-04-20T14:27:35Z</time></trkpt><trkpt lat="45.63126538214459" lon="9.438884563764073"><ele>222.5</ele><time>2026-04-20T14:27:36Z</time></trkpt><trkpt lat="45.63139945564545" lon="9.438882156129464"><ele>222.25</ele><time>2026-04-20T14:27:37Z</time></trkpt><trkpt lat="45.63152678541272" lon="9.438882093715725"><ele>222.0</ele><time>2026-04-20T14:27:38Z</time></trkpt><trkpt lat="45.63164215754508" lon="9.438875037663012"><ele>222.0</ele><time>2026-04-20T14:27:39Z</time></trkpt><trkpt lat="45.63175184135528" lon="9.438892476208379"><ele>222.0</ele><time>2026-04-20T14:27:40Z</time></trkpt><trkpt lat="45.63184006128139" lon="9.438990871750182"><ele>222.0</ele><time>2026-04-20T14:27:41Z</time></trkpt><trkpt lat="45.63191917381588" lon="9.439120162184965"><ele>222.0</ele><time>2026-04-20T14:27:42Z</time></trkpt><trkpt lat="45.63197032614667" lon="9.439279050407624"><ele>222.33333333333331</ele><time>2026-04-20T14:27:43Z</time></trkpt><trkpt lat="45.63200557747098" lon="9.439471013832282"><ele>222.66666666666666</ele><time>2026-04-20T14:27:44Z</time></trkpt><trkpt lat="45.632050191428114" lon="9.439691228306481"><ele>223.0</ele><time>2026-04-20T14:27:45Z</time></trkpt><trkpt lat="45.63209430448549" lon="9.43990957178311"><ele>223.33333333333331</ele><time>2026-04-20T14:27:46Z</time></trkpt><trkpt lat="45.63214051850687" lon="9.440156934582989"><ele>223.66666666666669</ele><time>2026-04-20T14:27:47Z</time></trkpt><trkpt lat="45.63216199905565" lon="9.44043103788428"><ele>224.0</ele><time>2026-04-20T14:27:48Z</time></trkpt><trkpt lat="45.63215286276011" lon="9.440676292138084"><ele>224.0</ele><time>2026-04-20T14:27:49Z</time></trkpt><trkpt lat="45.632130028041814" lon="9.440898143894099"><ele>224.0</ele><time>2026-04-20T14:27:50Z</time></trkpt><trkpt lat="45.63211416495325" lon="9.441123385092508"><ele>224.0</ele><time>2026-04-20T14:27:51Z</time></trkpt><trkpt lat="45.63212874954379" lon="9.441345523091378"><ele>224.25</ele><time>2026-04-20T14:27:52Z</time></trkpt><trkpt lat="45.63214726704525" lon="9.441544979571221"><ele>224.5</ele><time>2026-04-20T14:27:53Z</time></trkpt><trkpt lat="45.63216662477684" lon="9.441702993887105"><ele>224.75</ele><time>2026-04-20T14:27:54Z</time></trkpt><trkpt lat="45.63220307070111" lon="9.441845162272386"><ele>225.0</ele><time>2026-04-20T14:27:56Z</time></trkpt><trkpt lat="45.632290110683556" lon="9.442002259904823"><ele>225.0</ele><time>2026-04-20T14:27:58Z</time></trkpt><trkpt lat="45.6323423489604" lon="9.442113793143118"><ele>225.0</ele><time>2026-04-20T14:27:59Z</time></trkpt><trkpt lat="45.6323908445609" lon="9.44224881497678"><ele>225.0</ele><time>2026-04-20T14:28:00Z</time></trkpt><trkpt lat="45.63244973119725" lon="9.442374197464417"><ele>225.0</ele><time>2026-04-20T14:28:01Z</time></trkpt><trkpt lat="45.63247002086951" lon="9.442540559377528"><ele>225.0</ele><time>2026-04-20T14:28:02Z</time></trkpt><trkpt lat="45.632507725459746" lon="9.442676617300522"><ele>225.0</ele><time>2026-04-20T14:28:03Z</time></trkpt><trkpt lat="45.63254577690308" lon="9.442814567757656"><ele>225.0</ele><time>2026-04-20T14:28:04Z</time></trkpt><trkpt lat="45.63258165082845" lon="9.44295050213217"><ele>225.0</ele><time>2026-04-20T14:28:05Z</time></trkpt><trkpt lat="45.63261408136716" lon="9.443084462518051"><ele>225.0</ele><time>2026-04-20T14:28:06Z</time></trkpt><trkpt lat="45.63265393131616" lon="9.443229354180959"><ele>225.0</ele><time>2026-04-20T14:28:07Z</time></trkpt><trkpt lat="45.63270290744569" lon="9.443376070531038"><ele>225.0</ele><time>2026-04-20T14:28:08Z</time></trkpt><trkpt lat="45.63274409631122" lon="9.443522431308825"><ele>225.0</ele><time>2026-04-20T14:28:09Z</time></trkpt><trkpt lat="45.63277349616256" lon="9.443670863394756"><ele>225.0</ele><time>2026-04-20T14:28:10Z</time></trkpt><trkpt lat="45.632792782183785" lon="9.443800092280101"><ele>225.0</ele><time>2026-04-20T14:28:11Z</time></trkpt><trkpt lat="45.63281269137254" lon="9.44393492790535"><ele>225.0</ele><time>2026-04-20T14:28:12Z</time></trkpt><trkpt lat="45.632828210672415" lon="9.44407148589336"><ele>225.0</ele><time>2026-04-20T14:28:13Z</time></trkpt><trkpt lat="45.63282680503576" lon="9.444229390346015"><ele>225.0</ele><time>2026-04-20T14:28:14Z</time></trkpt><trkpt lat="45.632819944501726" lon="9.444380474585095"><ele>225.0</ele><time>2026-04-20T14:28:15Z</time></trkpt><trkpt lat="45.63280797882196" lon="9.444536782965516"><ele>225.0</ele><time>2026-04-20T14:28:16Z</time></trkpt><trkpt lat="45.632807234553354" lon="9.444674467146504"><ele>225.0</ele><time>2026-04-20T14:28:17Z</time></trkpt><trkpt lat="45.632799880870635" lon="9.44477527714507"><ele>224.83333333333334</ele><time>2026-04-20T14:28:18Z</time></trkpt><trkpt lat="45.63279405493184" lon="9.444870526092547"><ele>224.66666666666669</ele><time>2026-04-20T14:28:19Z</time></trkpt><trkpt lat="45.63278695712577" lon="9.444979295341598"><ele>224.5</ele><time>2026-04-20T14:28:20Z</time></trkpt><trkpt lat="45.63277999664772" lon="9.445113771639308"><ele>224.33333333333334</ele><time>2026-04-20T14:28:21Z</time></trkpt><trkpt lat="45.63277289100857" lon="9.44528231787015"><ele>224.16666666666669</ele><time>2026-04-20T14:28:22Z</time></trkpt><trkpt lat="45.63276833599927" lon="9.445405081967378"><ele>224.0</ele><time>2026-04-20T14:28:23Z</time></trkpt><trkpt lat="45.632764619029665" lon="9.445509791160791"><ele>224.0</ele><time>2026-04-20T14:28:25Z</time></trkpt><trkpt lat="45.63319564098228" lon="9.445555957179359"><ele>224.0</ele><time>2026-04-20T14:28:27Z</time></trkpt><trkpt lat="45.63327216444586" lon="9.44565919970582"><ele>224.0</ele><time>2026-04-20T14:28:29Z</time></trkpt><trkpt lat="45.633318951666084" lon="9.445758314012265"><ele>223.99999999999997</ele><time>2026-04-20T14:28:30Z</time></trkpt><trkpt lat="45.63336120422044" lon="9.445854159115637"><ele>223.99999999999997</ele><time>2026-04-20T14:28:31Z</time></trkpt><trkpt lat="45.63340494924883" lon="9.445993469535848"><ele>224.0</ele><time>2026-04-20T14:28:32Z</time></trkpt><trkpt lat="45.63344596949815" lon="9.446153678745917"><ele>224.0</ele><time>2026-04-20T14:28:33Z</time></trkpt><trkpt lat="45.63351205663238" lon="9.446319594298123"><ele>223.79999999999998</ele><time>2026-04-20T14:28:34Z</time></trkpt><trkpt lat="45.63354729573744" lon="9.446421769587605"><ele>223.59999999999997</ele><time>2026-04-20T14:28:35Z</time></trkpt><trkpt lat="45.633614371707914" lon="9.446564914338438"><ele>223.4</ele><time>2026-04-20T14:28:37Z</time></trkpt><trkpt lat="45.63365898152466" lon="9.446704971625739"><ele>223.2</ele><time>2026-04-20T14:28:39Z</time></trkpt><trkpt lat="45.63373133840571" lon="9.446844963618195"><ele>223.0</ele><time>2026-04-20T14:28:43Z</time></trkpt><trkpt lat="45.63376533057742" lon="9.446945364171468"><ele>223.60000000000002</ele><time>2026-04-20T14:28:44Z</time></trkpt><trkpt lat="45.63380587129161" lon="9.447052942663195"><ele>224.20000000000002</ele><time>2026-04-20T14:28:45Z</time></trkpt><trkpt lat="45.63386238877301" lon="9.44716096363908"><ele>224.8</ele><time>2026-04-20T14:28:46Z</time></trkpt><trkpt lat="45.633910087982834" lon="9.447288733926191"><ele>225.4</ele><time>2026-04-20T14:28:47Z</time></trkpt><trkpt lat="45.633958237370635" lon="9.44740692598285"><ele>226.0</ele><time>2026-04-20T14:28:48Z</time></trkpt><trkpt lat="45.63400819758046" lon="9.447528394071838"><ele>226.0</ele><time>2026-04-20T14:28:49Z</time></trkpt><trkpt lat="45.63406089733796" lon="9.447643134623942"><ele>226.00000000000003</ele><time>2026-04-20T14:28:50Z</time></trkpt><trkpt lat="45.634124908157474" lon="9.447747142793778"><ele>226.00000000000003</ele><time>2026-04-20T14:28:51Z</time></trkpt><trkpt lat="45.63418096032102" lon="9.447873747644577"><ele>226.0</ele><time>2026-04-20T14:28:52Z</time></trkpt><trkpt lat="45.634220145024734" lon="9.44797563179396"><ele>226.0</ele><time>2026-04-20T14:28:53Z</time></trkpt><trkpt lat="45.63426182944394" lon="9.448061916227465"><ele>225.99999999999997</ele><time>2026-04-20T14:28:54Z</time></trkpt><trkpt lat="45.63432367564796" lon="9.448142235389875"><ele>226.0</ele><time>2026-04-20T14:28:55Z</time></trkpt><trkpt lat="45.63439585632785" lon="9.448216779523865"><ele>226.0</ele><time>2026-04-20T14:28:56Z</time></trkpt><trkpt lat="45.634472467517824" lon="9.44825693242122"><ele>226.0</ele><time>2026-04-20T14:28:57Z</time></trkpt><trkpt lat="45.63455179520928" lon="9.448282238014464"><ele>225.99999999999997</ele><time>2026-04-20T14:28:58Z</time></trkpt><trkpt lat="45.63459998487191" lon="9.448359980155987"><ele>226.0</ele><time>2026-04-20T14:28:59Z</time></trkpt><trkpt lat="45.63469403785062" lon="9.44843834908139"><ele>225.8</ele><time>2026-04-20T14:29:01Z</time></trkpt><trkpt lat="45.63473237672602" lon="9.44861347949138"><ele>225.60000000000002</ele><time>2026-04-20T14:29:03Z</time></trkpt><trkpt lat="45.63476120390228" lon="9.448778103635863"><ele>225.4</ele><time>2026-04-20T14:29:04Z</time></trkpt><trkpt lat="45.634795423825224" lon="9.448927845669674"><ele>225.2</ele><time>2026-04-20T14:29:05Z</time></trkpt><trkpt lat="45.6347294313764" lon="9.448993118696821"><ele>225.0</ele><time>2026-04-20T14:29:06Z</time></trkpt><trkpt lat="45.63474828430515" lon="9.449143393143977"><ele>226.0</ele><time>2026-04-20T14:29:08Z</time></trkpt><trkpt lat="45.634919189357184" lon="9.4493129163804"><ele>227.0</ele><time>2026-04-20T14:29:10Z</time></trkpt><trkpt lat="45.63521940795665" lon="9.449212142855101"><ele>227.39999999999998</ele><time>2026-04-20T14:29:11Z</time></trkpt><trkpt lat="45.635320983059856" lon="9.449188584261849"><ele>227.79999999999998</ele><time>2026-04-20T14:29:12Z</time></trkpt><trkpt lat="45.635428662542566" lon="9.449161926197016"><ele>228.2</ele><time>2026-04-20T14:29:13Z</time></trkpt><trkpt lat="45.63555979852401" lon="9.449132669188199"><ele>228.6</ele><time>2026-04-20T14:29:14Z</time></trkpt><trkpt lat="45.63565704845992" lon="9.449111061970518"><ele>229.0</ele><time>2026-04-20T14:29:15Z</time></trkpt><trkpt lat="45.635744273633" lon="9.449086576490132"><ele>229.0</ele><time>2026-04-20T14:29:16Z</time></trkpt><trkpt lat="45.635851244316" lon="9.449066232282533"><ele>228.99999999999997</ele><time>2026-04-20T14:29:17Z</time></trkpt><trkpt lat="45.63594247682242" lon="9.44906107814257"><ele>228.99999999999997</ele><time>2026-04-20T14:29:18Z</time></trkpt><trkpt lat="45.63603534137064" lon="9.44904795885968"><ele>229.0</ele><time>2026-04-20T14:29:20Z</time></trkpt><trkpt lat="45.6361114575347" lon="9.449110944150055"><ele>229.0</ele><time>2026-04-20T14:29:22Z</time></trkpt><trkpt lat="45.636149845353366" lon="9.449237747238541"><ele>228.83333333333331</ele><time>2026-04-20T14:29:24Z</time></trkpt><trkpt lat="45.636163187070075" lon="9.449329039560814"><ele>228.66666666666666</ele><time>2026-04-20T14:29:25Z</time></trkpt><trkpt lat="45.63618562431795" lon="9.449468826481723"><ele>228.5</ele><time>2026-04-20T14:29:27Z</time></trkpt><trkpt lat="45.63621001586765" lon="9.449623146212424"><ele>228.33333333333331</ele><time>2026-04-20T14:29:29Z</time></trkpt><trkpt lat="45.63622735170288" lon="9.449727751449089"><ele>228.16666666666666</ele><time>2026-04-20T14:29:31Z</time></trkpt><trkpt lat="45.6362347952546" lon="9.449821897288215"><ele>228.0</ele><time>2026-04-20T14:29:33Z</time></trkpt><trkpt lat="45.63626408330671" lon="9.449943842395173"><ele>228.0</ele><time>2026-04-20T14:29:35Z</time></trkpt><trkpt lat="45.6362798646015" lon="9.450048911673571"><ele>228.0</ele><time>2026-04-20T14:29:37Z</time></trkpt><trkpt lat="45.63630171930616" lon="9.45017211100155"><ele>228.0</ele><time>2026-04-20T14:29:39Z</time></trkpt><trkpt lat="45.63633712038061" lon="9.450292617460367"><ele>228.0</ele><time>2026-04-20T14:29:41Z</time></trkpt><trkpt lat="45.636385193391135" lon="9.450353958889327"><ele>228.0</ele><time>2026-04-20T14:29:45Z</time></trkpt><trkpt lat="45.63648534702985" lon="9.450339029566587"><ele>228.0</ele><time>2026-04-20T14:29:48Z</time></trkpt><trkpt lat="45.63655250234872" lon="9.450319288908258"><ele>228.0</ele><time>2026-04-20T14:29:49Z</time></trkpt><trkpt lat="45.63661930753071" lon="9.450313009163931"><ele>228.0</ele><time>2026-04-20T14:29:50Z</time></trkpt><trkpt lat="45.63670470241737" lon="9.450322263050722"><ele>228.0</ele><time>2026-04-20T14:29:52Z</time></trkpt><trkpt lat="45.6367677873446" lon="9.450334400423706"><ele>228.0</ele><time>2026-04-20T14:29:53Z</time></trkpt><trkpt lat="45.63685146602839" lon="9.450348761919342"><ele>228.0</ele><time>2026-04-20T14:29:55Z</time></trkpt><trkpt lat="45.636921687371064" lon="9.450416367219855"><ele>228.0</ele><time>2026-04-20T14:29:58Z</time></trkpt><trkpt lat="45.637007142883" lon="9.450403885942272"><ele>228.16666666666666</ele><time>2026-04-20T14:30:00Z</time></trkpt><trkpt lat="45.63704804920105" lon="9.450499667051329"><ele>228.33333333333331</ele><time>2026-04-20T14:30:05Z</time></trkpt><trkpt lat="45.637063876223415" lon="9.450628922289553"><ele>228.5</ele><time>2026-04-20T14:30:07Z</time></trkpt><trkpt lat="45.63709091982233" lon="9.450759502313687"><ele>228.66666666666666</ele><time>2026-04-20T14:30:09Z</time></trkpt><trkpt lat="45.63711933812465" lon="9.450876025246746"><ele>228.83333333333331</ele><time>2026-04-20T14:30:11Z</time></trkpt><trkpt lat="45.63719530323804" lon="9.45092577935316"><ele>229.0</ele><time>2026-04-20T14:30:13Z</time></trkpt><trkpt lat="45.63727522027348" lon="9.450936778014984"><ele>229.0</ele><time>2026-04-20T14:30:14Z</time></trkpt><trkpt lat="45.637364683971" lon="9.45093809458804"><ele>228.99999999999997</ele><time>2026-04-20T14:30:15Z</time></trkpt><trkpt lat="45.63744595036791" lon="9.450940965128826"><ele>228.99999999999997</ele><time>2026-04-20T14:30:16Z</time></trkpt><trkpt lat="45.63756090952815" lon="9.450944832908721"><ele>229.0</ele><time>2026-04-20T14:30:18Z</time></trkpt><trkpt lat="45.637674644025005" lon="9.450973427352148"><ele>229.0</ele><time>2026-04-20T14:30:20Z</time></trkpt><trkpt lat="45.63776923282171" lon="9.450977536094522"><ele>229.16666666666666</ele><time>2026-04-20T14:30:22Z</time></trkpt><trkpt lat="45.63784968593165" lon="9.45099047291505"><ele>229.33333333333331</ele><time>2026-04-20T14:30:24Z</time></trkpt><trkpt lat="45.63791490337468" lon="9.450962932495875"><ele>229.5</ele><time>2026-04-20T14:30:27Z</time></trkpt><trkpt lat="45.638012998087234" lon="9.450941806867819"><ele>229.66666666666669</ele><time>2026-04-20T14:30:30Z</time></trkpt><trkpt lat="45.63809788556098" lon="9.45094426148545"><ele>229.83333333333334</ele><time>2026-04-20T14:30:32Z</time></trkpt><trkpt lat="45.638178265705335" lon="9.450954114781574"><ele>230.0</ele><time>2026-04-20T14:30:34Z</time></trkpt><trkpt lat="45.63828249685353" lon="9.450942871160693"><ele>230.00000000000003</ele><time>2026-04-20T14:30:36Z</time></trkpt><trkpt lat="45.63834458949012" lon="9.450974865487249"><ele>230.0</ele><time>2026-04-20T14:30:37Z</time></trkpt><trkpt lat="45.63843447881543" lon="9.45099880630839"><ele>230.0</ele><time>2026-04-20T14:30:38Z</time></trkpt><trkpt lat="45.63850808301338" lon="9.451038300176211"><ele>230.0</ele><time>2026-04-20T14:30:39Z</time></trkpt><trkpt lat="45.638578559392855" lon="9.451067224389094"><ele>230.00000000000003</ele><time>2026-04-20T14:30:40Z</time></trkpt><trkpt lat="45.63864941285907" lon="9.451105401076438"><ele>230.0</ele><time>2026-04-20T14:30:41Z</time></trkpt><trkpt lat="45.63873317569526" lon="9.451129610642004"><ele>230.4</ele><time>2026-04-20T14:30:42Z</time></trkpt><trkpt lat="45.638852010377114" lon="9.451142251167626"><ele>230.8</ele><time>2026-04-20T14:30:43Z</time></trkpt><trkpt lat="45.63897751410069" lon="9.451124064333005"><ele>231.2</ele><time>2026-04-20T14:30:44Z</time></trkpt><trkpt lat="45.639089497036565" lon="9.451129114026168"><ele>231.6</ele><time>2026-04-20T14:30:45Z</time></trkpt><trkpt lat="45.63917136484426" lon="9.451155690956318"><ele>232.0</ele><time>2026-04-20T14:30:46Z</time></trkpt><trkpt lat="45.63924459971472" lon="9.451161526334177"><ele>232.0</ele><time>2026-04-20T14:30:47Z</time></trkpt><trkpt lat="45.63934870325889" lon="9.451158027025553"><ele>232.0</ele><time>2026-04-20T14:30:49Z</time></trkpt><trkpt lat="45.6394217265797" lon="9.451193954229137"><ele>232.0</ele><time>2026-04-20T14:30:53Z</time></trkpt><trkpt lat="45.639518439124174" lon="9.450998497213861"><ele>232.0</ele><time>2026-04-20T14:31:08Z</time></trkpt><trkpt lat="45.63956202725698" lon="9.450867110671316"><ele>231.75</ele><time>2026-04-20T14:31:09Z</time></trkpt><trkpt lat="45.639597273001435" lon="9.450712103051998"><ele>231.5</ele><time>2026-04-20T14:31:10Z</time></trkpt><trkpt lat="45.63964477832126" lon="9.4505031789739"><ele>231.25</ele><time>2026-04-20T14:31:11Z</time></trkpt><trkpt lat="45.63969742674479" lon="9.450268745139494"><ele>231.0</ele><time>2026-04-20T14:31:12Z</time></trkpt><trkpt lat="45.63972998606558" lon="9.450030281745747"><ele>231.0</ele><time>2026-04-20T14:31:13Z</time></trkpt><trkpt lat="45.639786245416346" lon="9.449813122604663"><ele>231.0</ele><time>2026-04-20T14:31:14Z</time></trkpt><trkpt lat="45.6398373483382" lon="9.449575627411688"><ele>231.0</ele><time>2026-04-20T14:31:15Z</time></trkpt><trkpt lat="45.639881584168194" lon="9.449377462922426"><ele>231.0</ele><time>2026-04-20T14:31:16Z</time></trkpt><trkpt lat="45.63993518418437" lon="9.449165387966246"><ele>231.0</ele><time>2026-04-20T14:31:17Z</time></trkpt><trkpt lat="45.6399747941887" lon="9.448974277490008"><ele>231.0</ele><time>2026-04-20T14:31:18Z</time></trkpt><trkpt lat="45.64001279206958" lon="9.448787687889238"><ele>231.0</ele><time>2026-04-20T14:31:19Z</time></trkpt><trkpt lat="45.64005102872896" lon="9.448624245365012"><ele>230.75</ele><time>2026-04-20T14:31:20Z</time></trkpt><trkpt lat="45.64007639239221" lon="9.44847832483948"><ele>230.5</ele><time>2026-04-20T14:31:21Z</time></trkpt><trkpt lat="45.640097222164606" lon="9.448321469123561"><ele>230.25</ele><time>2026-04-20T14:31:22Z</time></trkpt><trkpt lat="45.64009468650967" lon="9.448136720087408"><ele>230.0</ele><time>2026-04-20T14:31:23Z</time></trkpt><trkpt lat="45.640091971248" lon="9.447924035959707"><ele>230.5</ele><time>2026-04-20T14:31:24Z</time></trkpt><trkpt lat="45.640115848502084" lon="9.447736404329115"><ele>231.0</ele><time>2026-04-20T14:31:25Z</time></trkpt><trkpt lat="45.64012650333069" lon="9.447553992932642"><ele>231.5</ele><time>2026-04-20T14:31:26Z</time></trkpt><trkpt lat="45.64011778621899" lon="9.447362445476516"><ele>232.0</ele><time>2026-04-20T14:31:27Z</time></trkpt><trkpt lat="45.640124008525625" lon="9.447164996506487"><ele>232.0</ele><time>2026-04-20T14:31:28Z</time></trkpt><trkpt lat="45.64014038625371" lon="9.446955384142402"><ele>232.0</ele><time>2026-04-20T14:31:29Z</time></trkpt><trkpt lat="45.6401658936466" lon="9.446722364682826"><ele>232.0</ele><time>2026-04-20T14:31:30Z</time></trkpt><trkpt lat="45.640182828211465" lon="9.446559903753007"><ele>232.0</ele><time>2026-04-20T14:31:31Z</time></trkpt><trkpt lat="45.64021270090373" lon="9.446402927739424"><ele>232.16666666666666</ele><time>2026-04-20T14:31:32Z</time></trkpt><trkpt lat="45.640222304232026" lon="9.446263932218153"><ele>232.33333333333331</ele><time>2026-04-20T14:31:33Z</time></trkpt><trkpt lat="45.640228474239464" lon="9.446145232235152"><ele>232.5</ele><time>2026-04-20T14:31:34Z</time></trkpt><trkpt lat="45.64023142732649" lon="9.446033440714908"><ele>232.66666666666669</ele><time>2026-04-20T14:31:35Z</time></trkpt><trkpt lat="45.640206158158236" lon="9.445919092971076"><ele>232.83333333333334</ele><time>2026-04-20T14:31:36Z</time></trkpt><trkpt lat="45.64025109661662" lon="9.445809985054598"><ele>233.0</ele><time>2026-04-20T14:31:37Z</time></trkpt><trkpt lat="45.64025903170682" lon="9.445714984083994"><ele>233.0</ele><time>2026-04-20T14:31:38Z</time></trkpt><trkpt lat="45.64027123282371" lon="9.4455886004644"><ele>233.0</ele><time>2026-04-20T14:31:39Z</time></trkpt><trkpt lat="45.64028808289621" lon="9.445462406410435"><ele>233.0</ele><time>2026-04-20T14:31:40Z</time></trkpt><trkpt lat="45.64030925870348" lon="9.44535069177322"><ele>233.0</ele><time>2026-04-20T14:31:41Z</time></trkpt><trkpt lat="45.640353499585345" lon="9.445225716150963"><ele>233.0</ele><time>2026-04-20T14:31:43Z</time></trkpt><trkpt lat="45.64038862036487" lon="9.44504298888721"><ele>232.8</ele><time>2026-04-20T14:31:45Z</time></trkpt><trkpt lat="45.64040192612884" lon="9.444940329535857"><ele>232.60000000000002</ele><time>2026-04-20T14:31:46Z</time></trkpt><trkpt lat="45.64040728261688" lon="9.444819607729338"><ele>232.39999999999998</ele><time>2026-04-20T14:31:47Z</time></trkpt><trkpt lat="45.64041159395065" lon="9.444679837359326"><ele>232.2</ele><time>2026-04-20T14:31:48Z</time></trkpt><trkpt lat="45.64040432733995" lon="9.444538101187621"><ele>232.0</ele><time>2026-04-20T14:31:49Z</time></trkpt><trkpt lat="45.640391613113" lon="9.444384608458629"><ele>231.99999999999997</ele><time>2026-04-20T14:31:50Z</time></trkpt><trkpt lat="45.640396212197885" lon="9.444248133398641"><ele>232.0</ele><time>2026-04-20T14:31:51Z</time></trkpt><trkpt lat="45.64040987813873" lon="9.44412348322235"><ele>232.0</ele><time>2026-04-20T14:31:52Z</time></trkpt><trkpt lat="45.64040828939438" lon="9.444025381150245"><ele>232.0</ele><time>2026-04-20T14:31:53Z</time></trkpt><trkpt lat="45.64040941748336" lon="9.443923156870916"><ele>231.99999999999997</ele><time>2026-04-20T14:31:55Z</time></trkpt><trkpt lat="45.640437137369844" lon="9.443799280885932"><ele>232.0</ele><time>2026-04-20T14:31:59Z</time></trkpt><trkpt lat="45.640520540914146" lon="9.44377015132271"><ele>232.0</ele><time>2026-04-20T14:32:02Z</time></trkpt><trkpt lat="45.64065110992149" lon="9.44378228395905"><ele>232.0</ele><time>2026-04-20T14:32:04Z</time></trkpt><trkpt lat="45.64075866208745" lon="9.443797432109735"><ele>232.0</ele><time>2026-04-20T14:32:05Z</time></trkpt><trkpt lat="45.64088217168336" lon="9.4437975275468"><ele>232.0</ele><time>2026-04-20T14:32:06Z</time></trkpt><trkpt lat="45.64101923687253" lon="9.443812257449897"><ele>232.0</ele><time>2026-04-20T14:32:07Z</time></trkpt><trkpt lat="45.64113467066675" lon="9.443815712323113"><ele>232.0</ele><time>2026-04-20T14:32:08Z</time></trkpt><trkpt lat="45.641223668220555" lon="9.443808566518127"><ele>232.0</ele><time>2026-04-20T14:32:09Z</time></trkpt><trkpt lat="45.641309455771484" lon="9.443813829543659"><ele>232.0</ele><time>2026-04-20T14:32:10Z</time></trkpt><trkpt lat="45.64138755019417" lon="9.443802808162545"><ele>232.0</ele><time>2026-04-20T14:32:11Z</time></trkpt><trkpt lat="45.64151679743827" lon="9.443795881534683"><ele>231.6</ele><time>2026-04-20T14:32:13Z</time></trkpt><trkpt lat="45.641614128381924" lon="9.44378716468463"><ele>231.2</ele><time>2026-04-20T14:32:14Z</time></trkpt><trkpt lat="45.641726734947845" lon="9.443771116273087"><ele>230.8</ele><time>2026-04-20T14:32:15Z</time></trkpt><trkpt lat="45.641807415894824" lon="9.443762320411215"><ele>230.4</ele><time>2026-04-20T14:32:16Z</time></trkpt><trkpt lat="45.64191616865633" lon="9.443770552063459"><ele>230.0</ele><time>2026-04-20T14:32:18Z</time></trkpt><trkpt lat="45.64204963704853" lon="9.443733603839865"><ele>230.8</ele><time>2026-04-20T14:32:20Z</time></trkpt><trkpt lat="45.64213361887" lon="9.443738608193174"><ele>231.6</ele><time>2026-04-20T14:32:21Z</time></trkpt><trkpt lat="45.642226858537754" lon="9.443742044103663"><ele>232.39999999999998</ele><time>2026-04-20T14:32:22Z</time></trkpt><trkpt lat="45.64230850596987" lon="9.443733362825599"><ele>233.2</ele><time>2026-04-20T14:32:23Z</time></trkpt><trkpt lat="45.64242973602642" lon="9.443709638676104"><ele>234.0</ele><time>2026-04-20T14:32:25Z</time></trkpt><trkpt lat="45.642552168525015" lon="9.443705118402415"><ele>234.0</ele><time>2026-04-20T14:32:27Z</time></trkpt><trkpt lat="45.642704360336836" lon="9.443687843371801"><ele>233.99999999999997</ele><time>2026-04-20T14:32:31Z</time></trkpt><trkpt lat="45.64276945434347" lon="9.443581154576897"><ele>233.99999999999997</ele><time>2026-04-20T14:32:34Z</time></trkpt><trkpt lat="45.64276227948545" lon="9.443484133800256"><ele>234.0</ele><time>2026-04-20T14:32:35Z</time></trkpt><trkpt lat="45.64273506989084" lon="9.443324917755373"><ele>234.0</ele><time>2026-04-20T14:32:37Z</time></trkpt><trkpt lat="45.64271442593317" lon="9.44322535198842"><ele>234.0</ele><time>2026-04-20T14:32:39Z</time></trkpt><trkpt lat="45.64272566155689" lon="9.443122443940997"><ele>233.99999999999997</ele><time>2026-04-20T14:32:41Z</time></trkpt><trkpt lat="45.642787266768195" lon="9.443004054532578"><ele>233.99999999999997</ele><time>2026-04-20T14:32:43Z</time></trkpt><trkpt lat="45.64285986579667" lon="9.442914445309741"><ele>234.0</ele><time>2026-04-20T14:32:45Z</time></trkpt><trkpt lat="45.64294170050017" lon="9.442850282375042"><ele>234.0</ele><time>2026-04-20T14:32:47Z</time></trkpt><trkpt lat="45.64302402989504" lon="9.442820040112485"><ele>234.39999999999998</ele><time>2026-04-20T14:32:48Z</time></trkpt><trkpt lat="45.643108923973585" lon="9.44280468006991"><ele>234.79999999999998</ele><time>2026-04-20T14:32:49Z</time></trkpt><trkpt lat="45.64320483127426" lon="9.442772450455928"><ele>235.20000000000002</ele><time>2026-04-20T14:32:50Z</time></trkpt><trkpt lat="45.64330650891887" lon="9.442749342601168"><ele>235.60000000000002</ele><time>2026-04-20T14:32:51Z</time></trkpt><trkpt lat="45.643398145955274" lon="9.442736533486075"><ele>236.0</ele><time>2026-04-20T14:32:52Z</time></trkpt><trkpt lat="45.64348630865175" lon="9.442725455892267"><ele>236.00000000000003</ele><time>2026-04-20T14:32:53Z</time></trkpt><trkpt lat="45.643563841181674" lon="9.4427156375105"><ele>236.0</ele><time>2026-04-20T14:32:54Z</time></trkpt><trkpt lat="45.64363119842806" lon="9.442710687408772"><ele>236.0</ele><time>2026-04-20T14:32:55Z</time></trkpt><trkpt lat="45.64371503404696" lon="9.44264800901819"><ele>236.0</ele><time>2026-04-20T14:32:57Z</time></trkpt><trkpt lat="45.6437843614823" lon="9.442572298370186"><ele>236.00000000000003</ele><time>2026-04-20T14:33:00Z</time></trkpt><trkpt lat="45.643859303857475" lon="9.442510097008503"><ele>236.0</ele><time>2026-04-20T14:33:02Z</time></trkpt><trkpt lat="45.643935258140864" lon="9.442429278604699"><ele>236.0</ele><time>2026-04-20T14:33:04Z</time></trkpt><trkpt lat="45.64403813914576" lon="9.442356031565438"><ele>236.00000000000003</ele><time>2026-04-20T14:33:06Z</time></trkpt><trkpt lat="45.644128840269644" lon="9.44236514877836"><ele>236.00000000000003</ele><time>2026-04-20T14:33:08Z</time></trkpt><trkpt lat="45.64424127519494" lon="9.442307155655744"><ele>236.0</ele><time>2026-04-20T14:33:10Z</time></trkpt><trkpt lat="45.64429923660671" lon="9.442215875997416"><ele>236.0</ele><time>2026-04-20T14:33:11Z</time></trkpt><trkpt lat="45.64436802788053" lon="9.442160223115346"><ele>236.0</ele><time>2026-04-20T14:33:12Z</time></trkpt><trkpt lat="45.6444355430344" lon="9.442131740768714"><ele>236.0</ele><time>2026-04-20T14:33:13Z</time></trkpt><trkpt lat="45.64449224613273" lon="9.442173079439849"><ele>236.0</ele><time>2026-04-20T14:33:16Z</time></trkpt><trkpt lat="45.64470227119195" lon="9.442172122290238"><ele>236.0</ele><time>2026-04-20T14:33:27Z</time></trkpt><trkpt lat="45.644840231557545" lon="9.442167155877222"><ele>236.5</ele><time>2026-04-20T14:33:33Z</time></trkpt><trkpt lat="45.644879601694974" lon="9.442261109959421"><ele>237.0</ele><time>2026-04-20T14:33:36Z</time></trkpt><trkpt lat="45.64512546203507" lon="9.442262979365005"><ele>237.5</ele><time>2026-04-20T14:33:43Z</time></trkpt><trkpt lat="45.6452475819962" lon="9.442246440719682"><ele>238.0</ele><time>2026-04-20T14:33:46Z</time></trkpt><trkpt lat="45.64535856251805" lon="9.442231608311413"><ele>238.16666666666666</ele><time>2026-04-20T14:33:48Z</time></trkpt><trkpt lat="45.64542626803253" lon="9.442220867272132"><ele>238.33333333333331</ele><time>2026-04-20T14:33:49Z</time></trkpt><trkpt lat="45.64551110586484" lon="9.442216493464208"><ele>238.5</ele><time>2026-04-20T14:33:50Z</time></trkpt><trkpt lat="45.645595245493155" lon="9.442216759880234"><ele>238.66666666666669</ele><time>2026-04-20T14:33:51Z</time></trkpt><trkpt lat="45.64566954460634" lon="9.442233405635456"><ele>238.83333333333334</ele><time>2026-04-20T14:33:52Z</time></trkpt><trkpt lat="45.64575627371601" lon="9.442238425275695"><ele>239.0</ele><time>2026-04-20T14:33:53Z</time></trkpt><trkpt lat="45.64583044249285" lon="9.442222918546728"><ele>239.0</ele><time>2026-04-20T14:33:54Z</time></trkpt><trkpt lat="45.6458956591783" lon="9.442210742631433"><ele>238.99999999999997</ele><time>2026-04-20T14:33:55Z</time></trkpt><trkpt lat="45.646037345834756" lon="9.442206936529612"><ele>238.99999999999997</ele><time>2026-04-20T14:33:57Z</time></trkpt><trkpt lat="45.6461226028852" lon="9.442195698840901"><ele>239.0</ele><time>2026-04-20T14:33:58Z</time></trkpt><trkpt lat="45.64623554883261" lon="9.442168839394478"><ele>239.0</ele><time>2026-04-20T14:33:59Z</time></trkpt><trkpt lat="45.64632805670474" lon="9.442167974117034"><ele>239.0</ele><time>2026-04-20T14:34:00Z</time></trkpt><trkpt lat="45.6464273686555" lon="9.442164010748174"><ele>238.99999999999997</ele><time>2026-04-20T14:34:01Z</time></trkpt><trkpt lat="45.64652179114973" lon="9.442136565834549"><ele>238.99999999999997</ele><time>2026-04-20T14:34:02Z</time></trkpt><trkpt lat="45.6466289648864" lon="9.442130435704657"><ele>239.0</ele><time>2026-04-20T14:34:03Z</time></trkpt><trkpt lat="45.64669980142404" lon="9.44211020910962"><ele>239.0</ele><time>2026-04-20T14:34:04Z</time></trkpt><trkpt lat="45.64678306064128" lon="9.442079657630472"><ele>239.14285714285717</ele><time>2026-04-20T14:34:06Z</time></trkpt><trkpt lat="45.64684226234792" lon="9.44202539305298"><ele>239.28571428571428</ele><time>2026-04-20T14:34:09Z</time></trkpt><trkpt lat="45.646903393460654" lon="9.44199312372846"><ele>239.42857142857144</ele><time>2026-04-20T14:34:11Z</time></trkpt><trkpt lat="45.64692964238288" lon="9.442079583037161"><ele>239.57142857142858</ele><time>2026-04-20T14:34:25Z</time></trkpt><trkpt lat="45.646962275546635" lon="9.442187091174452"><ele>239.71428571428572</ele><time>2026-04-20T14:34:27Z</time></trkpt><trkpt lat="45.64704218273033" lon="9.442254925407626"><ele>239.85714285714286</ele><time>2026-04-20T14:34:29Z</time></trkpt><trkpt lat="45.64709851066446" lon="9.442307696760562"><ele>240.0</ele><time>2026-04-20T14:34:31Z</time></trkpt><trkpt lat="45.64737348051545" lon="9.442300710484957"><ele>239.5</ele><time>2026-04-20T14:34:39Z</time></trkpt><trkpt lat="45.64760307907832" lon="9.442180353110626"><ele>239.0</ele><time>2026-04-20T14:34:44Z</time></trkpt><trkpt lat="45.64767149018755" lon="9.442167435319588"><ele>238.5</ele><time>2026-04-20T14:34:45Z</time></trkpt><trkpt lat="45.64774565034893" lon="9.442143246870591"><ele>238.0</ele><time>2026-04-20T14:34:46Z</time></trkpt><trkpt lat="45.647815999592574" lon="9.442124411700359"><ele>237.99999999999997</ele><time>2026-04-20T14:34:47Z</time></trkpt><trkpt lat="45.64791338604379" lon="9.442140788302197"><ele>238.0</ele><time>2026-04-20T14:34:49Z</time></trkpt><trkpt lat="45.64798219060986" lon="9.44216267697998"><ele>238.0</ele><time>2026-04-20T14:34:50Z</time></trkpt><trkpt lat="45.64805912489184" lon="9.442160416116046"><ele>238.0</ele><time>2026-04-20T14:34:51Z</time></trkpt><trkpt lat="45.64813043364431" lon="9.44215168484162"><ele>237.99999999999997</ele><time>2026-04-20T14:34:52Z</time></trkpt><trkpt lat="45.648241279196924" lon="9.44212810897057"><ele>238.0</ele><time>2026-04-20T14:34:53Z</time></trkpt><trkpt lat="45.648346393204655" lon="9.442132545465231"><ele>237.99999999999997</ele><time>2026-04-20T14:34:54Z</time></trkpt><trkpt lat="45.64842726804678" lon="9.442106360232836"><ele>238.0</ele><time>2026-04-20T14:34:55Z</time></trkpt><trkpt lat="45.648502900915005" lon="9.442118588008922"><ele>238.0</ele><time>2026-04-20T14:34:56Z</time></trkpt><trkpt lat="45.64862464501496" lon="9.442102605787095"><ele>238.0</ele><time>2026-04-20T14:34:58Z</time></trkpt><trkpt lat="45.648694013981284" lon="9.442060837485668"><ele>237.99999999999997</ele><time>2026-04-20T14:35:00Z</time></trkpt><trkpt lat="45.64875969401267" lon="9.442008233667178"><ele>238.0</ele><time>2026-04-20T14:35:02Z</time></trkpt><trkpt lat="45.64879968187503" lon="9.441934019164375"><ele>237.85714285714286</ele><time>2026-04-20T14:35:04Z</time></trkpt><trkpt lat="45.648872743206645" lon="9.44183788926769"><ele>237.71428571428572</ele><time>2026-04-20T14:35:08Z</time></trkpt><trkpt lat="45.648939103425704" lon="9.441827051256025"><ele>237.57142857142856</ele><time>2026-04-20T14:35:11Z</time></trkpt><trkpt lat="45.649002874390085" lon="9.441854662984257"><ele>237.42857142857142</ele><time>2026-04-20T14:35:13Z</time></trkpt><trkpt lat="45.64906552135589" lon="9.441872520858874"><ele>237.28571428571428</ele><time>2026-04-20T14:35:20Z</time></trkpt><trkpt lat="45.64910589014077" lon="9.44196327442465"><ele>237.1428571428571</ele><time>2026-04-20T14:35:25Z</time></trkpt><trkpt lat="45.64914561313555" lon="9.442037143217966"><ele>236.99999999999997</ele><time>2026-04-20T14:35:31Z</time></trkpt><trkpt lat="45.649190348772336" lon="9.442101583673077"><ele>237.33333333333334</ele><time>2026-04-20T14:35:35Z</time></trkpt><trkpt lat="45.64923298528786" lon="9.442182302844593"><ele>237.66666666666669</ele><time>2026-04-20T14:35:38Z</time></trkpt><trkpt lat="45.64924345305221" lon="9.44231586128536"><ele>238.0</ele><time>2026-04-20T14:35:42Z</time></trkpt><trkpt lat="45.64924847650714" lon="9.442408062360688"><ele>238.33333333333334</ele><time>2026-04-20T14:35:44Z</time></trkpt><trkpt lat="45.64923590800294" lon="9.442512640727603"><ele>238.66666666666669</ele><time>2026-04-20T14:35:46Z</time></trkpt><trkpt lat="45.64922862209339" lon="9.44264209918659"><ele>239.0</ele><time>2026-04-20T14:35:48Z</time></trkpt><trkpt lat="45.64920538290096" lon="9.442739692630859"><ele>239.0</ele><time>2026-04-20T14:35:50Z</time></trkpt><trkpt lat="45.649220987934314" lon="9.442832367969592"><ele>238.99999999999997</ele><time>2026-04-20T14:35:51Z</time></trkpt><trkpt lat="45.64921319262455" lon="9.442927849221185"><ele>238.99999999999997</ele><time>2026-04-20T14:35:52Z</time></trkpt><trkpt lat="45.649247436493084" lon="9.443039019303304"><ele>239.0</ele><time>2026-04-20T14:35:55Z</time></trkpt><trkpt lat="45.64931533706042" lon="9.443033083724606"><ele>239.0</ele><time>2026-04-20T14:35:57Z</time></trkpt><trkpt lat="45.6495244738211" lon="9.443038674217902"><ele>238.79999999999998</ele><time>2026-04-20T14:36:01Z</time></trkpt><trkpt lat="45.6496074017844" lon="9.443043865800663"><ele>238.59999999999997</ele><time>2026-04-20T14:36:02Z</time></trkpt><trkpt lat="45.649700774163406" lon="9.443037549083895"><ele>238.4</ele><time>2026-04-20T14:36:03Z</time></trkpt><trkpt lat="45.64982302308854" lon="9.44302875942375"><ele>238.2</ele><time>2026-04-20T14:36:04Z</time></trkpt><trkpt lat="45.64990708633261" lon="9.443033301019321"><ele>238.0</ele><time>2026-04-20T14:36:05Z</time></trkpt><trkpt lat="45.64998544975913" lon="9.443030099271104"><ele>237.99999999999997</ele><time>2026-04-20T14:36:06Z</time></trkpt><trkpt lat="45.65004979346479" lon="9.443023276913689"><ele>238.0</ele><time>2026-04-20T14:36:07Z</time></trkpt><trkpt lat="45.65017682821302" lon="9.443004482119608"><ele>238.0</ele><time>2026-04-20T14:36:09Z</time></trkpt><trkpt lat="45.65027586432926" lon="9.443005000460962"><ele>238.0</ele><time>2026-04-20T14:36:11Z</time></trkpt><trkpt lat="45.65033876231905" lon="9.44290921605242"><ele>237.99999999999997</ele><time>2026-04-20T14:36:13Z</time></trkpt><trkpt lat="45.650353036378405" lon="9.442818785726544"><ele>238.0</ele><time>2026-04-20T14:36:14Z</time></trkpt><trkpt lat="45.65036538433078" lon="9.442705056004895"><ele>237.83333333333331</ele><time>2026-04-20T14:36:15Z</time></trkpt><trkpt lat="45.6503859025276" lon="9.442584701355997"><ele>237.66666666666666</ele><time>2026-04-20T14:36:16Z</time></trkpt><trkpt lat="45.65042051907427" lon="9.442462838805012"><ele>237.5</ele><time>2026-04-20T14:36:17Z</time></trkpt><trkpt lat="45.650449086937876" lon="9.442342306118372"><ele>237.33333333333331</ele><time>2026-04-20T14:36:18Z</time></trkpt><trkpt lat="45.65047749212702" lon="9.442219387737088"><ele>237.16666666666666</ele><time>2026-04-20T14:36:19Z</time></trkpt><trkpt lat="45.65050162944139" lon="9.442101417639861"><ele>237.0</ele><time>2026-04-20T14:36:20Z</time></trkpt><trkpt lat="45.65052835031979" lon="9.441983117775614"><ele>237.0</ele><time>2026-04-20T14:36:21Z</time></trkpt><trkpt lat="45.650561441035094" lon="9.44187827685897"><ele>237.0</ele><time>2026-04-20T14:36:22Z</time></trkpt><trkpt lat="45.650602348356074" lon="9.441716113919018"><ele>237.0</ele><time>2026-04-20T14:36:24Z</time></trkpt><trkpt lat="45.65061779098865" lon="9.441625142136129"><ele>237.0</ele><time>2026-04-20T14:36:25Z</time></trkpt><trkpt lat="45.65065036236191" lon="9.441513282294938"><ele>237.0</ele><time>2026-04-20T14:36:27Z</time></trkpt><trkpt lat="45.65067992142824" lon="9.441392456810737"><ele>237.0</ele><time>2026-04-20T14:36:30Z</time></trkpt><trkpt lat="45.65070601282823" lon="9.441294832516746"><ele>236.8</ele><time>2026-04-20T14:36:33Z</time></trkpt><trkpt lat="45.65075019129162" lon="9.44121823998488"><ele>236.6</ele><time>2026-04-20T14:36:36Z</time></trkpt><trkpt lat="45.65086918327853" lon="9.44108786867468"><ele>236.40000000000003</ele><time>2026-04-20T14:36:38Z</time></trkpt><trkpt lat="45.6509448551112" lon="9.440987970920526"><ele>236.20000000000002</ele><time>2026-04-20T14:36:39Z</time></trkpt><trkpt lat="45.65099963287153" lon="9.440889259644495"><ele>236.0</ele><time>2026-04-20T14:36:40Z</time></trkpt><trkpt lat="45.65107189402312" lon="9.440795447748194"><ele>236.16666666666669</ele><time>2026-04-20T14:36:41Z</time></trkpt><trkpt lat="45.65114585767659" lon="9.4407130635203"><ele>236.33333333333334</ele><time>2026-04-20T14:36:42Z</time></trkpt><trkpt lat="45.651215214492005" lon="9.440648155070683"><ele>236.5</ele><time>2026-04-20T14:36:43Z</time></trkpt><trkpt lat="45.65127908248478" lon="9.440590488372592"><ele>236.66666666666669</ele><time>2026-04-20T14:36:44Z</time></trkpt><trkpt lat="45.651333024111175" lon="9.440537470967685"><ele>236.83333333333334</ele><time>2026-04-20T14:36:45Z</time></trkpt><trkpt lat="45.65139747141211" lon="9.440475271915437"><ele>237.0</ele><time>2026-04-20T14:36:46Z</time></trkpt><trkpt lat="45.65148628130581" lon="9.440440428475062"><ele>237.0</ele><time>2026-04-20T14:36:47Z</time></trkpt><trkpt lat="45.65160649904384" lon="9.440449607617529"><ele>237.0</ele><time>2026-04-20T14:36:48Z</time></trkpt><trkpt lat="45.65175538599128" lon="9.440463729364325"><ele>237.0</ele><time>2026-04-20T14:36:49Z</time></trkpt><trkpt lat="45.651913488939236" lon="9.440491435587365"><ele>237.0</ele><time>2026-04-20T14:36:50Z</time></trkpt><trkpt lat="45.652078866218716" lon="9.44051701045428"><ele>237.0</ele><time>2026-04-20T14:36:51Z</time></trkpt><trkpt lat="45.65227546955919" lon="9.44054612086711"><ele>237.0</ele><time>2026-04-20T14:36:52Z</time></trkpt><trkpt lat="45.652437027626526" lon="9.440571818897567"><ele>237.0</ele><time>2026-04-20T14:36:53Z</time></trkpt><trkpt lat="45.652585460969696" lon="9.440596522802714"><ele>237.0</ele><time>2026-04-20T14:36:54Z</time></trkpt><trkpt lat="45.65271920343923" lon="9.440617078460823"><ele>237.0</ele><time>2026-04-20T14:36:55Z</time></trkpt><trkpt lat="45.652854292713926" lon="9.4406493505752"><ele>237.0</ele><time>2026-04-20T14:36:56Z</time></trkpt><trkpt lat="45.652990228899476" lon="9.440661984138934"><ele>237.0</ele><time>2026-04-20T14:36:57Z</time></trkpt><trkpt lat="45.653139002877246" lon="9.440683797268195"><ele>237.0</ele><time>2026-04-20T14:36:58Z</time></trkpt><trkpt lat="45.653279783011726" lon="9.440711497138103"><ele>237.0</ele><time>2026-04-20T14:36:59Z</time></trkpt><trkpt lat="45.65339801447121" lon="9.440742683959124"><ele>237.0</ele><time>2026-04-20T14:37:00Z</time></trkpt><trkpt lat="45.65350866982424" lon="9.440765940654657"><ele>237.0</ele><time>2026-04-20T14:37:01Z</time></trkpt><trkpt lat="45.65361285769249" lon="9.44079346699296"><ele>236.8</ele><time>2026-04-20T14:37:02Z</time></trkpt><trkpt lat="45.65372250373247" lon="9.440820189382421"><ele>236.6</ele><time>2026-04-20T14:37:03Z</time></trkpt><trkpt lat="45.6538328923303" lon="9.440847832524602"><ele>236.40000000000003</ele><time>2026-04-20T14:37:04Z</time></trkpt><trkpt lat="45.65392439988521" lon="9.440871624897326"><ele>236.20000000000002</ele><time>2026-04-20T14:37:05Z</time></trkpt><trkpt lat="45.65400391876217" lon="9.440888026937825"><ele>236.0</ele><time>2026-04-20T14:37:06Z</time></trkpt><trkpt lat="45.65407969586671" lon="9.440907652256463"><ele>236.00000000000003</ele><time>2026-04-20T14:37:07Z</time></trkpt><trkpt lat="45.65416614896704" lon="9.440938515380425"><ele>236.0</ele><time>2026-04-20T14:37:08Z</time></trkpt><trkpt lat="45.654244566031046" lon="9.440943438387377"><ele>236.0</ele><time>2026-04-20T14:37:10Z</time></trkpt><trkpt lat="45.65427761183015" lon="9.440846538372906"><ele>236.0</ele><time>2026-04-20T14:37:12Z</time></trkpt><trkpt lat="45.65429961006385" lon="9.440722490850549"><ele>236.00000000000003</ele><time>2026-04-20T14:37:13Z</time></trkpt><trkpt lat="45.6543255821485" lon="9.440575594336881"><ele>236.0</ele><time>2026-04-20T14:37:14Z</time></trkpt><trkpt lat="45.65436505232065" lon="9.440412906220695"><ele>236.16666666666669</ele><time>2026-04-20T14:37:15Z</time></trkpt><trkpt lat="45.654404335766486" lon="9.440267751619555"><ele>236.33333333333334</ele><time>2026-04-20T14:37:16Z</time></trkpt><trkpt lat="45.6544252948671" lon="9.440173219571305"><ele>236.5</ele><time>2026-04-20T14:37:17Z</time></trkpt><trkpt lat="45.65445569512436" lon="9.440059032958784"><ele>236.66666666666669</ele><time>2026-04-20T14:37:19Z</time></trkpt><trkpt lat="45.65448208401933" lon="9.439945445653104"><ele>236.83333333333334</ele><time>2026-04-20T14:37:21Z</time></trkpt><trkpt lat="45.654516747985916" lon="9.439821161154773"><ele>237.0</ele><time>2026-04-20T14:37:23Z</time></trkpt><trkpt lat="45.65454848482314" lon="9.439704080279647"><ele>237.5</ele><time>2026-04-20T14:37:24Z</time></trkpt><trkpt lat="45.65457862848059" lon="9.439590415424277"><ele>238.0</ele><time>2026-04-20T14:37:25Z</time></trkpt><trkpt lat="45.654607431826776" lon="9.43948034118507"><ele>238.5</ele><time>2026-04-20T14:37:26Z</time></trkpt><trkpt lat="45.65463624926845" lon="9.439377808313827"><ele>239.0</ele><time>2026-04-20T14:37:27Z</time></trkpt><trkpt lat="45.65466459819204" lon="9.439277907374539"><ele>239.5</ele><time>2026-04-20T14:37:28Z</time></trkpt><trkpt lat="45.654685377531486" lon="9.439189862734619"><ele>240.0</ele><time>2026-04-20T14:37:29Z</time></trkpt><trkpt lat="45.654716932506524" lon="9.43904641074339"><ele>240.0</ele><time>2026-04-20T14:37:31Z</time></trkpt><trkpt lat="45.654752264002255" lon="9.438920575287746"><ele>240.0</ele><time>2026-04-20T14:37:33Z</time></trkpt><trkpt lat="45.65478307164293" lon="9.438792529172698"><ele>240.0</ele><time>2026-04-20T14:37:35Z</time></trkpt><trkpt lat="45.65480379145255" lon="9.438700927214908"><ele>240.0</ele><time>2026-04-20T14:37:36Z</time></trkpt><trkpt lat="45.65483153461239" lon="9.438602757619245"><ele>240.0</ele><time>2026-04-20T14:37:37Z</time></trkpt><trkpt lat="45.65485979515839" lon="9.438505091182694"><ele>240.0</ele><time>2026-04-20T14:37:38Z</time></trkpt><trkpt lat="45.65488819045455" lon="9.43839189926266"><ele>239.8</ele><time>2026-04-20T14:37:39Z</time></trkpt><trkpt lat="45.65491382476953" lon="9.438294428021539"><ele>239.6</ele><time>2026-04-20T14:37:40Z</time></trkpt><trkpt lat="45.65494909707424" lon="9.438171785548239"><ele>239.39999999999998</ele><time>2026-04-20T14:37:41Z</time></trkpt><trkpt lat="45.65498788731608" lon="9.438036166440318"><ele>239.2</ele><time>2026-04-20T14:37:42Z</time></trkpt><trkpt lat="45.65502889452818" lon="9.437890593682388"><ele>239.0</ele><time>2026-04-20T14:37:43Z</time></trkpt><trkpt lat="45.65507283749939" lon="9.437714049814785"><ele>239.0</ele><time>2026-04-20T14:37:44Z</time></trkpt><trkpt lat="45.65511464201429" lon="9.437541110696237"><ele>238.99999999999997</ele><time>2026-04-20T14:37:45Z</time></trkpt><trkpt lat="45.65514805184445" lon="9.437415208599452"><ele>238.99999999999997</ele><time>2026-04-20T14:37:46Z</time></trkpt><trkpt lat="45.655173240996355" lon="9.437304700167617"><ele>239.0</ele><time>2026-04-20T14:37:47Z</time></trkpt><trkpt lat="45.65519707984698" lon="9.437206704299609"><ele>239.0</ele><time>2026-04-20T14:37:48Z</time></trkpt><trkpt lat="45.65521170506697" lon="9.437082825599564"><ele>239.2</ele><time>2026-04-20T14:37:50Z</time></trkpt><trkpt lat="45.65523288022377" lon="9.436967152259854"><ele>239.39999999999998</ele><time>2026-04-20T14:37:52Z</time></trkpt><trkpt lat="45.65525901191197" lon="9.436868299717876"><ele>239.6</ele><time>2026-04-20T14:37:53Z</time></trkpt><trkpt lat="45.65529944606286" lon="9.436728106717503"><ele>239.8</ele><time>2026-04-20T14:37:54Z</time></trkpt><trkpt lat="45.6553489166105" lon="9.436557485301336"><ele>240.0</ele><time>2026-04-20T14:37:55Z</time></trkpt><trkpt lat="45.65540142445064" lon="9.436385472904805"><ele>240.25</ele><time>2026-04-20T14:37:56Z</time></trkpt><trkpt lat="45.65545570495707" lon="9.436222769613513"><ele>240.5</ele><time>2026-04-20T14:37:57Z</time></trkpt><trkpt lat="45.65550818254036" lon="9.436061415961557"><ele>240.75</ele><time>2026-04-20T14:37:58Z</time></trkpt><trkpt lat="45.65556292838096" lon="9.435895927645827"><ele>241.0</ele><time>2026-04-20T14:37:59Z</time></trkpt><trkpt lat="45.65562392435978" lon="9.435723251556357"><ele>241.0</ele><time>2026-04-20T14:38:00Z</time></trkpt><trkpt lat="45.6556817392295" lon="9.435553265554155"><ele>241.0</ele><time>2026-04-20T14:38:01Z</time></trkpt><trkpt lat="45.65573213388057" lon="9.435398863703925"><ele>241.0</ele><time>2026-04-20T14:38:02Z</time></trkpt><trkpt lat="45.655780628047864" lon="9.435263904207128"><ele>241.0</ele><time>2026-04-20T14:38:03Z</time></trkpt><trkpt lat="45.655824087264975" lon="9.435133704401364"><ele>241.0</ele><time>2026-04-20T14:38:04Z</time></trkpt><trkpt lat="45.6558692955662" lon="9.434995218781154"><ele>241.0</ele><time>2026-04-20T14:38:05Z</time></trkpt><trkpt lat="45.65592008113159" lon="9.434865261215876"><ele>241.0</ele><time>2026-04-20T14:38:06Z</time></trkpt><trkpt lat="45.65609020760663" lon="9.434798209897288"><ele>241.0</ele><time>2026-04-20T14:38:07Z</time></trkpt><trkpt lat="45.65614753540525" lon="9.434629431032063"><ele>240.99999999999997</ele><time>2026-04-20T14:38:08Z</time></trkpt><trkpt lat="45.65619002119349" lon="9.434505869520738"><ele>241.0</ele><time>2026-04-20T14:38:09Z</time></trkpt><trkpt lat="45.65622510113827" lon="9.434417034746417"><ele>241.0</ele><time>2026-04-20T14:38:10Z</time></trkpt><trkpt lat="45.6562605930534" lon="9.43433310571018"><ele>241.0</ele><time>2026-04-20T14:38:11Z</time></trkpt><trkpt lat="45.65631256858211" lon="9.434228525749033"><ele>240.99999999999997</ele><time>2026-04-20T14:38:13Z</time></trkpt><trkpt lat="45.6563519583541" lon="9.434145542037465"><ele>241.0</ele><time>2026-04-20T14:38:15Z</time></trkpt><trkpt lat="45.65609465550192" lon="9.43386202555188"><ele>241.0</ele><time>2026-04-20T14:38:18Z</time></trkpt><trkpt lat="45.65603035062448" lon="9.433816094068213"><ele>241.0</ele><time>2026-04-20T14:38:19Z</time></trkpt><trkpt lat="45.65593152221421" lon="9.433749009396145"><ele>241.0</ele><time>2026-04-20T14:38:20Z</time></trkpt><trkpt lat="45.655815578701066" lon="9.433665230403545"><ele>241.0</ele><time>2026-04-20T14:38:21Z</time></trkpt><trkpt lat="45.655685359452654" lon="9.433572149584684"><ele>241.0</ele><time>2026-04-20T14:38:22Z</time></trkpt><trkpt lat="45.65554945438762" lon="9.433477284988795"><ele>241.0</ele><time>2026-04-20T14:38:23Z</time></trkpt><trkpt lat="45.65541525570886" lon="9.433382218516543"><ele>241.0</ele><time>2026-04-20T14:38:24Z</time></trkpt><trkpt lat="45.65526987049689" lon="9.43328566549553"><ele>241.0</ele><time>2026-04-20T14:38:25Z</time></trkpt><trkpt lat="45.65512960105534" lon="9.433192930997265"><ele>241.0</ele><time>2026-04-20T14:38:26Z</time></trkpt><trkpt lat="45.65500763595665" lon="9.433113769641174"><ele>241.0</ele><time>2026-04-20T14:38:27Z</time></trkpt><trkpt lat="45.65486674383653" lon="9.432999333970631"><ele>240.66666666666666</ele><time>2026-04-20T14:38:28Z</time></trkpt><trkpt lat="45.65470953387895" lon="9.43289268768624"><ele>240.33333333333331</ele><time>2026-04-20T14:38:29Z</time></trkpt><trkpt lat="45.654568828296654" lon="9.432800140343383"><ele>240.0</ele><time>2026-04-20T14:38:30Z</time></trkpt><trkpt lat="45.65444786251664" lon="9.432723312200963"><ele>240.33333333333334</ele><time>2026-04-20T14:38:31Z</time></trkpt><trkpt lat="45.65434286864431" lon="9.432654286038828"><ele>240.66666666666669</ele><time>2026-04-20T14:38:32Z</time></trkpt><trkpt lat="45.654244029900376" lon="9.43258331177058"><ele>241.0</ele><time>2026-04-20T14:38:33Z</time></trkpt><trkpt lat="45.65416618948725" lon="9.432539117371688"><ele>241.33333333333334</ele><time>2026-04-20T14:38:34Z</time></trkpt><trkpt lat="45.65410086483773" lon="9.432502482580215"><ele>241.66666666666669</ele><time>2026-04-20T14:38:35Z</time></trkpt><trkpt lat="45.65407034220205" lon="9.432413451861306"><ele>242.0</ele><time>2026-04-20T14:38:37Z</time></trkpt><trkpt lat="45.6541362292598" lon="9.432212371842269"><ele>242.33333333333334</ele><time>2026-04-20T14:38:39Z</time></trkpt><trkpt lat="45.654256834115394" lon="9.432086027975217"><ele>242.66666666666669</ele><time>2026-04-20T14:38:40Z</time></trkpt><trkpt lat="45.65432743213936" lon="9.431890492511727"><ele>243.0</ele><time>2026-04-20T14:38:41Z</time></trkpt><trkpt lat="45.65439888681991" lon="9.431692599332619"><ele>241.8</ele><time>2026-04-20T14:38:42Z</time></trkpt><trkpt lat="45.65445664964538" lon="9.431488300825531"><ele>240.60000000000002</ele><time>2026-04-20T14:38:43Z</time></trkpt><trkpt lat="45.65451556727622" lon="9.431333413301553"><ele>239.39999999999998</ele><time>2026-04-20T14:38:44Z</time></trkpt><trkpt lat="45.654552955060915" lon="9.431222000910738"><ele>238.2</ele><time>2026-04-20T14:38:45Z</time></trkpt><trkpt lat="45.65459069464689" lon="9.431135459476103"><ele>237.0</ele><time>2026-04-20T14:38:46Z</time></trkpt><trkpt lat="45.65463189947922" lon="9.431018833907705"><ele>236.6</ele><time>2026-04-20T14:38:47Z</time></trkpt><trkpt lat="45.65468451824142" lon="9.430887087038972"><ele>236.2</ele><time>2026-04-20T14:38:48Z</time></trkpt><trkpt lat="45.65473533827428" lon="9.430758257678148"><ele>235.8</ele><time>2026-04-20T14:38:49Z</time></trkpt><trkpt lat="45.65477905416244" lon="9.430643529400822"><ele>235.4</ele><time>2026-04-20T14:38:50Z</time></trkpt><trkpt lat="45.65483391329027" lon="9.430496956211044"><ele>235.0</ele><time>2026-04-20T14:38:51Z</time></trkpt><trkpt lat="45.65489389433132" lon="9.430341667114453"><ele>235.0</ele><time>2026-04-20T14:38:52Z</time></trkpt><trkpt lat="45.65494935960786" lon="9.430188936645967"><ele>235.0</ele><time>2026-04-20T14:38:53Z</time></trkpt><trkpt lat="45.65500568805288" lon="9.430049124582208"><ele>235.0</ele><time>2026-04-20T14:38:54Z</time></trkpt><trkpt lat="45.65505941989854" lon="9.429941179175913"><ele>235.0</ele><time>2026-04-20T14:38:55Z</time></trkpt><trkpt lat="45.65510723943733" lon="9.429820261973706"><ele>235.0</ele><time>2026-04-20T14:38:57Z</time></trkpt><trkpt lat="45.65514884162162" lon="9.429737891323922"><ele>235.0</ele><time>2026-04-20T14:39:00Z</time></trkpt><trkpt lat="45.655263908863866" lon="9.429757734844362"><ele>235.0</ele><time>2026-04-20T14:39:02Z</time></trkpt><trkpt lat="45.65535023434851" lon="9.429824259354316"><ele>235.0</ele><time>2026-04-20T14:39:03Z</time></trkpt><trkpt lat="45.65546035347489" lon="9.429910732841444"><ele>235.0</ele><time>2026-04-20T14:39:04Z</time></trkpt><trkpt lat="45.65559043908544" lon="9.429992741165151"><ele>234.75</ele><time>2026-04-20T14:39:05Z</time></trkpt><trkpt lat="45.65571452338236" lon="9.430079823539874"><ele>234.5</ele><time>2026-04-20T14:39:06Z</time></trkpt><trkpt lat="45.65583435585212" lon="9.43016587557541"><ele>234.25</ele><time>2026-04-20T14:39:07Z</time></trkpt><trkpt lat="45.65598657702583" lon="9.430262083266317"><ele>234.0</ele><time>2026-04-20T14:39:08Z</time></trkpt><trkpt lat="45.6561325219371" lon="9.430356948986793"><ele>233.79999999999998</ele><time>2026-04-20T14:39:09Z</time></trkpt><trkpt lat="45.656255401032794" lon="9.430442896353883"><ele>233.59999999999997</ele><time>2026-04-20T14:39:10Z</time></trkpt><trkpt lat="45.656366658845485" lon="9.430519792430617"><ele>233.4</ele><time>2026-04-20T14:39:11Z</time></trkpt><trkpt lat="45.656460633384064" lon="9.430585341412042"><ele>233.2</ele><time>2026-04-20T14:39:12Z</time></trkpt><trkpt lat="45.656535084548324" lon="9.430642297880114"><ele>233.0</ele><time>2026-04-20T14:39:13Z</time></trkpt><trkpt lat="45.65663289550256" lon="9.430690502550075"><ele>233.0</ele><time>2026-04-20T14:39:15Z</time></trkpt><trkpt lat="45.65675418048797" lon="9.430424480062824"><ele>233.0</ele><time>2026-04-20T14:39:18Z</time></trkpt><trkpt lat="45.65681727262899" lon="9.430259715271587"><ele>233.0</ele><time>2026-04-20T14:39:19Z</time></trkpt><trkpt lat="45.65688489761512" lon="9.430075127857885"><ele>234.33333333333334</ele><time>2026-04-20T14:39:20Z</time></trkpt><trkpt lat="45.65696267464707" lon="9.42987607417068"><ele>235.66666666666669</ele><time>2026-04-20T14:39:21Z</time></trkpt><trkpt lat="45.65704510147664" lon="9.429673384115011"><ele>237.0</ele><time>2026-04-20T14:39:22Z</time></trkpt><trkpt lat="45.65711644298393" lon="9.429510766717772"><ele>237.0</ele><time>2026-04-20T14:39:23Z</time></trkpt><trkpt lat="45.657176303134875" lon="9.429379940525314"><ele>237.0</ele><time>2026-04-20T14:39:24Z</time></trkpt><trkpt lat="45.65722661377831" lon="9.429287965477334"><ele>237.0</ele><time>2026-04-20T14:39:25Z</time></trkpt><trkpt lat="45.65726613467337" lon="9.42921651559862"><ele>237.0</ele><time>2026-04-20T14:39:26Z</time></trkpt><trkpt lat="45.657257207328236" lon="9.429085318738634"><ele>237.0</ele><time>2026-04-20T14:39:28Z</time></trkpt><trkpt lat="45.65720577716513" lon="9.42901287368543"><ele>237.0</ele><time>2026-04-20T14:39:29Z</time></trkpt><trkpt lat="45.65712378047757" lon="9.428915766390316"><ele>237.0</ele><time>2026-04-20T14:39:30Z</time></trkpt><trkpt lat="45.657031264369515" lon="9.428815954881136"><ele>237.0</ele><time>2026-04-20T14:39:31Z</time></trkpt><trkpt lat="45.65697069990854" lon="9.428742735489047"><ele>237.0</ele><time>2026-04-20T14:39:32Z</time></trkpt><trkpt lat="45.656943735933915" lon="9.42862569118901"><ele>237.0</ele><time>2026-04-20T14:39:34Z</time></trkpt><trkpt lat="45.657005870529446" lon="9.428476039442941"><ele>237.0</ele><time>2026-04-20T14:39:36Z</time></trkpt><trkpt lat="45.65707521340941" lon="9.428368165745292"><ele>237.25</ele><time>2026-04-20T14:39:37Z</time></trkpt><trkpt lat="45.657179907142655" lon="9.428218864239351"><ele>237.5</ele><time>2026-04-20T14:39:38Z</time></trkpt><trkpt lat="45.65727050594861" lon="9.428084274180536"><ele>237.75</ele><time>2026-04-20T14:39:39Z</time></trkpt><trkpt lat="45.657360525447416" lon="9.427943444525452"><ele>238.0</ele><time>2026-04-20T14:39:40Z</time></trkpt><trkpt lat="45.657453215541864" lon="9.427774189467325"><ele>237.33333333333331</ele><time>2026-04-20T14:39:41Z</time></trkpt><trkpt lat="45.657545931642275" lon="9.427572729567425"><ele>236.66666666666669</ele><time>2026-04-20T14:39:42Z</time></trkpt><trkpt lat="45.65762467913277" lon="9.427384888664083"><ele>236.0</ele><time>2026-04-20T14:39:43Z</time></trkpt><trkpt lat="45.65770528485638" lon="9.42720163976317"><ele>235.75</ele><time>2026-04-20T14:39:44Z</time></trkpt><trkpt lat="45.65778099905423" lon="9.427031692979899"><ele>235.5</ele><time>2026-04-20T14:39:45Z</time></trkpt><trkpt lat="45.65785084836698" lon="9.426882902260306"><ele>235.25</ele><time>2026-04-20T14:39:46Z</time></trkpt><trkpt lat="45.657903978736634" lon="9.426757588566456"><ele>235.0</ele><time>2026-04-20T14:39:47Z</time></trkpt><trkpt lat="45.65794034826396" lon="9.426607925016144"><ele>235.0</ele><time>2026-04-20T14:39:48Z</time></trkpt><trkpt lat="45.65799345361909" lon="9.426450114706608"><ele>235.0</ele><time>2026-04-20T14:39:49Z</time></trkpt><trkpt lat="45.65805557323569" lon="9.426285741054082"><ele>235.0</ele><time>2026-04-20T14:39:50Z</time></trkpt><trkpt lat="45.65813306913567" lon="9.426093348470795"><ele>235.0</ele><time>2026-04-20T14:39:51Z</time></trkpt><trkpt lat="45.658195480034706" lon="9.42592271576359"><ele>234.5</ele><time>2026-04-20T14:39:52Z</time></trkpt><trkpt lat="45.658261025182284" lon="9.42576962184374"><ele>234.0</ele><time>2026-04-20T14:39:53Z</time></trkpt><trkpt lat="45.65834238708996" lon="9.425616063693747"><ele>233.5</ele><time>2026-04-20T14:39:54Z</time></trkpt><trkpt lat="45.65842628166387" lon="9.4254642543978"><ele>233.0</ele><time>2026-04-20T14:39:55Z</time></trkpt><trkpt lat="45.65851261428402" lon="9.425314354007755"><ele>233.0</ele><time>2026-04-20T14:39:56Z</time></trkpt><trkpt lat="45.65858791021362" lon="9.425175080851288"><ele>233.0</ele><time>2026-04-20T14:39:57Z</time></trkpt><trkpt lat="45.65863755309742" lon="9.425070861011607"><ele>233.0</ele><time>2026-04-20T14:39:58Z</time></trkpt><trkpt lat="45.65868614355745" lon="9.42496071822632"><ele>233.0</ele><time>2026-04-20T14:39:59Z</time></trkpt><trkpt lat="45.6587507406916" lon="9.424849972809769"><ele>233.0</ele><time>2026-04-20T14:40:00Z</time></trkpt><trkpt lat="45.65879557959219" lon="9.424731425240465"><ele>233.33333333333334</ele><time>2026-04-20T14:40:01Z</time></trkpt><trkpt lat="45.65882988304986" lon="9.424632928868668"><ele>233.66666666666669</ele><time>2026-04-20T14:40:02Z</time></trkpt><trkpt lat="45.65888572398011" lon="9.424519135708799"><ele>234.0</ele><time>2026-04-20T14:40:04Z</time></trkpt><trkpt lat="45.65893073172036" lon="9.424454312002002"><ele>234.33333333333331</ele><time>2026-04-20T14:40:06Z</time></trkpt><trkpt lat="45.659015167309235" lon="9.424390012067446"><ele>234.66666666666666</ele><time>2026-04-20T14:40:09Z</time></trkpt><trkpt lat="45.65903820646597" lon="9.424255873621822"><ele>235.0</ele><time>2026-04-20T14:40:10Z</time></trkpt><trkpt lat="45.659134859679725" lon="9.42420431381281"><ele>234.99999999999997</ele><time>2026-04-20T14:40:12Z</time></trkpt><trkpt lat="45.659245874675676" lon="9.424136803511885"><ele>235.0</ele><time>2026-04-20T14:40:14Z</time></trkpt><trkpt lat="45.65930384078488" lon="9.424075163274164"><ele>235.0</ele><time>2026-04-20T14:40:15Z</time></trkpt><trkpt lat="45.6593637593378" lon="9.424031089190738"><ele>235.0</ele><time>2026-04-20T14:40:17Z</time></trkpt><trkpt lat="45.6594261521214" lon="9.42392661430562"><ele>234.99999999999997</ele><time>2026-04-20T14:40:19Z</time></trkpt><trkpt lat="45.65947652467261" lon="9.42383330833712"><ele>235.0</ele><time>2026-04-20T14:40:21Z</time></trkpt><trkpt lat="45.659581119700825" lon="9.423777175854129"><ele>234.99999999999997</ele><time>2026-04-20T14:40:25Z</time></trkpt><trkpt lat="45.659632155547364" lon="9.423704912882695"><ele>235.0</ele><time>2026-04-20T14:40:28Z</time></trkpt><trkpt lat="45.65956296946256" lon="9.423728877325106"><ele>235.0</ele><time>2026-04-20T14:40:31Z</time></trkpt><trkpt lat="45.659481979892334" lon="9.42379546298419"><ele>235.0</ele><time>2026-04-20T14:40:32Z</time></trkpt><trkpt lat="45.65939599016848" lon="9.42386396390748"><ele>234.99999999999997</ele><time>2026-04-20T14:40:33Z</time></trkpt><trkpt lat="45.659352616998525" lon="9.424001367335011"><ele>235.0</ele><time>2026-04-20T14:40:35Z</time></trkpt><trkpt lat="45.659373121743286" lon="9.424141552060005"><ele>234.99999999999997</ele><time>2026-04-20T14:40:37Z</time></trkpt><trkpt lat="45.65935788786778" lon="9.424252877396995"><ele>235.0</ele><time>2026-04-20T14:40:39Z</time></trkpt><trkpt lat="45.65933019939663" lon="9.424367692337224"><ele>235.0</ele><time>2026-04-20T14:40:42Z</time></trkpt><trkpt lat="45.65930847695166" lon="9.4244876023708"><ele>235.0</ele><time>2026-04-20T14:40:45Z</time></trkpt><trkpt lat="45.659345840058684" lon="9.424575572386468"><ele>234.99999999999997</ele><time>2026-04-20T14:40:48Z</time></trkpt><trkpt lat="45.65942230607462" lon="9.424519697680516"><ele>235.0</ele><time>2026-04-20T14:40:51Z</time></trkpt><trkpt lat="45.65941829749496" lon="9.424392492447474"><ele>234.99999999999997</ele><time>2026-04-20T14:40:54Z</time></trkpt><trkpt lat="45.65940426788853" lon="9.424480447719722"><ele>235.0</ele><time>2026-04-20T14:41:05Z</time></trkpt><trkpt lat="45.659454607340756" lon="9.424542408463957"><ele>235.0</ele><time>2026-04-20T14:41:07Z</time></trkpt><trkpt lat="45.65951590166195" lon="9.42448540998467"><ele>235.0</ele><time>2026-04-20T14:41:12Z</time></trkpt><trkpt lat="45.65953219775046" lon="9.42427259601931"><ele>234.99999999999997</ele><time>2026-04-20T14:41:14Z</time></trkpt><trkpt lat="45.65953789608145" lon="9.424141679292648"><ele>235.0</ele><time>2026-04-20T14:41:15Z</time></trkpt><trkpt lat="45.659559473533065" lon="9.423987741541147"><ele>235.6</ele><time>2026-04-20T14:41:17Z</time></trkpt><trkpt lat="45.659622760591" lon="9.423889848619881"><ele>236.2</ele><time>2026-04-20T14:41:19Z</time></trkpt><trkpt lat="45.6596276519782" lon="9.423797297396595"><ele>236.8</ele><time>2026-04-20T14:41:21Z</time></trkpt><trkpt lat="45.65959209580377" lon="9.423693304198615"><ele>237.4</ele><time>2026-04-20T14:41:23Z</time></trkpt><trkpt lat="45.659583391947265" lon="9.423581833474655"><ele>238.0</ele><time>2026-04-20T14:41:26Z</time></trkpt><trkpt lat="45.65966144769017" lon="9.423410134719063"><ele>238.2</ele><time>2026-04-20T14:41:28Z</time></trkpt><trkpt lat="45.65971784780257" lon="9.423288534416734"><ele>238.4</ele><time>2026-04-20T14:41:29Z</time></trkpt><trkpt lat="45.65977738278419" lon="9.423153022143229"><ele>238.59999999999997</ele><time>2026-04-20T14:41:30Z</time></trkpt><trkpt lat="45.659831505424584" lon="9.423029753656683"><ele>238.79999999999998</ele><time>2026-04-20T14:41:31Z</time></trkpt><trkpt lat="45.659894729178326" lon="9.422907101226384"><ele>239.0</ele><time>2026-04-20T14:41:32Z</time></trkpt><trkpt lat="45.65997291724755" lon="9.422771225548745"><ele>239.0</ele><time>2026-04-20T14:41:33Z</time></trkpt><trkpt lat="45.66007147116319" lon="9.42259199049964"><ele>239.0</ele><time>2026-04-20T14:41:34Z</time></trkpt><trkpt lat="45.66015987889766" lon="9.422407683973015"><ele>239.0</ele><time>2026-04-20T14:41:35Z</time></trkpt><trkpt lat="45.660238161919175" lon="9.422235409448684"><ele>239.2</ele><time>2026-04-20T14:41:36Z</time></trkpt><trkpt lat="45.66029698754819" lon="9.42209029083859"><ele>239.39999999999998</ele><time>2026-04-20T14:41:37Z</time></trkpt><trkpt lat="45.6603541587631" lon="9.421962406955736"><ele>239.6</ele><time>2026-04-20T14:41:38Z</time></trkpt><trkpt lat="45.660410554749966" lon="9.421837901103416"><ele>239.8</ele><time>2026-04-20T14:41:39Z</time></trkpt><trkpt lat="45.66044872789299" lon="9.421756816395362"><ele>240.0</ele><time>2026-04-20T14:41:40Z</time></trkpt><trkpt lat="45.66049275687093" lon="9.421663972512498"><ele>240.0</ele><time>2026-04-20T14:41:42Z</time></trkpt><trkpt lat="45.66054020500037" lon="9.421591642751748"><ele>240.0</ele><time>2026-04-20T14:41:45Z</time></trkpt><trkpt lat="45.660585617195686" lon="9.42152619987486"><ele>240.0</ele><time>2026-04-20T14:41:47Z</time></trkpt><trkpt lat="45.66065687466475" lon="9.42151038847592"><ele>240.0</ele><time>2026-04-20T14:41:49Z</time></trkpt><trkpt lat="45.660771942635364" lon="9.421595023673689"><ele>240.0</ele><time>2026-04-20T14:41:51Z</time></trkpt><trkpt lat="45.66083639589137" lon="9.42162354142478"><ele>240.0</ele><time>2026-04-20T14:41:52Z</time></trkpt><trkpt lat="45.66092106638754" lon="9.421668149869907"><ele>240.0</ele><time>2026-04-20T14:41:53Z</time></trkpt><trkpt lat="45.66098483683802" lon="9.421708189013533"><ele>240.0</ele><time>2026-04-20T14:41:54Z</time></trkpt><trkpt lat="45.661102793357266" lon="9.42176625582731"><ele>240.0</ele><time>2026-04-20T14:41:56Z</time></trkpt><trkpt lat="45.66120738636817" lon="9.421804683160826"><ele>240.0</ele><time>2026-04-20T14:41:58Z</time></trkpt><trkpt lat="45.66129286838199" lon="9.421792500506886"><ele>240.0</ele><time>2026-04-20T14:42:00Z</time></trkpt><trkpt lat="45.661360528864385" lon="9.421639645146051"><ele>240.0</ele><time>2026-04-20T14:42:02Z</time></trkpt><trkpt lat="45.66139961105705" lon="9.421528118079973"><ele>240.0</ele><time>2026-04-20T14:42:03Z</time></trkpt><trkpt lat="45.66142628891267" lon="9.421401681313348"><ele>240.0</ele><time>2026-04-20T14:42:04Z</time></trkpt><trkpt lat="45.661448013834566" lon="9.421273211661376"><ele>240.0</ele><time>2026-04-20T14:42:05Z</time></trkpt><trkpt lat="45.66146975134525" lon="9.42116249955019"><ele>240.0</ele><time>2026-04-20T14:42:06Z</time></trkpt><trkpt lat="45.661490171997464" lon="9.42106110088386"><ele>240.0</ele><time>2026-04-20T14:42:07Z</time></trkpt><trkpt lat="45.66150731320447" lon="9.420960286225437"><ele>240.0</ele><time>2026-04-20T14:42:08Z</time></trkpt><trkpt lat="45.66153457462861" lon="9.420845515912331"><ele>240.0</ele><time>2026-04-20T14:42:09Z</time></trkpt><trkpt lat="45.66156042441938" lon="9.420728521368114"><ele>240.0</ele><time>2026-04-20T14:42:10Z</time></trkpt><trkpt lat="45.66159024494899" lon="9.42061017033433"><ele>240.0</ele><time>2026-04-20T14:42:11Z</time></trkpt><trkpt lat="45.661614633034205" lon="9.420491491062657"><ele>240.0</ele><time>2026-04-20T14:42:12Z</time></trkpt><trkpt lat="45.66163647294918" lon="9.42033096211577"><ele>240.75</ele><time>2026-04-20T14:42:13Z</time></trkpt><trkpt lat="45.66185458107139" lon="9.420226019004676"><ele>241.5</ele><time>2026-04-20T14:42:14Z</time></trkpt><trkpt lat="45.66188582173811" lon="9.42008920461216"><ele>242.25</ele><time>2026-04-20T14:42:15Z</time></trkpt><trkpt lat="45.661910885560786" lon="9.419979439883546"><ele>243.0</ele><time>2026-04-20T14:42:16Z</time></trkpt><trkpt lat="45.66194196293215" lon="9.419843339435692"><ele>243.0</ele><time>2026-04-20T14:42:18Z</time></trkpt><trkpt lat="45.66182503083791" lon="9.419730370311528"><ele>243.0</ele><time>2026-04-20T14:42:19Z</time></trkpt><trkpt lat="45.66187608993998" lon="9.419579042756226"><ele>243.0</ele><time>2026-04-20T14:42:21Z</time></trkpt><trkpt lat="45.66190687712321" lon="9.41948779530848"><ele>243.0</ele><time>2026-04-20T14:42:23Z</time></trkpt><trkpt lat="45.661983731035676" lon="9.419480444612631"><ele>243.0</ele><time>2026-04-20T14:42:26Z</time></trkpt><trkpt lat="45.66209615339725" lon="9.419543949909942"><ele>243.60000000000002</ele><time>2026-04-20T14:42:28Z</time></trkpt><trkpt lat="45.662156152160044" lon="9.41949660778493"><ele>244.20000000000002</ele><time>2026-04-20T14:42:29Z</time></trkpt><trkpt lat="45.66217582616815" lon="9.419404720296582"><ele>244.8</ele><time>2026-04-20T14:42:30Z</time></trkpt><trkpt lat="45.66225898310551" lon="9.419250444751144"><ele>245.4</ele><time>2026-04-20T14:42:32Z</time></trkpt><trkpt lat="45.662308006493554" lon="9.419112123551292"><ele>246.0</ele><time>2026-04-20T14:42:33Z</time></trkpt><trkpt lat="45.662369409060695" lon="9.41893887469432"><ele>246.0</ele><time>2026-04-20T14:42:34Z</time></trkpt><trkpt lat="45.66243149469007" lon="9.418765659488724"><ele>246.00000000000003</ele><time>2026-04-20T14:42:35Z</time></trkpt><trkpt lat="45.66248022132" lon="9.418624025140836"><ele>246.00000000000003</ele><time>2026-04-20T14:42:36Z</time></trkpt><trkpt lat="45.662518788332235" lon="9.418510093306054"><ele>246.0</ele><time>2026-04-20T14:42:37Z</time></trkpt><trkpt lat="45.66255741968298" lon="9.418396050761729"><ele>246.0</ele><time>2026-04-20T14:42:38Z</time></trkpt><trkpt lat="45.66259070751291" lon="9.418298557330782"><ele>246.0</ele><time>2026-04-20T14:42:39Z</time></trkpt><trkpt lat="45.66263907096493" lon="9.41815593323769"><ele>246.00000000000003</ele><time>2026-04-20T14:42:41Z</time></trkpt><trkpt lat="45.66266598109672" lon="9.418068492923753"><ele>246.00000000000003</ele><time>2026-04-20T14:42:43Z</time></trkpt><trkpt lat="45.66267989684747" lon="9.417966856184037"><ele>246.0</ele><time>2026-04-20T14:42:47Z</time></trkpt><trkpt lat="45.66281824464115" lon="9.41800941938993"><ele>246.0</ele><time>2026-04-20T14:42:50Z</time></trkpt><trkpt lat="45.662917567145065" lon="9.41807623263569"><ele>245.0</ele><time>2026-04-20T14:42:51Z</time></trkpt><trkpt lat="45.66306536856105" lon="9.418173451379234"><ele>244.0</ele><time>2026-04-20T14:42:53Z</time></trkpt><trkpt lat="45.66319302470379" lon="9.418257012882062"><ele>243.0</ele><time>2026-04-20T14:42:54Z</time></trkpt><trkpt lat="45.66333182709607" lon="9.418351338227938"><ele>243.0</ele><time>2026-04-20T14:42:55Z</time></trkpt><trkpt lat="45.66343049517888" lon="9.418410800184098"><ele>243.0</ele><time>2026-04-20T14:42:56Z</time></trkpt><trkpt lat="45.66354766909969" lon="9.418483357709935"><ele>243.0</ele><time>2026-04-20T14:42:57Z</time></trkpt><trkpt lat="45.66365804450113" lon="9.418554305165577"><ele>243.0</ele><time>2026-04-20T14:42:58Z</time></trkpt><trkpt lat="45.66375982276749" lon="9.418628570747895"><ele>243.0</ele><time>2026-04-20T14:42:59Z</time></trkpt><trkpt lat="45.66386517759463" lon="9.418703980222164"><ele>243.0</ele><time>2026-04-20T14:43:00Z</time></trkpt><trkpt lat="45.66397303034263" lon="9.418774106079676"><ele>243.0</ele><time>2026-04-20T14:43:01Z</time></trkpt><trkpt lat="45.66406988291287" lon="9.418846195135014"><ele>243.0</ele><time>2026-04-20T14:43:02Z</time></trkpt><trkpt lat="45.664163925063946" lon="9.418914093187299"><ele>243.2</ele><time>2026-04-20T14:43:03Z</time></trkpt><trkpt lat="45.664249574126366" lon="9.418977776008209"><ele>243.4</ele><time>2026-04-20T14:43:04Z</time></trkpt><trkpt lat="45.66433212463464" lon="9.419044876283014"><ele>243.59999999999997</ele><time>2026-04-20T14:43:05Z</time></trkpt><trkpt lat="45.664428976462965" lon="9.419121174149396"><ele>243.79999999999998</ele><time>2026-04-20T14:43:06Z</time></trkpt><trkpt lat="45.66452382229492" lon="9.419193002872818"><ele>244.0</ele><time>2026-04-20T14:43:07Z</time></trkpt><trkpt lat="45.66460623198335" lon="9.419263406946735"><ele>244.16666666666666</ele><time>2026-04-20T14:43:08Z</time></trkpt><trkpt lat="45.66467793424999" lon="9.419324211307558"><ele>244.33333333333331</ele><time>2026-04-20T14:43:09Z</time></trkpt><trkpt lat="45.664751963883205" lon="9.419380271698143"><ele>244.5</ele><time>2026-04-20T14:43:10Z</time></trkpt><trkpt lat="45.664814884340686" lon="9.419447206450881"><ele>244.66666666666669</ele><time>2026-04-20T14:43:11Z</time></trkpt><trkpt lat="45.66487599653765" lon="9.419520325320939"><ele>244.83333333333334</ele><time>2026-04-20T14:43:12Z</time></trkpt><trkpt lat="45.6649646707373" lon="9.419604101069549"><ele>245.0</ele><time>2026-04-20T14:43:13Z</time></trkpt><trkpt lat="45.665023903071756" lon="9.419667098769668"><ele>245.4</ele><time>2026-04-20T14:43:14Z</time></trkpt><trkpt lat="45.66506871309653" lon="9.419734865949549"><ele>245.8</ele><time>2026-04-20T14:43:16Z</time></trkpt><trkpt lat="45.66513219829845" lon="9.419866452793194"><ele>246.2</ele><time>2026-04-20T14:43:19Z</time></trkpt><trkpt lat="45.665211624442655" lon="9.419968917642672"><ele>246.6</ele><time>2026-04-20T14:43:21Z</time></trkpt><trkpt lat="45.66529976049312" lon="9.419857082726798"><ele>247.0</ele><time>2026-04-20T14:43:23Z</time></trkpt><trkpt lat="45.665299473103175" lon="9.419761806079524"><ele>246.66666666666666</ele><time>2026-04-20T14:43:24Z</time></trkpt><trkpt lat="45.66527573501314" lon="9.419644477564248"><ele>246.33333333333331</ele><time>2026-04-20T14:43:25Z</time></trkpt><trkpt lat="45.66522307052497" lon="9.419590570954108"><ele>246.0</ele><time>2026-04-20T14:43:26Z</time></trkpt><trkpt lat="45.66526443255203" lon="9.41940453733518"><ele>245.66666666666669</ele><time>2026-04-20T14:43:27Z</time></trkpt><trkpt lat="45.665257123587715" lon="9.419291617039642"><ele>245.33333333333334</ele><time>2026-04-20T14:43:28Z</time></trkpt><trkpt lat="45.665256464281484" lon="9.41918571496477"><ele>245.0</ele><time>2026-04-20T14:43:29Z</time></trkpt><trkpt lat="45.66525451696313" lon="9.41905375110823"><ele>245.0</ele><time>2026-04-20T14:43:30Z</time></trkpt><trkpt lat="45.665245957977724" lon="9.418884159921443"><ele>245.0</ele><time>2026-04-20T14:43:31Z</time></trkpt><trkpt lat="45.6652263547572" lon="9.418749349457391"><ele>245.0</ele><time>2026-04-20T14:43:32Z</time></trkpt><trkpt lat="45.66521083196772" lon="9.418594435330663"><ele>245.0</ele><time>2026-04-20T14:43:33Z</time></trkpt><trkpt lat="45.66519431106551" lon="9.41838243208827"><ele>244.0</ele><time>2026-04-20T14:43:34Z</time></trkpt><trkpt lat="45.6651843794189" lon="9.418165121548805"><ele>243.0</ele><time>2026-04-20T14:43:35Z</time></trkpt><trkpt lat="45.66516541153717" lon="9.417976160128921"><ele>242.0</ele><time>2026-04-20T14:43:36Z</time></trkpt><trkpt lat="45.665147321486835" lon="9.417808286920781"><ele>241.0</ele><time>2026-04-20T14:43:37Z</time></trkpt><trkpt lat="45.665132400720886" lon="9.4176471777011"><ele>241.0</ele><time>2026-04-20T14:43:38Z</time></trkpt><trkpt lat="45.66511581552974" lon="9.417473681598228"><ele>241.0</ele><time>2026-04-20T14:43:39Z</time></trkpt><trkpt lat="45.66510694393639" lon="9.417295506548738"><ele>241.0</ele><time>2026-04-20T14:43:40Z</time></trkpt><trkpt lat="45.665081821720015" lon="9.417118623776743"><ele>241.0</ele><time>2026-04-20T14:43:41Z</time></trkpt><trkpt lat="45.665071828698125" lon="9.416949357778634"><ele>240.75</ele><time>2026-04-20T14:43:42Z</time></trkpt><trkpt lat="45.66505516985339" lon="9.41677550583322"><ele>240.5</ele><time>2026-04-20T14:43:43Z</time></trkpt><trkpt lat="45.66503155822625" lon="9.416557988694983"><ele>240.25</ele><time>2026-04-20T14:43:44Z</time></trkpt><trkpt lat="45.66502405937574" lon="9.41640182597228"><ele>240.0</ele><time>2026-04-20T14:43:45Z</time></trkpt><trkpt lat="45.66500814088798" lon="9.416212254731628"><ele>240.0</ele><time>2026-04-20T14:43:46Z</time></trkpt><trkpt lat="45.664985881647276" lon="9.416022110180467"><ele>240.0</ele><time>2026-04-20T14:43:47Z</time></trkpt><trkpt lat="45.66496250267254" lon="9.4158314954297"><ele>240.0</ele><time>2026-04-20T14:43:48Z</time></trkpt><trkpt lat="45.66494570278549" lon="9.415643435024087"><ele>240.0</ele><time>2026-04-20T14:43:49Z</time></trkpt><trkpt lat="45.66493040702244" lon="9.415455361849576"><ele>240.0</ele><time>2026-04-20T14:43:50Z</time></trkpt><trkpt lat="45.664915380069964" lon="9.415270384205769"><ele>240.0</ele><time>2026-04-20T14:43:51Z</time></trkpt><trkpt lat="45.66489863166904" lon="9.415080212482692"><ele>240.0</ele><time>2026-04-20T14:43:52Z</time></trkpt><trkpt lat="45.66487572664042" lon="9.414897179968554"><ele>240.0</ele><time>2026-04-20T14:43:53Z</time></trkpt><trkpt lat="45.66485724484543" lon="9.414712880737762"><ele>240.0</ele><time>2026-04-20T14:43:54Z</time></trkpt><trkpt lat="45.66483685201002" lon="9.414534204220582"><ele>240.0</ele><time>2026-04-20T14:43:55Z</time></trkpt><trkpt lat="45.66481938181076" lon="9.414363314150142"><ele>240.0</ele><time>2026-04-20T14:43:56Z</time></trkpt><trkpt lat="45.664806933893715" lon="9.414222204989217"><ele>240.0</ele><time>2026-04-20T14:43:57Z</time></trkpt><trkpt lat="45.66479431224371" lon="9.41411197725666"><ele>240.0</ele><time>2026-04-20T14:43:58Z</time></trkpt><trkpt lat="45.66480126666318" lon="9.41397931452813"><ele>240.0</ele><time>2026-04-20T14:44:00Z</time></trkpt><trkpt lat="45.66489027633553" lon="9.414017386841897"><ele>240.0</ele><time>2026-04-20T14:44:02Z</time></trkpt><trkpt lat="45.66498333064028" lon="9.41405258991076"><ele>240.0</ele><time>2026-04-20T14:44:03Z</time></trkpt><trkpt lat="45.66507180688648" lon="9.414086924646671"><ele>240.0</ele><time>2026-04-20T14:44:04Z</time></trkpt><trkpt lat="45.665181140960144" lon="9.41411932324847"><ele>240.0</ele><time>2026-04-20T14:44:05Z</time></trkpt><trkpt lat="45.66529133596091" lon="9.414186833284827"><ele>240.0</ele><time>2026-04-20T14:44:06Z</time></trkpt><trkpt lat="45.66545790394116" lon="9.414288572494886"><ele>240.0</ele><time>2026-04-20T14:44:07Z</time></trkpt><trkpt lat="45.66560425138397" lon="9.414337898432573"><ele>240.0</ele><time>2026-04-20T14:44:08Z</time></trkpt><trkpt lat="45.665765786658525" lon="9.414387687233148"><ele>240.0</ele><time>2026-04-20T14:44:09Z</time></trkpt><trkpt lat="45.66593461504219" lon="9.41444857680516"><ele>240.0</ele><time>2026-04-20T14:44:10Z</time></trkpt><trkpt lat="45.666079878275994" lon="9.414516053571091"><ele>240.0</ele><time>2026-04-20T14:44:11Z</time></trkpt><trkpt lat="45.66622389183652" lon="9.414580655397655"><ele>240.0</ele><time>2026-04-20T14:44:12Z</time></trkpt><trkpt lat="45.6663727483711" lon="9.414646207075315"><ele>240.0</ele><time>2026-04-20T14:44:13Z</time></trkpt><trkpt lat="45.66651804854855" lon="9.414711835377291"><ele>240.0</ele><time>2026-04-20T14:44:14Z</time></trkpt><trkpt lat="45.66666075558647" lon="9.414780929258509"><ele>240.33333333333331</ele><time>2026-04-20T14:44:15Z</time></trkpt><trkpt lat="45.66680856442147" lon="9.414849041268447"><ele>240.66666666666666</ele><time>2026-04-20T14:44:16Z</time></trkpt><trkpt lat="45.666980459224526" lon="9.41491213783563"><ele>241.0</ele><time>2026-04-20T14:44:17Z</time></trkpt><trkpt lat="45.66714955995059" lon="9.414980317161854"><ele>241.33333333333331</ele><time>2026-04-20T14:44:18Z</time></trkpt><trkpt lat="45.66729897124153" lon="9.415064096566507"><ele>241.66666666666669</ele><time>2026-04-20T14:44:19Z</time></trkpt><trkpt lat="45.66742593346031" lon="9.415153539443343"><ele>242.0</ele><time>2026-04-20T14:44:20Z</time></trkpt><trkpt lat="45.66758902349319" lon="9.41522075560358"><ele>242.0</ele><time>2026-04-20T14:44:21Z</time></trkpt><trkpt lat="45.66774987373171" lon="9.415302851551258"><ele>242.0</ele><time>2026-04-20T14:44:22Z</time></trkpt><trkpt lat="45.66788912071038" lon="9.415347043297693"><ele>242.0</ele><time>2026-04-20T14:44:23Z</time></trkpt><trkpt lat="45.66800085648665" lon="9.415405054632554"><ele>242.0</ele><time>2026-04-20T14:44:24Z</time></trkpt><trkpt lat="45.66810682935237" lon="9.415476635898179"><ele>242.0</ele><time>2026-04-20T14:44:25Z</time></trkpt><trkpt lat="45.66820013046679" lon="9.41554384224741"><ele>242.0</ele><time>2026-04-20T14:44:26Z</time></trkpt><trkpt lat="45.668281951915944" lon="9.415611765039708"><ele>242.0</ele><time>2026-04-20T14:44:27Z</time></trkpt><trkpt lat="45.66838173636993" lon="9.415660389563918"><ele>242.0</ele><time>2026-04-20T14:44:28Z</time></trkpt><trkpt lat="45.66851388643178" lon="9.415687453409276"><ele>242.0</ele><time>2026-04-20T14:44:29Z</time></trkpt><trkpt lat="45.66868399851172" lon="9.415708222283232"><ele>242.0</ele><time>2026-04-20T14:44:30Z</time></trkpt><trkpt lat="45.668823430737994" lon="9.415776748944396"><ele>242.0</ele><time>2026-04-20T14:44:31Z</time></trkpt><trkpt lat="45.66894261594031" lon="9.415796532929052"><ele>242.0</ele><time>2026-04-20T14:44:32Z</time></trkpt><trkpt lat="45.66907949475316" lon="9.41584853304054"><ele>242.0</ele><time>2026-04-20T14:44:33Z</time></trkpt><trkpt lat="45.66919321986177" lon="9.415914571979384"><ele>242.0</ele><time>2026-04-20T14:44:34Z</time></trkpt><trkpt lat="45.66930588206914" lon="9.415967050747486"><ele>242.0</ele><time>2026-04-20T14:44:35Z</time></trkpt><trkpt lat="45.66941095962368" lon="9.41601949304111"><ele>242.0</ele><time>2026-04-20T14:44:36Z</time></trkpt><trkpt lat="45.669504442069325" lon="9.416070669084196"><ele>242.0</ele><time>2026-04-20T14:44:37Z</time></trkpt><trkpt lat="45.66958696201557" lon="9.416121906037045"><ele>242.0</ele><time>2026-04-20T14:44:38Z</time></trkpt><trkpt lat="45.6696630950205" lon="9.416172456222048"><ele>242.39999999999998</ele><time>2026-04-20T14:44:39Z</time></trkpt><trkpt lat="45.66973904093656" lon="9.416221681727384"><ele>242.79999999999998</ele><time>2026-04-20T14:44:40Z</time></trkpt><trkpt lat="45.66981255645666" lon="9.416262944247496"><ele>243.2</ele><time>2026-04-20T14:44:41Z</time></trkpt><trkpt lat="45.66987917405807" lon="9.416294432864348"><ele>243.6</ele><time>2026-04-20T14:44:42Z</time></trkpt><trkpt lat="45.66999580137316" lon="9.416314456192424"><ele>244.0</ele><time>2026-04-20T14:44:44Z</time></trkpt><trkpt lat="45.6700964858313" lon="9.416316962737648"><ele>244.0</ele><time>2026-04-20T14:44:46Z</time></trkpt><trkpt lat="45.67011800533124" lon="9.416197614792354"><ele>243.99999999999997</ele><time>2026-04-20T14:44:47Z</time></trkpt><trkpt lat="45.67014539311422" lon="9.416071577620801"><ele>243.99999999999997</ele><time>2026-04-20T14:44:48Z</time></trkpt><trkpt lat="45.67018843107324" lon="9.415931553803874"><ele>244.0</ele><time>2026-04-20T14:44:49Z</time></trkpt><trkpt lat="45.67021189514195" lon="9.415767128069977"><ele>244.0</ele><time>2026-04-20T14:44:50Z</time></trkpt><trkpt lat="45.67023567151522" lon="9.415630742567975"><ele>244.0</ele><time>2026-04-20T14:44:51Z</time></trkpt><trkpt lat="45.67027917945262" lon="9.415525269075667"><ele>243.99999999999997</ele><time>2026-04-20T14:44:52Z</time></trkpt><trkpt lat="45.67030362227849" lon="9.415434947473338"><ele>243.99999999999997</ele><time>2026-04-20T14:44:53Z</time></trkpt><trkpt lat="45.67035007328479" lon="9.415293275655598"><ele>244.0</ele><time>2026-04-20T14:44:55Z</time></trkpt><trkpt lat="45.67037777572976" lon="9.41519847370779"><ele>244.0</ele><time>2026-04-20T14:44:56Z</time></trkpt><trkpt lat="45.670451702844375" lon="9.415071898184435"><ele>244.0</ele><time>2026-04-20T14:44:58Z</time></trkpt><trkpt lat="45.67049761918481" lon="9.414960108315379"><ele>243.99999999999997</ele><time>2026-04-20T14:45:00Z</time></trkpt><trkpt lat="45.67052345756576" lon="9.414785980674477"><ele>243.99999999999997</ele><time>2026-04-20T14:45:02Z</time></trkpt><trkpt lat="45.67049413305618" lon="9.41467985763431"><ele>244.0</ele><time>2026-04-20T14:45:03Z</time></trkpt><trkpt lat="45.67051477229412" lon="9.414492874085376"><ele>244.0</ele><time>2026-04-20T14:45:05Z</time></trkpt><trkpt lat="45.67053327309543" lon="9.414360514527432"><ele>243.79999999999998</ele><time>2026-04-20T14:45:06Z</time></trkpt><trkpt lat="45.67056457199294" lon="9.414204500816862"><ele>243.59999999999997</ele><time>2026-04-20T14:45:07Z</time></trkpt><trkpt lat="45.67059911607967" lon="9.414059085138472"><ele>243.4</ele><time>2026-04-20T14:45:08Z</time></trkpt><trkpt lat="45.67061516641737" lon="9.413952917478348"><ele>243.2</ele><time>2026-04-20T14:45:09Z</time></trkpt><trkpt lat="45.67064143303164" lon="9.413807031348664"><ele>243.0</ele><time>2026-04-20T14:45:10Z</time></trkpt><trkpt lat="45.670673930354454" lon="9.413631401224526"><ele>243.0</ele><time>2026-04-20T14:45:11Z</time></trkpt><trkpt lat="45.67072087770245" lon="9.413473187816352"><ele>243.0</ele><time>2026-04-20T14:45:12Z</time></trkpt><trkpt lat="45.67074781428292" lon="9.413346403927706"><ele>243.0</ele><time>2026-04-20T14:45:13Z</time></trkpt><trkpt lat="45.67075512328859" lon="9.413238370830596"><ele>243.0</ele><time>2026-04-20T14:45:14Z</time></trkpt><trkpt lat="45.67078484440976" lon="9.413144256581923"><ele>243.0</ele><time>2026-04-20T14:45:15Z</time></trkpt><trkpt lat="45.670805493474674" lon="9.41305631829805"><ele>243.0</ele><time>2026-04-20T14:45:16Z</time></trkpt><trkpt lat="45.67082732760445" lon="9.412962263072393"><ele>243.2</ele><time>2026-04-20T14:45:18Z</time></trkpt><trkpt lat="45.67081581047384" lon="9.412834607418855"><ele>243.4</ele><time>2026-04-20T14:45:21Z</time></trkpt><trkpt lat="45.67069909197053" lon="9.412759442255032"><ele>243.59999999999997</ele><time>2026-04-20T14:45:23Z</time></trkpt><trkpt lat="45.67063352387289" lon="9.412735157524294"><ele>243.79999999999998</ele><time>2026-04-20T14:45:24Z</time></trkpt><trkpt lat="45.670532543030085" lon="9.412712959191685"><ele>244.0</ele><time>2026-04-20T14:45:26Z</time></trkpt><trkpt lat="45.67040742170847" lon="9.412661239527827"><ele>244.0</ele><time>2026-04-20T14:45:28Z</time></trkpt><trkpt lat="45.67033021409859" lon="9.412605131135056"><ele>243.99999999999997</ele><time>2026-04-20T14:45:29Z</time></trkpt><trkpt lat="45.67023339188139" lon="9.41256390372881"><ele>243.99999999999997</ele><time>2026-04-20T14:45:31Z</time></trkpt><trkpt lat="45.67015039842023" lon="9.412528305490556"><ele>244.0</ele><time>2026-04-20T14:45:32Z</time></trkpt><trkpt lat="45.670045928156334" lon="9.412482296791454"><ele>244.0</ele><time>2026-04-20T14:45:33Z</time></trkpt><trkpt lat="45.66995702393097" lon="9.412442488885794"><ele>244.0</ele><time>2026-04-20T14:45:34Z</time></trkpt><trkpt lat="45.66982356888393" lon="9.412402386084226"><ele>244.0</ele><time>2026-04-20T14:45:35Z</time></trkpt><trkpt lat="45.66965865812665" lon="9.412339765512542"><ele>244.0</ele><time>2026-04-20T14:45:36Z</time></trkpt><trkpt lat="45.669482408888705" lon="9.41227649152669"><ele>243.75</ele><time>2026-04-20T14:45:37Z</time></trkpt><trkpt lat="45.66932953930965" lon="9.41218750260951"><ele>243.5</ele><time>2026-04-20T14:45:38Z</time></trkpt><trkpt lat="45.66919357509522" lon="9.412127071258057"><ele>243.25</ele><time>2026-04-20T14:45:39Z</time></trkpt><trkpt lat="45.66908696388798" lon="9.412079117031702"><ele>243.0</ele><time>2026-04-20T14:45:40Z</time></trkpt><trkpt lat="45.668991169279586" lon="9.412034995102308"><ele>242.83333333333334</ele><time>2026-04-20T14:45:41Z</time></trkpt><trkpt lat="45.668895356119386" lon="9.412010473062304"><ele>242.66666666666669</ele><time>2026-04-20T14:45:42Z</time></trkpt><trkpt lat="45.668806270050645" lon="9.411969096566182"><ele>242.5</ele><time>2026-04-20T14:45:43Z</time></trkpt><trkpt lat="45.66873889884084" lon="9.411951465159143"><ele>242.33333333333334</ele><time>2026-04-20T14:45:44Z</time></trkpt><trkpt lat="45.66867341884471" lon="9.411889531386393"><ele>242.16666666666669</ele><time>2026-04-20T14:45:46Z</time></trkpt><trkpt lat="45.66865143899523" lon="9.411789204327675"><ele>242.0</ele><time>2026-04-20T14:45:48Z</time></trkpt><trkpt lat="45.66870292770631" lon="9.411638339657037"><ele>242.0</ele><time>2026-04-20T14:45:50Z</time></trkpt><trkpt lat="45.66872324488404" lon="9.411489188410412"><ele>242.0</ele><time>2026-04-20T14:45:51Z</time></trkpt><trkpt lat="45.66877878923675" lon="9.411337589866003"><ele>242.0</ele><time>2026-04-20T14:45:52Z</time></trkpt><trkpt lat="45.66882261850246" lon="9.411156981897808"><ele>242.0</ele><time>2026-04-20T14:45:53Z</time></trkpt><trkpt lat="45.66887353431597" lon="9.410944057128534"><ele>242.25</ele><time>2026-04-20T14:45:54Z</time></trkpt><trkpt lat="45.66892193778293" lon="9.410723104954698"><ele>242.5</ele><time>2026-04-20T14:45:55Z</time></trkpt><trkpt lat="45.66894645032852" lon="9.410530518202412"><ele>242.75</ele><time>2026-04-20T14:45:56Z</time></trkpt><trkpt lat="45.66900153063658" lon="9.410348586670331"><ele>243.0</ele><time>2026-04-20T14:45:57Z</time></trkpt><trkpt lat="45.66904410022147" lon="9.41015159729439"><ele>243.0</ele><time>2026-04-20T14:45:58Z</time></trkpt><trkpt lat="45.66908193080561" lon="9.40997762362059"><ele>243.0</ele><time>2026-04-20T14:45:59Z</time></trkpt><trkpt lat="45.66911881784052" lon="9.409811063634324"><ele>243.0</ele><time>2026-04-20T14:46:00Z</time></trkpt><trkpt lat="45.669134904542034" lon="9.40967633992533"><ele>243.0</ele><time>2026-04-20T14:46:01Z</time></trkpt><trkpt lat="45.66916559093662" lon="9.40955541683129"><ele>243.0</ele><time>2026-04-20T14:46:02Z</time></trkpt><trkpt lat="45.66918290414922" lon="9.409449785510926"><ele>243.0</ele><time>2026-04-20T14:46:03Z</time></trkpt><trkpt lat="45.669211063222086" lon="9.409342865573443"><ele>243.0</ele><time>2026-04-20T14:46:04Z</time></trkpt><trkpt lat="45.669242187240705" lon="9.409229920584272"><ele>243.0</ele><time>2026-04-20T14:46:05Z</time></trkpt><trkpt lat="45.66926239889241" lon="9.409103712513792"><ele>243.0</ele><time>2026-04-20T14:46:06Z</time></trkpt><trkpt lat="45.66930221970154" lon="9.40898610123074"><ele>243.0</ele><time>2026-04-20T14:46:07Z</time></trkpt><trkpt lat="45.66932937448645" lon="9.40886996896799"><ele>243.0</ele><time>2026-04-20T14:46:08Z</time></trkpt><trkpt lat="45.66935893775813" lon="9.40874353593568"><ele>243.0</ele><time>2026-04-20T14:46:09Z</time></trkpt><trkpt lat="45.669400443145335" lon="9.408577939202063"><ele>243.0</ele><time>2026-04-20T14:46:10Z</time></trkpt><trkpt lat="45.66944140985799" lon="9.408414451814945"><ele>243.0</ele><time>2026-04-20T14:46:11Z</time></trkpt><trkpt lat="45.66947595703161" lon="9.408272554073204"><ele>243.0</ele><time>2026-04-20T14:46:12Z</time></trkpt><trkpt lat="45.66950337057627" lon="9.408101653632114"><ele>243.33333333333334</ele><time>2026-04-20T14:46:13Z</time></trkpt><trkpt lat="45.66954022677667" lon="9.407956650291371"><ele>243.66666666666669</ele><time>2026-04-20T14:46:14Z</time></trkpt><trkpt lat="45.66956817821091" lon="9.407823704439306"><ele>244.0</ele><time>2026-04-20T14:46:15Z</time></trkpt><trkpt lat="45.669592808240886" lon="9.407711540350864"><ele>244.33333333333334</ele><time>2026-04-20T14:46:16Z</time></trkpt><trkpt lat="45.6696044553435" lon="9.407601259560154"><ele>244.66666666666669</ele><time>2026-04-20T14:46:17Z</time></trkpt><trkpt lat="45.66962957757102" lon="9.407509729418136"><ele>245.0</ele><time>2026-04-20T14:46:18Z</time></trkpt><trkpt lat="45.669674624809865" lon="9.4073651183564"><ele>245.00000000000003</ele><time>2026-04-20T14:46:20Z</time></trkpt><trkpt lat="45.669701531844076" lon="9.407261087297073"><ele>245.0</ele><time>2026-04-20T14:46:23Z</time></trkpt><trkpt lat="45.66974048174473" lon="9.407186188295247"><ele>245.0</ele><time>2026-04-20T14:46:26Z</time></trkpt><trkpt lat="45.66985356831769" lon="9.40719754798267"><ele>245.0</ele><time>2026-04-20T14:46:30Z</time></trkpt><trkpt lat="45.66992642490365" lon="9.407262608720613"><ele>245.00000000000003</ele><time>2026-04-20T14:46:31Z</time></trkpt><trkpt lat="45.67000136455403" lon="9.407332041441427"><ele>245.0</ele><time>2026-04-20T14:46:32Z</time></trkpt><trkpt lat="45.670084951954024" lon="9.407425822375265"><ele>245.0</ele><time>2026-04-20T14:46:33Z</time></trkpt><trkpt lat="45.67022676115033" lon="9.407499586142912"><ele>245.0</ele><time>2026-04-20T14:46:34Z</time></trkpt><trkpt lat="45.67034940500489" lon="9.407587480593994"><ele>245.0</ele><time>2026-04-20T14:46:35Z</time></trkpt><trkpt lat="45.67046177267024" lon="9.40766657373755"><ele>245.0</ele><time>2026-04-20T14:46:36Z</time></trkpt><trkpt lat="45.670570854642094" lon="9.407757440320367"><ele>245.25</ele><time>2026-04-20T14:46:37Z</time></trkpt><trkpt lat="45.670665085500424" lon="9.407827850858796"><ele>245.5</ele><time>2026-04-20T14:46:38Z</time></trkpt><trkpt lat="45.67076090451054" lon="9.407915952657074"><ele>245.75</ele><time>2026-04-20T14:46:39Z</time></trkpt><trkpt lat="45.670856197626485" lon="9.408006881558764"><ele>246.0</ele><time>2026-04-20T14:46:40Z</time></trkpt><trkpt lat="45.67099651710961" lon="9.40809236126188"><ele>246.5</ele><time>2026-04-20T14:46:41Z</time></trkpt><trkpt lat="45.67114618539266" lon="9.408162266784203"><ele>247.0</ele><time>2026-04-20T14:46:42Z</time></trkpt><trkpt lat="45.67129205850164" lon="9.408203723910232"><ele>247.5</ele><time>2026-04-20T14:46:43Z</time></trkpt><trkpt lat="45.67142756213248" lon="9.408239143930569"><ele>248.0</ele><time>2026-04-20T14:46:44Z</time></trkpt><trkpt lat="45.67152863616241" lon="9.40828806292654"><ele>248.0</ele><time>2026-04-20T14:46:45Z</time></trkpt><trkpt lat="45.67165832830472" lon="9.4083299283806"><ele>248.0</ele><time>2026-04-20T14:46:46Z</time></trkpt><trkpt lat="45.671771905432564" lon="9.408376251032863"><ele>248.0</ele><time>2026-04-20T14:46:47Z</time></trkpt><trkpt lat="45.671900511370666" lon="9.408435338256488"><ele>248.0</ele><time>2026-04-20T14:46:48Z</time></trkpt><trkpt lat="45.67203728880609" lon="9.408492363214117"><ele>248.75</ele><time>2026-04-20T14:46:49Z</time></trkpt><trkpt lat="45.67217562575439" lon="9.408562197929163"><ele>249.5</ele><time>2026-04-20T14:46:50Z</time></trkpt><trkpt lat="45.67228056584454" lon="9.40861275251144"><ele>250.25</ele><time>2026-04-20T14:46:51Z</time></trkpt><trkpt lat="45.672367377488904" lon="9.408634443647053"><ele>251.0</ele><time>2026-04-20T14:46:52Z</time></trkpt><trkpt lat="45.67248162605525" lon="9.408693838190015"><ele>251.0</ele><time>2026-04-20T14:46:53Z</time></trkpt><trkpt lat="45.67261168272549" lon="9.408748172552079"><ele>251.0</ele><time>2026-04-20T14:46:54Z</time></trkpt><trkpt lat="45.67273779293686" lon="9.408800372082121"><ele>251.0</ele><time>2026-04-20T14:46:55Z</time></trkpt><trkpt lat="45.67287553195253" lon="9.408843890997044"><ele>251.0</ele><time>2026-04-20T14:46:56Z</time></trkpt><trkpt lat="45.6729965671312" lon="9.408883211239779"><ele>250.75</ele><time>2026-04-20T14:46:57Z</time></trkpt><trkpt lat="45.673111431910435" lon="9.408920507156896"><ele>250.5</ele><time>2026-04-20T14:46:58Z</time></trkpt><trkpt lat="45.67323177347132" lon="9.408984130908806"><ele>250.25</ele><time>2026-04-20T14:46:59Z</time></trkpt><trkpt lat="45.673345670798824" lon="9.40903859431496"><ele>250.0</ele><time>2026-04-20T14:47:00Z</time></trkpt><trkpt lat="45.6735149540921" lon="9.409069171858578"><ele>250.75</ele><time>2026-04-20T14:47:01Z</time></trkpt><trkpt lat="45.673612042424296" lon="9.409125577401886"><ele>251.5</ele><time>2026-04-20T14:47:02Z</time></trkpt><trkpt lat="45.67373112632692" lon="9.409175128710816"><ele>252.25</ele><time>2026-04-20T14:47:03Z</time></trkpt><trkpt lat="45.6738702956576" lon="9.409229919776179"><ele>253.0</ele><time>2026-04-20T14:47:04Z</time></trkpt><trkpt lat="45.674017147079276" lon="9.40928516350587"><ele>253.0</ele><time>2026-04-20T14:47:05Z</time></trkpt><trkpt lat="45.6741718483075" lon="9.409350545540947"><ele>253.0</ele><time>2026-04-20T14:47:06Z</time></trkpt><trkpt lat="45.67432078194843" lon="9.409400228288703"><ele>253.0</ele><time>2026-04-20T14:47:07Z</time></trkpt><trkpt lat="45.67445981973422" lon="9.409452274003483"><ele>253.25</ele><time>2026-04-20T14:47:08Z</time></trkpt><trkpt lat="45.674589028141774" lon="9.409508810051406"><ele>253.5</ele><time>2026-04-20T14:47:09Z</time></trkpt><trkpt lat="45.674720494002244" lon="9.409549035141714"><ele>253.75</ele><time>2026-04-20T14:47:10Z</time></trkpt><trkpt lat="45.67484366485853" lon="9.409611977131165"><ele>254.0</ele><time>2026-04-20T14:47:11Z</time></trkpt><trkpt lat="45.67495563507184" lon="9.409652617272476"><ele>254.25</ele><time>2026-04-20T14:47:12Z</time></trkpt><trkpt lat="45.67508468419907" lon="9.409694018989578"><ele>254.5</ele><time>2026-04-20T14:47:13Z</time></trkpt><trkpt lat="45.6752086914671" lon="9.409737652112284"><ele>254.75</ele><time>2026-04-20T14:47:14Z</time></trkpt><trkpt lat="45.67532988637247" lon="9.409785058733828"><ele>255.0</ele><time>2026-04-20T14:47:15Z</time></trkpt><trkpt lat="45.675451552188875" lon="9.40982984290229"><ele>255.0</ele><time>2026-04-20T14:47:16Z</time></trkpt><trkpt lat="45.67555036281776" lon="9.40986856649055"><ele>255.0</ele><time>2026-04-20T14:47:17Z</time></trkpt><trkpt lat="45.67565566517675" lon="9.40991702189987"><ele>255.0</ele><time>2026-04-20T14:47:18Z</time></trkpt><trkpt lat="45.67575598067945" lon="9.40992523287854"><ele>255.0</ele><time>2026-04-20T14:47:19Z</time></trkpt><trkpt lat="45.675840060729215" lon="9.409958801149855"><ele>255.0</ele><time>2026-04-20T14:47:20Z</time></trkpt><trkpt lat="45.67591432937558" lon="9.409998890462436"><ele>255.0</ele><time>2026-04-20T14:47:21Z</time></trkpt><trkpt lat="45.67599336929446" lon="9.41003107654751"><ele>255.0</ele><time>2026-04-20T14:47:22Z</time></trkpt><trkpt lat="45.67606382625193" lon="9.410067071814854"><ele>255.0</ele><time>2026-04-20T14:47:23Z</time></trkpt><trkpt lat="45.676139101259324" lon="9.410080767608525"><ele>255.0</ele><time>2026-04-20T14:47:24Z</time></trkpt><trkpt lat="45.67641425627248" lon="9.410207513498857"><ele>255.0</ele><time>2026-04-20T14:47:25Z</time></trkpt><trkpt lat="45.676477219043605" lon="9.4102370754389"><ele>255.00000000000003</ele><time>2026-04-20T14:47:26Z</time></trkpt><trkpt lat="45.67654197725208" lon="9.410259849753317"><ele>255.0</ele><time>2026-04-20T14:47:27Z</time></trkpt><trkpt lat="45.67660210734272" lon="9.410290504183576"><ele>255.0</ele><time>2026-04-20T14:47:28Z</time></trkpt><trkpt lat="45.6766901225982" lon="9.41033724652742"><ele>255.00000000000003</ele><time>2026-04-20T14:47:30Z</time></trkpt><trkpt lat="45.67675995608457" lon="9.41035693797781"><ele>255.0</ele><time>2026-04-20T14:47:32Z</time></trkpt><trkpt lat="45.67683451832627" lon="9.41036701167187"><ele>255.0</ele><time>2026-04-20T14:47:36Z</time></trkpt><trkpt lat="45.67691481006292" lon="9.410352246428053"><ele>255.0</ele><time>2026-04-20T14:48:49Z</time></trkpt><trkpt lat="45.67695493344303" lon="9.410431339723202"><ele>255.0</ele><time>2026-04-20T14:48:52Z</time></trkpt><trkpt lat="45.67688308659185" lon="9.410722669772746"><ele>255.0</ele><time>2026-04-20T14:48:53Z</time></trkpt><trkpt lat="45.67686135388789" lon="9.41087114138949"><ele>255.0</ele><time>2026-04-20T14:48:54Z</time></trkpt><trkpt lat="45.67682041578207" lon="9.41106554368384"><ele>255.0</ele><time>2026-04-20T14:48:55Z</time></trkpt><trkpt lat="45.67678103014245" lon="9.41125623854859"><ele>255.0</ele><time>2026-04-20T14:48:56Z</time></trkpt><trkpt lat="45.6767411780361" lon="9.411436974201678"><ele>255.0</ele><time>2026-04-20T14:48:57Z</time></trkpt><trkpt lat="45.676687732534326" lon="9.41159157769228"><ele>255.0</ele><time>2026-04-20T14:48:58Z</time></trkpt><trkpt lat="45.676617282739734" lon="9.41177632782118"><ele>254.66666666666669</ele><time>2026-04-20T14:48:59Z</time></trkpt><trkpt lat="45.67651237745297" lon="9.411982949477787"><ele>254.33333333333334</ele><time>2026-04-20T14:49:00Z</time></trkpt><trkpt lat="45.67643280568611" lon="9.412186723153669"><ele>254.0</ele><time>2026-04-20T14:49:01Z</time></trkpt><trkpt lat="45.67637288987502" lon="9.412377659364616"><ele>253.5</ele><time>2026-04-20T14:49:02Z</time></trkpt><trkpt lat="45.676303367216036" lon="9.412559741376477"><ele>253.0</ele><time>2026-04-20T14:49:03Z</time></trkpt><trkpt lat="45.67623650608342" lon="9.412743806692486"><ele>252.5</ele><time>2026-04-20T14:49:04Z</time></trkpt><trkpt lat="45.67616833237672" lon="9.41293460811046"><ele>252.0</ele><time>2026-04-20T14:49:05Z</time></trkpt><trkpt lat="45.67610511538154" lon="9.413119082917483"><ele>251.5</ele><time>2026-04-20T14:49:06Z</time></trkpt><trkpt lat="45.6760427419914" lon="9.413305849855542"><ele>251.0</ele><time>2026-04-20T14:49:07Z</time></trkpt><trkpt lat="45.67598855836443" lon="9.413492095789863"><ele>250.5</ele><time>2026-04-20T14:49:08Z</time></trkpt><trkpt lat="45.67593534041753" lon="9.413688869929812"><ele>250.0</ele><time>2026-04-20T14:49:09Z</time></trkpt><trkpt lat="45.67588710153287" lon="9.413884082401195"><ele>249.75</ele><time>2026-04-20T14:49:10Z</time></trkpt><trkpt lat="45.6758319145615" lon="9.41408326054759"><ele>249.5</ele><time>2026-04-20T14:49:11Z</time></trkpt><trkpt lat="45.675783570495014" lon="9.414282394813586"><ele>249.25</ele><time>2026-04-20T14:49:12Z</time></trkpt><trkpt lat="45.67574318833537" lon="9.414485236011995"><ele>249.0</ele><time>2026-04-20T14:49:13Z</time></trkpt><trkpt lat="45.675697951852726" lon="9.414709968257888"><ele>248.66666666666669</ele><time>2026-04-20T14:49:14Z</time></trkpt><trkpt lat="45.67564486827723" lon="9.414962756768666"><ele>248.33333333333334</ele><time>2026-04-20T14:49:15Z</time></trkpt><trkpt lat="45.67559618819605" lon="9.415224153099707"><ele>248.0</ele><time>2026-04-20T14:49:16Z</time></trkpt><trkpt lat="45.675555866247" lon="9.415472744543512"><ele>248.0</ele><time>2026-04-20T14:49:17Z</time></trkpt><trkpt lat="45.6755214060765" lon="9.415731185777902"><ele>248.0</ele><time>2026-04-20T14:49:18Z</time></trkpt><trkpt lat="45.67548627274978" lon="9.415976651246785"><ele>248.0</ele><time>2026-04-20T14:49:19Z</time></trkpt><trkpt lat="45.6754624573208" lon="9.41624319484261"><ele>248.0</ele><time>2026-04-20T14:49:20Z</time></trkpt><trkpt lat="45.6754383470462" lon="9.41651176329581"><ele>248.0</ele><time>2026-04-20T14:49:21Z</time></trkpt><trkpt lat="45.67541259452755" lon="9.416772511109999"><ele>248.0</ele><time>2026-04-20T14:49:22Z</time></trkpt><trkpt lat="45.67539344973527" lon="9.417016787429874"><ele>248.0</ele><time>2026-04-20T14:49:23Z</time></trkpt><trkpt lat="45.67536589656351" lon="9.417242342349079"><ele>248.0</ele><time>2026-04-20T14:49:24Z</time></trkpt><trkpt lat="45.67533722369756" lon="9.417475146172702"><ele>248.0</ele><time>2026-04-20T14:49:25Z</time></trkpt><trkpt lat="45.67531087814331" lon="9.417700655041985"><ele>248.0</ele><time>2026-04-20T14:49:26Z</time></trkpt><trkpt lat="45.67529208749718" lon="9.417915570703114"><ele>248.0</ele><time>2026-04-20T14:49:27Z</time></trkpt><trkpt lat="45.675269049372965" lon="9.418122542673554"><ele>248.0</ele><time>2026-04-20T14:49:28Z</time></trkpt><trkpt lat="45.67524466333957" lon="9.418317757816421"><ele>248.0</ele><time>2026-04-20T14:49:29Z</time></trkpt><trkpt lat="45.6752253196043" lon="9.418491879531194"><ele>248.25</ele><time>2026-04-20T14:49:30Z</time></trkpt><trkpt lat="45.67520697984601" lon="9.418675074421415"><ele>248.5</ele><time>2026-04-20T14:49:31Z</time></trkpt><trkpt lat="45.67518600360715" lon="9.418855099431092"><ele>248.75</ele><time>2026-04-20T14:49:32Z</time></trkpt><trkpt lat="45.6751546706452" lon="9.419026431967332"><ele>249.0</ele><time>2026-04-20T14:49:33Z</time></trkpt><trkpt lat="45.67514981241731" lon="9.419207646889062"><ele>249.0</ele><time>2026-04-20T14:49:34Z</time></trkpt><trkpt lat="45.67513440189594" lon="9.41937369288711"><ele>249.0</ele><time>2026-04-20T14:49:35Z</time></trkpt><trkpt lat="45.67512037842552" lon="9.419549283565608"><ele>249.0</ele><time>2026-04-20T14:49:36Z</time></trkpt><trkpt lat="45.6751051685571" lon="9.419727943447935"><ele>249.0</ele><time>2026-04-20T14:49:37Z</time></trkpt><trkpt lat="45.67509205406677" lon="9.419901049876264"><ele>249.0</ele><time>2026-04-20T14:49:38Z</time></trkpt><trkpt lat="45.67507291993749" lon="9.420049050699198"><ele>248.99999999999997</ele><time>2026-04-20T14:49:39Z</time></trkpt><trkpt lat="45.67507251141453" lon="9.420196265206105"><ele>248.99999999999997</ele><time>2026-04-20T14:49:40Z</time></trkpt><trkpt lat="45.675064361218894" lon="9.420292113415107"><ele>249.0</ele><time>2026-04-20T14:49:41Z</time></trkpt><trkpt lat="45.675038934021956" lon="9.420421829616332"><ele>249.0</ele><time>2026-04-20T14:49:43Z</time></trkpt><trkpt lat="45.67519317473359" lon="9.420513761401228"><ele>249.0</ele><time>2026-04-20T14:49:44Z</time></trkpt><trkpt lat="45.67523791351666" lon="9.420596859020145"><ele>248.99999999999997</ele><time>2026-04-20T14:49:45Z</time></trkpt><trkpt lat="45.67528450475135" lon="9.420751658052309"><ele>248.99999999999997</ele><time>2026-04-20T14:49:46Z</time></trkpt><trkpt lat="45.67533882920499" lon="9.420927491688845"><ele>249.0</ele><time>2026-04-20T14:49:47Z</time></trkpt><trkpt lat="45.67537720355153" lon="9.4210885545981"><ele>249.0</ele><time>2026-04-20T14:49:48Z</time></trkpt><trkpt lat="45.67542774403984" lon="9.421289704189249"><ele>249.2</ele><time>2026-04-20T14:49:49Z</time></trkpt><trkpt lat="45.67549823882789" lon="9.421462491320888"><ele>249.39999999999998</ele><time>2026-04-20T14:49:50Z</time></trkpt><trkpt lat="45.67556745968692" lon="9.421577719305864"><ele>249.6</ele><time>2026-04-20T14:49:51Z</time></trkpt><trkpt lat="45.675603321002825" lon="9.421657205131662"><ele>249.8</ele><time>2026-04-20T14:49:52Z</time></trkpt><trkpt lat="45.6756618204267" lon="9.421729437576449"><ele>250.0</ele><time>2026-04-20T14:49:54Z</time></trkpt><trkpt lat="45.67572864963743" lon="9.421718708815376"><ele>250.0</ele><time>2026-04-20T14:49:55Z</time></trkpt><trkpt lat="45.6758229502647" lon="9.421631608528376"><ele>250.0</ele><time>2026-04-20T14:49:56Z</time></trkpt><trkpt lat="45.675887122635885" lon="9.421591944471201"><ele>250.0</ele><time>2026-04-20T14:49:57Z</time></trkpt><trkpt lat="45.675971535000784" lon="9.421592142782426"><ele>250.0</ele><time>2026-04-20T14:49:59Z</time></trkpt><trkpt lat="45.676089396879284" lon="9.421682026278935"><ele>250.0</ele><time>2026-04-20T14:50:01Z</time></trkpt><trkpt lat="45.67620997143958" lon="9.421749735342503"><ele>250.25</ele><time>2026-04-20T14:50:02Z</time></trkpt><trkpt lat="45.67638359801344" lon="9.421858081538245"><ele>250.5</ele><time>2026-04-20T14:50:03Z</time></trkpt><trkpt lat="45.676503746569985" lon="9.421936570608572"><ele>250.75</ele><time>2026-04-20T14:50:04Z</time></trkpt><trkpt lat="45.67659819625241" lon="9.421997411492644"><ele>251.0</ele><time>2026-04-20T14:50:05Z</time></trkpt><trkpt lat="45.67672007220831" lon="9.422072457247522"><ele>250.66666666666669</ele><time>2026-04-20T14:50:06Z</time></trkpt><trkpt lat="45.676849071532814" lon="9.422192917261285"><ele>250.33333333333331</ele><time>2026-04-20T14:50:07Z</time></trkpt><trkpt lat="45.67699895307067" lon="9.422296805100403"><ele>250.0</ele><time>2026-04-20T14:50:08Z</time></trkpt><trkpt lat="45.6771287667405" lon="9.422389657767482"><ele>250.75</ele><time>2026-04-20T14:50:09Z</time></trkpt><trkpt lat="45.67725879501016" lon="9.422468157708606"><ele>251.5</ele><time>2026-04-20T14:50:10Z</time></trkpt><trkpt lat="45.67737315440847" lon="9.422559715182782"><ele>252.25</ele><time>2026-04-20T14:50:11Z</time></trkpt><trkpt lat="45.677461041703644" lon="9.422608413261418"><ele>253.0</ele><time>2026-04-20T14:50:12Z</time></trkpt><trkpt lat="45.67754418537422" lon="9.42266847225637"><ele>253.0</ele><time>2026-04-20T14:50:13Z</time></trkpt><trkpt lat="45.67763796722225" lon="9.422735790455144"><ele>253.0</ele><time>2026-04-20T14:50:14Z</time></trkpt><trkpt lat="45.67776642763281" lon="9.422813583742604"><ele>253.0</ele><time>2026-04-20T14:50:15Z</time></trkpt><trkpt lat="45.67790180936022" lon="9.422827708089121"><ele>253.0</ele><time>2026-04-20T14:50:16Z</time></trkpt><trkpt lat="45.67801715511572" lon="9.422826288115406"><ele>253.0</ele><time>2026-04-20T14:50:17Z</time></trkpt><trkpt lat="45.678136318979384" lon="9.422847841255868"><ele>253.0</ele><time>2026-04-20T14:50:18Z</time></trkpt><trkpt lat="45.67823025623266" lon="9.422845036481212"><ele>253.0</ele><time>2026-04-20T14:50:19Z</time></trkpt><trkpt lat="45.678318196477875" lon="9.422842518888913"><ele>253.0</ele><time>2026-04-20T14:50:20Z</time></trkpt><trkpt lat="45.67840858029422" lon="9.422843458296326"><ele>253.0</ele><time>2026-04-20T14:50:21Z</time></trkpt><trkpt lat="45.67849295065887" lon="9.422835211911917"><ele>252.99999999999997</ele><time>2026-04-20T14:50:22Z</time></trkpt><trkpt lat="45.678572009632575" lon="9.422824672989197"><ele>253.0</ele><time>2026-04-20T14:50:23Z</time></trkpt><trkpt lat="45.678650532989266" lon="9.422821566860646"><ele>253.0</ele><time>2026-04-20T14:50:24Z</time></trkpt><trkpt lat="45.678730290337484" lon="9.422819627506135"><ele>253.0</ele><time>2026-04-20T14:50:25Z</time></trkpt><trkpt lat="45.67880743095912" lon="9.422828251946632"><ele>252.99999999999997</ele><time>2026-04-20T14:50:26Z</time></trkpt><trkpt lat="45.67890389236786" lon="9.422823431923785"><ele>253.0</ele><time>2026-04-20T14:50:28Z</time></trkpt><trkpt lat="45.67898046985364" lon="9.422817659262764"><ele>253.4</ele><time>2026-04-20T14:50:30Z</time></trkpt><trkpt lat="45.67910412701764" lon="9.422748716250473"><ele>253.8</ele><time>2026-04-20T14:50:32Z</time></trkpt><trkpt lat="45.679216629319505" lon="9.422730564878734"><ele>254.2</ele><time>2026-04-20T14:50:34Z</time></trkpt><trkpt lat="45.679335911027465" lon="9.422730625699355"><ele>254.6</ele><time>2026-04-20T14:50:36Z</time></trkpt><trkpt lat="45.6794035422377" lon="9.422731642906262"><ele>255.0</ele><time>2026-04-20T14:50:37Z</time></trkpt><trkpt lat="45.67946739811699" lon="9.42275828601008"><ele>255.0</ele><time>2026-04-20T14:50:38Z</time></trkpt><trkpt lat="45.679507342462486" lon="9.42289157443316"><ele>255.0</ele><time>2026-04-20T14:50:41Z</time></trkpt><trkpt lat="45.67951202702436" lon="9.42307236799116"><ele>255.0</ele><time>2026-04-20T14:50:43Z</time></trkpt><trkpt lat="45.67950504967867" lon="9.423170350096738"><ele>255.0</ele><time>2026-04-20T14:50:44Z</time></trkpt><trkpt lat="45.67950945472109" lon="9.42326472581675"><ele>255.0</ele><time>2026-04-20T14:50:45Z</time></trkpt><trkpt lat="45.67958591109808" lon="9.423404077405177"><ele>255.0</ele><time>2026-04-20T14:50:47Z</time></trkpt><trkpt lat="45.679692406554416" lon="9.42357046748534"><ele>255.0</ele><time>2026-04-20T14:50:49Z</time></trkpt><trkpt lat="45.67976475485927" lon="9.42363928782107"><ele>255.0</ele><time>2026-04-20T14:50:50Z</time></trkpt><trkpt lat="45.6798287284662" lon="9.423704842062877"><ele>255.0</ele><time>2026-04-20T14:50:51Z</time></trkpt><trkpt lat="45.679883623770785" lon="9.423763795087284"><ele>255.0</ele><time>2026-04-20T14:50:52Z</time></trkpt><trkpt lat="45.67999795642021" lon="9.423852612465717"><ele>255.0</ele><time>2026-04-20T14:50:54Z</time></trkpt><trkpt lat="45.68004977421032" lon="9.423903921895464"><ele>255.0</ele><time>2026-04-20T14:50:55Z</time></trkpt><trkpt lat="45.680112181112484" lon="9.42395192540304"><ele>255.0</ele><time>2026-04-20T14:50:56Z</time></trkpt><trkpt lat="45.68017279586489" lon="9.424016921353415"><ele>255.0</ele><time>2026-04-20T14:50:57Z</time></trkpt><trkpt lat="45.68023505342205" lon="9.42405750609405"><ele>255.0</ele><time>2026-04-20T14:51:01Z</time></trkpt><trkpt lat="45.680318073768355" lon="9.424099390117183"><ele>255.0</ele><time>2026-04-20T14:51:03Z</time></trkpt><trkpt lat="45.680462887587815" lon="9.423817755043595"><ele>255.33333333333334</ele><time>2026-04-20T14:51:04Z</time></trkpt><trkpt lat="45.68055630514984" lon="9.423805747848089"><ele>255.66666666666669</ele><time>2026-04-20T14:51:06Z</time></trkpt><trkpt lat="45.6806344079039" lon="9.42379185556826"><ele>256.0</ele><time>2026-04-20T14:51:08Z</time></trkpt><trkpt lat="45.68071919616738" lon="9.423733315149821"><ele>256.33333333333337</ele><time>2026-04-20T14:51:10Z</time></trkpt><trkpt lat="45.680777501975136" lon="9.423687443182748"><ele>256.6666666666667</ele><time>2026-04-20T14:51:11Z</time></trkpt><trkpt lat="45.68084089190161" lon="9.423594114624471"><ele>257.0</ele><time>2026-04-20T14:51:13Z</time></trkpt><trkpt lat="45.68091595779161" lon="9.423551643355701"><ele>257.0</ele><time>2026-04-20T14:51:14Z</time></trkpt><trkpt lat="45.68097547031052" lon="9.42351450694169"><ele>257.0</ele><time>2026-04-20T14:51:15Z</time></trkpt><trkpt lat="45.68103615399179" lon="9.423475627076819"><ele>257.0</ele><time>2026-04-20T14:51:17Z</time></trkpt><trkpt lat="45.681098054539866" lon="9.423424132447284"><ele>257.0</ele><time>2026-04-20T14:51:18Z</time></trkpt><trkpt lat="45.681158748821446" lon="9.423353624908492"><ele>257.0</ele><time>2026-04-20T14:51:19Z</time></trkpt><trkpt lat="45.68122049217072" lon="9.423302525787035"><ele>257.0</ele><time>2026-04-20T14:51:20Z</time></trkpt><trkpt lat="45.681282622302064" lon="9.423255996680354"><ele>257.0</ele><time>2026-04-20T14:51:21Z</time></trkpt><trkpt lat="45.68134389497474" lon="9.423210614738505"><ele>256.7142857142857</ele><time>2026-04-20T14:51:22Z</time></trkpt><trkpt lat="45.68139814815882" lon="9.423156065664541"><ele>256.42857142857144</ele><time>2026-04-20T14:51:23Z</time></trkpt><trkpt lat="45.68146159560331" lon="9.423093931193824"><ele>256.14285714285717</ele><time>2026-04-20T14:51:24Z</time></trkpt><trkpt lat="45.68153231661619" lon="9.423019362814356"><ele>255.85714285714286</ele><time>2026-04-20T14:51:25Z</time></trkpt><trkpt lat="45.68160512544006" lon="9.422957705796234"><ele>255.5714285714286</ele><time>2026-04-20T14:51:26Z</time></trkpt><trkpt lat="45.681653815440455" lon="9.42290018525276"><ele>255.2857142857143</ele><time>2026-04-20T14:51:27Z</time></trkpt><trkpt lat="45.68170526473183" lon="9.422838517458223"><ele>255.0</ele><time>2026-04-20T14:51:28Z</time></trkpt><trkpt lat="45.681792543005756" lon="9.42274395725692"><ele>254.8</ele><time>2026-04-20T14:51:30Z</time></trkpt><trkpt lat="45.681879038654834" lon="9.422638118922674"><ele>254.6</ele><time>2026-04-20T14:51:32Z</time></trkpt><trkpt lat="45.68193269033843" lon="9.42258066550727"><ele>254.39999999999998</ele><time>2026-04-20T14:51:35Z</time></trkpt><trkpt lat="45.681907359667996" lon="9.42247290121869"><ele>254.2</ele><time>2026-04-20T14:51:40Z</time></trkpt><trkpt lat="45.68177458396288" lon="9.422351398896483"><ele>254.0</ele><time>2026-04-20T14:51:42Z</time></trkpt><trkpt lat="45.68168804309664" lon="9.422264970014579"><ele>254.0</ele><time>2026-04-20T14:51:43Z</time></trkpt><trkpt lat="45.68159982861907" lon="9.422187232203092"><ele>253.99999999999997</ele><time>2026-04-20T14:51:44Z</time></trkpt><trkpt lat="45.681539850591044" lon="9.422117371964777"><ele>253.99999999999997</ele><time>2026-04-20T14:51:45Z</time></trkpt><trkpt lat="45.68148638622478" lon="9.422050295571514"><ele>254.0</ele><time>2026-04-20T14:51:46Z</time></trkpt><trkpt lat="45.68144077643835" lon="9.421910523701001"><ele>254.0</ele><time>2026-04-20T14:51:48Z</time></trkpt><trkpt lat="45.68140642946614" lon="9.421704685268065"><ele>254.25</ele><time>2026-04-20T14:51:50Z</time></trkpt><trkpt lat="45.681363364830425" lon="9.421541325980584"><ele>254.5</ele><time>2026-04-20T14:51:52Z</time></trkpt><trkpt lat="45.68130148790324" lon="9.421394847439334"><ele>254.75</ele><time>2026-04-20T14:51:54Z</time></trkpt><trkpt lat="45.68121413603565" lon="9.421328717593095"><ele>255.0</ele><time>2026-04-20T14:51:56Z</time></trkpt><trkpt lat="45.68108316224583" lon="9.421243466766715"><ele>254.6</ele><time>2026-04-20T14:51:58Z</time></trkpt><trkpt lat="45.680981008282956" lon="9.421194154773977"><ele>254.2</ele><time>2026-04-20T14:52:00Z</time></trkpt><trkpt lat="45.680845107856584" lon="9.421154373075737"><ele>253.8</ele><time>2026-04-20T14:52:02Z</time></trkpt><trkpt lat="45.68078196635145" lon="9.421143518540694"><ele>253.4</ele><time>2026-04-20T14:52:03Z</time></trkpt><trkpt lat="45.68071803612809" lon="9.421136383812058"><ele>253.0</ele><time>2026-04-20T14:52:04Z</time></trkpt><trkpt lat="45.68061695804145" lon="9.42111293007337"><ele>253.0</ele><time>2026-04-20T14:52:06Z</time></trkpt><trkpt lat="45.6804814856774" lon="9.421074578498319"><ele>253.0</ele><time>2026-04-20T14:52:08Z</time></trkpt><trkpt lat="45.68040703919004" lon="9.421051102685377"><ele>253.0</ele><time>2026-04-20T14:52:09Z</time></trkpt><trkpt lat="45.68031034505992" lon="9.42100331923184"><ele>253.0</ele><time>2026-04-20T14:52:11Z</time></trkpt><trkpt lat="45.68020498771081" lon="9.420957080916146"><ele>253.0</ele><time>2026-04-20T14:52:13Z</time></trkpt><trkpt lat="45.68008352619879" lon="9.42090456107256"><ele>252.8</ele><time>2026-04-20T14:52:15Z</time></trkpt><trkpt lat="45.680017997839386" lon="9.420881160131506"><ele>252.60000000000002</ele><time>2026-04-20T14:52:16Z</time></trkpt><trkpt lat="45.679905170779236" lon="9.420832160182616"><ele>252.39999999999998</ele><time>2026-04-20T14:52:18Z</time></trkpt><trkpt lat="45.679810710767406" lon="9.42081487734514"><ele>252.2</ele><time>2026-04-20T14:52:20Z</time></trkpt><trkpt lat="45.67970509907667" lon="9.4207964233994"><ele>252.0</ele><time>2026-04-20T14:52:22Z</time></trkpt><trkpt lat="45.67963468813992" lon="9.420780768334222"><ele>252.0</ele><time>2026-04-20T14:52:23Z</time></trkpt><trkpt lat="45.67952083062754" lon="9.420773430277265"><ele>252.0</ele><time>2026-04-20T14:52:25Z</time></trkpt><trkpt lat="45.67941470050553" lon="9.420768292001853"><ele>252.0</ele><time>2026-04-20T14:52:27Z</time></trkpt><trkpt lat="45.67931311872197" lon="9.420777106068124"><ele>252.0</ele><time>2026-04-20T14:52:29Z</time></trkpt><trkpt lat="45.67921090279735" lon="9.420778413999031"><ele>252.0</ele><time>2026-04-20T14:52:31Z</time></trkpt><trkpt lat="45.67912071844275" lon="9.4207833316654"><ele>251.83333333333334</ele><time>2026-04-20T14:52:33Z</time></trkpt><trkpt lat="45.67901473808455" lon="9.420794579119864"><ele>251.66666666666669</ele><time>2026-04-20T14:52:35Z</time></trkpt><trkpt lat="45.67894964405308" lon="9.420778664706097"><ele>251.5</ele><time>2026-04-20T14:52:37Z</time></trkpt><trkpt lat="45.67892597789417" lon="9.420660494231674"><ele>251.33333333333334</ele><time>2026-04-20T14:52:40Z</time></trkpt><trkpt lat="45.67896499536725" lon="9.420584477170259"><ele>251.16666666666669</ele><time>2026-04-20T14:52:42Z</time></trkpt><trkpt lat="45.67896411693343" lon="9.420478551692483"><ele>251.0</ele><time>2026-04-20T14:52:44Z</time></trkpt><trkpt lat="45.678996563667795" lon="9.420358033784348"><ele>251.00000000000003</ele><time>2026-04-20T14:52:46Z</time></trkpt><trkpt lat="45.67901715063234" lon="9.420258082101714"><ele>251.0</ele><time>2026-04-20T14:52:47Z</time></trkpt><trkpt lat="45.679042836901345" lon="9.420135387518476"><ele>251.0</ele><time>2026-04-20T14:52:48Z</time></trkpt><trkpt lat="45.67906530332833" lon="9.420035895907887"><ele>251.0</ele><time>2026-04-20T14:52:49Z</time></trkpt><trkpt lat="45.67908878201391" lon="9.419934800264201"><ele>251.00000000000003</ele><time>2026-04-20T14:52:50Z</time></trkpt><trkpt lat="45.67911476802196" lon="9.41983898564207"><ele>251.0</ele><time>2026-04-20T14:52:51Z</time></trkpt><trkpt lat="45.679139885689594" lon="9.41968508119537"><ele>251.00000000000003</ele><time>2026-04-20T14:52:53Z</time></trkpt><trkpt lat="45.67918257692613" lon="9.419590159099503"><ele>251.0</ele><time>2026-04-20T14:52:56Z</time></trkpt><trkpt lat="45.67918284215341" lon="9.41949430459068"><ele>251.0</ele><time>2026-04-20T14:53:00Z</time></trkpt><trkpt lat="45.679172558960815" lon="9.419601130999629"><ele>251.0</ele><time>2026-04-20T14:53:06Z</time></trkpt><trkpt lat="45.67914186070217" lon="9.419740116148779"><ele>251.00000000000003</ele><time>2026-04-20T14:53:08Z</time></trkpt><trkpt lat="45.67909412328436" lon="9.419861403633332"><ele>251.0</ele><time>2026-04-20T14:53:09Z</time></trkpt><trkpt lat="45.67907070243389" lon="9.419982607119962"><ele>251.00000000000003</ele><time>2026-04-20T14:53:10Z</time></trkpt><trkpt lat="45.67904058725039" lon="9.420100565939125"><ele>251.0</ele><time>2026-04-20T14:53:11Z</time></trkpt><trkpt lat="45.679008505905486" lon="9.4202183916253"><ele>251.0</ele><time>2026-04-20T14:53:12Z</time></trkpt><trkpt lat="45.67898657282376" lon="9.420330796934767"><ele>251.0</ele><time>2026-04-20T14:53:13Z</time></trkpt><trkpt lat="45.67896030996788" lon="9.420498358407361"><ele>251.00000000000003</ele><time>2026-04-20T14:53:15Z</time></trkpt><trkpt lat="45.67893851691846" lon="9.420586894789224"><ele>251.0</ele><time>2026-04-20T14:53:16Z</time></trkpt><trkpt lat="45.67892464727156" lon="9.420735290457614"><ele>250.75</ele><time>2026-04-20T14:53:18Z</time></trkpt><trkpt lat="45.67915373270221" lon="9.420794744114296"><ele>250.5</ele><time>2026-04-20T14:53:23Z</time></trkpt><trkpt lat="45.67924545180009" lon="9.420785288488151"><ele>250.25</ele><time>2026-04-20T14:53:24Z</time></trkpt><trkpt lat="45.679358459361254" lon="9.420797475273966"><ele>250.0</ele><time>2026-04-20T14:53:26Z</time></trkpt><trkpt lat="45.6794357266941" lon="9.42078637125569"><ele>250.33333333333331</ele><time>2026-04-20T14:53:27Z</time></trkpt><trkpt lat="45.679534112127826" lon="9.420802364111273"><ele>250.66666666666666</ele><time>2026-04-20T14:53:28Z</time></trkpt><trkpt lat="45.6796182958048" lon="9.420807227072247"><ele>251.0</ele><time>2026-04-20T14:53:29Z</time></trkpt><trkpt lat="45.679687176973005" lon="9.420826085504958"><ele>251.33333333333331</ele><time>2026-04-20T14:53:30Z</time></trkpt><trkpt lat="45.67975913400676" lon="9.420848491545373"><ele>251.66666666666666</ele><time>2026-04-20T14:53:31Z</time></trkpt><trkpt lat="45.67982935924307" lon="9.420863126059142"><ele>252.0</ele><time>2026-04-20T14:53:32Z</time></trkpt><trkpt lat="45.67989349000056" lon="9.420887976505574"><ele>252.0</ele><time>2026-04-20T14:53:33Z</time></trkpt><trkpt lat="45.679968946937244" lon="9.420916939005247"><ele>252.0</ele><time>2026-04-20T14:53:34Z</time></trkpt><trkpt lat="45.68004515104191" lon="9.420946582353926"><ele>252.0</ele><time>2026-04-20T14:53:35Z</time></trkpt><trkpt lat="45.680105514252176" lon="9.42097401511617"><ele>252.0</ele><time>2026-04-20T14:53:36Z</time></trkpt><trkpt lat="45.68017787463652" lon="9.420996590965578"><ele>252.0</ele><time>2026-04-20T14:53:37Z</time></trkpt><trkpt lat="45.680265087475604" lon="9.42103764340446"><ele>252.0</ele><time>2026-04-20T14:53:38Z</time></trkpt><trkpt lat="45.68034566599303" lon="9.42107414728046"><ele>252.16666666666666</ele><time>2026-04-20T14:53:39Z</time></trkpt><trkpt lat="45.680424548075536" lon="9.421092877927912"><ele>252.33333333333331</ele><time>2026-04-20T14:53:40Z</time></trkpt><trkpt lat="45.68051058764319" lon="9.421111887779047"><ele>252.5</ele><time>2026-04-20T14:53:41Z</time></trkpt><trkpt lat="45.68059492588803" lon="9.421141981769395"><ele>252.66666666666666</ele><time>2026-04-20T14:53:42Z</time></trkpt><trkpt lat="45.68069412765749" lon="9.421165226403318"><ele>252.83333333333331</ele><time>2026-04-20T14:53:43Z</time></trkpt><trkpt lat="45.68077273533093" lon="9.42117506049712"><ele>253.0</ele><time>2026-04-20T14:53:44Z</time></trkpt><trkpt lat="45.68085487099032" lon="9.421184957952391"><ele>252.99999999999997</ele><time>2026-04-20T14:53:45Z</time></trkpt><trkpt lat="45.68092392380027" lon="9.42120200717827"><ele>253.0</ele><time>2026-04-20T14:53:46Z</time></trkpt><trkpt lat="45.681025612487545" lon="9.421244256745766"><ele>253.0</ele><time>2026-04-20T14:53:48Z</time></trkpt><trkpt lat="45.681094852482005" lon="9.421275159769513"><ele>253.0</ele><time>2026-04-20T14:53:50Z</time></trkpt><trkpt lat="45.681140568161844" lon="9.421151542117439"><ele>252.99999999999997</ele><time>2026-04-20T14:53:54Z</time></trkpt><trkpt lat="45.68113352739148" lon="9.421026369648564"><ele>253.0</ele><time>2026-04-20T14:53:55Z</time></trkpt><trkpt lat="45.68112867569479" lon="9.4209173421758"><ele>252.99999999999997</ele><time>2026-04-20T14:53:56Z</time></trkpt><trkpt lat="45.68112377754094" lon="9.420823198671846"><ele>253.0</ele><time>2026-04-20T14:53:57Z</time></trkpt><trkpt lat="45.68110663616929" lon="9.420735196881271"><ele>253.0</ele><time>2026-04-20T14:53:58Z</time></trkpt><trkpt lat="45.68103838588317" lon="9.420582125483765"><ele>253.0</ele><time>2026-04-20T14:54:00Z</time></trkpt><trkpt lat="45.680978094118544" lon="9.42051456013726"><ele>252.99999999999997</ele><time>2026-04-20T14:54:01Z</time></trkpt><trkpt lat="45.68090642056888" lon="9.420440063315525"><ele>253.0</ele><time>2026-04-20T14:54:02Z</time></trkpt><trkpt lat="45.68081511027716" lon="9.420332538937979"><ele>253.25</ele><time>2026-04-20T14:54:03Z</time></trkpt><trkpt lat="45.68071419545095" lon="9.420186033113023"><ele>253.5</ele><time>2026-04-20T14:54:04Z</time></trkpt><trkpt lat="45.68061692256404" lon="9.42004076861937"><ele>253.75</ele><time>2026-04-20T14:54:05Z</time></trkpt><trkpt lat="45.680534072191016" lon="9.419906808577545"><ele>254.0</ele><time>2026-04-20T14:54:06Z</time></trkpt><trkpt lat="45.68045893863632" lon="9.419780194656479"><ele>254.0</ele><time>2026-04-20T14:54:07Z</time></trkpt><trkpt lat="45.68039295028883" lon="9.419653977543872"><ele>253.99999999999997</ele><time>2026-04-20T14:54:08Z</time></trkpt><trkpt lat="45.68034505418129" lon="9.419531692364968"><ele>253.99999999999997</ele><time>2026-04-20T14:54:09Z</time></trkpt><trkpt lat="45.68030340976819" lon="9.419426715710943"><ele>254.0</ele><time>2026-04-20T14:54:10Z</time></trkpt><trkpt lat="45.68027059374966" lon="9.419277022626554"><ele>254.0</ele><time>2026-04-20T14:54:11Z</time></trkpt><trkpt lat="45.680240463177604" lon="9.419087734647611"><ele>254.0</ele><time>2026-04-20T14:54:12Z</time></trkpt><trkpt lat="45.680211080691" lon="9.418917269396735"><ele>253.99999999999997</ele><time>2026-04-20T14:54:13Z</time></trkpt><trkpt lat="45.68018949705703" lon="9.418778538113262"><ele>253.99999999999997</ele><time>2026-04-20T14:54:14Z</time></trkpt><trkpt lat="45.68017840079386" lon="9.418649937626999"><ele>254.0</ele><time>2026-04-20T14:54:15Z</time></trkpt><trkpt lat="45.68017706049775" lon="9.418519206909954"><ele>254.0</ele><time>2026-04-20T14:54:16Z</time></trkpt><trkpt lat="45.680186437616946" lon="9.418415466063557"><ele>254.39999999999998</ele><time>2026-04-20T14:54:17Z</time></trkpt><trkpt lat="45.68020411054981" lon="9.418270512460436"><ele>254.79999999999998</ele><time>2026-04-20T14:54:19Z</time></trkpt><trkpt lat="45.68018096310882" lon="9.418402824780372"><ele>255.20000000000002</ele><time>2026-04-20T14:54:25Z</time></trkpt><trkpt lat="45.68025488547459" lon="9.41846017325007"><ele>255.60000000000002</ele><time>2026-04-20T14:54:26Z</time></trkpt><trkpt lat="45.68033610862025" lon="9.418454997955298"><ele>256.0</ele><time>2026-04-20T14:54:27Z</time></trkpt><trkpt lat="45.68044539198997" lon="9.418505122999033"><ele>255.0</ele><time>2026-04-20T14:54:28Z</time></trkpt><trkpt lat="45.68054336214442" lon="9.418511582704502"><ele>254.0</ele><time>2026-04-20T14:54:29Z</time></trkpt><trkpt lat="45.680675858908124" lon="9.418555375399304"><ele>253.0</ele><time>2026-04-20T14:54:30Z</time></trkpt><trkpt lat="45.68080989611935" lon="9.418630179013888"><ele>252.0</ele><time>2026-04-20T14:54:31Z</time></trkpt><trkpt lat="45.68095652512182" lon="9.418696031127297"><ele>252.0</ele><time>2026-04-20T14:54:32Z</time></trkpt><trkpt lat="45.68106558462575" lon="9.418730059785041"><ele>252.0</ele><time>2026-04-20T14:54:33Z</time></trkpt><trkpt lat="45.681132638445824" lon="9.418755978326013"><ele>252.0</ele><time>2026-04-20T14:54:34Z</time></trkpt><trkpt lat="45.68126141748233" lon="9.418750881978996"><ele>252.0</ele><time>2026-04-20T14:54:36Z</time></trkpt><trkpt lat="45.681318311085995" lon="9.418639542022406"><ele>252.0</ele><time>2026-04-20T14:54:37Z</time></trkpt><trkpt lat="45.6813361761724" lon="9.418472010661127"><ele>252.6</ele><time>2026-04-20T14:54:38Z</time></trkpt><trkpt lat="45.681364313188695" lon="9.418306700340535"><ele>253.2</ele><time>2026-04-20T14:54:39Z</time></trkpt><trkpt lat="45.68140385432196" lon="9.418163445654246"><ele>253.8</ele><time>2026-04-20T14:54:40Z</time></trkpt><trkpt lat="45.681451554119974" lon="9.418063308791226"><ele>254.4</ele><time>2026-04-20T14:54:41Z</time></trkpt><trkpt lat="45.68150437754076" lon="9.41795878369755"><ele>255.0</ele><time>2026-04-20T14:54:42Z</time></trkpt><trkpt lat="45.68155635256241" lon="9.417826971293369"><ele>255.4</ele><time>2026-04-20T14:54:43Z</time></trkpt><trkpt lat="45.68160228732798" lon="9.417707852854658"><ele>255.8</ele><time>2026-04-20T14:54:44Z</time></trkpt><trkpt lat="45.68171334026344" lon="9.417669426008755"><ele>256.2</ele><time>2026-04-20T14:54:45Z</time></trkpt><trkpt lat="45.68178586580444" lon="9.417604531217203"><ele>256.6</ele><time>2026-04-20T14:54:46Z</time></trkpt><trkpt lat="45.681868902449416" lon="9.417548989636717"><ele>257.0</ele><time>2026-04-20T14:54:47Z</time></trkpt><trkpt lat="45.68193924646603" lon="9.417492293999635"><ele>257.0</ele><time>2026-04-20T14:54:48Z</time></trkpt><trkpt lat="45.68199708329297" lon="9.417451571729515"><ele>257.0</ele><time>2026-04-20T14:54:49Z</time></trkpt><trkpt lat="45.68205862431705" lon="9.417408344846859"><ele>257.0</ele><time>2026-04-20T14:54:50Z</time></trkpt><trkpt lat="45.682160940135276" lon="9.417330886773753"><ele>257.0</ele><time>2026-04-20T14:54:52Z</time></trkpt><trkpt lat="45.68224718304612" lon="9.417265638529996"><ele>257.0</ele><time>2026-04-20T14:54:54Z</time></trkpt><trkpt lat="45.682355173891054" lon="9.417174354265443"><ele>257.0</ele><time>2026-04-20T14:54:56Z</time></trkpt><trkpt lat="45.682415534773455" lon="9.417138585969376"><ele>257.0</ele><time>2026-04-20T14:54:57Z</time></trkpt><trkpt lat="45.68256157359361" lon="9.417075886758607"><ele>257.0</ele><time>2026-04-20T14:54:59Z</time></trkpt><trkpt lat="45.682661931321974" lon="9.417032419769694"><ele>257.0</ele><time>2026-04-20T14:55:00Z</time></trkpt><trkpt lat="45.68277335167392" lon="9.416997888191895"><ele>257.0</ele><time>2026-04-20T14:55:01Z</time></trkpt><trkpt lat="45.68288795946433" lon="9.416963696723622"><ele>257.0</ele><time>2026-04-20T14:55:02Z</time></trkpt><trkpt lat="45.682952712613684" lon="9.41695169614361"><ele>257.0</ele><time>2026-04-20T14:55:03Z</time></trkpt><trkpt lat="45.68300302743829" lon="9.416892055588317"><ele>257.0</ele><time>2026-04-20T14:55:04Z</time></trkpt><trkpt lat="45.68308312769325" lon="9.41686199501476"><ele>257.0</ele><time>2026-04-20T14:55:06Z</time></trkpt><trkpt lat="45.68319019907601" lon="9.416818961490883"><ele>257.0</ele><time>2026-04-20T14:55:08Z</time></trkpt><trkpt lat="45.6832541966733" lon="9.416785486201318"><ele>257.0</ele><time>2026-04-20T14:55:09Z</time></trkpt><trkpt lat="45.68336947120732" lon="9.416749560068153"><ele>257.0</ele><time>2026-04-20T14:55:11Z</time></trkpt><trkpt lat="45.68343784210548" lon="9.416727467828435"><ele>257.0</ele><time>2026-04-20T14:55:12Z</time></trkpt><trkpt lat="45.68356001362839" lon="9.416681462264991"><ele>257.0</ele><time>2026-04-20T14:55:14Z</time></trkpt><trkpt lat="45.68362494327585" lon="9.416666089656587"><ele>257.0</ele><time>2026-04-20T14:55:15Z</time></trkpt><trkpt lat="45.683689914020185" lon="9.416648657014177"><ele>257.0</ele><time>2026-04-20T14:55:16Z</time></trkpt><trkpt lat="45.683807181068666" lon="9.41666932657449"><ele>257.0</ele><time>2026-04-20T14:55:18Z</time></trkpt><trkpt lat="45.68391342856765" lon="9.416723083365268"><ele>257.6</ele><time>2026-04-20T14:55:20Z</time></trkpt><trkpt lat="45.68399012883475" lon="9.41673030850093"><ele>258.2</ele><time>2026-04-20T14:55:22Z</time></trkpt><trkpt lat="45.6840574144463" lon="9.416651508943598"><ele>258.8</ele><time>2026-04-20T14:55:24Z</time></trkpt><trkpt lat="45.684078220344816" lon="9.416484267582183"><ele>259.4</ele><time>2026-04-20T14:55:26Z</time></trkpt><trkpt lat="45.68408977261207" lon="9.416287394762431"><ele>260.0</ele><time>2026-04-20T14:55:28Z</time></trkpt><trkpt lat="45.68409474373423" lon="9.416174147831292"><ele>260.0</ele><time>2026-04-20T14:55:30Z</time></trkpt><trkpt lat="45.68414875882277" lon="9.416097400370488"><ele>260.0</ele><time>2026-04-20T14:55:40Z</time></trkpt><trkpt lat="45.68418939120531" lon="9.416222611104287"><ele>260.0</ele><time>2026-04-20T14:55:43Z</time></trkpt><trkpt lat="45.684184512409665" lon="9.416421778636515"><ele>260.0</ele><time>2026-04-20T14:55:45Z</time></trkpt><trkpt lat="45.6842011852328" lon="9.416513533204844"><ele>260.0</ele><time>2026-04-20T14:55:46Z</time></trkpt><trkpt lat="45.68422244691269" lon="9.416600238748005"><ele>260.0</ele><time>2026-04-20T14:55:47Z</time></trkpt><trkpt lat="45.684256826162944" lon="9.416702664741372"><ele>260.0</ele><time>2026-04-20T14:55:48Z</time></trkpt><trkpt lat="45.684294634052996" lon="9.416776467211303"><ele>260.0</ele><time>2026-04-20T14:55:49Z</time></trkpt><trkpt lat="45.684363961718084" lon="9.416872699296153"><ele>260.0</ele><time>2026-04-20T14:55:51Z</time></trkpt><trkpt lat="45.684428614458106" lon="9.416944506951857"><ele>260.0</ele><time>2026-04-20T14:55:53Z</time></trkpt><trkpt lat="45.68449714608501" lon="9.4168914050199"><ele>260.0</ele><time>2026-04-20T14:55:56Z</time></trkpt><trkpt lat="45.6844964186317" lon="9.41679799884033"><ele>260.0</ele><time>2026-04-20T14:55:58Z</time></trkpt><trkpt lat="45.684426027787374" lon="9.416686863723548"><ele>260.00000000000006</ele><time>2026-04-20T14:56:00Z</time></trkpt><trkpt lat="45.68438774550757" lon="9.416605139258957"><ele>260.0</ele><time>2026-04-20T14:56:01Z</time></trkpt><trkpt lat="45.68435175539523" lon="9.416519885336385"><ele>260.0</ele><time>2026-04-20T14:56:02Z</time></trkpt><trkpt lat="45.684314326064154" lon="9.416443424513286"><ele>260.0</ele><time>2026-04-20T14:56:03Z</time></trkpt><trkpt lat="45.68425358893393" lon="9.416345886264331"><ele>260.0</ele><time>2026-04-20T14:56:05Z</time></trkpt><trkpt lat="45.68419935973958" lon="9.416273452655645"><ele>260.00000000000006</ele><time>2026-04-20T14:56:07Z</time></trkpt><trkpt lat="45.68414003988321" lon="9.416218880596354"><ele>260.0</ele><time>2026-04-20T14:56:10Z</time></trkpt><trkpt lat="45.684079566460824" lon="9.416193109700536"><ele>260.0</ele><time>2026-04-20T14:56:15Z</time></trkpt><trkpt lat="45.68405551414019" lon="9.416394580910815"><ele>260.0</ele><time>2026-04-20T14:56:17Z</time></trkpt><trkpt lat="45.68405464987769" lon="9.416524256038386"><ele>260.0</ele><time>2026-04-20T14:56:18Z</time></trkpt><trkpt lat="45.68404236942354" lon="9.41666780041173"><ele>260.0</ele><time>2026-04-20T14:56:20Z</time></trkpt><trkpt lat="45.68405864248548" lon="9.416793951170789"><ele>260.0</ele><time>2026-04-20T14:56:23Z</time></trkpt><trkpt lat="45.684112896608205" lon="9.41689197251007"><ele>260.0</ele><time>2026-04-20T14:56:25Z</time></trkpt><trkpt lat="45.68416963205178" lon="9.416991135743306"><ele>260.0</ele><time>2026-04-20T14:56:26Z</time></trkpt><trkpt lat="45.684226255544665" lon="9.417093678445024"><ele>260.0</ele><time>2026-04-20T14:56:27Z</time></trkpt><trkpt lat="45.684274421796616" lon="9.417170061552888"><ele>260.0</ele><time>2026-04-20T14:56:28Z</time></trkpt><trkpt lat="45.68433405687176" lon="9.417235319528384"><ele>260.0</ele><time>2026-04-20T14:56:29Z</time></trkpt><trkpt lat="45.68440011870982" lon="9.417341032149423"><ele>260.0</ele><time>2026-04-20T14:56:30Z</time></trkpt><trkpt lat="45.68444967102787" lon="9.417417414512796"><ele>260.1666666666667</ele><time>2026-04-20T14:56:31Z</time></trkpt><trkpt lat="45.6845031153058" lon="9.417471289496184"><ele>260.33333333333337</ele><time>2026-04-20T14:56:32Z</time></trkpt><trkpt lat="45.684568079069" lon="9.417529631003346"><ele>260.5</ele><time>2026-04-20T14:56:33Z</time></trkpt><trkpt lat="45.68464921076383" lon="9.41759388965167"><ele>260.6666666666667</ele><time>2026-04-20T14:56:34Z</time></trkpt><trkpt lat="45.68473678178048" lon="9.417670301252318"><ele>260.8333333333333</ele><time>2026-04-20T14:56:35Z</time></trkpt><trkpt lat="45.68481499689012" lon="9.417737575005571"><ele>261.0</ele><time>2026-04-20T14:56:36Z</time></trkpt><trkpt lat="45.68487865816261" lon="9.417805135642078"><ele>261.0</ele><time>2026-04-20T14:56:37Z</time></trkpt><trkpt lat="45.685000954828844" lon="9.41790297018406"><ele>261.0</ele><time>2026-04-20T14:56:39Z</time></trkpt><trkpt lat="45.685079877715225" lon="9.417956890538811"><ele>261.0</ele><time>2026-04-20T14:56:40Z</time></trkpt><trkpt lat="45.68513808187535" lon="9.417998669857447"><ele>261.0</ele><time>2026-04-20T14:56:41Z</time></trkpt><trkpt lat="45.68523958314076" lon="9.41807342020976"><ele>261.0</ele><time>2026-04-20T14:56:43Z</time></trkpt><trkpt lat="45.6853060909769" lon="9.418127142033244"><ele>261.1666666666667</ele><time>2026-04-20T14:56:45Z</time></trkpt><trkpt lat="45.6853974604109" lon="9.41807084232072"><ele>261.3333333333333</ele><time>2026-04-20T14:56:49Z</time></trkpt><trkpt lat="45.68543492742184" lon="9.41798142929021"><ele>261.5</ele><time>2026-04-20T14:56:50Z</time></trkpt><trkpt lat="45.6854971435158" lon="9.417875481901252"><ele>261.66666666666663</ele><time>2026-04-20T14:56:51Z</time></trkpt><trkpt lat="45.68554549287144" lon="9.417785855900032"><ele>261.8333333333333</ele><time>2026-04-20T14:56:52Z</time></trkpt><trkpt lat="45.68558806732749" lon="9.417683672277203"><ele>262.0</ele><time>2026-04-20T14:56:54Z</time></trkpt><trkpt lat="45.68565429611998" lon="9.41761592524487"><ele>262.16666666666663</ele><time>2026-04-20T14:56:56Z</time></trkpt><trkpt lat="45.685697537881204" lon="9.417533313146524"><ele>262.3333333333333</ele><time>2026-04-20T14:56:58Z</time></trkpt><trkpt lat="45.68575251467992" lon="9.417484690024008"><ele>262.5</ele><time>2026-04-20T14:56:59Z</time></trkpt><trkpt lat="45.68584251853356" lon="9.41737430044163"><ele>262.6666666666667</ele><time>2026-04-20T14:57:01Z</time></trkpt><trkpt lat="45.68589351577996" lon="9.417277609897107"><ele>262.83333333333337</ele><time>2026-04-20T14:57:02Z</time></trkpt><trkpt lat="45.68595195192152" lon="9.417199384729388"><ele>263.0</ele><time>2026-04-20T14:57:03Z</time></trkpt><trkpt lat="45.68598830981407" lon="9.417117305558435"><ele>263.0</ele><time>2026-04-20T14:57:04Z</time></trkpt><trkpt lat="45.68606637473345" lon="9.417063137662588"><ele>263.0</ele><time>2026-04-20T14:57:06Z</time></trkpt><trkpt lat="45.68612088819915" lon="9.416991262090466"><ele>263.0</ele><time>2026-04-20T14:57:07Z</time></trkpt><trkpt lat="45.68619011098286" lon="9.416899890080881"><ele>263.0</ele><time>2026-04-20T14:57:08Z</time></trkpt><trkpt lat="45.686290099137224" lon="9.416733374535728"><ele>263.0</ele><time>2026-04-20T14:57:09Z</time></trkpt><trkpt lat="45.686407180667764" lon="9.416590427803856"><ele>263.25</ele><time>2026-04-20T14:57:10Z</time></trkpt><trkpt lat="45.686549007432966" lon="9.416414591635263"><ele>263.5</ele><time>2026-04-20T14:57:11Z</time></trkpt><trkpt lat="45.686661732808105" lon="9.416260765477553"><ele>263.75</ele><time>2026-04-20T14:57:12Z</time></trkpt><trkpt lat="45.68672000667211" lon="9.416149153762477"><ele>264.0</ele><time>2026-04-20T14:57:13Z</time></trkpt><trkpt lat="45.68679207374031" lon="9.416092835292998"><ele>264.0</ele><time>2026-04-20T14:57:15Z</time></trkpt><trkpt lat="45.68685039008763" lon="9.416209469918272"><ele>264.0</ele><time>2026-04-20T14:57:17Z</time></trkpt><trkpt lat="45.68697532538653" lon="9.416269065277152"><ele>264.0</ele><time>2026-04-20T14:57:18Z</time></trkpt><trkpt lat="45.68711914631689" lon="9.416360863770322"><ele>264.0</ele><time>2026-04-20T14:57:19Z</time></trkpt><trkpt lat="45.687274109869946" lon="9.416469262303043"><ele>263.75</ele><time>2026-04-20T14:57:20Z</time></trkpt><trkpt lat="45.68742571525832" lon="9.416578809554267"><ele>263.5</ele><time>2026-04-20T14:57:21Z</time></trkpt><trkpt lat="45.68755948142051" lon="9.41664931085363"><ele>263.25</ele><time>2026-04-20T14:57:22Z</time></trkpt><trkpt lat="45.68766981718078" lon="9.416726486050548"><ele>263.0</ele><time>2026-04-20T14:57:23Z</time></trkpt><trkpt lat="45.68776949918179" lon="9.416790617471941"><ele>263.4</ele><time>2026-04-20T14:57:24Z</time></trkpt><trkpt lat="45.68785285406802" lon="9.4168390415457"><ele>263.8</ele><time>2026-04-20T14:57:25Z</time></trkpt><trkpt lat="45.68794762383964" lon="9.416923901177757"><ele>264.2</ele><time>2026-04-20T14:57:26Z</time></trkpt><trkpt lat="45.688052590700124" lon="9.416974057462108"><ele>264.6</ele><time>2026-04-20T14:57:27Z</time></trkpt><trkpt lat="45.68810137978741" lon="9.417031790601666"><ele>265.0</ele><time>2026-04-20T14:57:28Z</time></trkpt><trkpt lat="45.68817405369937" lon="9.417057593829755"><ele>265.0</ele><time>2026-04-20T14:57:29Z</time></trkpt><trkpt lat="45.68823098492317" lon="9.417098555069854"><ele>265.0</ele><time>2026-04-20T14:57:30Z</time></trkpt><trkpt lat="45.68831818622058" lon="9.417160395174019"><ele>265.0</ele><time>2026-04-20T14:57:31Z</time></trkpt><trkpt lat="45.68844066441086" lon="9.417163226946817"><ele>265.0</ele><time>2026-04-20T14:57:32Z</time></trkpt><trkpt lat="45.68855256576801" lon="9.417275584077416"><ele>265.0</ele><time>2026-04-20T14:57:33Z</time></trkpt><trkpt lat="45.68866586010907" lon="9.417363403366224"><ele>265.2</ele><time>2026-04-20T14:57:34Z</time></trkpt><trkpt lat="45.68875963578429" lon="9.417445228307685"><ele>265.4</ele><time>2026-04-20T14:57:35Z</time></trkpt><trkpt lat="45.688835749027085" lon="9.417504060098203"><ele>265.6</ele><time>2026-04-20T14:57:36Z</time></trkpt><trkpt lat="45.68891459530689" lon="9.417530060717544"><ele>265.8</ele><time>2026-04-20T14:57:37Z</time></trkpt><trkpt lat="45.68897973036148" lon="9.41756489079746"><ele>266.0</ele><time>2026-04-20T14:57:38Z</time></trkpt><trkpt lat="45.689048767400564" lon="9.417692870921938"><ele>266.0</ele><time>2026-04-20T14:57:42Z</time></trkpt><trkpt lat="45.68900619255704" lon="9.41779178375465"><ele>266.0</ele><time>2026-04-20T14:57:43Z</time></trkpt><trkpt lat="45.688975905248974" lon="9.417930125498819"><ele>266.0</ele><time>2026-04-20T14:57:44Z</time></trkpt><trkpt lat="45.68894929299847" lon="9.418096028770059"><ele>266.0</ele><time>2026-04-20T14:57:45Z</time></trkpt><trkpt lat="45.688931068635924" lon="9.418208688393092"><ele>266.0</ele><time>2026-04-20T14:57:46Z</time></trkpt><trkpt lat="45.688899050049855" lon="9.418356280087815"><ele>266.1666666666667</ele><time>2026-04-20T14:57:48Z</time></trkpt><trkpt lat="45.6888628929982" lon="9.418440835941007"><ele>266.33333333333337</ele><time>2026-04-20T14:57:49Z</time></trkpt><trkpt lat="45.6888302226798" lon="9.418532120687296"><ele>266.5</ele><time>2026-04-20T14:57:50Z</time></trkpt><trkpt lat="45.68882484165525" lon="9.418652849506012"><ele>266.6666666666667</ele><time>2026-04-20T14:57:51Z</time></trkpt><trkpt lat="45.68883741078788" lon="9.418784394370652"><ele>266.8333333333333</ele><time>2026-04-20T14:57:52Z</time></trkpt><trkpt lat="45.68883101025423" lon="9.418932084253916"><ele>267.0</ele><time>2026-04-20T14:57:53Z</time></trkpt><trkpt lat="45.688800703034225" lon="9.419092674415076"><ele>267.0</ele><time>2026-04-20T14:57:54Z</time></trkpt><trkpt lat="45.68876931042628" lon="9.419269006310262"><ele>267.0</ele><time>2026-04-20T14:57:55Z</time></trkpt><trkpt lat="45.68871968408447" lon="9.419465358356772"><ele>267.0</ele><time>2026-04-20T14:57:56Z</time></trkpt><trkpt lat="45.688670363139195" lon="9.419724454301377"><ele>267.25</ele><time>2026-04-20T14:57:57Z</time></trkpt><trkpt lat="45.68864134128179" lon="9.419918771349963"><ele>267.5</ele><time>2026-04-20T14:57:58Z</time></trkpt><trkpt lat="45.688602226310906" lon="9.420139253787491"><ele>267.75</ele><time>2026-04-20T14:57:59Z</time></trkpt><trkpt lat="45.68856861857703" lon="9.420295481004542"><ele>268.0</ele><time>2026-04-20T14:58:00Z</time></trkpt><trkpt lat="45.688544497554936" lon="9.420475342406089"><ele>267.3333333333333</ele><time>2026-04-20T14:58:01Z</time></trkpt><trkpt lat="45.68853712814916" lon="9.420600214524375"><ele>266.66666666666663</ele><time>2026-04-20T14:58:02Z</time></trkpt><trkpt lat="45.68852560911022" lon="9.420727658185506"><ele>266.0</ele><time>2026-04-20T14:58:03Z</time></trkpt><trkpt lat="45.6885071180604" lon="9.420824557372686"><ele>265.3333333333333</ele><time>2026-04-20T14:58:04Z</time></trkpt><trkpt lat="45.68848627859963" lon="9.420916123787075"><ele>264.6666666666667</ele><time>2026-04-20T14:58:05Z</time></trkpt><trkpt lat="45.68843084566619" lon="9.421084528666425"><ele>264.0</ele><time>2026-04-20T14:58:07Z</time></trkpt><trkpt lat="45.68841022095144" lon="9.421176635649518"><ele>264.0</ele><time>2026-04-20T14:58:08Z</time></trkpt><trkpt lat="45.688403211788994" lon="9.421279369848536"><ele>264.0</ele><time>2026-04-20T14:58:09Z</time></trkpt><trkpt lat="45.68842803595364" lon="9.421384520712555"><ele>264.0</ele><time>2026-04-20T14:58:10Z</time></trkpt><trkpt lat="45.688394196197606" lon="9.42147698666711"><ele>264.0</ele><time>2026-04-20T14:58:11Z</time></trkpt><trkpt lat="45.688357731471754" lon="9.421589520336022"><ele>264.0</ele><time>2026-04-20T14:58:12Z</time></trkpt><trkpt lat="45.68831810240151" lon="9.42170731782511"><ele>264.0</ele><time>2026-04-20T14:58:13Z</time></trkpt><trkpt lat="45.688288905757396" lon="9.421837843642157"><ele>264.0</ele><time>2026-04-20T14:58:14Z</time></trkpt><trkpt lat="45.688251935188575" lon="9.421928285143343"><ele>264.0</ele><time>2026-04-20T14:58:15Z</time></trkpt><trkpt lat="45.68821623068193" lon="9.422045607476308"><ele>264.0</ele><time>2026-04-20T14:58:16Z</time></trkpt><trkpt lat="45.68819571589865" lon="9.422186021176147"><ele>264.0</ele><time>2026-04-20T14:58:17Z</time></trkpt><trkpt lat="45.68818188583175" lon="9.42237732326915"><ele>264.0</ele><time>2026-04-20T14:58:18Z</time></trkpt><trkpt lat="45.688135961559865" lon="9.422526188114427"><ele>264.3333333333333</ele><time>2026-04-20T14:58:19Z</time></trkpt><trkpt lat="45.68808032830501" lon="9.422752077330527"><ele>264.66666666666663</ele><time>2026-04-20T14:58:20Z</time></trkpt><trkpt lat="45.68799858215954" lon="9.423056424349937"><ele>265.0</ele><time>2026-04-20T14:58:21Z</time></trkpt><trkpt lat="45.68793507324581" lon="9.423342514472834"><ele>265.0</ele><time>2026-04-20T14:58:22Z</time></trkpt><trkpt lat="45.68789945489968" lon="9.42364402819902"><ele>265.0</ele><time>2026-04-20T14:58:23Z</time></trkpt><trkpt lat="45.68783317765488" lon="9.423876481195862"><ele>265.0</ele><time>2026-04-20T14:58:24Z</time></trkpt><trkpt lat="45.68775565286037" lon="9.424132371424735"><ele>265.0</ele><time>2026-04-20T14:58:25Z</time></trkpt><trkpt lat="45.68770163731605" lon="9.424417148884922"><ele>265.0</ele><time>2026-04-20T14:58:26Z</time></trkpt><trkpt lat="45.687676679683506" lon="9.424707097208024"><ele>265.0</ele><time>2026-04-20T14:58:27Z</time></trkpt><trkpt lat="45.687659190504306" lon="9.424968122238578"><ele>265.0</ele><time>2026-04-20T14:58:28Z</time></trkpt><trkpt lat="45.68761553862184" lon="9.425186664418616"><ele>265.0</ele><time>2026-04-20T14:58:29Z</time></trkpt><trkpt lat="45.68756247528399" lon="9.42543143526025"><ele>265.0</ele><time>2026-04-20T14:58:30Z</time></trkpt><trkpt lat="45.68751487368671" lon="9.425694232703163"><ele>264.66666666666663</ele><time>2026-04-20T14:58:31Z</time></trkpt><trkpt lat="45.68746561869249" lon="9.425978781244607"><ele>264.3333333333333</ele><time>2026-04-20T14:58:32Z</time></trkpt><trkpt lat="45.68741450606974" lon="9.426240840025706"><ele>264.0</ele><time>2026-04-20T14:58:33Z</time></trkpt><trkpt lat="45.687368588757046" lon="9.426468303325478"><ele>264.0</ele><time>2026-04-20T14:58:34Z</time></trkpt><trkpt lat="45.687326717053864" lon="9.426671379216907"><ele>264.0</ele><time>2026-04-20T14:58:35Z</time></trkpt><trkpt lat="45.68728571577282" lon="9.426868972975509"><ele>264.0</ele><time>2026-04-20T14:58:36Z</time></trkpt><trkpt lat="45.6872499405704" lon="9.427074865816596"><ele>264.0</ele><time>2026-04-20T14:58:37Z</time></trkpt><trkpt lat="45.68722140424116" lon="9.427235801960828"><ele>264.0</ele><time>2026-04-20T14:58:38Z</time></trkpt><trkpt lat="45.68719179261571" lon="9.427410446039815"><ele>264.0</ele><time>2026-04-20T14:58:39Z</time></trkpt><trkpt lat="45.687162639444054" lon="9.427575667498168"><ele>264.0</ele><time>2026-04-20T14:58:40Z</time></trkpt><trkpt lat="45.687128023089855" lon="9.427756899516964"><ele>264.0</ele><time>2026-04-20T14:58:41Z</time></trkpt><trkpt lat="45.687089835961295" lon="9.427951922741654"><ele>264.0</ele><time>2026-04-20T14:58:42Z</time></trkpt><trkpt lat="45.68705109750922" lon="9.428154324961547"><ele>264.0</ele><time>2026-04-20T14:58:43Z</time></trkpt><trkpt lat="45.68700183805563" lon="9.428390237863052"><ele>264.0</ele><time>2026-04-20T14:58:44Z</time></trkpt><trkpt lat="45.6869543566064" lon="9.428666301271575"><ele>264.0</ele><time>2026-04-20T14:58:45Z</time></trkpt><trkpt lat="45.686899718965655" lon="9.42889476477883"><ele>264.0</ele><time>2026-04-20T14:58:46Z</time></trkpt><trkpt lat="45.68685618236864" lon="9.429154294409283"><ele>264.0</ele><time>2026-04-20T14:58:47Z</time></trkpt><trkpt lat="45.686814148200035" lon="9.429378390336465"><ele>264.0</ele><time>2026-04-20T14:58:48Z</time></trkpt><trkpt lat="45.686767863880206" lon="9.42956292104514"><ele>264.0</ele><time>2026-04-20T14:58:49Z</time></trkpt><trkpt lat="45.68672292955741" lon="9.429792743455796"><ele>264.0</ele><time>2026-04-20T14:58:50Z</time></trkpt><trkpt lat="45.68666908960527" lon="9.43003596563052"><ele>264.0</ele><time>2026-04-20T14:58:51Z</time></trkpt><trkpt lat="45.68661026896335" lon="9.430301154909527"><ele>264.0</ele><time>2026-04-20T14:58:52Z</time></trkpt><trkpt lat="45.68654876154438" lon="9.430567091448738"><ele>264.0</ele><time>2026-04-20T14:58:53Z</time></trkpt><trkpt lat="45.68648990056832" lon="9.430790743932944"><ele>264.0</ele><time>2026-04-20T14:58:54Z</time></trkpt><trkpt lat="45.68644107115781" lon="9.431011929383304"><ele>264.0</ele><time>2026-04-20T14:58:55Z</time></trkpt><trkpt lat="45.68640883230937" lon="9.43126097636092"><ele>264.0</ele><time>2026-04-20T14:58:56Z</time></trkpt><trkpt lat="45.686362301029654" lon="9.431421299931387"><ele>264.0</ele><time>2026-04-20T14:58:57Z</time></trkpt><trkpt lat="45.68631219760298" lon="9.431598398979652"><ele>264.0</ele><time>2026-04-20T14:58:58Z</time></trkpt><trkpt lat="45.686280232856774" lon="9.431791043813302"><ele>264.0</ele><time>2026-04-20T14:58:59Z</time></trkpt><trkpt lat="45.686241530635826" lon="9.431954306491528"><ele>264.0</ele><time>2026-04-20T14:59:00Z</time></trkpt><trkpt lat="45.686188934150195" lon="9.432136467408535"><ele>264.0</ele><time>2026-04-20T14:59:01Z</time></trkpt><trkpt lat="45.6861255672858" lon="9.432327099402439"><ele>264.0</ele><time>2026-04-20T14:59:02Z</time></trkpt><trkpt lat="45.68608360382083" lon="9.432498858570995"><ele>264.0</ele><time>2026-04-20T14:59:03Z</time></trkpt><trkpt lat="45.68604677694076" lon="9.432642703433165"><ele>264.0</ele><time>2026-04-20T14:59:04Z</time></trkpt><trkpt lat="45.68601451118417" lon="9.432771081779503"><ele>264.0</ele><time>2026-04-20T14:59:05Z</time></trkpt><trkpt lat="45.68599132710517" lon="9.43286345218779"><ele>264.0</ele><time>2026-04-20T14:59:06Z</time></trkpt><trkpt lat="45.68576629271703" lon="9.432875759890427"><ele>264.0</ele><time>2026-04-20T14:59:09Z</time></trkpt><trkpt lat="45.68565232474908" lon="9.432752777522932"><ele>264.0</ele><time>2026-04-20T14:59:10Z</time></trkpt><trkpt lat="45.68550489484031" lon="9.432668884584206"><ele>264.0</ele><time>2026-04-20T14:59:11Z</time></trkpt><trkpt lat="45.68537800696668" lon="9.432596682039122"><ele>264.0</ele><time>2026-04-20T14:59:12Z</time></trkpt><trkpt lat="45.68522416682252" lon="9.432492794029564"><ele>264.0</ele><time>2026-04-20T14:59:13Z</time></trkpt><trkpt lat="45.68508914616525" lon="9.432411647747607"><ele>264.3333333333333</ele><time>2026-04-20T14:59:14Z</time></trkpt><trkpt lat="45.684907904504634" lon="9.432294349050892"><ele>264.66666666666663</ele><time>2026-04-20T14:59:15Z</time></trkpt><trkpt lat="45.68473394924754" lon="9.432181253801032"><ele>265.0</ele><time>2026-04-20T14:59:16Z</time></trkpt><trkpt lat="45.68457264769411" lon="9.432076963961226"><ele>264.3333333333333</ele><time>2026-04-20T14:59:17Z</time></trkpt><trkpt lat="45.684425194309036" lon="9.431975843200487"><ele>263.6666666666667</ele><time>2026-04-20T14:59:18Z</time></trkpt><trkpt lat="45.684284509859154" lon="9.431882124489588"><ele>263.0</ele><time>2026-04-20T14:59:19Z</time></trkpt><trkpt lat="45.68414001366355" lon="9.431793079571522"><ele>263.0</ele><time>2026-04-20T14:59:20Z</time></trkpt><trkpt lat="45.68399956829372" lon="9.43170428641541"><ele>263.0</ele><time>2026-04-20T14:59:21Z</time></trkpt><trkpt lat="45.68386737902008" lon="9.43162179138044"><ele>263.0</ele><time>2026-04-20T14:59:22Z</time></trkpt><trkpt lat="45.68372015096063" lon="9.431514300879217"><ele>263.0</ele><time>2026-04-20T14:59:23Z</time></trkpt><trkpt lat="45.68360264049479" lon="9.431454521625414"><ele>263.0</ele><time>2026-04-20T14:59:24Z</time></trkpt><trkpt lat="45.683484736306326" lon="9.431391230892727"><ele>263.0</ele><time>2026-04-20T14:59:25Z</time></trkpt><trkpt lat="45.68336954901539" lon="9.431344578265989"><ele>263.0</ele><time>2026-04-20T14:59:26Z</time></trkpt><trkpt lat="45.68326819140101" lon="9.43131701476735"><ele>262.6666666666667</ele><time>2026-04-20T14:59:27Z</time></trkpt><trkpt lat="45.68317922714784" lon="9.431277030971067"><ele>262.33333333333337</ele><time>2026-04-20T14:59:28Z</time></trkpt><trkpt lat="45.68310486995843" lon="9.431212704958222"><ele>262.0</ele><time>2026-04-20T14:59:29Z</time></trkpt><trkpt lat="45.68305261427453" lon="9.43113527497403"><ele>261.6666666666667</ele><time>2026-04-20T14:59:30Z</time></trkpt><trkpt lat="45.68300216565432" lon="9.431055185400409"><ele>261.3333333333333</ele><time>2026-04-20T14:59:31Z</time></trkpt><trkpt lat="45.68290541978204" lon="9.431009471377207"><ele>261.0</ele><time>2026-04-20T14:59:33Z</time></trkpt><trkpt lat="45.682826883112746" lon="9.43109315751269"><ele>261.0</ele><time>2026-04-20T14:59:35Z</time></trkpt><trkpt lat="45.68282283756786" lon="9.431268871185337"><ele>261.0</ele><time>2026-04-20T14:59:37Z</time></trkpt><trkpt lat="45.68282951879767" lon="9.431405745512173"><ele>261.0</ele><time>2026-04-20T14:59:38Z</time></trkpt><trkpt lat="45.682803388395364" lon="9.431555316524879"><ele>261.0</ele><time>2026-04-20T14:59:39Z</time></trkpt><trkpt lat="45.682749058938356" lon="9.43176374157965"><ele>261.0</ele><time>2026-04-20T14:59:40Z</time></trkpt><trkpt lat="45.682709773726984" lon="9.431985407461555"><ele>261.0</ele><time>2026-04-20T14:59:41Z</time></trkpt><trkpt lat="45.682649746401246" lon="9.432177477271248"><ele>261.0</ele><time>2026-04-20T14:59:42Z</time></trkpt><trkpt lat="45.682602677592016" lon="9.432363213083446"><ele>261.0</ele><time>2026-04-20T14:59:43Z</time></trkpt><trkpt lat="45.68256604093437" lon="9.432530375536581"><ele>261.0</ele><time>2026-04-20T14:59:44Z</time></trkpt><trkpt lat="45.682521379026724" lon="9.432687861030113"><ele>261.0</ele><time>2026-04-20T14:59:45Z</time></trkpt><trkpt lat="45.68248109776897" lon="9.432825190494537"><ele>261.0</ele><time>2026-04-20T14:59:46Z</time></trkpt><trkpt lat="45.682440634747024" lon="9.432965561761383"><ele>261.0</ele><time>2026-04-20T14:59:47Z</time></trkpt><trkpt lat="45.682406775391996" lon="9.433084920621901"><ele>261.0</ele><time>2026-04-20T14:59:48Z</time></trkpt><trkpt lat="45.68238187389106" lon="9.433194624475428"><ele>261.6</ele><time>2026-04-20T14:59:49Z</time></trkpt><trkpt lat="45.682356775526955" lon="9.43328508097259"><ele>262.20000000000005</ele><time>2026-04-20T14:59:50Z</time></trkpt><trkpt lat="45.68231773126226" lon="9.433398185102154"><ele>262.79999999999995</ele><time>2026-04-20T14:59:52Z</time></trkpt><trkpt lat="45.68224118725659" lon="9.433386632951775"><ele>263.4</ele><time>2026-04-20T14:59:54Z</time></trkpt><trkpt lat="45.68208853562488" lon="9.433318388042453"><ele>264.0</ele><time>2026-04-20T14:59:56Z</time></trkpt><trkpt lat="45.68197646610511" lon="9.43327935445065"><ele>263.4</ele><time>2026-04-20T14:59:57Z</time></trkpt><trkpt lat="45.68181937979043" lon="9.43319782190463"><ele>262.79999999999995</ele><time>2026-04-20T14:59:58Z</time></trkpt><trkpt lat="45.68171223564881" lon="9.433171573721186"><ele>262.20000000000005</ele><time>2026-04-20T14:59:59Z</time></trkpt><trkpt lat="45.68162535458342" lon="9.433118585130552"><ele>261.6</ele><time>2026-04-20T15:00:00Z</time></trkpt><trkpt lat="45.68156203824538" lon="9.433069923973145"><ele>261.0</ele><time>2026-04-20T15:00:01Z</time></trkpt><trkpt lat="45.6814887392466" lon="9.433003502727962"><ele>261.0</ele><time>2026-04-20T15:00:03Z</time></trkpt><trkpt lat="45.68141962978761" lon="9.433064993941466"><ele>261.0</ele><time>2026-04-20T15:00:05Z</time></trkpt><trkpt lat="45.6813920485126" lon="9.433283452528064"><ele>261.0</ele><time>2026-04-20T15:00:07Z</time></trkpt><trkpt lat="45.681393153331356" lon="9.433412682546752"><ele>261.0</ele><time>2026-04-20T15:00:08Z</time></trkpt><trkpt lat="45.68138943249264" lon="9.433554039229458"><ele>261.0</ele><time>2026-04-20T15:00:09Z</time></trkpt><trkpt lat="45.68138492688457" lon="9.43369809175893"><ele>260.75</ele><time>2026-04-20T15:00:10Z</time></trkpt><trkpt lat="45.681360534443144" lon="9.433863196423813"><ele>260.5</ele><time>2026-04-20T15:00:11Z</time></trkpt><trkpt lat="45.68134710898761" lon="9.434027260002233"><ele>260.25</ele><time>2026-04-20T15:00:12Z</time></trkpt><trkpt lat="45.68132265640599" lon="9.434185513066605"><ele>260.0</ele><time>2026-04-20T15:00:13Z</time></trkpt><trkpt lat="45.6813003472018" lon="9.434344134202112"><ele>260.0</ele><time>2026-04-20T15:00:14Z</time></trkpt><trkpt lat="45.681310409902736" lon="9.434501113722316"><ele>260.0</ele><time>2026-04-20T15:00:15Z</time></trkpt><trkpt lat="45.68130153962088" lon="9.434612669992802"><ele>260.0</ele><time>2026-04-20T15:00:16Z</time></trkpt><trkpt lat="45.681309288614905" lon="9.43472668544013"><ele>260.0</ele><time>2026-04-20T15:00:17Z</time></trkpt><trkpt lat="45.68131763435938" lon="9.434886710890542"><ele>260.0</ele><time>2026-04-20T15:00:19Z</time></trkpt><trkpt lat="45.68131806210914" lon="9.434994038676864"><ele>260.0</ele><time>2026-04-20T15:00:20Z</time></trkpt><trkpt lat="45.6813214608162" lon="9.435090213576979"><ele>260.0</ele><time>2026-04-20T15:00:21Z</time></trkpt><trkpt lat="45.681331451398194" lon="9.435238957532258"><ele>260.0</ele><time>2026-04-20T15:00:23Z</time></trkpt><trkpt lat="45.6813559616503" lon="9.435344485137088"><ele>260.0</ele><time>2026-04-20T15:00:24Z</time></trkpt><trkpt lat="45.681377574789046" lon="9.435453411583051"><ele>260.0</ele><time>2026-04-20T15:00:25Z</time></trkpt><trkpt lat="45.68136496251566" lon="9.435551722380485"><ele>260.0</ele><time>2026-04-20T15:00:26Z</time></trkpt><trkpt lat="45.68136447783736" lon="9.43566492430325"><ele>259.8</ele><time>2026-04-20T15:00:27Z</time></trkpt><trkpt lat="45.68136219293783" lon="9.435769052475395"><ele>259.6</ele><time>2026-04-20T15:00:28Z</time></trkpt><trkpt lat="45.68135581768329" lon="9.435868229676334"><ele>259.4</ele><time>2026-04-20T15:00:29Z</time></trkpt><trkpt lat="45.68134146527357" lon="9.435991417496467"><ele>259.2</ele><time>2026-04-20T15:00:30Z</time></trkpt><trkpt lat="45.681332696719736" lon="9.436156015612768"><ele>259.0</ele><time>2026-04-20T15:00:31Z</time></trkpt><trkpt lat="45.68131769851734" lon="9.436338889544801"><ele>259.0</ele><time>2026-04-20T15:00:32Z</time></trkpt><trkpt lat="45.68130476689511" lon="9.436488387599303"><ele>259.0</ele><time>2026-04-20T15:00:33Z</time></trkpt><trkpt lat="45.68129115282787" lon="9.43660268896761"><ele>259.0</ele><time>2026-04-20T15:00:34Z</time></trkpt><trkpt lat="45.68127508343282" lon="9.436724022433971"><ele>259.0</ele><time>2026-04-20T15:00:35Z</time></trkpt><trkpt lat="45.681260329601336" lon="9.436829802891683"><ele>259.0</ele><time>2026-04-20T15:00:36Z</time></trkpt><trkpt lat="45.68124252418216" lon="9.436982843639589"><ele>259.0</ele><time>2026-04-20T15:00:38Z</time></trkpt><trkpt lat="45.68123026037699" lon="9.437088889953761"><ele>259.0</ele><time>2026-04-20T15:00:40Z</time></trkpt><trkpt lat="45.68119813348368" lon="9.43725819396153"><ele>259.0</ele><time>2026-04-20T15:00:43Z</time></trkpt><trkpt lat="45.6811719175407" lon="9.437390756908606"><ele>259.0</ele><time>2026-04-20T15:00:45Z</time></trkpt><trkpt lat="45.681201586160284" lon="9.437230911100212"><ele>259.0</ele><time>2026-04-20T15:01:48Z</time></trkpt><trkpt lat="45.6812048793355" lon="9.43712948911715"><ele>259.0</ele><time>2026-04-20T15:01:49Z</time></trkpt><trkpt lat="45.681155356831106" lon="9.43703904839057"><ele>259.0</ele><time>2026-04-20T15:01:53Z</time></trkpt><trkpt lat="45.68105215148173" lon="9.437023829170402"><ele>259.0</ele><time>2026-04-20T15:01:55Z</time></trkpt><trkpt lat="45.68097615454882" lon="9.437047977742264"><ele>259.0</ele><time>2026-04-20T15:01:56Z</time></trkpt><trkpt lat="45.680878745868" lon="9.437060709285054"><ele>259.0</ele><time>2026-04-20T15:01:58Z</time></trkpt><trkpt lat="45.68076333215605" lon="9.437072490774078"><ele>259.0</ele><time>2026-04-20T15:02:00Z</time></trkpt><trkpt lat="45.68064381249286" lon="9.437084354040268"><ele>259.0</ele><time>2026-04-20T15:02:02Z</time></trkpt><trkpt lat="45.68057932768386" lon="9.437092833174933"><ele>259.0</ele><time>2026-04-20T15:02:03Z</time></trkpt><trkpt lat="45.68051587123583" lon="9.437110563281662"><ele>259.0</ele><time>2026-04-20T15:02:04Z</time></trkpt><trkpt lat="45.680423824141016" lon="9.437099365543327"><ele>259.0</ele><time>2026-04-20T15:02:06Z</time></trkpt><trkpt lat="45.68035772210928" lon="9.437113936568048"><ele>259.0</ele><time>2026-04-20T15:02:07Z</time></trkpt><trkpt lat="45.680254906870935" lon="9.437147257928393"><ele>258.5</ele><time>2026-04-20T15:02:09Z</time></trkpt><trkpt lat="45.6801368109943" lon="9.43718661185023"><ele>258.0</ele><time>2026-04-20T15:02:11Z</time></trkpt><trkpt lat="45.6800199292224" lon="9.437228089652068"><ele>257.5</ele><time>2026-04-20T15:02:13Z</time></trkpt><trkpt lat="45.67991136447178" lon="9.437264926793992"><ele>257.0</ele><time>2026-04-20T15:02:15Z</time></trkpt><trkpt lat="45.67981501540822" lon="9.437304434230986"><ele>257.0</ele><time>2026-04-20T15:02:17Z</time></trkpt><trkpt lat="45.67974805794745" lon="9.437328519830132"><ele>257.0</ele><time>2026-04-20T15:02:19Z</time></trkpt><trkpt lat="45.679668757390665" lon="9.43731098957248"><ele>257.0</ele><time>2026-04-20T15:02:24Z</time></trkpt><trkpt lat="45.67962975650386" lon="9.437229046376846"><ele>257.0</ele><time>2026-04-20T15:02:25Z</time></trkpt><trkpt lat="45.67961895330718" lon="9.4370781282191"><ele>257.0</ele><time>2026-04-20T15:02:26Z</time></trkpt><trkpt lat="45.67959823220535" lon="9.436990859104005"><ele>257.0</ele><time>2026-04-20T15:02:27Z</time></trkpt><trkpt lat="45.67955352908444" lon="9.436824885477858"><ele>257.0</ele><time>2026-04-20T15:02:29Z</time></trkpt><trkpt lat="45.67953445665565" lon="9.436711844248823"><ele>257.0</ele><time>2026-04-20T15:02:30Z</time></trkpt><trkpt lat="45.679478205187024" lon="9.436517401750702"><ele>257.0</ele><time>2026-04-20T15:02:32Z</time></trkpt><trkpt lat="45.67944268077211" lon="9.436364304846292"><ele>257.0</ele><time>2026-04-20T15:02:33Z</time></trkpt><trkpt lat="45.67940961204044" lon="9.436232134584897"><ele>257.0</ele><time>2026-04-20T15:02:34Z</time></trkpt><trkpt lat="45.679374970966784" lon="9.43611911200042"><ele>257.2</ele><time>2026-04-20T15:02:35Z</time></trkpt><trkpt lat="45.67933311033779" lon="9.43600130319487"><ele>257.4</ele><time>2026-04-20T15:02:36Z</time></trkpt><trkpt lat="45.679294322437315" lon="9.4358573586436"><ele>257.6</ele><time>2026-04-20T15:02:37Z</time></trkpt><trkpt lat="45.679258351338895" lon="9.435717801578566"><ele>257.8</ele><time>2026-04-20T15:02:38Z</time></trkpt><trkpt lat="45.679229848732916" lon="9.435574587466528"><ele>258.0</ele><time>2026-04-20T15:02:39Z</time></trkpt><trkpt lat="45.67918409276085" lon="9.435449852748729"><ele>258.2</ele><time>2026-04-20T15:02:40Z</time></trkpt><trkpt lat="45.67914937873418" lon="9.435322526055758"><ele>258.4</ele><time>2026-04-20T15:02:41Z</time></trkpt><trkpt lat="45.67912141361347" lon="9.435239669682916"><ele>258.59999999999997</ele><time>2026-04-20T15:02:42Z</time></trkpt><trkpt lat="45.67908426494065" lon="9.435095604429195"><ele>258.8</ele><time>2026-04-20T15:02:43Z</time></trkpt><trkpt lat="45.67904775641923" lon="9.434955968099983"><ele>259.0</ele><time>2026-04-20T15:02:44Z</time></trkpt><trkpt lat="45.67902483409931" lon="9.43484512164248"><ele>259.0</ele><time>2026-04-20T15:02:45Z</time></trkpt><trkpt lat="45.67899692026327" lon="9.434752991563105"><ele>259.0</ele><time>2026-04-20T15:02:46Z</time></trkpt><trkpt lat="45.67894905029601" lon="9.434607368581807"><ele>259.0</ele><time>2026-04-20T15:02:48Z</time></trkpt><trkpt lat="45.67890163145185" lon="9.434475716709382"><ele>259.0</ele><time>2026-04-20T15:02:50Z</time></trkpt><trkpt lat="45.679062716691206" lon="9.434333994486412"><ele>259.0</ele><time>2026-04-20T15:02:55Z</time></trkpt><trkpt lat="45.6791457033602" lon="9.434325317554206"><ele>259.0</ele><time>2026-04-20T15:02:57Z</time></trkpt><trkpt lat="45.679206311395816" lon="9.434282219403608"><ele>259.0</ele><time>2026-04-20T15:02:59Z</time></trkpt><trkpt lat="45.67929315929505" lon="9.434267139792393"><ele>259.0</ele><time>2026-04-20T15:03:01Z</time></trkpt><trkpt lat="45.67932867513414" lon="9.434189754885246"><ele>259.0</ele><time>2026-04-20T15:03:04Z</time></trkpt><trkpt lat="45.679209602808015" lon="9.434180084960555"><ele>259.0</ele><time>2026-04-20T15:03:07Z</time></trkpt><trkpt lat="45.67914590496974" lon="9.434223143127522"><ele>259.0</ele><time>2026-04-20T15:03:08Z</time></trkpt><trkpt lat="45.679077637776444" lon="9.434258131494532"><ele>259.0</ele><time>2026-04-20T15:03:11Z</time></trkpt><trkpt lat="45.67904927319536" lon="9.434341807049583"><ele>259.0</ele><time>2026-04-20T15:03:41Z</time></trkpt><trkpt lat="45.67899277364499" lon="9.434383712068126"><ele>259.0</ele><time>2026-04-20T15:03:47Z</time></trkpt><trkpt lat="45.67896145425643" lon="9.434477752780698"><ele>259.0</ele><time>2026-04-20T15:03:56Z</time></trkpt><trkpt lat="45.67900109522777" lon="9.434559742222225"><ele>259.0</ele><time>2026-04-20T15:03:59Z</time></trkpt><trkpt lat="45.6790237407873" lon="9.434649766728572"><ele>259.0</ele><time>2026-04-20T15:04:04Z</time></trkpt><trkpt lat="45.679094064497875" lon="9.434604211236255"><ele>259.0</ele><time>2026-04-20T15:04:13Z</time></trkpt><trkpt lat="45.679154212964264" lon="9.434561515564313"><ele>259.0</ele><time>2026-04-20T15:04:18Z</time></trkpt><trkpt lat="45.67921367445236" lon="9.434505807215883"><ele>259.0</ele><time>2026-04-20T15:04:23Z</time></trkpt><trkpt lat="45.67926622345238" lon="9.434431161755054"><ele>259.0</ele><time>2026-04-20T15:04:28Z</time></trkpt><trkpt lat="45.67932896551569" lon="9.434396406883545"><ele>259.0</ele><time>2026-04-20T15:04:50Z</time></trkpt><trkpt lat="45.67926980833136" lon="9.434442001643678"><ele>259.0</ele><time>2026-04-20T15:05:25Z</time></trkpt><trkpt lat="45.679215035757764" lon="9.434490364116343"><ele>259.0</ele><time>2026-04-20T15:05:31Z</time></trkpt><trkpt lat="45.679165115331415" lon="9.43454998671219"><ele>259.0</ele><time>2026-04-20T15:05:37Z</time></trkpt><trkpt lat="45.67910975314287" lon="9.434617919273007"><ele>259.0</ele><time>2026-04-20T15:05:43Z</time></trkpt><trkpt lat="45.67904549814209" lon="9.43465479428526"><ele>259.0</ele><time>2026-04-20T15:05:49Z</time></trkpt><trkpt lat="45.67900595803953" lon="9.43458244879181"><ele>259.0</ele><time>2026-04-20T15:05:53Z</time></trkpt><trkpt lat="45.678967872855935" lon="9.434501095991132"><ele>259.0</ele><time>2026-04-20T15:05:58Z</time></trkpt><trkpt lat="45.67898069943028" lon="9.434409437089826"><ele>259.0</ele><time>2026-04-20T15:06:03Z</time></trkpt><trkpt lat="45.67904868363764" lon="9.434366228521363"><ele>259.0</ele><time>2026-04-20T15:06:08Z</time></trkpt><trkpt lat="45.67908963477732" lon="9.434296432245446"><ele>259.0</ele><time>2026-04-20T15:06:13Z</time></trkpt><trkpt lat="45.679027396082425" lon="9.434363473155457"><ele>259.0</ele><time>2026-04-20T15:07:37Z</time></trkpt><trkpt lat="45.67896678145642" lon="9.434415143865806"><ele>259.0</ele><time>2026-04-20T15:07:40Z</time></trkpt><trkpt lat="45.6789028760815" lon="9.434482493115448"><ele>259.0</ele><time>2026-04-20T15:07:44Z</time></trkpt><trkpt lat="45.67890837155842" lon="9.434641918207287"><ele>259.0</ele><time>2026-04-20T15:07:46Z</time></trkpt><trkpt lat="45.67894572087273" lon="9.434751723173237"><ele>259.0</ele><time>2026-04-20T15:07:47Z</time></trkpt><trkpt lat="45.67897829345496" lon="9.43485023663958"><ele>259.0</ele><time>2026-04-20T15:07:48Z</time></trkpt><trkpt lat="45.67900077970257" lon="9.43494789632176"><ele>259.0</ele><time>2026-04-20T15:07:49Z</time></trkpt><trkpt lat="45.67903247901075" lon="9.43505516730347"><ele>259.0</ele><time>2026-04-20T15:07:50Z</time></trkpt><trkpt lat="45.679061474345005" lon="9.435163733404465"><ele>259.0</ele><time>2026-04-20T15:07:51Z</time></trkpt><trkpt lat="45.67910112813732" lon="9.435307799354463"><ele>259.0</ele><time>2026-04-20T15:07:52Z</time></trkpt><trkpt lat="45.6791328888643" lon="9.435423299335929"><ele>259.0</ele><time>2026-04-20T15:07:53Z</time></trkpt><trkpt lat="45.67915948906051" lon="9.435534615354728"><ele>258.8333333333333</ele><time>2026-04-20T15:07:54Z</time></trkpt><trkpt lat="45.67918327948599" lon="9.435653959031555"><ele>258.66666666666663</ele><time>2026-04-20T15:07:55Z</time></trkpt><trkpt lat="45.679208300416306" lon="9.435763693739837"><ele>258.5</ele><time>2026-04-20T15:07:56Z</time></trkpt><trkpt lat="45.67924471141843" lon="9.435862156855595"><ele>258.3333333333333</ele><time>2026-04-20T15:07:57Z</time></trkpt><trkpt lat="45.67928623661676" lon="9.435970993764824"><ele>258.1666666666667</ele><time>2026-04-20T15:07:58Z</time></trkpt><trkpt lat="45.679318347927676" lon="9.436077637097348"><ele>258.0</ele><time>2026-04-20T15:07:59Z</time></trkpt><trkpt lat="45.67934041524746" lon="9.436204807007366"><ele>257.8333333333333</ele><time>2026-04-20T15:08:00Z</time></trkpt><trkpt lat="45.67936887428276" lon="9.436327821048762"><ele>257.6666666666667</ele><time>2026-04-20T15:08:01Z</time></trkpt><trkpt lat="45.679397709190035" lon="9.436458256377376"><ele>257.5</ele><time>2026-04-20T15:08:02Z</time></trkpt><trkpt lat="45.67942622694979" lon="9.436573415189619"><ele>257.33333333333337</ele><time>2026-04-20T15:08:03Z</time></trkpt><trkpt lat="45.67945718768171" lon="9.436683071012132"><ele>257.1666666666667</ele><time>2026-04-20T15:08:04Z</time></trkpt><trkpt lat="45.67949702665815" lon="9.436784153113114"><ele>257.0</ele><time>2026-04-20T15:08:05Z</time></trkpt><trkpt lat="45.679539456827996" lon="9.436925478970183"><ele>257.0</ele><time>2026-04-20T15:08:06Z</time></trkpt><trkpt lat="45.67959078066314" lon="9.437101867322054"><ele>257.0</ele><time>2026-04-20T15:08:07Z</time></trkpt><trkpt lat="45.67964221016692" lon="9.43725712335694"><ele>257.0</ele><time>2026-04-20T15:08:08Z</time></trkpt><trkpt lat="45.679670021442845" lon="9.437392843786956"><ele>257.0</ele><time>2026-04-20T15:08:09Z</time></trkpt><trkpt lat="45.67971923209233" lon="9.437556203362337"><ele>257.0</ele><time>2026-04-20T15:08:10Z</time></trkpt><trkpt lat="45.67978119675876" lon="9.437737821226717"><ele>257.0</ele><time>2026-04-20T15:08:11Z</time></trkpt><trkpt lat="45.679826801155905" lon="9.437891744959353"><ele>257.0</ele><time>2026-04-20T15:08:12Z</time></trkpt><trkpt lat="45.679871303397675" lon="9.43802783564958"><ele>257.0</ele><time>2026-04-20T15:08:13Z</time></trkpt><trkpt lat="45.679916330676924" lon="9.438168970989368"><ele>257.0</ele><time>2026-04-20T15:08:14Z</time></trkpt><trkpt lat="45.679963110825206" lon="9.438323937353555"><ele>257.0</ele><time>2026-04-20T15:08:15Z</time></trkpt><trkpt lat="45.68000020059321" lon="9.438450779034765"><ele>257.0</ele><time>2026-04-20T15:08:16Z</time></trkpt><trkpt lat="45.68003213630461" lon="9.43855905297606"><ele>257.0</ele><time>2026-04-20T15:08:17Z</time></trkpt><trkpt lat="45.68007746366291" lon="9.438712751576883"><ele>257.0</ele><time>2026-04-20T15:08:19Z</time></trkpt><trkpt lat="45.68012336749361" lon="9.438809718355897"><ele>256.75</ele><time>2026-04-20T15:08:21Z</time></trkpt><trkpt lat="45.67996014880568" lon="9.43890095503172"><ele>256.5</ele><time>2026-04-20T15:08:25Z</time></trkpt><trkpt lat="45.679845329014746" lon="9.438928030241518"><ele>256.25</ele><time>2026-04-20T15:08:26Z</time></trkpt><trkpt lat="45.67970110833662" lon="9.438955125990159"><ele>256.0</ele><time>2026-04-20T15:08:27Z</time></trkpt><trkpt lat="45.67953063108708" lon="9.43897845429963"><ele>256.25</ele><time>2026-04-20T15:08:28Z</time></trkpt><trkpt lat="45.679381936349714" lon="9.439007256834337"><ele>256.5</ele><time>2026-04-20T15:08:29Z</time></trkpt><trkpt lat="45.67924013608134" lon="9.439026238018306"><ele>256.75</ele><time>2026-04-20T15:08:30Z</time></trkpt><trkpt lat="45.67912171302535" lon="9.43904480248398"><ele>257.0</ele><time>2026-04-20T15:08:31Z</time></trkpt><trkpt lat="45.678891782646254" lon="9.439048842348221"><ele>257.0</ele><time>2026-04-20T15:08:32Z</time></trkpt><trkpt lat="45.67879299194881" lon="9.43911977134382"><ele>257.0</ele><time>2026-04-20T15:08:35Z</time></trkpt><trkpt lat="45.678720094136146" lon="9.439134836688567"><ele>257.0</ele><time>2026-04-20T15:08:36Z</time></trkpt><trkpt lat="45.678661050406625" lon="9.439242407462705"><ele>257.0</ele><time>2026-04-20T15:08:37Z</time></trkpt><trkpt lat="45.67861659608654" lon="9.439338137461275"><ele>257.0</ele><time>2026-04-20T15:08:38Z</time></trkpt><trkpt lat="45.67858679681325" lon="9.439542305877744"><ele>256.8</ele><time>2026-04-20T15:08:40Z</time></trkpt><trkpt lat="45.6786139762964" lon="9.439673190170087"><ele>256.6</ele><time>2026-04-20T15:08:41Z</time></trkpt><trkpt lat="45.67864118894796" lon="9.439779839647711"><ele>256.40000000000003</ele><time>2026-04-20T15:08:42Z</time></trkpt><trkpt lat="45.67871018741863" lon="9.439901517383792"><ele>256.2</ele><time>2026-04-20T15:08:43Z</time></trkpt><trkpt lat="45.678777945480476" lon="9.440035625321801"><ele>256.0</ele><time>2026-04-20T15:08:44Z</time></trkpt><trkpt lat="45.67883413281634" lon="9.440194249178804"><ele>256.0</ele><time>2026-04-20T15:08:45Z</time></trkpt><trkpt lat="45.67890097292235" lon="9.440380931906512"><ele>256.0</ele><time>2026-04-20T15:08:46Z</time></trkpt><trkpt lat="45.67898241338556" lon="9.44061214948753"><ele>256.0</ele><time>2026-04-20T15:08:47Z</time></trkpt><trkpt lat="45.67903631250225" lon="9.440790549429131"><ele>256.3333333333333</ele><time>2026-04-20T15:08:48Z</time></trkpt><trkpt lat="45.67912384340036" lon="9.441030954947134"><ele>256.6666666666667</ele><time>2026-04-20T15:08:49Z</time></trkpt><trkpt lat="45.67920654047666" lon="9.44127825696747"><ele>257.0</ele><time>2026-04-20T15:08:50Z</time></trkpt><trkpt lat="45.67928649545099" lon="9.441524731496989"><ele>257.25</ele><time>2026-04-20T15:08:51Z</time></trkpt><trkpt lat="45.67935791102957" lon="9.441730011667303"><ele>257.5</ele><time>2026-04-20T15:08:52Z</time></trkpt><trkpt lat="45.67941998012174" lon="9.441904414667132"><ele>257.75</ele><time>2026-04-20T15:08:53Z</time></trkpt><trkpt lat="45.67947158308936" lon="9.442073324786307"><ele>258.0</ele><time>2026-04-20T15:08:54Z</time></trkpt><trkpt lat="45.67954883164392" lon="9.442248498048238"><ele>260.0</ele><time>2026-04-20T15:08:55Z</time></trkpt><trkpt lat="45.67961568063691" lon="9.442437136962065"><ele>262.0</ele><time>2026-04-20T15:08:56Z</time></trkpt><trkpt lat="45.67969736838688" lon="9.442669443440085"><ele>264.0</ele><time>2026-04-20T15:08:57Z</time></trkpt><trkpt lat="45.67977159301972" lon="9.442899834911476"><ele>265.25</ele><time>2026-04-20T15:08:58Z</time></trkpt><trkpt lat="45.67986212050474" lon="9.443114513550698"><ele>266.5</ele><time>2026-04-20T15:08:59Z</time></trkpt><trkpt lat="45.67990680828419" lon="9.443270120314084"><ele>267.75</ele><time>2026-04-20T15:09:00Z</time></trkpt><trkpt lat="45.67997637853601" lon="9.44341069732358"><ele>269.0</ele><time>2026-04-20T15:09:01Z</time></trkpt><trkpt lat="45.67999065865446" lon="9.443510623993536"><ele>269.0</ele><time>2026-04-20T15:09:02Z</time></trkpt><trkpt lat="45.68001780280288" lon="9.44363907458281"><ele>269.0</ele><time>2026-04-20T15:09:03Z</time></trkpt><trkpt lat="45.68006209155539" lon="9.443772384453187"><ele>269.0</ele><time>2026-04-20T15:09:04Z</time></trkpt><trkpt lat="45.680021418843964" lon="9.443953645845925"><ele>269.0</ele><time>2026-04-20T15:09:05Z</time></trkpt><trkpt lat="45.680026017961204" lon="9.44409266683839"><ele>269.0</ele><time>2026-04-20T15:09:06Z</time></trkpt><trkpt lat="45.68003488571392" lon="9.444190364286912"><ele>269.2</ele><time>2026-04-20T15:09:07Z</time></trkpt><trkpt lat="45.680041727606024" lon="9.444280442304317"><ele>269.4</ele><time>2026-04-20T15:09:08Z</time></trkpt><trkpt lat="45.68002138580929" lon="9.444366623990117"><ele>269.6</ele><time>2026-04-20T15:09:15Z</time></trkpt><trkpt lat="45.68016762474866" lon="9.444392672879491"><ele>269.8</ele><time>2026-04-20T15:09:17Z</time></trkpt><trkpt lat="45.68026363589386" lon="9.444395257085265"><ele>270.0</ele><time>2026-04-20T15:09:19Z</time></trkpt><trkpt lat="45.680346055574084" lon="9.444380576141434"><ele>270.75</ele><time>2026-04-20T15:09:20Z</time></trkpt><trkpt lat="45.68048940313279" lon="9.444399829563329"><ele>271.5</ele><time>2026-04-20T15:09:21Z</time></trkpt><trkpt lat="45.680592955703126" lon="9.444431656196603"><ele>272.25</ele><time>2026-04-20T15:09:22Z</time></trkpt><trkpt lat="45.68066717112084" lon="9.444429262626777"><ele>273.0</ele><time>2026-04-20T15:09:23Z</time></trkpt><trkpt lat="45.68081193854923" lon="9.444485357646267"><ele>273.0</ele><time>2026-04-20T15:09:25Z</time></trkpt><trkpt lat="45.68087833598765" lon="9.444487134629895"><ele>273.0</ele><time>2026-04-20T15:09:26Z</time></trkpt><trkpt lat="45.68097445401303" lon="9.444523304491664"><ele>273.0</ele><time>2026-04-20T15:09:27Z</time></trkpt><trkpt lat="45.68105405946485" lon="9.4445208495337"><ele>273.0</ele><time>2026-04-20T15:09:28Z</time></trkpt><trkpt lat="45.68112961080829" lon="9.444528878170557"><ele>273.0</ele><time>2026-04-20T15:09:29Z</time></trkpt><trkpt lat="45.68121294754436" lon="9.444546741654012"><ele>273.0</ele><time>2026-04-20T15:09:31Z</time></trkpt><trkpt lat="45.68129453235229" lon="9.444555761414573"><ele>272.8</ele><time>2026-04-20T15:09:33Z</time></trkpt><trkpt lat="45.68137426725981" lon="9.444603120913719"><ele>272.6</ele><time>2026-04-20T15:09:35Z</time></trkpt><trkpt lat="45.68150579389069" lon="9.444613843309213"><ele>272.4</ele><time>2026-04-20T15:09:36Z</time></trkpt><trkpt lat="45.68161078228209" lon="9.444626366030777"><ele>272.2</ele><time>2026-04-20T15:09:38Z</time></trkpt><trkpt lat="45.68167928348142" lon="9.4446879465785"><ele>272.0</ele><time>2026-04-20T15:09:41Z</time></trkpt><trkpt lat="45.68181189834744" lon="9.44470942476621"><ele>272.0</ele><time>2026-04-20T15:09:43Z</time></trkpt><trkpt lat="45.68187850523225" lon="9.444726930553554"><ele>272.0</ele><time>2026-04-20T15:09:44Z</time></trkpt><trkpt lat="45.68195423219662" lon="9.444743226547944"><ele>272.0</ele><time>2026-04-20T15:09:45Z</time></trkpt><trkpt lat="45.68201263671417" lon="9.444945731397645"><ele>272.0</ele><time>2026-04-20T15:09:47Z</time></trkpt><trkpt lat="45.682000000027244" lon="9.445117921318769"><ele>272.0</ele><time>2026-04-20T15:09:49Z</time></trkpt><trkpt lat="45.681984815065285" lon="9.445259128736412"><ele>272.0</ele><time>2026-04-20T15:09:50Z</time></trkpt><trkpt lat="45.68195307765525" lon="9.445426460129772"><ele>272.0</ele><time>2026-04-20T15:09:51Z</time></trkpt><trkpt lat="45.68190141312762" lon="9.445622632163396"><ele>272.0</ele><time>2026-04-20T15:09:52Z</time></trkpt><trkpt lat="45.68184290153554" lon="9.445814061273953"><ele>272.0</ele><time>2026-04-20T15:09:53Z</time></trkpt><trkpt lat="45.68179698158912" lon="9.445929766148122"><ele>271.0</ele><time>2026-04-20T15:09:54Z</time></trkpt><trkpt lat="45.68176836841887" lon="9.446052654581337"><ele>270.0</ele><time>2026-04-20T15:09:55Z</time></trkpt><trkpt lat="45.68172176945814" lon="9.446172071599896"><ele>269.0</ele><time>2026-04-20T15:09:56Z</time></trkpt><trkpt lat="45.68170115927441" lon="9.446343353008217"><ele>268.0</ele><time>2026-04-20T15:09:57Z</time></trkpt><trkpt lat="45.681666965707386" lon="9.446476090587204"><ele>267.0</ele><time>2026-04-20T15:09:58Z</time></trkpt><trkpt lat="45.68162456224123" lon="9.446592274514325"><ele>266.4</ele><time>2026-04-20T15:10:00Z</time></trkpt><trkpt lat="45.68155894149507" lon="9.446642941391477"><ele>265.79999999999995</ele><time>2026-04-20T15:10:01Z</time></trkpt><trkpt lat="45.68150222484116" lon="9.446771205749384"><ele>265.2</ele><time>2026-04-20T15:10:03Z</time></trkpt><trkpt lat="45.6815681172129" lon="9.446909486518244"><ele>264.59999999999997</ele><time>2026-04-20T15:10:04Z</time></trkpt><trkpt lat="45.681585938255964" lon="9.447080862028457"><ele>264.0</ele><time>2026-04-20T15:10:05Z</time></trkpt><trkpt lat="45.68160605233066" lon="9.447254853409847"><ele>263.3333333333333</ele><time>2026-04-20T15:10:06Z</time></trkpt><trkpt lat="45.681615671397616" lon="9.44748158691528"><ele>262.66666666666663</ele><time>2026-04-20T15:10:07Z</time></trkpt><trkpt lat="45.68167189943551" lon="9.44770180224754"><ele>262.0</ele><time>2026-04-20T15:10:08Z</time></trkpt><trkpt lat="45.6817101690722" lon="9.447879970543104"><ele>262.25</ele><time>2026-04-20T15:10:09Z</time></trkpt><trkpt lat="45.681731432832194" lon="9.448086085398321"><ele>262.5</ele><time>2026-04-20T15:10:10Z</time></trkpt><trkpt lat="45.681773037418516" lon="9.448318738881428"><ele>262.75</ele><time>2026-04-20T15:10:11Z</time></trkpt><trkpt lat="45.681799538047414" lon="9.448496236306106"><ele>263.0</ele><time>2026-04-20T15:10:12Z</time></trkpt><trkpt lat="45.68182486461592" lon="9.448670707833777"><ele>263.25</ele><time>2026-04-20T15:10:13Z</time></trkpt><trkpt lat="45.6818577704132" lon="9.448874713972192"><ele>263.5</ele><time>2026-04-20T15:10:14Z</time></trkpt><trkpt lat="45.681886700677005" lon="9.449039613865382"><ele>263.75</ele><time>2026-04-20T15:10:15Z</time></trkpt><trkpt lat="45.681910724411125" lon="9.449180623658096"><ele>264.0</ele><time>2026-04-20T15:10:16Z</time></trkpt><trkpt lat="45.68192439891142" lon="9.449315934125474"><ele>264.25</ele><time>2026-04-20T15:10:17Z</time></trkpt><trkpt lat="45.68194776108195" lon="9.449482363697985"><ele>264.5</ele><time>2026-04-20T15:10:18Z</time></trkpt><trkpt lat="45.68198360946475" lon="9.449659510263771"><ele>264.75</ele><time>2026-04-20T15:10:19Z</time></trkpt><trkpt lat="45.68200399295345" lon="9.449818583466621"><ele>265.0</ele><time>2026-04-20T15:10:20Z</time></trkpt><trkpt lat="45.68202464408293" lon="9.449966534757817"><ele>263.6</ele><time>2026-04-20T15:10:21Z</time></trkpt><trkpt lat="45.6820484277485" lon="9.450094012166272"><ele>262.2</ele><time>2026-04-20T15:10:22Z</time></trkpt><trkpt lat="45.68207019743539" lon="9.450178752376518"><ele>260.8</ele><time>2026-04-20T15:10:23Z</time></trkpt><trkpt lat="45.68201295283569" lon="9.450347073231324"><ele>259.4</ele><time>2026-04-20T15:10:26Z</time></trkpt><trkpt lat="45.68196758299842" lon="9.450473213145877"><ele>258.0</ele><time>2026-04-20T15:10:27Z</time></trkpt><trkpt lat="45.681908374087406" lon="9.450618378716173"><ele>258.0</ele><time>2026-04-20T15:10:28Z</time></trkpt><trkpt lat="45.681807759630544" lon="9.450796603043734"><ele>258.0</ele><time>2026-04-20T15:10:29Z</time></trkpt><trkpt lat="45.68172931031756" lon="9.450918242567855"><ele>258.0</ele><time>2026-04-20T15:10:30Z</time></trkpt><trkpt lat="45.6816583632499" lon="9.451014026317202"><ele>258.0</ele><time>2026-04-20T15:10:31Z</time></trkpt><trkpt lat="45.68162315052291" lon="9.45110740172041"><ele>258.0</ele><time>2026-04-20T15:10:32Z</time></trkpt><trkpt lat="45.68157927674542" lon="9.451248041236665"><ele>255.5</ele><time>2026-04-20T15:10:34Z</time></trkpt><trkpt lat="45.681654018702496" lon="9.451460169626237"><ele>253.0</ele><time>2026-04-20T15:10:36Z</time></trkpt><trkpt lat="45.681743885931894" lon="9.451571391542846"><ele>250.5</ele><time>2026-04-20T15:10:37Z</time></trkpt><trkpt lat="45.681860247717516" lon="9.451705293266327"><ele>248.0</ele><time>2026-04-20T15:10:38Z</time></trkpt><trkpt lat="45.6819587555426" lon="9.451847714881882"><ele>232.75</ele><time>2026-04-20T15:10:39Z</time></trkpt><trkpt lat="45.682061190458334" lon="9.45199983315334"><ele>217.5</ele><time>2026-04-20T15:10:40Z</time></trkpt><trkpt lat="45.68215533715694" lon="9.452137697216035"><ele>202.25</ele><time>2026-04-20T15:10:41Z</time></trkpt><trkpt lat="45.682254591188865" lon="9.452267590431568"><ele>187.0</ele><time>2026-04-20T15:10:42Z</time></trkpt><trkpt lat="45.68234172511856" lon="9.452395533655793"><ele>187.0</ele><time>2026-04-20T15:10:43Z</time></trkpt><trkpt lat="45.682421113804274" lon="9.452506380880205"><ele>187.0</ele><time>2026-04-20T15:10:44Z</time></trkpt><trkpt lat="45.682503875410816" lon="9.452609322034013"><ele>187.0</ele><time>2026-04-20T15:10:45Z</time></trkpt><trkpt lat="45.68258409266709" lon="9.452727589908479"><ele>187.0</ele><time>2026-04-20T15:10:46Z</time></trkpt><trkpt lat="45.682665608190646" lon="9.452844974017943"><ele>187.0</ele><time>2026-04-20T15:10:47Z</time></trkpt><trkpt lat="45.682744582312566" lon="9.45295333181939"><ele>187.0</ele><time>2026-04-20T15:10:48Z</time></trkpt><trkpt lat="45.682821663887424" lon="9.453047638959488"><ele>187.0</ele><time>2026-04-20T15:10:49Z</time></trkpt><trkpt lat="45.68289381445492" lon="9.453141493561377"><ele>187.0</ele><time>2026-04-20T15:10:50Z</time></trkpt><trkpt lat="45.682961241877344" lon="9.453238356121462"><ele>187.0</ele><time>2026-04-20T15:10:51Z</time></trkpt><trkpt lat="45.68303464078321" lon="9.453339000583167"><ele>196.5</ele><time>2026-04-20T15:10:52Z</time></trkpt><trkpt lat="45.68309154958347" lon="9.453415797717993"><ele>206.0</ele><time>2026-04-20T15:10:53Z</time></trkpt><trkpt lat="45.683149293479914" lon="9.453500745228544"><ele>215.5</ele><time>2026-04-20T15:10:54Z</time></trkpt><trkpt lat="45.683223017769066" lon="9.453598330310747"><ele>225.0</ele><time>2026-04-20T15:10:55Z</time></trkpt><trkpt lat="45.6832789943688" lon="9.453699819210392"><ele>234.49999999999997</ele><time>2026-04-20T15:10:56Z</time></trkpt><trkpt lat="45.68333888845866" lon="9.453789469269749"><ele>244.0</ele><time>2026-04-20T15:10:57Z</time></trkpt><trkpt lat="45.683394372596" lon="9.453862177959289"><ele>245.79999999999998</ele><time>2026-04-20T15:10:58Z</time></trkpt><trkpt lat="45.68346190109015" lon="9.453946396372343"><ele>247.59999999999997</ele><time>2026-04-20T15:10:59Z</time></trkpt><trkpt lat="45.683527147003645" lon="9.45406600724402"><ele>249.4</ele><time>2026-04-20T15:11:00Z</time></trkpt><trkpt lat="45.6836249288559" lon="9.4539693848149"><ele>251.2</ele><time>2026-04-20T15:11:01Z</time></trkpt><trkpt lat="45.683694953625405" lon="9.453977149150385"><ele>253.0</ele><time>2026-04-20T15:11:02Z</time></trkpt><trkpt lat="45.68382406771082" lon="9.454006195573587"><ele>254.75</ele><time>2026-04-20T15:11:03Z</time></trkpt><trkpt lat="45.683950007982716" lon="9.454085240237623"><ele>256.5</ele><time>2026-04-20T15:11:04Z</time></trkpt><trkpt lat="45.684060800509215" lon="9.454160859180025"><ele>258.25</ele><time>2026-04-20T15:11:05Z</time></trkpt><trkpt lat="45.68414805419303" lon="9.454242828151683"><ele>260.0</ele><time>2026-04-20T15:11:06Z</time></trkpt><trkpt lat="45.68421157587578" lon="9.454390158672949"><ele>260.0</ele><time>2026-04-20T15:11:07Z</time></trkpt><trkpt lat="45.68426634124552" lon="9.454524276703308"><ele>260.0</ele><time>2026-04-20T15:11:08Z</time></trkpt><trkpt lat="45.684278636626345" lon="9.454696281212435"><ele>260.0</ele><time>2026-04-20T15:11:09Z</time></trkpt><trkpt lat="45.684306003445045" lon="9.454846143318033"><ele>260.0</ele><time>2026-04-20T15:11:10Z</time></trkpt><trkpt lat="45.684323861067845" lon="9.454968028740122"><ele>260.0</ele><time>2026-04-20T15:11:11Z</time></trkpt><trkpt lat="45.68434456321971" lon="9.455071003145179"><ele>260.33333333333337</ele><time>2026-04-20T15:11:12Z</time></trkpt><trkpt lat="45.68436169184249" lon="9.455168393230515"><ele>260.6666666666667</ele><time>2026-04-20T15:11:13Z</time></trkpt><trkpt lat="45.6843808328901" lon="9.455267838390663"><ele>261.0</ele><time>2026-04-20T15:11:14Z</time></trkpt><trkpt lat="45.68440267008183" lon="9.455366460869916"><ele>261.3333333333333</ele><time>2026-04-20T15:11:15Z</time></trkpt><trkpt lat="45.68441889532742" lon="9.455465857976437"><ele>261.66666666666663</ele><time>2026-04-20T15:11:16Z</time></trkpt><trkpt lat="45.68444883886724" lon="9.45566408686222"><ele>262.0</ele><time>2026-04-20T15:11:18Z</time></trkpt><trkpt lat="45.68447063756356" lon="9.455769687339243"><ele>262.6</ele><time>2026-04-20T15:11:19Z</time></trkpt><trkpt lat="45.6844774834776" lon="9.455861213925758"><ele>263.2</ele><time>2026-04-20T15:11:20Z</time></trkpt><trkpt lat="45.684506625982294" lon="9.455996848534678"><ele>263.8</ele><time>2026-04-20T15:11:21Z</time></trkpt><trkpt lat="45.6845334510588" lon="9.45613380871878"><ele>264.4</ele><time>2026-04-20T15:11:22Z</time></trkpt><trkpt lat="45.68455902414772" lon="9.456268634936425"><ele>265.0</ele><time>2026-04-20T15:11:23Z</time></trkpt><trkpt lat="45.68458549288611" lon="9.456414755665714"><ele>265.0</ele><time>2026-04-20T15:11:24Z</time></trkpt><trkpt lat="45.68460355843346" lon="9.45655444692171"><ele>265.0</ele><time>2026-04-20T15:11:25Z</time></trkpt><trkpt lat="45.684624482815934" lon="9.45668582201848"><ele>265.0</ele><time>2026-04-20T15:11:26Z</time></trkpt><trkpt lat="45.684646011063386" lon="9.456808472298615"><ele>265.0</ele><time>2026-04-20T15:11:27Z</time></trkpt><trkpt lat="45.68467591462081" lon="9.456937788787036"><ele>265.0</ele><time>2026-04-20T15:11:28Z</time></trkpt><trkpt lat="45.6847085349787" lon="9.45707034248552"><ele>264.75</ele><time>2026-04-20T15:11:29Z</time></trkpt><trkpt lat="45.68473901970337" lon="9.457235800117912"><ele>264.5</ele><time>2026-04-20T15:11:30Z</time></trkpt><trkpt lat="45.68477402518058" lon="9.457391221917067"><ele>264.25</ele><time>2026-04-20T15:11:31Z</time></trkpt><trkpt lat="45.68480665262615" lon="9.457590713148878"><ele>264.0</ele><time>2026-04-20T15:11:32Z</time></trkpt><trkpt lat="45.684821363466284" lon="9.457703324636183"><ele>264.0</ele><time>2026-04-20T15:11:33Z</time></trkpt><trkpt lat="45.68483439336608" lon="9.457857379651056"><ele>264.0</ele><time>2026-04-20T15:11:35Z</time></trkpt><trkpt lat="45.68486295048798" lon="9.457963175759653"><ele>264.0</ele><time>2026-04-20T15:11:36Z</time></trkpt><trkpt lat="45.68488171140691" lon="9.458084728757845"><ele>264.0</ele><time>2026-04-20T15:11:37Z</time></trkpt><trkpt lat="45.684911699063925" lon="9.45821151348669"><ele>264.0</ele><time>2026-04-20T15:11:38Z</time></trkpt><trkpt lat="45.68493951578576" lon="9.458336927212141"><ele>264.1666666666667</ele><time>2026-04-20T15:11:39Z</time></trkpt><trkpt lat="45.68496525501507" lon="9.458448195997"><ele>264.3333333333333</ele><time>2026-04-20T15:11:40Z</time></trkpt><trkpt lat="45.68498598945666" lon="9.45856893532943"><ele>264.5</ele><time>2026-04-20T15:11:41Z</time></trkpt><trkpt lat="45.68500884349849" lon="9.458702254961032"><ele>264.66666666666663</ele><time>2026-04-20T15:11:42Z</time></trkpt><trkpt lat="45.68503055198169" lon="9.458834563440469"><ele>264.8333333333333</ele><time>2026-04-20T15:11:43Z</time></trkpt><trkpt lat="45.68505360689287" lon="9.458945009195274"><ele>265.0</ele><time>2026-04-20T15:11:44Z</time></trkpt><trkpt lat="45.68523054112966" lon="9.458952744631745"><ele>265.5</ele><time>2026-04-20T15:11:48Z</time></trkpt><trkpt lat="45.685296984321006" lon="9.458926709864038"><ele>266.0</ele><time>2026-04-20T15:11:49Z</time></trkpt><trkpt lat="45.68541960811295" lon="9.458806299094036"><ele>266.5</ele><time>2026-04-20T15:11:50Z</time></trkpt><trkpt lat="45.68553584592025" lon="9.458746977857968"><ele>267.0</ele><time>2026-04-20T15:11:51Z</time></trkpt><trkpt lat="45.6856526887779" lon="9.458684294477528"><ele>267.0</ele><time>2026-04-20T15:11:52Z</time></trkpt><trkpt lat="45.68576336244933" lon="9.458605161100982"><ele>267.0</ele><time>2026-04-20T15:11:53Z</time></trkpt><trkpt lat="45.68586357862147" lon="9.45854711216092"><ele>267.0</ele><time>2026-04-20T15:11:54Z</time></trkpt><trkpt lat="45.68595545266492" lon="9.458497943500674"><ele>267.0</ele><time>2026-04-20T15:11:55Z</time></trkpt><trkpt lat="45.68606569288647" lon="9.45844056405218"><ele>267.0</ele><time>2026-04-20T15:11:56Z</time></trkpt><trkpt lat="45.686190272799976" lon="9.458380937134757"><ele>266.8</ele><time>2026-04-20T15:11:57Z</time></trkpt><trkpt lat="45.68630630328533" lon="9.45834663989591"><ele>266.6</ele><time>2026-04-20T15:11:58Z</time></trkpt><trkpt lat="45.686400417297094" lon="9.458314586538313"><ele>266.40000000000003</ele><time>2026-04-20T15:11:59Z</time></trkpt><trkpt lat="45.68648268830586" lon="9.458272275648802"><ele>266.2</ele><time>2026-04-20T15:12:00Z</time></trkpt><trkpt lat="45.68657530653501" lon="9.45823859215854"><ele>266.0</ele><time>2026-04-20T15:12:01Z</time></trkpt><trkpt lat="45.686658187144076" lon="9.458220281690348"><ele>266.0</ele><time>2026-04-20T15:12:02Z</time></trkpt><trkpt lat="45.686755722680985" lon="9.458190129413213"><ele>266.0</ele><time>2026-04-20T15:12:03Z</time></trkpt><trkpt lat="45.68685515940347" lon="9.458171994089849"><ele>266.0</ele><time>2026-04-20T15:12:04Z</time></trkpt><trkpt lat="45.68695566764775" lon="9.458148078657032"><ele>266.0</ele><time>2026-04-20T15:12:05Z</time></trkpt><trkpt lat="45.68704173831318" lon="9.45812008047271"><ele>266.0</ele><time>2026-04-20T15:12:06Z</time></trkpt><trkpt lat="45.68712723699007" lon="9.458060981908536"><ele>266.40000000000003</ele><time>2026-04-20T15:12:07Z</time></trkpt><trkpt lat="45.68720268368896" lon="9.457983016466688"><ele>266.8</ele><time>2026-04-20T15:12:08Z</time></trkpt><trkpt lat="45.687270364508684" lon="9.457905114528224"><ele>267.20000000000005</ele><time>2026-04-20T15:12:18Z</time></trkpt><trkpt lat="45.68737826267652" lon="9.457812652004367"><ele>267.6</ele><time>2026-04-20T15:12:20Z</time></trkpt><trkpt lat="45.68745293915108" lon="9.457763307568934"><ele>268.0</ele><time>2026-04-20T15:12:21Z</time></trkpt><trkpt lat="45.68753738958393" lon="9.45771424276592"><ele>268.2</ele><time>2026-04-20T15:12:22Z</time></trkpt><trkpt lat="45.687626331443084" lon="9.45768656201812"><ele>268.4</ele><time>2026-04-20T15:12:23Z</time></trkpt><trkpt lat="45.68771867350633" lon="9.45764251119501"><ele>268.59999999999997</ele><time>2026-04-20T15:12:24Z</time></trkpt><trkpt lat="45.68780044409952" lon="9.457599416625277"><ele>268.8</ele><time>2026-04-20T15:12:25Z</time></trkpt><trkpt lat="45.68790133901854" lon="9.457537853286995"><ele>269.0</ele><time>2026-04-20T15:12:26Z</time></trkpt><trkpt lat="45.68799628574623" lon="9.4574765044598"><ele>269.0</ele><time>2026-04-20T15:12:27Z</time></trkpt><trkpt lat="45.6880889603402" lon="9.457427725376613"><ele>269.0</ele><time>2026-04-20T15:12:28Z</time></trkpt><trkpt lat="45.68818349646829" lon="9.457394334132806"><ele>269.0</ele><time>2026-04-20T15:12:29Z</time></trkpt><trkpt lat="45.68828548273744" lon="9.457366185214415"><ele>269.0</ele><time>2026-04-20T15:12:30Z</time></trkpt><trkpt lat="45.68839382996502" lon="9.457342290236946"><ele>269.0</ele><time>2026-04-20T15:12:31Z</time></trkpt><trkpt lat="45.68849692037009" lon="9.457325150948286"><ele>269.59999999999997</ele><time>2026-04-20T15:12:32Z</time></trkpt><trkpt lat="45.688597501304265" lon="9.457313538626218"><ele>270.2</ele><time>2026-04-20T15:12:33Z</time></trkpt><trkpt lat="45.6887036182532" lon="9.457330626792002"><ele>270.79999999999995</ele><time>2026-04-20T15:12:34Z</time></trkpt><trkpt lat="45.688823050051305" lon="9.457367298252267"><ele>271.4</ele><time>2026-04-20T15:12:35Z</time></trkpt><trkpt lat="45.688926430102065" lon="9.457410584995571"><ele>272.0</ele><time>2026-04-20T15:12:36Z</time></trkpt><trkpt lat="45.6890198838137" lon="9.457443822229873"><ele>272.0</ele><time>2026-04-20T15:12:37Z</time></trkpt><trkpt lat="45.68911998986704" lon="9.457460497384258"><ele>272.0</ele><time>2026-04-20T15:12:38Z</time></trkpt><trkpt lat="45.68923239034228" lon="9.457474885098707"><ele>272.0</ele><time>2026-04-20T15:12:39Z</time></trkpt><trkpt lat="45.68934178053788" lon="9.457490164055839"><ele>272.0</ele><time>2026-04-20T15:12:40Z</time></trkpt><trkpt lat="45.68944866618381" lon="9.457502454806749"><ele>272.0</ele><time>2026-04-20T15:12:41Z</time></trkpt><trkpt lat="45.689538902192595" lon="9.457525732158077"><ele>272.25</ele><time>2026-04-20T15:12:42Z</time></trkpt><trkpt lat="45.68962804903217" lon="9.457562109013203"><ele>272.5</ele><time>2026-04-20T15:12:43Z</time></trkpt><trkpt lat="45.68974338529697" lon="9.457642644341503"><ele>272.75</ele><time>2026-04-20T15:12:44Z</time></trkpt><trkpt lat="45.68988085303103" lon="9.457691571005395"><ele>273.0</ele><time>2026-04-20T15:12:45Z</time></trkpt><trkpt lat="45.69005830986404" lon="9.457736147493009"><ele>273.0</ele><time>2026-04-20T15:12:46Z</time></trkpt><trkpt lat="45.690218610994066" lon="9.45775102428828"><ele>273.0</ele><time>2026-04-20T15:12:47Z</time></trkpt><trkpt lat="45.69035706396844" lon="9.457816064217688"><ele>273.0</ele><time>2026-04-20T15:12:48Z</time></trkpt><trkpt lat="45.69047087119665" lon="9.457842279633333"><ele>273.0</ele><time>2026-04-20T15:12:49Z</time></trkpt><trkpt lat="45.690571165677724" lon="9.457852246987956"><ele>273.0</ele><time>2026-04-20T15:12:50Z</time></trkpt><trkpt lat="45.69067094383028" lon="9.457863698178757"><ele>273.0</ele><time>2026-04-20T15:12:51Z</time></trkpt><trkpt lat="45.69076707578935" lon="9.457891044941743"><ele>273.0</ele><time>2026-04-20T15:12:52Z</time></trkpt><trkpt lat="45.69088803915264" lon="9.457941651552028"><ele>273.0</ele><time>2026-04-20T15:12:53Z</time></trkpt><trkpt lat="45.691016285071896" lon="9.458008916140148"><ele>273.3333333333333</ele><time>2026-04-20T15:12:54Z</time></trkpt><trkpt lat="45.6911767003904" lon="9.45810090055149"><ele>273.66666666666663</ele><time>2026-04-20T15:12:55Z</time></trkpt><trkpt lat="45.69132515377904" lon="9.458201341022919"><ele>274.0</ele><time>2026-04-20T15:12:56Z</time></trkpt><trkpt lat="45.691453666824636" lon="9.458287578084038"><ele>274.0</ele><time>2026-04-20T15:12:57Z</time></trkpt><trkpt lat="45.69158360689382" lon="9.458369806148928"><ele>274.0</ele><time>2026-04-20T15:12:58Z</time></trkpt><trkpt lat="45.691710622918755" lon="9.458424952617758"><ele>274.0</ele><time>2026-04-20T15:12:59Z</time></trkpt><trkpt lat="45.691841462450306" lon="9.458470667733412"><ele>274.0</ele><time>2026-04-20T15:13:00Z</time></trkpt><trkpt lat="45.69196359733425" lon="9.458507834286948"><ele>274.2</ele><time>2026-04-20T15:13:01Z</time></trkpt><trkpt lat="45.692072497702256" lon="9.45855774178893"><ele>274.4</ele><time>2026-04-20T15:13:02Z</time></trkpt><trkpt lat="45.69216325978465" lon="9.458609200577254"><ele>274.6</ele><time>2026-04-20T15:13:03Z</time></trkpt><trkpt lat="45.69224290132329" lon="9.4586350008457"><ele>274.8</ele><time>2026-04-20T15:13:04Z</time></trkpt><trkpt lat="45.692314679843236" lon="9.45866350044074"><ele>275.0</ele><time>2026-04-20T15:13:05Z</time></trkpt><trkpt lat="45.692402859907844" lon="9.458686814017446"><ele>275.25</ele><time>2026-04-20T15:13:07Z</time></trkpt><trkpt lat="45.69245599610727" lon="9.458816375605569"><ele>275.5</ele><time>2026-04-20T15:13:09Z</time></trkpt><trkpt lat="45.69245520588999" lon="9.458924277507197"><ele>275.75</ele><time>2026-04-20T15:13:10Z</time></trkpt><trkpt lat="45.69248649443844" lon="9.459097789029473"><ele>276.0</ele><time>2026-04-20T15:13:11Z</time></trkpt><trkpt lat="45.692521260713555" lon="9.459318914410163"><ele>276.0</ele><time>2026-04-20T15:13:12Z</time></trkpt><trkpt lat="45.692550520854226" lon="9.459539976587239"><ele>276.0</ele><time>2026-04-20T15:13:13Z</time></trkpt><trkpt lat="45.69257602000312" lon="9.459729652426855"><ele>276.0</ele><time>2026-04-20T15:13:14Z</time></trkpt><trkpt lat="45.69260641759852" lon="9.459890874756717"><ele>276.0</ele><time>2026-04-20T15:13:15Z</time></trkpt><trkpt lat="45.69264150446268" lon="9.460044621718936"><ele>276.0</ele><time>2026-04-20T15:13:16Z</time></trkpt><trkpt lat="45.69266927995011" lon="9.460184839497266"><ele>276.0</ele><time>2026-04-20T15:13:17Z</time></trkpt><trkpt lat="45.6926907632025" lon="9.46029910680126"><ele>276.0</ele><time>2026-04-20T15:13:18Z</time></trkpt><trkpt lat="45.69271106266146" lon="9.460408577358612"><ele>276.0</ele><time>2026-04-20T15:13:20Z</time></trkpt><trkpt lat="45.69282773701813" lon="9.460420083629524"><ele>276.0</ele><time>2026-04-20T15:13:22Z</time></trkpt><trkpt lat="45.69292102100892" lon="9.460373382479993"><ele>275.8333333333333</ele><time>2026-04-20T15:13:23Z</time></trkpt><trkpt lat="45.693012857494445" lon="9.460345180420166"><ele>275.6666666666667</ele><time>2026-04-20T15:13:24Z</time></trkpt><trkpt lat="45.693105471825426" lon="9.460338528881095"><ele>275.5</ele><time>2026-04-20T15:13:25Z</time></trkpt><trkpt lat="45.69318696783965" lon="9.460314681114651"><ele>275.33333333333337</ele><time>2026-04-20T15:13:26Z</time></trkpt><trkpt lat="45.69326399037973" lon="9.460267768664918"><ele>275.1666666666667</ele><time>2026-04-20T15:13:27Z</time></trkpt><trkpt lat="45.69335199007786" lon="9.460226582732586"><ele>275.0</ele><time>2026-04-20T15:13:28Z</time></trkpt><trkpt lat="45.69342416092693" lon="9.460167745717332"><ele>275.0</ele><time>2026-04-20T15:13:29Z</time></trkpt><trkpt lat="45.693483054390505" lon="9.460080357834315"><ele>275.0</ele><time>2026-04-20T15:13:30Z</time></trkpt><trkpt lat="45.69352972250914" lon="9.45999595494673"><ele>275.0</ele><time>2026-04-20T15:13:31Z</time></trkpt><trkpt lat="45.6935727720275" lon="9.459909019237323"><ele>275.0</ele><time>2026-04-20T15:13:32Z</time></trkpt><trkpt lat="45.69360919328702" lon="9.459823994166472"><ele>275.0</ele><time>2026-04-20T15:13:33Z</time></trkpt><trkpt lat="45.693714613016525" lon="9.459735296647878"><ele>275.0</ele><time>2026-04-20T15:13:35Z</time></trkpt><trkpt lat="45.69376629995371" lon="9.459683144663746"><ele>274.7142857142857</ele><time>2026-04-20T15:13:36Z</time></trkpt><trkpt lat="45.69383031209029" lon="9.45967869655271"><ele>274.42857142857144</ele><time>2026-04-20T15:13:37Z</time></trkpt><trkpt lat="45.693902167402406" lon="9.459648465472586"><ele>274.1428571428571</ele><time>2026-04-20T15:13:38Z</time></trkpt><trkpt lat="45.693975239375305" lon="9.459612460930412"><ele>273.8571428571429</ele><time>2026-04-20T15:13:39Z</time></trkpt><trkpt lat="45.69404980719798" lon="9.459582759183977"><ele>273.57142857142856</ele><time>2026-04-20T15:13:40Z</time></trkpt><trkpt lat="45.69411505583196" lon="9.459548384985313"><ele>273.2857142857143</ele><time>2026-04-20T15:13:41Z</time></trkpt><trkpt lat="45.6941770364987" lon="9.459478588553848"><ele>273.0</ele><time>2026-04-20T15:13:42Z</time></trkpt><trkpt lat="45.69424449825511" lon="9.459431925159032"><ele>273.0</ele><time>2026-04-20T15:13:43Z</time></trkpt><trkpt lat="45.694320262566045" lon="9.459390474915624"><ele>273.0</ele><time>2026-04-20T15:13:44Z</time></trkpt><trkpt lat="45.694408315256055" lon="9.45935851807442"><ele>273.0</ele><time>2026-04-20T15:13:45Z</time></trkpt><trkpt lat="45.69447015807983" lon="9.45933302011861"><ele>273.0</ele><time>2026-04-20T15:13:46Z</time></trkpt><trkpt lat="45.694551000879095" lon="9.459293989523276"><ele>273.0</ele><time>2026-04-20T15:13:47Z</time></trkpt><trkpt lat="45.69464877744843" lon="9.45924676317429"><ele>273.0</ele><time>2026-04-20T15:13:48Z</time></trkpt><trkpt lat="45.69473877215679" lon="9.459214273710792"><ele>273.0</ele><time>2026-04-20T15:13:50Z</time></trkpt><trkpt lat="45.69489524324982" lon="9.459076905514856"><ele>273.0</ele><time>2026-04-20T15:13:52Z</time></trkpt><trkpt lat="45.69496036146441" lon="9.459022562160614"><ele>273.0</ele><time>2026-04-20T15:13:53Z</time></trkpt><trkpt lat="45.69502666647371" lon="9.458941405117615"><ele>273.0</ele><time>2026-04-20T15:13:55Z</time></trkpt><trkpt lat="45.69511973449809" lon="9.458862467918545"><ele>269.25</ele><time>2026-04-20T15:13:57Z</time></trkpt><trkpt lat="45.69507903151943" lon="9.458628821748261"><ele>265.5</ele><time>2026-04-20T15:13:58Z</time></trkpt><trkpt lat="45.6950685463061" lon="9.458470688019771"><ele>261.75</ele><time>2026-04-20T15:13:59Z</time></trkpt><trkpt lat="45.695075015766605" lon="9.458341023933626"><ele>258.0</ele><time>2026-04-20T15:14:00Z</time></trkpt><trkpt lat="45.69505701914465" lon="9.458206264524636"><ele>258.0</ele><time>2026-04-20T15:14:01Z</time></trkpt><trkpt lat="45.69503973214222" lon="9.458060522238673"><ele>258.0</ele><time>2026-04-20T15:14:02Z</time></trkpt><trkpt lat="45.69503593562757" lon="9.457939989942048"><ele>258.0</ele><time>2026-04-20T15:14:03Z</time></trkpt><trkpt lat="45.69505000182287" lon="9.457832502545743"><ele>258.0</ele><time>2026-04-20T15:14:04Z</time></trkpt><trkpt lat="45.69506441510825" lon="9.45765415266091"><ele>258.0</ele><time>2026-04-20T15:14:06Z</time></trkpt><trkpt lat="45.69509629674264" lon="9.457505065182431"><ele>256.2</ele><time>2026-04-20T15:14:08Z</time></trkpt><trkpt lat="45.69517144877063" lon="9.457435886911874"><ele>254.4</ele><time>2026-04-20T15:14:10Z</time></trkpt><trkpt lat="45.69531393459795" lon="9.457437424408953"><ele>252.59999999999997</ele><time>2026-04-20T15:14:12Z</time></trkpt><trkpt lat="45.69541042684903" lon="9.457444312113891"><ele>250.79999999999998</ele><time>2026-04-20T15:14:13Z</time></trkpt><trkpt lat="45.69549310261048" lon="9.457445551084865"><ele>249.0</ele><time>2026-04-20T15:14:14Z</time></trkpt><trkpt lat="45.695572048492636" lon="9.457426899978458"><ele>248.6</ele><time>2026-04-20T15:14:15Z</time></trkpt><trkpt lat="45.69571935783743" lon="9.45741766453965"><ele>248.2</ele><time>2026-04-20T15:14:17Z</time></trkpt><trkpt lat="45.69581010381138" lon="9.457386570935645"><ele>247.79999999999998</ele><time>2026-04-20T15:14:18Z</time></trkpt><trkpt lat="45.695894917643095" lon="9.457349476787892"><ele>247.39999999999998</ele><time>2026-04-20T15:14:19Z</time></trkpt><trkpt lat="45.69597391598969" lon="9.457350056191062"><ele>247.0</ele><time>2026-04-20T15:14:20Z</time></trkpt><trkpt lat="45.696045264349344" lon="9.45734533552254"><ele>244.66666666666666</ele><time>2026-04-20T15:14:21Z</time></trkpt><trkpt lat="45.69613584499161" lon="9.45734468929529"><ele>242.33333333333331</ele><time>2026-04-20T15:14:22Z</time></trkpt><trkpt lat="45.69621258807013" lon="9.457347017479028"><ele>240.0</ele><time>2026-04-20T15:14:23Z</time></trkpt><trkpt lat="45.696291785133205" lon="9.45735644148504"><ele>237.66666666666669</ele><time>2026-04-20T15:14:24Z</time></trkpt><trkpt lat="45.696378253059876" lon="9.457368518401179"><ele>235.33333333333334</ele><time>2026-04-20T15:14:25Z</time></trkpt><trkpt lat="45.696455368515196" lon="9.45738231844668"><ele>233.0</ele><time>2026-04-20T15:14:26Z</time></trkpt><trkpt lat="45.69658106966789" lon="9.457419852200882"><ele>233.00000000000003</ele><time>2026-04-20T15:14:29Z</time></trkpt><trkpt lat="45.696658598504975" lon="9.457431167774837"><ele>233.0</ele><time>2026-04-20T15:14:31Z</time></trkpt><trkpt lat="45.696734245856945" lon="9.457457690945915"><ele>233.0</ele><time>2026-04-20T15:14:33Z</time></trkpt><trkpt lat="45.696841193908966" lon="9.457507338649076"><ele>233.0</ele><time>2026-04-20T15:14:35Z</time></trkpt><trkpt lat="45.69694699394159" lon="9.457516483814736"><ele>233.00000000000003</ele><time>2026-04-20T15:14:38Z</time></trkpt><trkpt lat="45.69701777898938" lon="9.45751938530243"><ele>233.0</ele><time>2026-04-20T15:14:41Z</time></trkpt><trkpt lat="45.69707273668613" lon="9.457444130424246"><ele>230.8</ele><time>2026-04-20T15:14:46Z</time></trkpt><trkpt lat="45.69709293133805" lon="9.457122674394578"><ele>228.60000000000002</ele><time>2026-04-20T15:14:48Z</time></trkpt><trkpt lat="45.69715873839567" lon="9.457097121609706"><ele>226.39999999999998</ele><time>2026-04-20T15:14:51Z</time></trkpt><trkpt lat="45.697233851939444" lon="9.457141106673683"><ele>224.2</ele><time>2026-04-20T15:14:54Z</time></trkpt><trkpt lat="45.697297192100464" lon="9.457133544269618"><ele>222.0</ele><time>2026-04-20T15:14:56Z</time></trkpt><trkpt lat="45.69739645146873" lon="9.457094211938488"><ele>220.0</ele><time>2026-04-20T15:14:59Z</time></trkpt><trkpt lat="45.69746587054595" lon="9.457081139536653"><ele>218.0</ele><time>2026-04-20T15:15:02Z</time></trkpt><trkpt lat="45.69754415993522" lon="9.457069511396936"><ele>216.0</ele><time>2026-04-20T15:15:04Z</time></trkpt><trkpt lat="45.69762433695096" lon="9.457095376310585"><ele>214.0</ele><time>2026-04-20T15:15:07Z</time></trkpt><trkpt lat="45.697733101878775" lon="9.457090954849155"><ele>212.0</ele><time>2026-04-20T15:15:09Z</time></trkpt><trkpt lat="45.69780491829123" lon="9.457088334016557"><ele>210.0</ele><time>2026-04-20T15:15:12Z</time></trkpt><trkpt lat="45.69786961195832" lon="9.457095330405869"><ele>210.0</ele><time>2026-04-20T15:15:16Z</time></trkpt><trkpt lat="45.69794088999902" lon="9.457096010744477"><ele>210.0</ele><time>2026-04-20T15:15:20Z</time></trkpt><trkpt lat="45.69795840168951" lon="9.457005797193252"><ele>210.0</ele><time>2026-04-20T15:16:02Z</time></trkpt><trkpt lat="45.6979415880078" lon="9.456916992788479"><ele>210.0</ele><time>2026-04-20T15:16:10Z</time></trkpt><trkpt lat="45.69787919368033" lon="9.456857407707652"><ele>210.0</ele><time>2026-04-20T15:16:25Z</time></trkpt><trkpt lat="45.697810168963436" lon="9.456859031996512"><ele>210.0</ele><time>2026-04-20T15:16:31Z</time></trkpt><trkpt lat="45.69774247921618" lon="9.456839656599088"><ele>210.0</ele><time>2026-04-20T15:16:37Z</time></trkpt><trkpt lat="45.69768580037434" lon="9.456769639762895"><ele>209.0</ele><time>2026-04-20T15:16:55Z</time></trkpt></trkseg><trkseg><trkpt lat="45.69783585853382" lon="9.456975668794781"><ele>210.0</ele><time>2026-04-20T15:33:58.691Z</time></trkpt><trkpt lat="45.69794149989776" lon="9.45705249944191"><ele>210.0</ele><time>2026-04-20T15:34:01.001Z</time></trkpt><trkpt lat="45.69795477912582" lon="9.45686705625649"><ele>210.0</ele><time>2026-04-20T15:35:19Z</time></trkpt><trkpt lat="45.69790519338677" lon="9.456948273807988"><ele>210.0</ele><time>2026-04-20T15:35:44Z</time></trkpt><trkpt lat="45.69787938719414" lon="9.45703218607338"><ele>210.0</ele><time>2026-04-20T15:35:46Z</time></trkpt><trkpt lat="45.69777274098034" lon="9.457041198494561"><ele>209.8</ele><time>2026-04-20T15:35:48Z</time></trkpt><trkpt lat="45.69766971455568" lon="9.457046868720564"><ele>209.6</ele><time>2026-04-20T15:35:50Z</time></trkpt><trkpt lat="45.69758825854397" lon="9.457054987260102"><ele>209.39999999999998</ele><time>2026-04-20T15:35:52Z</time></trkpt><trkpt lat="45.697475045262195" lon="9.457038471877915"><ele>209.2</ele><time>2026-04-20T15:35:54Z</time></trkpt><trkpt lat="45.69735997884739" lon="9.457079401709896"><ele>209.0</ele><time>2026-04-20T15:35:56Z</time></trkpt><trkpt lat="45.697280485755826" lon="9.45708833776327"><ele>209.00000000000003</ele><time>2026-04-20T15:35:58Z</time></trkpt><trkpt lat="45.697202586860705" lon="9.457090430336935"><ele>209.0</ele><time>2026-04-20T15:36:00Z</time></trkpt><trkpt lat="45.6971211029811" lon="9.457136178998791"><ele>209.0</ele><time>2026-04-20T15:36:02Z</time></trkpt><trkpt lat="45.69704346407502" lon="9.457151919798267"><ele>209.0</ele><time>2026-04-20T15:36:04.999Z</time></trkpt><trkpt lat="45.6970110795717" lon="9.45723141672241"><ele>209.00000000000003</ele><time>2026-04-20T15:36:07.999Z</time></trkpt><trkpt lat="45.6969753333074" lon="9.457314524074494"><ele>209.0</ele><time>2026-04-20T15:36:09.999Z</time></trkpt><trkpt lat="45.69691449518833" lon="9.45740480156327"><ele>213.00000000000003</ele><time>2026-04-20T15:36:10.999Z</time></trkpt><trkpt lat="45.696865334266924" lon="9.457466244538757"><ele>217.0</ele><time>2026-04-20T15:36:11.999Z</time></trkpt><trkpt lat="45.69679576432873" lon="9.457501247196864"><ele>221.0</ele><time>2026-04-20T15:36:12.999Z</time></trkpt><trkpt lat="45.69667984144648" lon="9.457405922700106"><ele>225.0</ele><time>2026-04-20T15:36:14.999Z</time></trkpt><trkpt lat="45.69660359226172" lon="9.457378823102728"><ele>229.00000000000003</ele><time>2026-04-20T15:36:15.999Z</time></trkpt><trkpt lat="45.69652587665452" lon="9.457351972086956"><ele>233.0</ele><time>2026-04-20T15:36:16.999Z</time></trkpt><trkpt lat="45.696426308138264" lon="9.45735134714923"><ele>233.00000000000003</ele><time>2026-04-20T15:36:17.999Z</time></trkpt><trkpt lat="45.69635086129792" lon="9.457325819661852"><ele>233.0</ele><time>2026-04-20T15:36:18.999Z</time></trkpt><trkpt lat="45.6962815738538" lon="9.457311850209283"><ele>233.0</ele><time>2026-04-20T15:36:19.999Z</time></trkpt><trkpt lat="45.69619279811507" lon="9.457308559814589"><ele>233.0</ele><time>2026-04-20T15:36:20.999Z</time></trkpt><trkpt lat="45.696104800762676" lon="9.457302496538038"><ele>233.00000000000003</ele><time>2026-04-20T15:36:22Z</time></trkpt><trkpt lat="45.69601884045339" lon="9.457297358705476"><ele>233.0</ele><time>2026-04-20T15:36:23Z</time></trkpt><trkpt lat="45.695954741508395" lon="9.457311578890158"><ele>235.33333333333334</ele><time>2026-04-20T15:36:24Z</time></trkpt><trkpt lat="45.69588093834692" lon="9.457331327562196"><ele>237.66666666666669</ele><time>2026-04-20T15:36:26Z</time></trkpt><trkpt lat="45.69579412982719" lon="9.45734421599685"><ele>240.0</ele><time>2026-04-20T15:36:30Z</time></trkpt><trkpt lat="45.69568659496479" lon="9.457349080199242"><ele>242.33333333333331</ele><time>2026-04-20T15:36:32Z</time></trkpt><trkpt lat="45.69561890279596" lon="9.457363105650611"><ele>244.66666666666666</ele><time>2026-04-20T15:36:33Z</time></trkpt><trkpt lat="45.69553857867602" lon="9.45737124644217"><ele>247.0</ele><time>2026-04-20T15:36:34Z</time></trkpt><trkpt lat="45.695464681186394" lon="9.457377757047913"><ele>246.99999999999997</ele><time>2026-04-20T15:36:35Z</time></trkpt><trkpt lat="45.695393515897656" lon="9.457395543453307"><ele>247.0</ele><time>2026-04-20T15:36:36Z</time></trkpt><trkpt lat="45.69526704132888" lon="9.457369442776786"><ele>247.0</ele><time>2026-04-20T15:36:38Z</time></trkpt><trkpt lat="45.69519710766556" lon="9.45737151443767"><ele>247.0</ele><time>2026-04-20T15:36:39Z</time></trkpt><trkpt lat="45.69512211539194" lon="9.457377533348"><ele>246.99999999999997</ele><time>2026-04-20T15:36:40Z</time></trkpt><trkpt lat="45.6950747194894" lon="9.457441653812792"><ele>247.0</ele><time>2026-04-20T15:36:41Z</time></trkpt><trkpt lat="45.6950344236632" lon="9.457521136954343"><ele>247.39999999999998</ele><time>2026-04-20T15:36:42Z</time></trkpt><trkpt lat="45.694999229440505" lon="9.45766213413896"><ele>247.79999999999998</ele><time>2026-04-20T15:36:44Z</time></trkpt><trkpt lat="45.69502561564819" lon="9.457795803569152"><ele>248.2</ele><time>2026-04-20T15:36:45Z</time></trkpt><trkpt lat="45.695019427618284" lon="9.45794052400262"><ele>248.6</ele><time>2026-04-20T15:36:47Z</time></trkpt><trkpt lat="45.69501940919183" lon="9.458086225947266"><ele>249.0</ele><time>2026-04-20T15:36:49Z</time></trkpt><trkpt lat="45.69504100273051" lon="9.458180598654783"><ele>250.5</ele><time>2026-04-20T15:36:50Z</time></trkpt><trkpt lat="45.69504013161901" lon="9.458285394883363"><ele>252.0</ele><time>2026-04-20T15:36:51Z</time></trkpt><trkpt lat="45.695048006872504" lon="9.458385423706295"><ele>253.5</ele><time>2026-04-20T15:36:52Z</time></trkpt><trkpt lat="45.695056318622576" lon="9.458495932271985"><ele>255.0</ele><time>2026-04-20T15:36:53Z</time></trkpt><trkpt lat="45.69504497487717" lon="9.458607383532842"><ele>256.5</ele><time>2026-04-20T15:36:54Z</time></trkpt><trkpt lat="45.69504915142241" lon="9.458732335748161"><ele>258.0</ele><time>2026-04-20T15:36:56Z</time></trkpt><trkpt lat="45.695210392169116" lon="9.458788896521604"><ele>258.6666666666667</ele><time>2026-04-20T15:36:59Z</time></trkpt><trkpt lat="45.695286746039194" lon="9.458718587789601"><ele>259.3333333333333</ele><time>2026-04-20T15:37:01Z</time></trkpt><trkpt lat="45.69534493491915" lon="9.458655134592103"><ele>260.0</ele><time>2026-04-20T15:37:02Z</time></trkpt><trkpt lat="45.695406928463385" lon="9.458608372914165"><ele>260.66666666666663</ele><time>2026-04-20T15:37:03Z</time></trkpt><trkpt lat="45.69549658078563" lon="9.45858441329515"><ele>261.3333333333333</ele><time>2026-04-20T15:37:06Z</time></trkpt><trkpt lat="45.69559654970821" lon="9.458540895940576"><ele>262.0</ele><time>2026-04-20T15:37:08Z</time></trkpt><trkpt lat="45.69565049608219" lon="9.458490343219308"><ele>262.0</ele><time>2026-04-20T15:37:09Z</time></trkpt><trkpt lat="45.69573815589079" lon="9.458482001996702"><ele>262.0</ele><time>2026-04-20T15:37:10Z</time></trkpt><trkpt lat="45.69591153093469" lon="9.458531233259723"><ele>262.0</ele><time>2026-04-20T15:37:11Z</time></trkpt><trkpt lat="45.69601259767129" lon="9.458518793826306"><ele>262.0</ele><time>2026-04-20T15:37:12Z</time></trkpt><trkpt lat="45.69612335599664" lon="9.45858818964331"><ele>260.2</ele><time>2026-04-20T15:37:13Z</time></trkpt><trkpt lat="45.69621607794009" lon="9.458616752927968"><ele>258.4</ele><time>2026-04-20T15:37:14Z</time></trkpt><trkpt lat="45.696292966263634" lon="9.458689463281182"><ele>256.6</ele><time>2026-04-20T15:37:15Z</time></trkpt><trkpt lat="45.69637734083863" lon="9.45873803520029"><ele>254.8</ele><time>2026-04-20T15:37:16Z</time></trkpt><trkpt lat="45.696486187918985" lon="9.45879906490977"><ele>253.0</ele><time>2026-04-20T15:37:18Z</time></trkpt><trkpt lat="45.6965690684409" lon="9.458859796278348"><ele>254.5</ele><time>2026-04-20T15:37:19Z</time></trkpt><trkpt lat="45.69669363128266" lon="9.458942611421028"><ele>256.0</ele><time>2026-04-20T15:37:20Z</time></trkpt><trkpt lat="45.69680899325635" lon="9.459017941465135"><ele>257.5</ele><time>2026-04-20T15:37:21Z</time></trkpt><trkpt lat="45.69690487130117" lon="9.459086036381981"><ele>259.0</ele><time>2026-04-20T15:37:22Z</time></trkpt><trkpt lat="45.697001147708164" lon="9.459143194817006"><ele>259.0</ele><time>2026-04-20T15:37:23Z</time></trkpt><trkpt lat="45.69706818802534" lon="9.459202192762316"><ele>259.0</ele><time>2026-04-20T15:37:24Z</time></trkpt><trkpt lat="45.697129655937104" lon="9.459243001979395"><ele>259.0</ele><time>2026-04-20T15:37:26Z</time></trkpt><trkpt lat="45.69721831363977" lon="9.459272919578915"><ele>259.0</ele><time>2026-04-20T15:37:28Z</time></trkpt><trkpt lat="45.697331795984624" lon="9.459274830509791"><ele>259.0</ele><time>2026-04-20T15:37:30Z</time></trkpt><trkpt lat="45.69740942180896" lon="9.45924859038259"><ele>259.0</ele><time>2026-04-20T15:37:31Z</time></trkpt><trkpt lat="45.69750852619382" lon="9.459260470534645"><ele>259.0</ele><time>2026-04-20T15:37:33Z</time></trkpt><trkpt lat="45.69763979089165" lon="9.459231331427906"><ele>259.0</ele><time>2026-04-20T15:37:35Z</time></trkpt><trkpt lat="45.69771279051947" lon="9.45921099671082"><ele>259.0</ele><time>2026-04-20T15:37:36Z</time></trkpt><trkpt lat="45.69779103310037" lon="9.459182394267788"><ele>259.0</ele><time>2026-04-20T15:37:37Z</time></trkpt><trkpt lat="45.69787620109486" lon="9.459188367574184"><ele>259.0</ele><time>2026-04-20T15:37:38Z</time></trkpt><trkpt lat="45.69798888691026" lon="9.459204421415718"><ele>258.3333333333333</ele><time>2026-04-20T15:37:39Z</time></trkpt><trkpt lat="45.69808284420018" lon="9.459222468597615"><ele>257.66666666666663</ele><time>2026-04-20T15:37:40Z</time></trkpt><trkpt lat="45.698169462027685" lon="9.459253602746275"><ele>257.0</ele><time>2026-04-20T15:37:41Z</time></trkpt><trkpt lat="45.69824757951395" lon="9.459280495410809"><ele>256.3333333333333</ele><time>2026-04-20T15:37:42Z</time></trkpt><trkpt lat="45.69831552496414" lon="9.45933476929479"><ele>255.66666666666666</ele><time>2026-04-20T15:37:43Z</time></trkpt><trkpt lat="45.69838828175268" lon="9.459391231005238"><ele>255.0</ele><time>2026-04-20T15:37:44Z</time></trkpt><trkpt lat="45.69847303171265" lon="9.459473125954748"><ele>255.0</ele><time>2026-04-20T15:37:45Z</time></trkpt><trkpt lat="45.69857189240559" lon="9.459515493439126"><ele>255.0</ele><time>2026-04-20T15:37:46Z</time></trkpt><trkpt lat="45.698675852910924" lon="9.459549872269783"><ele>255.0</ele><time>2026-04-20T15:37:47Z</time></trkpt><trkpt lat="45.69877199362252" lon="9.459569519881198"><ele>255.0</ele><time>2026-04-20T15:37:48Z</time></trkpt><trkpt lat="45.698865335315496" lon="9.459604590247324"><ele>255.0</ele><time>2026-04-20T15:37:49Z</time></trkpt><trkpt lat="45.69895320161585" lon="9.459641505535698"><ele>256.0</ele><time>2026-04-20T15:37:50Z</time></trkpt><trkpt lat="45.699037243070634" lon="9.459656227291413"><ele>257.0</ele><time>2026-04-20T15:37:51Z</time></trkpt><trkpt lat="45.69912290552802" lon="9.45969033488793"><ele>258.0</ele><time>2026-04-20T15:37:52Z</time></trkpt><trkpt lat="45.69921950569836" lon="9.459750657124282"><ele>259.0</ele><time>2026-04-20T15:37:53Z</time></trkpt><trkpt lat="45.69932469625225" lon="9.459801844647549"><ele>260.0</ele><time>2026-04-20T15:37:54Z</time></trkpt><trkpt lat="45.6993837575446" lon="9.459874124467964"><ele>259.83333333333337</ele><time>2026-04-20T15:37:55Z</time></trkpt><trkpt lat="45.699452602068924" lon="9.459934770061794"><ele>259.6666666666667</ele><time>2026-04-20T15:37:56Z</time></trkpt><trkpt lat="45.69952310576254" lon="9.459995393492653"><ele>259.5</ele><time>2026-04-20T15:37:57Z</time></trkpt><trkpt lat="45.699620454032264" lon="9.460049219140087"><ele>259.3333333333333</ele><time>2026-04-20T15:37:58Z</time></trkpt><trkpt lat="45.69972366321062" lon="9.460047947847436"><ele>259.16666666666663</ele><time>2026-04-20T15:37:59Z</time></trkpt><trkpt lat="45.69980158295633" lon="9.460040498031882"><ele>259.0</ele><time>2026-04-20T15:38:00Z</time></trkpt><trkpt lat="45.69987051937224" lon="9.460022985037988"><ele>259.0</ele><time>2026-04-20T15:38:01Z</time></trkpt><trkpt lat="45.69999856661812" lon="9.460049757590065"><ele>259.0</ele><time>2026-04-20T15:38:03Z</time></trkpt><trkpt lat="45.700067030272066" lon="9.460069901512655"><ele>259.0</ele><time>2026-04-20T15:38:04Z</time></trkpt><trkpt lat="45.70017983559779" lon="9.460055887543973"><ele>259.0</ele><time>2026-04-20T15:38:06Z</time></trkpt><trkpt lat="45.70025868424311" lon="9.460064965868678"><ele>259.0</ele><time>2026-04-20T15:38:07Z</time></trkpt><trkpt lat="45.70036148812616" lon="9.460110599184764"><ele>255.5</ele><time>2026-04-20T15:38:08Z</time></trkpt><trkpt lat="45.70044054109082" lon="9.46016026417717"><ele>252.0</ele><time>2026-04-20T15:38:09Z</time></trkpt><trkpt lat="45.70052871512828" lon="9.46023106790855"><ele>248.5</ele><time>2026-04-20T15:38:09.999Z</time></trkpt><trkpt lat="45.700656607424165" lon="9.46030588572259"><ele>245.0</ele><time>2026-04-20T15:38:10.999Z</time></trkpt><trkpt lat="45.70079771168578" lon="9.46039664792464"><ele>246.8</ele><time>2026-04-20T15:38:11.999Z</time></trkpt><trkpt lat="45.70090876099876" lon="9.460451499649013"><ele>248.6</ele><time>2026-04-20T15:38:12.999Z</time></trkpt><trkpt lat="45.70099485892332" lon="9.46049485875927"><ele>250.39999999999998</ele><time>2026-04-20T15:38:13.999Z</time></trkpt><trkpt lat="45.7010924877784" lon="9.460587753827726"><ele>252.2</ele><time>2026-04-20T15:38:15.999Z</time></trkpt><trkpt lat="45.70115980242727" lon="9.460623294854706"><ele>254.0</ele><time>2026-04-20T15:38:16.999Z</time></trkpt><trkpt lat="45.701210073019745" lon="9.460694160374807"><ele>254.0</ele><time>2026-04-20T15:38:17.999Z</time></trkpt><trkpt lat="45.70126727561365" lon="9.460771005099184"><ele>253.99999999999997</ele><time>2026-04-20T15:38:20.999Z</time></trkpt><trkpt lat="45.70133625518698" lon="9.460780365981556"><ele>253.99999999999997</ele><time>2026-04-20T15:38:22.999Z</time></trkpt><trkpt lat="45.70144609081497" lon="9.460811937610002"><ele>254.0</ele><time>2026-04-20T15:38:25Z</time></trkpt><trkpt lat="45.7015673263072" lon="9.46082988658869"><ele>254.0</ele><time>2026-04-20T15:38:27Z</time></trkpt><trkpt lat="45.701664039412066" lon="9.460835301740177"><ele>254.0</ele><time>2026-04-20T15:38:29Z</time></trkpt><trkpt lat="45.70178837249698" lon="9.460825237582617"><ele>253.99999999999997</ele><time>2026-04-20T15:38:31Z</time></trkpt><trkpt lat="45.701880130981095" lon="9.460856641278703"><ele>253.99999999999997</ele><time>2026-04-20T15:38:32Z</time></trkpt><trkpt lat="45.70196671469998" lon="9.460874643110099"><ele>254.0</ele><time>2026-04-20T15:38:33Z</time></trkpt><trkpt lat="45.70206343400393" lon="9.460901988482865"><ele>254.0</ele><time>2026-04-20T15:38:34Z</time></trkpt><trkpt lat="45.70217521461819" lon="9.460958558942691"><ele>252.66666666666669</ele><time>2026-04-20T15:38:36Z</time></trkpt><trkpt lat="45.70223876325921" lon="9.460988017018444"><ele>251.33333333333334</ele><time>2026-04-20T15:38:37Z</time></trkpt><trkpt lat="45.702303841758926" lon="9.461006277494711"><ele>250.0</ele><time>2026-04-20T15:38:38Z</time></trkpt><trkpt lat="45.70241762885331" lon="9.461047177235502"><ele>248.66666666666669</ele><time>2026-04-20T15:38:39Z</time></trkpt><trkpt lat="45.702529065528225" lon="9.461102907184678"><ele>247.33333333333334</ele><time>2026-04-20T15:38:40Z</time></trkpt><trkpt lat="45.702605473775115" lon="9.461127267271436"><ele>246.0</ele><time>2026-04-20T15:38:41Z</time></trkpt><trkpt lat="45.70268037984265" lon="9.461213892695802"><ele>246.0</ele><time>2026-04-20T15:38:42Z</time></trkpt><trkpt lat="45.70274678657846" lon="9.461252213592518"><ele>246.00000000000003</ele><time>2026-04-20T15:38:43Z</time></trkpt><trkpt lat="45.70283050725894" lon="9.461352942337031"><ele>246.00000000000003</ele><time>2026-04-20T15:38:45Z</time></trkpt><trkpt lat="45.702929862433976" lon="9.461461560746422"><ele>246.0</ele><time>2026-04-20T15:38:47Z</time></trkpt><trkpt lat="45.703012668958806" lon="9.461580364498161"><ele>246.0</ele><time>2026-04-20T15:38:49Z</time></trkpt><trkpt lat="45.70309595403375" lon="9.461674301390644"><ele>247.5</ele><time>2026-04-20T15:38:51Z</time></trkpt><trkpt lat="45.70314779026111" lon="9.461729150762144"><ele>249.0</ele><time>2026-04-20T15:38:53Z</time></trkpt><trkpt lat="45.70319454698422" lon="9.46180187471067"><ele>250.5</ele><time>2026-04-20T15:38:55Z</time></trkpt><trkpt lat="45.703262156686264" lon="9.461835369894017"><ele>252.0</ele><time>2026-04-20T15:38:56Z</time></trkpt><trkpt lat="45.70331519430874" lon="9.461906000952254"><ele>253.5</ele><time>2026-04-20T15:38:57Z</time></trkpt><trkpt lat="45.70343145625873" lon="9.461988663292562"><ele>255.0</ele><time>2026-04-20T15:38:59Z</time></trkpt><trkpt lat="45.70350667913942" lon="9.462039855761583"><ele>256.1666666666667</ele><time>2026-04-20T15:39:00Z</time></trkpt><trkpt lat="45.703587715655225" lon="9.46207360098768"><ele>257.3333333333333</ele><time>2026-04-20T15:39:01Z</time></trkpt><trkpt lat="45.70367519539293" lon="9.462137561875803"><ele>258.5</ele><time>2026-04-20T15:39:02Z</time></trkpt><trkpt lat="45.70375179798351" lon="9.462183856729444"><ele>259.66666666666663</ele><time>2026-04-20T15:39:03Z</time></trkpt><trkpt lat="45.70384218169354" lon="9.462234934581089"><ele>260.8333333333333</ele><time>2026-04-20T15:39:05Z</time></trkpt><trkpt lat="45.70391668060628" lon="9.46227236446986"><ele>262.0</ele><time>2026-04-20T15:39:07Z</time></trkpt><trkpt lat="45.70402104289306" lon="9.462319140040771"><ele>262.0</ele><time>2026-04-20T15:39:08Z</time></trkpt><trkpt lat="45.70414669445976" lon="9.462352140822512"><ele>262.0</ele><time>2026-04-20T15:39:09Z</time></trkpt><trkpt lat="45.70426278246234" lon="9.462433693096528"><ele>262.0</ele><time>2026-04-20T15:39:10Z</time></trkpt><trkpt lat="45.70437527758609" lon="9.462483948489933"><ele>262.0</ele><time>2026-04-20T15:39:11Z</time></trkpt><trkpt lat="45.70445133961012" lon="9.462511411450054"><ele>259.8333333333333</ele><time>2026-04-20T15:39:12Z</time></trkpt><trkpt lat="45.70458139691365" lon="9.462563230025488"><ele>257.66666666666663</ele><time>2026-04-20T15:39:14Z</time></trkpt><trkpt lat="45.704650167378745" lon="9.462575064108748"><ele>255.5</ele><time>2026-04-20T15:39:15Z</time></trkpt><trkpt lat="45.70471301586288" lon="9.462604838452181"><ele>253.33333333333331</ele><time>2026-04-20T15:39:16Z</time></trkpt><trkpt lat="45.7047900163836" lon="9.462639123042372"><ele>251.16666666666666</ele><time>2026-04-20T15:39:17Z</time></trkpt><trkpt lat="45.70486612206287" lon="9.462682244746754"><ele>249.0</ele><time>2026-04-20T15:39:18Z</time></trkpt><trkpt lat="45.70497176496793" lon="9.462765362807763"><ele>249.0</ele><time>2026-04-20T15:39:19Z</time></trkpt><trkpt lat="45.70512024322395" lon="9.462849156901386"><ele>249.0</ele><time>2026-04-20T15:39:20Z</time></trkpt><trkpt lat="45.705261666672065" lon="9.462920411383372"><ele>249.0</ele><time>2026-04-20T15:39:21Z</time></trkpt><trkpt lat="45.705382375823845" lon="9.462959621509363"><ele>249.0</ele><time>2026-04-20T15:39:22Z</time></trkpt><trkpt lat="45.70550947753314" lon="9.462981742454975"><ele>251.6</ele><time>2026-04-20T15:39:23Z</time></trkpt><trkpt lat="45.705615450182584" lon="9.462986513270703"><ele>254.2</ele><time>2026-04-20T15:39:24Z</time></trkpt><trkpt lat="45.70572178039126" lon="9.462997946761417"><ele>256.79999999999995</ele><time>2026-04-20T15:39:25Z</time></trkpt><trkpt lat="45.70581407040969" lon="9.463028810400692"><ele>259.4</ele><time>2026-04-20T15:39:26Z</time></trkpt><trkpt lat="45.705936814808204" lon="9.463055897215149"><ele>262.0</ele><time>2026-04-20T15:39:28Z</time></trkpt><trkpt lat="45.706056178140244" lon="9.463146845578354"><ele>261.3333333333333</ele><time>2026-04-20T15:39:30Z</time></trkpt><trkpt lat="45.706127917697636" lon="9.46324883513235"><ele>260.66666666666663</ele><time>2026-04-20T15:39:32Z</time></trkpt><trkpt lat="45.70612159513879" lon="9.463340544700662"><ele>260.0</ele><time>2026-04-20T15:39:34Z</time></trkpt><trkpt lat="45.70617111389044" lon="9.463404407895004"><ele>259.3333333333333</ele><time>2026-04-20T15:39:38Z</time></trkpt><trkpt lat="45.70620710964219" lon="9.463487518339699"><ele>258.6666666666667</ele><time>2026-04-20T15:39:40Z</time></trkpt><trkpt lat="45.706283501318424" lon="9.463527568938987"><ele>258.0</ele><time>2026-04-20T15:39:42Z</time></trkpt><trkpt lat="45.706371531003875" lon="9.46354295507716"><ele>258.0</ele><time>2026-04-20T15:39:44Z</time></trkpt><trkpt lat="45.70649549354262" lon="9.463551288881266"><ele>258.0</ele><time>2026-04-20T15:39:46Z</time></trkpt><trkpt lat="45.70656248037877" lon="9.463706728504647"><ele>258.0</ele><time>2026-04-20T15:39:47Z</time></trkpt><trkpt lat="45.706678297826045" lon="9.463732820641473"><ele>258.0</ele><time>2026-04-20T15:39:48Z</time></trkpt><trkpt lat="45.70676420232062" lon="9.463767664626122"><ele>258.0</ele><time>2026-04-20T15:39:49Z</time></trkpt><trkpt lat="45.70689073809339" lon="9.463722852976856"><ele>258.0</ele><time>2026-04-20T15:39:50Z</time></trkpt><trkpt lat="45.706998323471566" lon="9.46371893706649"><ele>258.0</ele><time>2026-04-20T15:39:52Z</time></trkpt><trkpt lat="45.7070840229331" lon="9.463658663919848"><ele>258.0</ele><time>2026-04-20T15:39:54Z</time></trkpt><trkpt lat="45.70717836772857" lon="9.46358242870916"><ele>258.0</ele><time>2026-04-20T15:39:56Z</time></trkpt><trkpt lat="45.70726741181927" lon="9.463578564274282"><ele>257.5</ele><time>2026-04-20T15:39:58Z</time></trkpt><trkpt lat="45.707358347848825" lon="9.46360591918838"><ele>257.0</ele><time>2026-04-20T15:40:00Z</time></trkpt><trkpt lat="45.70740767174827" lon="9.46366903507145"><ele>256.5</ele><time>2026-04-20T15:40:02Z</time></trkpt><trkpt lat="45.70746509451965" lon="9.46374653930068"><ele>256.0</ele><time>2026-04-20T15:40:05Z</time></trkpt><trkpt lat="45.70754839287178" lon="9.463818399139711"><ele>255.5</ele><time>2026-04-20T15:40:07Z</time></trkpt><trkpt lat="45.70761558342925" lon="9.463865698597449"><ele>255.0</ele><time>2026-04-20T15:40:09Z</time></trkpt><trkpt lat="45.70769472635267" lon="9.463908846673478"><ele>255.4</ele><time>2026-04-20T15:40:11Z</time></trkpt><trkpt lat="45.707765689477185" lon="9.463934938586437"><ele>255.8</ele><time>2026-04-20T15:40:12Z</time></trkpt><trkpt lat="45.70785794611645" lon="9.4639934691004"><ele>256.2</ele><time>2026-04-20T15:40:14Z</time></trkpt><trkpt lat="45.7079254084507" lon="9.464042728529291"><ele>256.6</ele><time>2026-04-20T15:40:16Z</time></trkpt><trkpt lat="45.70800766648208" lon="9.464086628485903"><ele>257.0</ele><time>2026-04-20T15:40:17Z</time></trkpt><trkpt lat="45.708106568217886" lon="9.464175793402372"><ele>257.0</ele><time>2026-04-20T15:40:19Z</time></trkpt><trkpt lat="45.70819203861813" lon="9.464261011226462"><ele>257.0</ele><time>2026-04-20T15:40:21Z</time></trkpt><trkpt lat="45.7082476358002" lon="9.464315702328394"><ele>257.0</ele><time>2026-04-20T15:40:23Z</time></trkpt><trkpt lat="45.70832372130705" lon="9.464355548603834"><ele>257.0</ele><time>2026-04-20T15:40:26Z</time></trkpt><trkpt lat="45.70841188550714" lon="9.464374140396469"><ele>257.0</ele><time>2026-04-20T15:40:28Z</time></trkpt><trkpt lat="45.70849531238585" lon="9.464371738560349"><ele>257.0</ele><time>2026-04-20T15:40:30Z</time></trkpt><trkpt lat="45.70856893954105" lon="9.464418586951403"><ele>256.6666666666667</ele><time>2026-04-20T15:40:32Z</time></trkpt><trkpt lat="45.70858574241652" lon="9.46458968720143"><ele>256.33333333333337</ele><time>2026-04-20T15:40:34Z</time></trkpt><trkpt lat="45.70867086081619" lon="9.464675470992324"><ele>256.0</ele><time>2026-04-20T15:40:36Z</time></trkpt><trkpt lat="45.708745145083086" lon="9.464695532356629"><ele>255.66666666666669</ele><time>2026-04-20T15:40:37Z</time></trkpt><trkpt lat="45.70881736679573" lon="9.464698515917421"><ele>255.33333333333334</ele><time>2026-04-20T15:40:38Z</time></trkpt><trkpt lat="45.708888481503934" lon="9.464709397122189"><ele>255.0</ele><time>2026-04-20T15:40:39Z</time></trkpt><trkpt lat="45.709017742208246" lon="9.464740417636321"><ele>256.3333333333333</ele><time>2026-04-20T15:40:41Z</time></trkpt><trkpt lat="45.709104393367596" lon="9.4647709765918"><ele>257.6666666666667</ele><time>2026-04-20T15:40:42Z</time></trkpt><trkpt lat="45.70917840445896" lon="9.46479894625107"><ele>259.0</ele><time>2026-04-20T15:40:43Z</time></trkpt><trkpt lat="45.70925916779309" lon="9.464826508520943"><ele>260.33333333333337</ele><time>2026-04-20T15:40:44Z</time></trkpt><trkpt lat="45.7093453609003" lon="9.464847680648482"><ele>261.6666666666667</ele><time>2026-04-20T15:40:45Z</time></trkpt><trkpt lat="45.70942219562043" lon="9.464847694876179"><ele>263.0</ele><time>2026-04-20T15:40:46Z</time></trkpt><trkpt lat="45.70950949721483" lon="9.464853093443834"><ele>264.6</ele><time>2026-04-20T15:40:47Z</time></trkpt><trkpt lat="45.7095926646842" lon="9.464847069900427"><ele>266.20000000000005</ele><time>2026-04-20T15:40:48Z</time></trkpt><trkpt lat="45.709677992910834" lon="9.464830066663064"><ele>267.8</ele><time>2026-04-20T15:40:49Z</time></trkpt><trkpt lat="45.709758517185335" lon="9.464822106384226"><ele>269.40000000000003</ele><time>2026-04-20T15:40:50Z</time></trkpt><trkpt lat="45.70988677393114" lon="9.464867773173115"><ele>271.0</ele><time>2026-04-20T15:40:52Z</time></trkpt><trkpt lat="45.7099549436888" lon="9.464896398197402"><ele>271.0</ele><time>2026-04-20T15:40:53Z</time></trkpt><trkpt lat="45.710024068536065" lon="9.464920625977246"><ele>271.0</ele><time>2026-04-20T15:40:54Z</time></trkpt><trkpt lat="45.71012094787495" lon="9.46497196466508"><ele>271.0</ele><time>2026-04-20T15:40:56Z</time></trkpt><trkpt lat="45.710214509931966" lon="9.465075592636666"><ele>271.0</ele><time>2026-04-20T15:40:58Z</time></trkpt><trkpt lat="45.71027493544652" lon="9.465153420383041"><ele>271.0</ele><time>2026-04-20T15:40:59Z</time></trkpt><trkpt lat="45.71030713851565" lon="9.465239931461637"><ele>271.0</ele><time>2026-04-20T15:41:00Z</time></trkpt><trkpt lat="45.71035509586153" lon="9.465336253628713"><ele>271.0</ele><time>2026-04-20T15:41:01Z</time></trkpt><trkpt lat="45.71040822285002" lon="9.465423407341849"><ele>271.0</ele><time>2026-04-20T15:41:02Z</time></trkpt><trkpt lat="45.710463185789095" lon="9.46551716854921"><ele>271.0</ele><time>2026-04-20T15:41:03Z</time></trkpt><trkpt lat="45.710515738163636" lon="9.465611012348953"><ele>271.0</ele><time>2026-04-20T15:41:04Z</time></trkpt><trkpt lat="45.71056353613468" lon="9.465685374135727"><ele>271.0</ele><time>2026-04-20T15:41:05Z</time></trkpt><trkpt lat="45.71057690724294" lon="9.465808717731933"><ele>271.0</ele><time>2026-04-20T15:41:09Z</time></trkpt><trkpt lat="45.71062684786032" lon="9.465923662216953"><ele>273.16666666666663</ele><time>2026-04-20T15:41:10Z</time></trkpt><trkpt lat="45.71065944171005" lon="9.466032854818785"><ele>275.3333333333333</ele><time>2026-04-20T15:41:11Z</time></trkpt><trkpt lat="45.71063794862009" lon="9.466121012797505"><ele>277.5</ele><time>2026-04-20T15:41:12Z</time></trkpt><trkpt lat="45.710707005547526" lon="9.466230045986274"><ele>279.6666666666667</ele><time>2026-04-20T15:41:14Z</time></trkpt><trkpt lat="45.710732782548845" lon="9.466328069357264"><ele>281.83333333333337</ele><time>2026-04-20T15:41:15Z</time></trkpt><trkpt lat="45.710739133191375" lon="9.466427254460417"><ele>284.0</ele><time>2026-04-20T15:41:16Z</time></trkpt><trkpt lat="45.710740229617365" lon="9.466526265186692"><ele>284.75</ele><time>2026-04-20T15:41:17Z</time></trkpt><trkpt lat="45.710748135714866" lon="9.466629866345572"><ele>285.5</ele><time>2026-04-20T15:41:18Z</time></trkpt><trkpt lat="45.71071633844609" lon="9.466775971903143"><ele>286.25</ele><time>2026-04-20T15:41:19Z</time></trkpt><trkpt lat="45.710605491442" lon="9.46692682748292"><ele>287.0</ele><time>2026-04-20T15:41:20Z</time></trkpt><trkpt lat="45.71053995257822" lon="9.467099479169857"><ele>288.75</ele><time>2026-04-20T15:41:21Z</time></trkpt><trkpt lat="45.71047896347317" lon="9.467265747399109"><ele>290.5</ele><time>2026-04-20T15:41:22Z</time></trkpt><trkpt lat="45.71043387145573" lon="9.467421240989001"><ele>292.25</ele><time>2026-04-20T15:41:23Z</time></trkpt><trkpt lat="45.710373087825836" lon="9.46754966606061"><ele>294.0</ele><time>2026-04-20T15:41:24Z</time></trkpt><trkpt lat="45.7102877569485" lon="9.467677478635492"><ele>292.6666666666667</ele><time>2026-04-20T15:41:25Z</time></trkpt><trkpt lat="45.710158103583524" lon="9.467782432230171"><ele>291.33333333333337</ele><time>2026-04-20T15:41:26Z</time></trkpt><trkpt lat="45.71001488868764" lon="9.467838968555775"><ele>290.0</ele><time>2026-04-20T15:41:27Z</time></trkpt><trkpt lat="45.70985415916196" lon="9.467847446037409"><ele>290.0</ele><time>2026-04-20T15:41:28Z</time></trkpt><trkpt lat="45.7096701711795" lon="9.46784701719836"><ele>290.0</ele><time>2026-04-20T15:41:29Z</time></trkpt><trkpt lat="45.70951050857864" lon="9.467848475513913"><ele>290.0</ele><time>2026-04-20T15:41:30Z</time></trkpt><trkpt lat="45.70936426682644" lon="9.467808549422124"><ele>290.0</ele><time>2026-04-20T15:41:31Z</time></trkpt><trkpt lat="45.70921472464584" lon="9.467798917361488"><ele>290.0</ele><time>2026-04-20T15:41:32Z</time></trkpt><trkpt lat="45.709060361857865" lon="9.467792555599445"><ele>290.0</ele><time>2026-04-20T15:41:33Z</time></trkpt><trkpt lat="45.70891829248164" lon="9.46779398299413"><ele>290.0</ele><time>2026-04-20T15:41:34Z</time></trkpt><trkpt lat="45.70876208338957" lon="9.467811690739724"><ele>290.0</ele><time>2026-04-20T15:41:35Z</time></trkpt><trkpt lat="45.70861449568788" lon="9.467829983398598"><ele>290.0</ele><time>2026-04-20T15:41:36Z</time></trkpt><trkpt lat="45.70847087879816" lon="9.467845508034424"><ele>290.0</ele><time>2026-04-20T15:41:37Z</time></trkpt><trkpt lat="45.70832690333267" lon="9.467855574178268"><ele>290.0</ele><time>2026-04-20T15:41:38Z</time></trkpt><trkpt lat="45.708192154042635" lon="9.467867103579268"><ele>291.0</ele><time>2026-04-20T15:41:39Z</time></trkpt><trkpt lat="45.70808259418332" lon="9.467883509113527"><ele>292.0</ele><time>2026-04-20T15:41:40Z</time></trkpt><trkpt lat="45.707984087300076" lon="9.467909362836824"><ele>293.0</ele><time>2026-04-20T15:41:41Z</time></trkpt><trkpt lat="45.707897427772146" lon="9.467991539121572"><ele>294.0</ele><time>2026-04-20T15:41:42Z</time></trkpt><trkpt lat="45.70784126783223" lon="9.468110606922009"><ele>295.0</ele><time>2026-04-20T15:41:43Z</time></trkpt><trkpt lat="45.70781883395602" lon="9.468255435007356"><ele>297.6</ele><time>2026-04-20T15:41:44Z</time></trkpt><trkpt lat="45.707856788142045" lon="9.468389115473549"><ele>300.2</ele><time>2026-04-20T15:41:45Z</time></trkpt><trkpt lat="45.70789280342902" lon="9.468502575595988"><ele>302.8</ele><time>2026-04-20T15:41:46Z</time></trkpt><trkpt lat="45.707954782313486" lon="9.468642538497239"><ele>305.4</ele><time>2026-04-20T15:41:47Z</time></trkpt><trkpt lat="45.70798679006385" lon="9.468771487250997"><ele>308.0</ele><time>2026-04-20T15:41:48Z</time></trkpt><trkpt lat="45.708038669759624" lon="9.46888784823762"><ele>309.33333333333337</ele><time>2026-04-20T15:41:50Z</time></trkpt><trkpt lat="45.70802521046235" lon="9.469103932990334"><ele>310.6666666666667</ele><time>2026-04-20T15:41:52Z</time></trkpt><trkpt lat="45.708068992622266" lon="9.469408442835276"><ele>312.0</ele><time>2026-04-20T15:41:53Z</time></trkpt><trkpt lat="45.708090138133805" lon="9.469524025153786"><ele>312.2</ele><time>2026-04-20T15:41:54Z</time></trkpt><trkpt lat="45.7080874063977" lon="9.469645479413296"><ele>312.4</ele><time>2026-04-20T15:41:55Z</time></trkpt><trkpt lat="45.70806515582484" lon="9.469791097852733"><ele>312.6</ele><time>2026-04-20T15:41:56Z</time></trkpt><trkpt lat="45.708046803991316" lon="9.470018550627291"><ele>312.8</ele><time>2026-04-20T15:41:58Z</time></trkpt><trkpt lat="45.70804866953155" lon="9.47014800751353"><ele>313.0</ele><time>2026-04-20T15:41:59Z</time></trkpt><trkpt lat="45.707995302493515" lon="9.470270798874147"><ele>313.0</ele><time>2026-04-20T15:42:00Z</time></trkpt><trkpt lat="45.707957173345186" lon="9.470380435426433"><ele>313.0</ele><time>2026-04-20T15:42:01Z</time></trkpt><trkpt lat="45.707914481282636" lon="9.47049261917091"><ele>313.0</ele><time>2026-04-20T15:42:02Z</time></trkpt><trkpt lat="45.70787432349242" lon="9.470598674583414"><ele>313.0</ele><time>2026-04-20T15:42:03Z</time></trkpt><trkpt lat="45.70783186579828" lon="9.470723081952766"><ele>313.0</ele><time>2026-04-20T15:42:04Z</time></trkpt><trkpt lat="45.70778768404073" lon="9.47086130318001"><ele>313.6</ele><time>2026-04-20T15:42:05Z</time></trkpt><trkpt lat="45.70776167467985" lon="9.470990608518518"><ele>314.20000000000005</ele><time>2026-04-20T15:42:06Z</time></trkpt><trkpt lat="45.707714053575835" lon="9.471121132503647"><ele>314.8</ele><time>2026-04-20T15:42:07Z</time></trkpt><trkpt lat="45.707662193528826" lon="9.471233726324437"><ele>315.40000000000003</ele><time>2026-04-20T15:42:08Z</time></trkpt><trkpt lat="45.70763443745353" lon="9.471377373754489"><ele>316.0</ele><time>2026-04-20T15:42:09Z</time></trkpt><trkpt lat="45.70760264085392" lon="9.47150118287599"><ele>317.4</ele><time>2026-04-20T15:42:10Z</time></trkpt><trkpt lat="45.70757351761301" lon="9.471627466010435"><ele>318.8</ele><time>2026-04-20T15:42:11Z</time></trkpt><trkpt lat="45.707541242011395" lon="9.47176190757887"><ele>320.2</ele><time>2026-04-20T15:42:12Z</time></trkpt><trkpt lat="45.70750751864839" lon="9.471900132377069"><ele>321.59999999999997</ele><time>2026-04-20T15:42:13Z</time></trkpt><trkpt lat="45.70746990695279" lon="9.472040102761415"><ele>323.0</ele><time>2026-04-20T15:42:14Z</time></trkpt><trkpt lat="45.70742922972734" lon="9.472203195389882"><ele>323.0</ele><time>2026-04-20T15:42:15Z</time></trkpt><trkpt lat="45.707386465477725" lon="9.472358428034196"><ele>323.0</ele><time>2026-04-20T15:42:16Z</time></trkpt><trkpt lat="45.70733952882683" lon="9.472506364792586"><ele>323.0</ele><time>2026-04-20T15:42:17Z</time></trkpt><trkpt lat="45.70729544203208" lon="9.472631811214564"><ele>323.0</ele><time>2026-04-20T15:42:18Z</time></trkpt><trkpt lat="45.7072463573183" lon="9.47275386575943"><ele>323.0</ele><time>2026-04-20T15:42:19Z</time></trkpt><trkpt lat="45.70719818815423" lon="9.472875455683331"><ele>323.5</ele><time>2026-04-20T15:42:20Z</time></trkpt><trkpt lat="45.707160261716155" lon="9.47296914509703"><ele>324.0</ele><time>2026-04-20T15:42:21Z</time></trkpt><trkpt lat="45.707105721001724" lon="9.473090940274474"><ele>324.5</ele><time>2026-04-20T15:42:22Z</time></trkpt><trkpt lat="45.7070736224687" lon="9.47320284418448"><ele>325.0</ele><time>2026-04-20T15:42:23Z</time></trkpt><trkpt lat="45.707032620094346" lon="9.473298321357142"><ele>325.5</ele><time>2026-04-20T15:42:24Z</time></trkpt><trkpt lat="45.70698208252323" lon="9.473425570813259"><ele>326.0</ele><time>2026-04-20T15:42:25Z</time></trkpt><trkpt lat="45.70693824229874" lon="9.47354287344149"><ele>324.0</ele><time>2026-04-20T15:42:26Z</time></trkpt><trkpt lat="45.7068948961571" lon="9.473648306556736"><ele>322.0</ele><time>2026-04-20T15:42:27Z</time></trkpt><trkpt lat="45.70687255217212" lon="9.473747008371443"><ele>320.0</ele><time>2026-04-20T15:42:28Z</time></trkpt><trkpt lat="45.70681983707522" lon="9.473864824845148"><ele>318.0</ele><time>2026-04-20T15:42:29Z</time></trkpt><trkpt lat="45.70677325173223" lon="9.473981563395558"><ele>316.0</ele><time>2026-04-20T15:42:30Z</time></trkpt><trkpt lat="45.70673513173177" lon="9.474093735842654"><ele>314.0</ele><time>2026-04-20T15:42:31Z</time></trkpt><trkpt lat="45.70668055212647" lon="9.474212250192965"><ele>313.59999999999997</ele><time>2026-04-20T15:42:32Z</time></trkpt><trkpt lat="45.706636007966665" lon="9.474323319481927"><ele>313.2</ele><time>2026-04-20T15:42:33Z</time></trkpt><trkpt lat="45.70658806268593" lon="9.47441393086216"><ele>312.79999999999995</ele><time>2026-04-20T15:42:34Z</time></trkpt><trkpt lat="45.70648476954831" lon="9.474544452994422"><ele>312.4</ele><time>2026-04-20T15:42:36Z</time></trkpt><trkpt lat="45.70642807321614" lon="9.474621153637269"><ele>312.0</ele><time>2026-04-20T15:42:37Z</time></trkpt><trkpt lat="45.70633796878276" lon="9.47474150996861"><ele>311.75</ele><time>2026-04-20T15:42:38Z</time></trkpt><trkpt lat="45.706230056565865" lon="9.474895349354519"><ele>311.5</ele><time>2026-04-20T15:42:39Z</time></trkpt><trkpt lat="45.706154208487156" lon="9.47503040369819"><ele>311.25</ele><time>2026-04-20T15:42:40Z</time></trkpt><trkpt lat="45.70606946529281" lon="9.475151308236638"><ele>311.0</ele><time>2026-04-20T15:42:41Z</time></trkpt><trkpt lat="45.7059839247365" lon="9.475242185372267"><ele>310.0</ele><time>2026-04-20T15:42:42Z</time></trkpt><trkpt lat="45.705905798655195" lon="9.47534909988046"><ele>309.0</ele><time>2026-04-20T15:42:43Z</time></trkpt><trkpt lat="45.705843952295034" lon="9.47546765004153"><ele>308.0</ele><time>2026-04-20T15:42:44Z</time></trkpt><trkpt lat="45.70575848734823" lon="9.47559027833138"><ele>307.0</ele><time>2026-04-20T15:42:45Z</time></trkpt><trkpt lat="45.705678989708225" lon="9.475705250193498"><ele>306.0</ele><time>2026-04-20T15:42:46Z</time></trkpt><trkpt lat="45.705588249571086" lon="9.475842312338024"><ele>306.0</ele><time>2026-04-20T15:42:47Z</time></trkpt><trkpt lat="45.70551065494271" lon="9.47596035228614"><ele>306.0</ele><time>2026-04-20T15:42:48Z</time></trkpt><trkpt lat="45.705427769095756" lon="9.47606281819287"><ele>306.0</ele><time>2026-04-20T15:42:49Z</time></trkpt><trkpt lat="45.70537163052031" lon="9.476177311304502"><ele>306.0</ele><time>2026-04-20T15:42:50Z</time></trkpt><trkpt lat="45.705272372821966" lon="9.476287414187825"><ele>306.0</ele><time>2026-04-20T15:42:51Z</time></trkpt><trkpt lat="45.70519775271321" lon="9.476404420194791"><ele>304.25</ele><time>2026-04-20T15:42:52Z</time></trkpt><trkpt lat="45.70509129628434" lon="9.476543401333908"><ele>302.5</ele><time>2026-04-20T15:42:53Z</time></trkpt><trkpt lat="45.70501801212897" lon="9.47666922586537"><ele>300.75</ele><time>2026-04-20T15:42:54Z</time></trkpt><trkpt lat="45.704940360007654" lon="9.476787385760066"><ele>299.0</ele><time>2026-04-20T15:42:55Z</time></trkpt><trkpt lat="45.704872659854566" lon="9.47692469142753"><ele>299.0</ele><time>2026-04-20T15:42:56Z</time></trkpt><trkpt lat="45.704808847104076" lon="9.47705766102821"><ele>299.0</ele><time>2026-04-20T15:42:57Z</time></trkpt><trkpt lat="45.70475408712574" lon="9.47719190433318"><ele>299.0</ele><time>2026-04-20T15:42:58Z</time></trkpt><trkpt lat="45.70469928957301" lon="9.477336977857766"><ele>299.0</ele><time>2026-04-20T15:42:59Z</time></trkpt><trkpt lat="45.70462691499092" lon="9.477488296409538"><ele>298.75</ele><time>2026-04-20T15:43:00Z</time></trkpt><trkpt lat="45.70457835688114" lon="9.477658072300033"><ele>298.5</ele><time>2026-04-20T15:43:01Z</time></trkpt><trkpt lat="45.70453203625899" lon="9.47782778288025"><ele>298.25</ele><time>2026-04-20T15:43:02Z</time></trkpt><trkpt lat="45.7044780075121" lon="9.477969568979931"><ele>298.0</ele><time>2026-04-20T15:43:03Z</time></trkpt><trkpt lat="45.70443355529863" lon="9.478102712739112"><ele>297.0</ele><time>2026-04-20T15:43:04Z</time></trkpt><trkpt lat="45.70438382695904" lon="9.478284987750591"><ele>296.0</ele><time>2026-04-20T15:43:05Z</time></trkpt><trkpt lat="45.70430918910426" lon="9.478463406014725"><ele>295.0</ele><time>2026-04-20T15:43:06Z</time></trkpt><trkpt lat="45.704252944353755" lon="9.478603443836414"><ele>294.0</ele><time>2026-04-20T15:43:07Z</time></trkpt><trkpt lat="45.70418967224158" lon="9.478700638140811"><ele>293.59999999999997</ele><time>2026-04-20T15:43:08Z</time></trkpt><trkpt lat="45.704127275741904" lon="9.478827309831301"><ele>293.2</ele><time>2026-04-20T15:43:09Z</time></trkpt><trkpt lat="45.704080668058076" lon="9.478923968904548"><ele>292.79999999999995</ele><time>2026-04-20T15:43:10Z</time></trkpt><trkpt lat="45.70399473721553" lon="9.479043443662011"><ele>292.4</ele><time>2026-04-20T15:43:12Z</time></trkpt><trkpt lat="45.70397791831419" lon="9.47918256109139"><ele>292.0</ele><time>2026-04-20T15:43:14Z</time></trkpt><trkpt lat="45.704013181148575" lon="9.479281056301959"><ele>292.0</ele><time>2026-04-20T15:43:15Z</time></trkpt><trkpt lat="45.70406794726378" lon="9.479366212452476"><ele>292.0</ele><time>2026-04-20T15:43:16Z</time></trkpt><trkpt lat="45.70409433927474" lon="9.479482117611923"><ele>292.0</ele><time>2026-04-20T15:43:17Z</time></trkpt><trkpt lat="45.70411283468127" lon="9.47959774356109"><ele>292.0</ele><time>2026-04-20T15:43:18Z</time></trkpt><trkpt lat="45.70412772787774" lon="9.479701269727046"><ele>292.0</ele><time>2026-04-20T15:43:19Z</time></trkpt><trkpt lat="45.704147265769585" lon="9.479802559519465"><ele>292.0</ele><time>2026-04-20T15:43:20Z</time></trkpt><trkpt lat="45.70416791272087" lon="9.47991269999661"><ele>291.16666666666663</ele><time>2026-04-20T15:43:21Z</time></trkpt><trkpt lat="45.70417842952471" lon="9.480047759106867"><ele>290.3333333333333</ele><time>2026-04-20T15:43:22Z</time></trkpt><trkpt lat="45.70419617011709" lon="9.480160274016463"><ele>289.5</ele><time>2026-04-20T15:43:23Z</time></trkpt><trkpt lat="45.7042110967424" lon="9.480260972212584"><ele>288.6666666666667</ele><time>2026-04-20T15:43:24Z</time></trkpt><trkpt lat="45.70422596417278" lon="9.48035298550093"><ele>287.83333333333337</ele><time>2026-04-20T15:43:25Z</time></trkpt><trkpt lat="45.704235197277015" lon="9.480471300195806"><ele>287.0</ele><time>2026-04-20T15:43:26Z</time></trkpt><trkpt lat="45.70425420203822" lon="9.480593496633876"><ele>286.8</ele><time>2026-04-20T15:43:27Z</time></trkpt><trkpt lat="45.70427750264177" lon="9.480721992821962"><ele>286.6</ele><time>2026-04-20T15:43:28Z</time></trkpt><trkpt lat="45.70428753830739" lon="9.480840542330787"><ele>286.40000000000003</ele><time>2026-04-20T15:43:29Z</time></trkpt><trkpt lat="45.7042988065076" lon="9.48098867431945"><ele>286.2</ele><time>2026-04-20T15:43:30Z</time></trkpt><trkpt lat="45.70431600923541" lon="9.48112483372503"><ele>286.0</ele><time>2026-04-20T15:43:31Z</time></trkpt><trkpt lat="45.70433511199357" lon="9.48126227688742"><ele>285.8333333333333</ele><time>2026-04-20T15:43:32Z</time></trkpt><trkpt lat="45.70436868552616" lon="9.481398281707039"><ele>285.66666666666663</ele><time>2026-04-20T15:43:33Z</time></trkpt><trkpt lat="45.70441752546941" lon="9.481519147799196"><ele>285.5</ele><time>2026-04-20T15:43:34Z</time></trkpt><trkpt lat="45.704476415293726" lon="9.481621032074468"><ele>285.3333333333333</ele><time>2026-04-20T15:43:35Z</time></trkpt><trkpt lat="45.7045214808361" lon="9.48170994072052"><ele>285.1666666666667</ele><time>2026-04-20T15:43:36Z</time></trkpt><trkpt lat="45.70455281114113" lon="9.481800058985922"><ele>285.0</ele><time>2026-04-20T15:43:37Z</time></trkpt><trkpt lat="45.704582284673826" lon="9.48188794880464"><ele>285.0</ele><time>2026-04-20T15:43:38Z</time></trkpt><trkpt lat="45.704629264030864" lon="9.481997712861654"><ele>285.0</ele><time>2026-04-20T15:43:39Z</time></trkpt><trkpt lat="45.70468400281731" lon="9.482105816962363"><ele>285.0</ele><time>2026-04-20T15:43:40Z</time></trkpt><trkpt lat="45.704684132884296" lon="9.482259400926587"><ele>285.0</ele><time>2026-04-20T15:43:41Z</time></trkpt><trkpt lat="45.70467200546553" lon="9.482409036105313"><ele>285.0</ele><time>2026-04-20T15:43:42Z</time></trkpt><trkpt lat="45.70469362983143" lon="9.48257563712875"><ele>285.0</ele><time>2026-04-20T15:43:43Z</time></trkpt><trkpt lat="45.7047059753374" lon="9.482725362049093"><ele>285.0</ele><time>2026-04-20T15:43:44Z</time></trkpt><trkpt lat="45.70472704604923" lon="9.48288654951684"><ele>285.0</ele><time>2026-04-20T15:43:45Z</time></trkpt><trkpt lat="45.70476794278376" lon="9.483036736037207"><ele>285.0</ele><time>2026-04-20T15:43:46Z</time></trkpt><trkpt lat="45.70480894358504" lon="9.483186247156333"><ele>285.0</ele><time>2026-04-20T15:43:47Z</time></trkpt><trkpt lat="45.704867406737264" lon="9.483326976700543"><ele>285.0</ele><time>2026-04-20T15:43:48Z</time></trkpt><trkpt lat="45.70497698270973" lon="9.483754267951642"><ele>285.0</ele><time>2026-04-20T15:43:51Z</time></trkpt><trkpt lat="45.705036137258666" lon="9.4838871720004"><ele>285.0</ele><time>2026-04-20T15:43:52Z</time></trkpt><trkpt lat="45.70507675786254" lon="9.48401411794537"><ele>284.8</ele><time>2026-04-20T15:43:53Z</time></trkpt><trkpt lat="45.70511918752971" lon="9.484160988516242"><ele>284.6</ele><time>2026-04-20T15:43:54Z</time></trkpt><trkpt lat="45.705161128072184" lon="9.484285228322102"><ele>284.4</ele><time>2026-04-20T15:43:55Z</time></trkpt><trkpt lat="45.705201146880434" lon="9.484421824764373"><ele>284.2</ele><time>2026-04-20T15:43:56Z</time></trkpt><trkpt lat="45.70523794206287" lon="9.484549158429374"><ele>284.0</ele><time>2026-04-20T15:43:57Z</time></trkpt><trkpt lat="45.70526893758623" lon="9.484682484652078"><ele>284.4</ele><time>2026-04-20T15:43:58Z</time></trkpt><trkpt lat="45.705306461699564" lon="9.48481567960893"><ele>284.79999999999995</ele><time>2026-04-20T15:43:59Z</time></trkpt><trkpt lat="45.70534919258963" lon="9.48495637626175"><ele>285.20000000000005</ele><time>2026-04-20T15:44:00Z</time></trkpt><trkpt lat="45.70538797202743" lon="9.48508325590433"><ele>285.6</ele><time>2026-04-20T15:44:01Z</time></trkpt><trkpt lat="45.70542474171618" lon="9.485195381756045"><ele>286.0</ele><time>2026-04-20T15:44:02Z</time></trkpt><trkpt lat="45.70546608090338" lon="9.485318225196309"><ele>285.6</ele><time>2026-04-20T15:44:03Z</time></trkpt><trkpt lat="45.70550396593931" lon="9.485445682865159"><ele>285.20000000000005</ele><time>2026-04-20T15:44:04Z</time></trkpt><trkpt lat="45.70554412976352" lon="9.485584910606212"><ele>284.79999999999995</ele><time>2026-04-20T15:44:05Z</time></trkpt><trkpt lat="45.705573582234095" lon="9.485715023100687"><ele>284.4</ele><time>2026-04-20T15:44:06Z</time></trkpt><trkpt lat="45.70560232447282" lon="9.485841383737952"><ele>284.0</ele><time>2026-04-20T15:44:07Z</time></trkpt><trkpt lat="45.70563286645447" lon="9.48593819013238"><ele>284.0</ele><time>2026-04-20T15:44:08Z</time></trkpt><trkpt lat="45.70565232298924" lon="9.486031708673275"><ele>284.0</ele><time>2026-04-20T15:44:09Z</time></trkpt><trkpt lat="45.70566094300306" lon="9.486128079826077"><ele>284.0</ele><time>2026-04-20T15:44:10Z</time></trkpt><trkpt lat="45.70568380959062" lon="9.486213383244205"><ele>284.0</ele><time>2026-04-20T15:44:11Z</time></trkpt><trkpt lat="45.705737335454614" lon="9.486264566699226"><ele>284.0</ele><time>2026-04-20T15:44:12Z</time></trkpt><trkpt lat="45.705818072253" lon="9.486275805679261"><ele>284.0</ele><time>2026-04-20T15:44:13Z</time></trkpt><trkpt lat="45.7059032045445" lon="9.486283481562756"><ele>284.0</ele><time>2026-04-20T15:44:14Z</time></trkpt><trkpt lat="45.70597058826683" lon="9.486338279835296"><ele>284.1666666666667</ele><time>2026-04-20T15:44:15Z</time></trkpt><trkpt lat="45.70601733460117" lon="9.486423591684215"><ele>284.33333333333337</ele><time>2026-04-20T15:44:16Z</time></trkpt><trkpt lat="45.70607348618485" lon="9.48652323482666"><ele>284.5</ele><time>2026-04-20T15:44:17Z</time></trkpt><trkpt lat="45.70612112142472" lon="9.486607094889415"><ele>284.6666666666667</ele><time>2026-04-20T15:44:18Z</time></trkpt><trkpt lat="45.70618162410882" lon="9.486691667505578"><ele>284.8333333333333</ele><time>2026-04-20T15:44:19Z</time></trkpt><trkpt lat="45.706239891392464" lon="9.486774948274704"><ele>285.0</ele><time>2026-04-20T15:44:20Z</time></trkpt><trkpt lat="45.706296403316294" lon="9.4868553822427"><ele>285.4</ele><time>2026-04-20T15:44:21Z</time></trkpt><trkpt lat="45.70635278939377" lon="9.486938276051246"><ele>285.8</ele><time>2026-04-20T15:44:22Z</time></trkpt><trkpt lat="45.706405772541906" lon="9.48704875487767"><ele>286.2</ele><time>2026-04-20T15:44:23Z</time></trkpt><trkpt lat="45.706442212477235" lon="9.487167450306519"><ele>286.6</ele><time>2026-04-20T15:44:24Z</time></trkpt><trkpt lat="45.70647347221643" lon="9.487278088274685"><ele>287.0</ele><time>2026-04-20T15:44:25Z</time></trkpt><trkpt lat="45.70650926830517" lon="9.487449759893579"><ele>287.5</ele><time>2026-04-20T15:44:27Z</time></trkpt><trkpt lat="45.70657418438396" lon="9.487702082664525"><ele>288.0</ele><time>2026-04-20T15:44:28Z</time></trkpt><trkpt lat="45.70663125841127" lon="9.487870739058144"><ele>288.5</ele><time>2026-04-20T15:44:29Z</time></trkpt><trkpt lat="45.7067054301823" lon="9.488018833324068"><ele>289.0</ele><time>2026-04-20T15:44:30Z</time></trkpt><trkpt lat="45.706741947050105" lon="9.488172701887056"><ele>289.75</ele><time>2026-04-20T15:44:31Z</time></trkpt><trkpt lat="45.70679999857931" lon="9.48832619235918"><ele>290.5</ele><time>2026-04-20T15:44:32Z</time></trkpt><trkpt lat="45.70684440847037" lon="9.488474318086524"><ele>291.25</ele><time>2026-04-20T15:44:33Z</time></trkpt><trkpt lat="45.70688929764053" lon="9.488621481574112"><ele>292.0</ele><time>2026-04-20T15:44:34Z</time></trkpt><trkpt lat="45.70693639838517" lon="9.488773922111381"><ele>293.0</ele><time>2026-04-20T15:44:35Z</time></trkpt><trkpt lat="45.706989300350415" lon="9.488905997146988"><ele>294.0</ele><time>2026-04-20T15:44:36Z</time></trkpt><trkpt lat="45.707045641579164" lon="9.48905256758488"><ele>295.0</ele><time>2026-04-20T15:44:37Z</time></trkpt><trkpt lat="45.70708293573501" lon="9.489210694082734"><ele>296.0</ele><time>2026-04-20T15:44:38Z</time></trkpt><trkpt lat="45.707116747292595" lon="9.489354369861859"><ele>297.0</ele><time>2026-04-20T15:44:39Z</time></trkpt><trkpt lat="45.707128721139014" lon="9.489502267615796"><ele>297.0</ele><time>2026-04-20T15:44:40Z</time></trkpt><trkpt lat="45.70715130861775" lon="9.489625774329244"><ele>297.0</ele><time>2026-04-20T15:44:41Z</time></trkpt><trkpt lat="45.707163558471024" lon="9.489764160394373"><ele>297.0</ele><time>2026-04-20T15:44:42Z</time></trkpt><trkpt lat="45.70720100277355" lon="9.489878077935858"><ele>297.0</ele><time>2026-04-20T15:44:43Z</time></trkpt><trkpt lat="45.707306477397644" lon="9.489937474863812"><ele>297.0</ele><time>2026-04-20T15:44:44Z</time></trkpt><trkpt lat="45.70740734666876" lon="9.49003764355446"><ele>297.0</ele><time>2026-04-20T15:44:45Z</time></trkpt><trkpt lat="45.70751207720808" lon="9.490115748787554"><ele>297.0</ele><time>2026-04-20T15:44:46Z</time></trkpt><trkpt lat="45.70759641780666" lon="9.490197914951585"><ele>297.0</ele><time>2026-04-20T15:44:47Z</time></trkpt><trkpt lat="45.70767536028484" lon="9.490268508410052"><ele>297.0</ele><time>2026-04-20T15:44:48Z</time></trkpt><trkpt lat="45.70773663771992" lon="9.490342186605963"><ele>297.0</ele><time>2026-04-20T15:44:49Z</time></trkpt><trkpt lat="45.70779607382376" lon="9.490424409464532"><ele>296.6</ele><time>2026-04-20T15:44:50Z</time></trkpt><trkpt lat="45.707860999452244" lon="9.490515089775597"><ele>296.2</ele><time>2026-04-20T15:44:51Z</time></trkpt><trkpt lat="45.707919085742105" lon="9.490610828809997"><ele>295.8</ele><time>2026-04-20T15:44:52Z</time></trkpt><trkpt lat="45.70798558252287" lon="9.49072156091707"><ele>295.4</ele><time>2026-04-20T15:44:53Z</time></trkpt><trkpt lat="45.708033409073224" lon="9.490836345830875"><ele>295.0</ele><time>2026-04-20T15:44:54Z</time></trkpt><trkpt lat="45.70805518746844" lon="9.490958088931027"><ele>295.0</ele><time>2026-04-20T15:44:55Z</time></trkpt><trkpt lat="45.70804396133409" lon="9.491081454934573"><ele>295.0</ele><time>2026-04-20T15:44:56Z</time></trkpt><trkpt lat="45.70806101176661" lon="9.491221561956634"><ele>295.0</ele><time>2026-04-20T15:44:57Z</time></trkpt><trkpt lat="45.70804805593031" lon="9.491364057622837"><ele>295.0</ele><time>2026-04-20T15:44:58Z</time></trkpt><trkpt lat="45.70804905729829" lon="9.491500137789304"><ele>295.0</ele><time>2026-04-20T15:44:59Z</time></trkpt><trkpt lat="45.708040565106366" lon="9.491643112953934"><ele>295.3333333333333</ele><time>2026-04-20T15:45:00Z</time></trkpt><trkpt lat="45.70803726528638" lon="9.491771121380896"><ele>295.66666666666663</ele><time>2026-04-20T15:45:01Z</time></trkpt><trkpt lat="45.7080334080891" lon="9.491880672687714"><ele>296.0</ele><time>2026-04-20T15:45:02Z</time></trkpt><trkpt lat="45.708024131651385" lon="9.49199844733962"><ele>296.3333333333333</ele><time>2026-04-20T15:45:03Z</time></trkpt><trkpt lat="45.708029188618085" lon="9.49210987123317"><ele>296.6666666666667</ele><time>2026-04-20T15:45:04Z</time></trkpt><trkpt lat="45.70802094113458" lon="9.492230820182238"><ele>297.0</ele><time>2026-04-20T15:45:06Z</time></trkpt><trkpt lat="45.70809887275138" lon="9.492241237967622"><ele>297.0</ele><time>2026-04-20T15:45:09Z</time></trkpt><trkpt lat="45.70816480238148" lon="9.492232379642942"><ele>297.0</ele><time>2026-04-20T15:45:10Z</time></trkpt><trkpt lat="45.708237146786" lon="9.492259316149822"><ele>297.0</ele><time>2026-04-20T15:45:11Z</time></trkpt><trkpt lat="45.7083071556576" lon="9.492252787839636"><ele>297.0</ele><time>2026-04-20T15:45:12Z</time></trkpt><trkpt lat="45.7083851311844" lon="9.492261877650957"><ele>297.0</ele><time>2026-04-20T15:45:13Z</time></trkpt><trkpt lat="45.708490483251275" lon="9.492239741206456"><ele>297.0</ele><time>2026-04-20T15:45:15Z</time></trkpt><trkpt lat="45.70855073931527" lon="9.492203402136237"><ele>297.0</ele><time>2026-04-20T15:45:20Z</time></trkpt><trkpt lat="45.70849654010154" lon="9.492250883250577"><ele>297.0</ele><time>2026-04-20T15:45:23Z</time></trkpt><trkpt lat="45.70837630105888" lon="9.492244079618546"><ele>297.0</ele><time>2026-04-20T15:45:25Z</time></trkpt><trkpt lat="45.70825878661618" lon="9.492233213265347"><ele>297.0</ele><time>2026-04-20T15:45:27Z</time></trkpt><trkpt lat="45.70819266124959" lon="9.492220704177658"><ele>297.0</ele><time>2026-04-20T15:45:28Z</time></trkpt><trkpt lat="45.70810444014624" lon="9.492200153054876"><ele>297.0</ele><time>2026-04-20T15:45:30Z</time></trkpt><trkpt lat="45.708009644493124" lon="9.492189140968371"><ele>297.0</ele><time>2026-04-20T15:45:34Z</time></trkpt><trkpt lat="45.70798670705346" lon="9.49231756384105"><ele>297.0</ele><time>2026-04-20T15:45:35Z</time></trkpt><trkpt lat="45.70794108971905" lon="9.492510202235628"><ele>297.0</ele><time>2026-04-20T15:45:37Z</time></trkpt><trkpt lat="45.70788583141272" lon="9.492607531906792"><ele>297.0</ele><time>2026-04-20T15:45:38Z</time></trkpt><trkpt lat="45.70781338975878" lon="9.492678642027768"><ele>296.8</ele><time>2026-04-20T15:45:39Z</time></trkpt><trkpt lat="45.70772756731561" lon="9.492728496455099"><ele>296.6</ele><time>2026-04-20T15:45:40Z</time></trkpt><trkpt lat="45.70763845280049" lon="9.492777904995686"><ele>296.40000000000003</ele><time>2026-04-20T15:45:41Z</time></trkpt><trkpt lat="45.7075505696139" lon="9.492833748654572"><ele>296.2</ele><time>2026-04-20T15:45:42Z</time></trkpt><trkpt lat="45.707466665986686" lon="9.492909242021828"><ele>296.0</ele><time>2026-04-20T15:45:43Z</time></trkpt><trkpt lat="45.70738970219854" lon="9.49300690154315"><ele>296.0</ele><time>2026-04-20T15:45:44Z</time></trkpt><trkpt lat="45.70730672180906" lon="9.493105405559115"><ele>296.0</ele><time>2026-04-20T15:45:45Z</time></trkpt><trkpt lat="45.70722998699638" lon="9.49318133166812"><ele>296.0</ele><time>2026-04-20T15:45:46Z</time></trkpt><trkpt lat="45.70715776397224" lon="9.493256712711045"><ele>296.0</ele><time>2026-04-20T15:45:47Z</time></trkpt><trkpt lat="45.70709422507175" lon="9.493338332805646"><ele>296.0</ele><time>2026-04-20T15:45:48Z</time></trkpt><trkpt lat="45.707032512940316" lon="9.493403244093466"><ele>296.0</ele><time>2026-04-20T15:45:49Z</time></trkpt><trkpt lat="45.706990410558646" lon="9.493484636410715"><ele>296.0</ele><time>2026-04-20T15:45:50Z</time></trkpt><trkpt lat="45.706951697248485" lon="9.493580079906792"><ele>296.0</ele><time>2026-04-20T15:45:51Z</time></trkpt><trkpt lat="45.706913916381666" lon="9.493681127067727"><ele>296.0</ele><time>2026-04-20T15:45:52Z</time></trkpt><trkpt lat="45.70687382315735" lon="9.493773923869373"><ele>296.0</ele><time>2026-04-20T15:45:53Z</time></trkpt><trkpt lat="45.70683630948418" lon="9.49386370877685"><ele>296.0</ele><time>2026-04-20T15:45:54Z</time></trkpt><trkpt lat="45.70682163871479" lon="9.493962319229526"><ele>296.0</ele><time>2026-04-20T15:45:55Z</time></trkpt><trkpt lat="45.70685770245874" lon="9.494159899228059"><ele>296.0</ele><time>2026-04-20T15:45:57Z</time></trkpt><trkpt lat="45.70690452037518" lon="9.494287844889799"><ele>296.0</ele><time>2026-04-20T15:45:58Z</time></trkpt><trkpt lat="45.70691985153995" lon="9.494412992243124"><ele>296.0</ele><time>2026-04-20T15:45:59Z</time></trkpt><trkpt lat="45.70694392018409" lon="9.494531084598178"><ele>296.0</ele><time>2026-04-20T15:46:00Z</time></trkpt><trkpt lat="45.7069691087016" lon="9.494662601342025"><ele>296.0</ele><time>2026-04-20T15:46:02Z</time></trkpt><trkpt lat="45.70717602490497" lon="9.494634827231934"><ele>296.0</ele><time>2026-04-20T15:46:04Z</time></trkpt><trkpt lat="45.70723708875547" lon="9.494612275755248"><ele>296.0</ele><time>2026-04-20T15:46:05Z</time></trkpt><trkpt lat="45.707312102519644" lon="9.494589710047665"><ele>296.0</ele><time>2026-04-20T15:46:06Z</time></trkpt><trkpt lat="45.70744074895475" lon="9.494564766223032"><ele>296.0</ele><time>2026-04-20T15:46:08Z</time></trkpt><trkpt lat="45.70751377032655" lon="9.494555819044386"><ele>296.0</ele><time>2026-04-20T15:46:09Z</time></trkpt><trkpt lat="45.70758983943939" lon="9.494577926461352"><ele>296.0</ele><time>2026-04-20T15:46:10Z</time></trkpt><trkpt lat="45.70766920095088" lon="9.494619974402111"><ele>296.0</ele><time>2026-04-20T15:46:11Z</time></trkpt><trkpt lat="45.70774909454676" lon="9.494592078125516"><ele>296.0</ele><time>2026-04-20T15:46:12Z</time></trkpt><trkpt lat="45.707835727443666" lon="9.494579695269012"><ele>296.0</ele><time>2026-04-20T15:46:13Z</time></trkpt><trkpt lat="45.707907714572606" lon="9.49459807186357"><ele>296.0</ele><time>2026-04-20T15:46:14Z</time></trkpt><trkpt lat="45.70799144916126" lon="9.494592934643698"><ele>296.0</ele><time>2026-04-20T15:46:15Z</time></trkpt><trkpt lat="45.70805921996124" lon="9.494589509385737"><ele>296.0</ele><time>2026-04-20T15:46:16Z</time></trkpt><trkpt lat="45.708109858376574" lon="9.494514042131634"><ele>296.6666666666667</ele><time>2026-04-20T15:46:17Z</time></trkpt><trkpt lat="45.7081487729302" lon="9.494429115285577"><ele>297.33333333333337</ele><time>2026-04-20T15:46:18Z</time></trkpt><trkpt lat="45.70818885724498" lon="9.494317200982467"><ele>298.0</ele><time>2026-04-20T15:46:19Z</time></trkpt><trkpt lat="45.708222479743156" lon="9.49421890636315"><ele>298.6666666666667</ele><time>2026-04-20T15:46:20Z</time></trkpt><trkpt lat="45.708270575026596" lon="9.494113555819045"><ele>299.3333333333333</ele><time>2026-04-20T15:46:21Z</time></trkpt><trkpt lat="45.70833530709029" lon="9.494044489178476"><ele>300.0</ele><time>2026-04-20T15:46:22Z</time></trkpt><trkpt lat="45.70843906122431" lon="9.49390739555533"><ele>300.0</ele><time>2026-04-20T15:46:24Z</time></trkpt><trkpt lat="45.708484097496125" lon="9.493829841399176"><ele>300.0</ele><time>2026-04-20T15:46:25Z</time></trkpt><trkpt lat="45.70853893176014" lon="9.493775043865035"><ele>300.0</ele><time>2026-04-20T15:46:26Z</time></trkpt><trkpt lat="45.70860106939319" lon="9.49375919623032"><ele>300.0</ele><time>2026-04-20T15:46:27Z</time></trkpt><trkpt lat="45.7087465336869" lon="9.493835705696437"><ele>300.0</ele><time>2026-04-20T15:46:29Z</time></trkpt><trkpt lat="45.708863928490715" lon="9.493891647187889"><ele>300.0</ele><time>2026-04-20T15:46:30Z</time></trkpt><trkpt lat="45.70896427992934" lon="9.493866573142583"><ele>300.0</ele><time>2026-04-20T15:46:31Z</time></trkpt><trkpt lat="45.70904292152122" lon="9.493822514514592"><ele>300.0</ele><time>2026-04-20T15:46:32Z</time></trkpt><trkpt lat="45.70911754955637" lon="9.49378834295749"><ele>300.0</ele><time>2026-04-20T15:46:33Z</time></trkpt><trkpt lat="45.70919791572864" lon="9.493714732116654"><ele>300.0</ele><time>2026-04-20T15:46:34Z</time></trkpt><trkpt lat="45.70927274161786" lon="9.49367919526448"><ele>300.0</ele><time>2026-04-20T15:46:35Z</time></trkpt><trkpt lat="45.70934854545378" lon="9.493650346357887"><ele>301.4</ele><time>2026-04-20T15:46:36Z</time></trkpt><trkpt lat="45.70947176332555" lon="9.493598124115827"><ele>302.8</ele><time>2026-04-20T15:46:38Z</time></trkpt><trkpt lat="45.70955528843628" lon="9.493598287146227"><ele>304.2</ele><time>2026-04-20T15:46:39Z</time></trkpt><trkpt lat="45.70963433764945" lon="9.493600833162205"><ele>305.6</ele><time>2026-04-20T15:46:40Z</time></trkpt><trkpt lat="45.70972519899712" lon="9.49359258002912"><ele>307.0</ele><time>2026-04-20T15:46:41Z</time></trkpt><trkpt lat="45.70982339654481" lon="9.493585831282815"><ele>307.0</ele><time>2026-04-20T15:46:42Z</time></trkpt><trkpt lat="45.70991462248592" lon="9.49356433291162"><ele>307.0</ele><time>2026-04-20T15:46:43Z</time></trkpt><trkpt lat="45.709998982423535" lon="9.49355000553886"><ele>307.0</ele><time>2026-04-20T15:46:44Z</time></trkpt><trkpt lat="45.71008300617487" lon="9.493531476613759"><ele>307.0</ele><time>2026-04-20T15:46:45Z</time></trkpt><trkpt lat="45.71017131671355" lon="9.493524768746136"><ele>307.0</ele><time>2026-04-20T15:46:46Z</time></trkpt><trkpt lat="45.710258159111525" lon="9.49354577105323"><ele>307.0</ele><time>2026-04-20T15:46:47Z</time></trkpt><trkpt lat="45.71034863918947" lon="9.493580204994855"><ele>307.0</ele><time>2026-04-20T15:46:48Z</time></trkpt><trkpt lat="45.710431444773924" lon="9.493627891942605"><ele>307.0</ele><time>2026-04-20T15:46:49Z</time></trkpt><trkpt lat="45.71048668079094" lon="9.493729302598487"><ele>307.0</ele><time>2026-04-20T15:46:50Z</time></trkpt><trkpt lat="45.71054528049357" lon="9.493813816383932"><ele>307.0</ele><time>2026-04-20T15:46:51Z</time></trkpt><trkpt lat="45.710592561362425" lon="9.493908087629233"><ele>307.0</ele><time>2026-04-20T15:46:52Z</time></trkpt><trkpt lat="45.710627746276245" lon="9.4940029625269"><ele>307.0</ele><time>2026-04-20T15:46:53Z</time></trkpt><trkpt lat="45.71065416596873" lon="9.494110963168431"><ele>307.8333333333333</ele><time>2026-04-20T15:46:54Z</time></trkpt><trkpt lat="45.71067864581776" lon="9.494227213788639"><ele>308.66666666666663</ele><time>2026-04-20T15:46:55Z</time></trkpt><trkpt lat="45.710713480709714" lon="9.494330106619241"><ele>309.5</ele><time>2026-04-20T15:46:56Z</time></trkpt><trkpt lat="45.71074877577289" lon="9.494442855207634"><ele>310.3333333333333</ele><time>2026-04-20T15:46:57Z</time></trkpt><trkpt lat="45.71078480468102" lon="9.494546283619124"><ele>311.1666666666667</ele><time>2026-04-20T15:46:58Z</time></trkpt><trkpt lat="45.710826926808465" lon="9.494642931249853"><ele>312.0</ele><time>2026-04-20T15:46:59Z</time></trkpt><trkpt lat="45.710870795214255" lon="9.494733105387017"><ele>312.5</ele><time>2026-04-20T15:47:00Z</time></trkpt><trkpt lat="45.710908780204406" lon="9.494825875692847"><ele>313.0</ele><time>2026-04-20T15:47:01Z</time></trkpt><trkpt lat="45.71095172187741" lon="9.494926398656546"><ele>313.5</ele><time>2026-04-20T15:47:02Z</time></trkpt><trkpt lat="45.71099506684881" lon="9.495025709665352"><ele>314.0</ele><time>2026-04-20T15:47:03Z</time></trkpt><trkpt lat="45.711044530185546" lon="9.495116669448056"><ele>314.5</ele><time>2026-04-20T15:47:04Z</time></trkpt><trkpt lat="45.71114587406183" lon="9.495212448865292"><ele>315.0</ele><time>2026-04-20T15:47:06Z</time></trkpt><trkpt lat="45.71119412922104" lon="9.495284344798858"><ele>316.3333333333333</ele><time>2026-04-20T15:47:07Z</time></trkpt><trkpt lat="45.71127638027705" lon="9.495301403760491"><ele>317.6666666666667</ele><time>2026-04-20T15:47:08Z</time></trkpt><trkpt lat="45.71136597379856" lon="9.49529636500336"><ele>319.0</ele><time>2026-04-20T15:47:09Z</time></trkpt><trkpt lat="45.71142962803784" lon="9.49528727154304"><ele>320.33333333333337</ele><time>2026-04-20T15:47:10Z</time></trkpt><trkpt lat="45.71156189035813" lon="9.49526718871929"><ele>321.6666666666667</ele><time>2026-04-20T15:47:12Z</time></trkpt><trkpt lat="45.71162809134392" lon="9.4952500879582"><ele>323.0</ele><time>2026-04-20T15:47:13Z</time></trkpt><trkpt lat="45.71171107587328" lon="9.495200823033317"><ele>323.0</ele><time>2026-04-20T15:47:14Z</time></trkpt><trkpt lat="45.71178633214532" lon="9.495134894457966"><ele>323.0</ele><time>2026-04-20T15:47:15Z</time></trkpt><trkpt lat="45.71187213297715" lon="9.495102145633934"><ele>323.0</ele><time>2026-04-20T15:47:16Z</time></trkpt><trkpt lat="45.7119443290968" lon="9.495047935756341"><ele>323.0</ele><time>2026-04-20T15:47:17Z</time></trkpt><trkpt lat="45.712009807530016" lon="9.494981270754105"><ele>323.0</ele><time>2026-04-20T15:47:18Z</time></trkpt><trkpt lat="45.7120552664703" lon="9.494915052146583"><ele>323.0</ele><time>2026-04-20T15:47:19Z</time></trkpt><trkpt lat="45.7120982356258" lon="9.494847302568406"><ele>324.0</ele><time>2026-04-20T15:47:20Z</time></trkpt><trkpt lat="45.712149154937514" lon="9.49478898484693"><ele>325.0</ele><time>2026-04-20T15:47:21Z</time></trkpt><trkpt lat="45.71225369643774" lon="9.494776500471119"><ele>326.0</ele><time>2026-04-20T15:47:23Z</time></trkpt><trkpt lat="45.71234363643989" lon="9.494762848990902"><ele>327.0</ele><time>2026-04-20T15:47:24Z</time></trkpt><trkpt lat="45.712423669713324" lon="9.49472972768561"><ele>328.0</ele><time>2026-04-20T15:47:25Z</time></trkpt><trkpt lat="45.712490486655675" lon="9.494725134673837"><ele>329.0</ele><time>2026-04-20T15:47:26Z</time></trkpt><trkpt lat="45.71262386892353" lon="9.494689303117802"><ele>329.0</ele><time>2026-04-20T15:47:28Z</time></trkpt><trkpt lat="45.71271912782696" lon="9.494672124302936"><ele>329.0</ele><time>2026-04-20T15:47:29Z</time></trkpt><trkpt lat="45.71280529134132" lon="9.494651501551827"><ele>329.0</ele><time>2026-04-20T15:47:30Z</time></trkpt><trkpt lat="45.71288861909526" lon="9.49464397944395"><ele>329.0</ele><time>2026-04-20T15:47:31Z</time></trkpt><trkpt lat="45.712970185729766" lon="9.494645789220856"><ele>329.0</ele><time>2026-04-20T15:47:32Z</time></trkpt><trkpt lat="45.71304692759917" lon="9.494639722774606"><ele>329.0</ele><time>2026-04-20T15:47:33Z</time></trkpt><trkpt lat="45.71311120912331" lon="9.494613287236504"><ele>331.5</ele><time>2026-04-20T15:47:34Z</time></trkpt><trkpt lat="45.71319410968728" lon="9.494570942102891"><ele>334.0</ele><time>2026-04-20T15:47:36Z</time></trkpt><trkpt lat="45.713257361789886" lon="9.494567815030827"><ele>336.5</ele><time>2026-04-20T15:47:38Z</time></trkpt><trkpt lat="45.71334713178906" lon="9.494601304132306"><ele>339.0</ele><time>2026-04-20T15:47:42Z</time></trkpt><trkpt lat="45.71342017421097" lon="9.49462907421414"><ele>341.5</ele><time>2026-04-20T15:47:44Z</time></trkpt><trkpt lat="45.713503130358546" lon="9.494716177403408"><ele>344.0</ele><time>2026-04-20T15:47:46Z</time></trkpt><trkpt lat="45.713546967640724" lon="9.494792983204327"><ele>350.0</ele><time>2026-04-20T15:47:47Z</time></trkpt><trkpt lat="45.71364461246286" lon="9.494782566344515"><ele>356.0</ele><time>2026-04-20T15:47:49Z</time></trkpt><trkpt lat="45.71371959311866" lon="9.494790280530323"><ele>362.0</ele><time>2026-04-20T15:47:50Z</time></trkpt><trkpt lat="45.713811901432095" lon="9.494755193641286"><ele>368.0</ele><time>2026-04-20T15:47:51Z</time></trkpt><trkpt lat="45.71387775952603" lon="9.494736806091213"><ele>374.0</ele><time>2026-04-20T15:47:52Z</time></trkpt><trkpt lat="45.7139743811098" lon="9.49464907278827"><ele>374.0</ele><time>2026-04-20T15:47:54Z</time></trkpt><trkpt lat="45.71402757032242" lon="9.494576475707092"><ele>374.0</ele><time>2026-04-20T15:47:55Z</time></trkpt><trkpt lat="45.71410109579031" lon="9.494619858601776"><ele>374.0</ele><time>2026-04-20T15:47:57Z</time></trkpt><trkpt lat="45.71400473657025" lon="9.494865637774017"><ele>374.0</ele><time>2026-04-20T15:48:04Z</time></trkpt><trkpt lat="45.7140218711854" lon="9.49495353648736"><ele>374.0</ele><time>2026-04-20T15:48:07Z</time></trkpt><trkpt lat="45.7141211562027" lon="9.494896101688077"><ele>374.0</ele><time>2026-04-20T15:48:10Z</time></trkpt><trkpt lat="45.714204500648" lon="9.494836102801326"><ele>374.0</ele><time>2026-04-20T15:48:12Z</time></trkpt><trkpt lat="45.71426348520989" lon="9.494773236562827"><ele>374.0</ele><time>2026-04-20T15:48:13Z</time></trkpt><trkpt lat="45.71435499352501" lon="9.49466651521194"><ele>374.0</ele><time>2026-04-20T15:48:15Z</time></trkpt><trkpt lat="45.71443865071724" lon="9.494663387313674"><ele>374.0</ele><time>2026-04-20T15:48:17Z</time></trkpt><trkpt lat="45.71452960581378" lon="9.494612742191222"><ele>372.6666666666667</ele><time>2026-04-20T15:48:19Z</time></trkpt><trkpt lat="45.714579677388535" lon="9.494498155664886"><ele>371.33333333333337</ele><time>2026-04-20T15:48:21Z</time></trkpt><trkpt lat="45.71461723719424" lon="9.494408134762693"><ele>370.0</ele><time>2026-04-20T15:48:22Z</time></trkpt><trkpt lat="45.71460767352485" lon="9.494307392274587"><ele>368.6666666666667</ele><time>2026-04-20T15:48:23Z</time></trkpt><trkpt lat="45.714556840421956" lon="9.4942370083511"><ele>367.3333333333333</ele><time>2026-04-20T15:48:24Z</time></trkpt><trkpt lat="45.71446361315213" lon="9.494215226536591"><ele>366.0</ele><time>2026-04-20T15:48:25Z</time></trkpt><trkpt lat="45.71436578907153" lon="9.494098731796207"><ele>366.0</ele><time>2026-04-20T15:48:27Z</time></trkpt><trkpt lat="45.71429965775632" lon="9.494013317837755"><ele>366.0</ele><time>2026-04-20T15:48:28Z</time></trkpt><trkpt lat="45.71424655608826" lon="9.493961277915366"><ele>366.0</ele><time>2026-04-20T15:48:29Z</time></trkpt><trkpt lat="45.71415399356195" lon="9.493985187272525"><ele>366.0</ele><time>2026-04-20T15:48:30Z</time></trkpt><trkpt lat="45.71409393921539" lon="9.493909789726956"><ele>366.0</ele><time>2026-04-20T15:48:31Z</time></trkpt><trkpt lat="45.71405438828807" lon="9.493767676777674"><ele>366.0</ele><time>2026-04-20T15:48:33Z</time></trkpt><trkpt lat="45.7139892081946" lon="9.493687084518477"><ele>368.3333333333333</ele><time>2026-04-20T15:48:35Z</time></trkpt><trkpt lat="45.7138826854031" lon="9.493676860658502"><ele>370.6666666666667</ele><time>2026-04-20T15:48:37Z</time></trkpt><trkpt lat="45.71381734657366" lon="9.493708181215863"><ele>373.0</ele><time>2026-04-20T15:48:38Z</time></trkpt><trkpt lat="45.713717786455824" lon="9.493653209491129"><ele>375.33333333333337</ele><time>2026-04-20T15:48:40Z</time></trkpt><trkpt lat="45.713646040278995" lon="9.493586763473358"><ele>377.6666666666667</ele><time>2026-04-20T15:48:42Z</time></trkpt><trkpt lat="45.7136501373764" lon="9.493485303128521"><ele>380.0</ele><time>2026-04-20T15:48:43Z</time></trkpt><trkpt lat="45.713673091726925" lon="9.493395411617596"><ele>380.0</ele><time>2026-04-20T15:48:44Z</time></trkpt><trkpt lat="45.71372229438283" lon="9.493270461087034"><ele>380.0</ele><time>2026-04-20T15:48:46Z</time></trkpt><trkpt lat="45.71374349847234" lon="9.493177828472554"><ele>380.0</ele><time>2026-04-20T15:48:47Z</time></trkpt><trkpt lat="45.71380125395902" lon="9.493038548504147"><ele>380.0</ele><time>2026-04-20T15:48:49Z</time></trkpt><trkpt lat="45.713856691854915" lon="9.492966358937592"><ele>380.0</ele><time>2026-04-20T15:48:50Z</time></trkpt><trkpt lat="45.71391780224644" lon="9.492855247806304"><ele>378.0</ele><time>2026-04-20T15:48:51Z</time></trkpt><trkpt lat="45.713980006009095" lon="9.492787396458892"><ele>376.0</ele><time>2026-04-20T15:48:52Z</time></trkpt><trkpt lat="45.714046377950545" lon="9.492725843489964"><ele>374.0</ele><time>2026-04-20T15:48:53Z</time></trkpt><trkpt lat="45.71413593115378" lon="9.492744216864802"><ele>372.0</ele><time>2026-04-20T15:48:55Z</time></trkpt><trkpt lat="45.71425134380286" lon="9.49278353227527"><ele>370.0</ele><time>2026-04-20T15:48:58Z</time></trkpt><trkpt lat="45.71439654531605" lon="9.492757568018785"><ele>373.0</ele><time>2026-04-20T15:48:59Z</time></trkpt><trkpt lat="45.714494416678214" lon="9.492720138190027"><ele>376.0</ele><time>2026-04-20T15:49:00Z</time></trkpt><trkpt lat="45.71457566093427" lon="9.492690723576017"><ele>379.0</ele><time>2026-04-20T15:49:01Z</time></trkpt><trkpt lat="45.71464892836833" lon="9.492669746404115"><ele>382.0</ele><time>2026-04-20T15:49:02Z</time></trkpt><trkpt lat="45.71473274855117" lon="9.492662555716647"><ele>385.00000000000006</ele><time>2026-04-20T15:49:04Z</time></trkpt><trkpt lat="45.71483743790869" lon="9.492676311174694"><ele>388.0</ele><time>2026-04-20T15:49:05Z</time></trkpt><trkpt lat="45.71494455538079" lon="9.492687837715295"><ele>388.0</ele><time>2026-04-20T15:49:06Z</time></trkpt><trkpt lat="45.715052027338835" lon="9.492658663524175"><ele>388.0</ele><time>2026-04-20T15:49:07Z</time></trkpt><trkpt lat="45.7151425864583" lon="9.49263341550474"><ele>388.0</ele><time>2026-04-20T15:49:08Z</time></trkpt><trkpt lat="45.71521515251338" lon="9.492645613092341"><ele>388.0</ele><time>2026-04-20T15:49:09Z</time></trkpt><trkpt lat="45.715304228758455" lon="9.492635955920406"><ele>388.0</ele><time>2026-04-20T15:49:11Z</time></trkpt><trkpt lat="45.71537635891274" lon="9.492716118544966"><ele>391.00000000000006</ele><time>2026-04-20T15:49:12Z</time></trkpt><trkpt lat="45.71546878038396" lon="9.492737513731843"><ele>394.0</ele><time>2026-04-20T15:49:13Z</time></trkpt><trkpt lat="45.71557210543959" lon="9.49271673378457"><ele>397.0</ele><time>2026-04-20T15:49:14Z</time></trkpt><trkpt lat="45.71565025561049" lon="9.492693338998563"><ele>400.0</ele><time>2026-04-20T15:49:15Z</time></trkpt><trkpt lat="45.7157177384287" lon="9.492632372771068"><ele>403.00000000000006</ele><time>2026-04-20T15:49:17Z</time></trkpt><trkpt lat="45.71571967849719" lon="9.492514057800049"><ele>406.0</ele><time>2026-04-20T15:49:18Z</time></trkpt><trkpt lat="45.715716507475626" lon="9.492382584898692"><ele>406.0</ele><time>2026-04-20T15:49:20Z</time></trkpt><trkpt lat="45.7156399079651" lon="9.49220337116463"><ele>406.0</ele><time>2026-04-20T15:49:22Z</time></trkpt><trkpt lat="45.71569912362443" lon="9.49213763272108"><ele>406.0</ele><time>2026-04-20T15:49:25Z</time></trkpt><trkpt lat="45.715735508099336" lon="9.492061147912272"><ele>406.0</ele><time>2026-04-20T15:49:31Z</time></trkpt><trkpt lat="45.71579299800621" lon="9.492019696879797"><ele>406.0</ele><time>2026-04-20T15:49:35Z</time></trkpt><trkpt lat="45.715976903656454" lon="9.49201642884637"><ele>408.25</ele><time>2026-04-20T15:49:41Z</time></trkpt><trkpt lat="45.7162069837612" lon="9.492061805551439"><ele>410.5</ele><time>2026-04-20T15:49:45Z</time></trkpt><trkpt lat="45.71628699140659" lon="9.492089261325212"><ele>412.75</ele><time>2026-04-20T15:49:46Z</time></trkpt><trkpt lat="45.71637944246924" lon="9.492115295806837"><ele>415.0</ele><time>2026-04-20T15:49:47Z</time></trkpt><trkpt lat="45.716445875371136" lon="9.49206471953427"><ele>415.00000000000006</ele><time>2026-04-20T15:49:48Z</time></trkpt><trkpt lat="45.716563780255974" lon="9.492032773721936"><ele>415.0</ele><time>2026-04-20T15:49:50Z</time></trkpt><trkpt lat="45.71663603587055" lon="9.491966201637164"><ele>415.0</ele><time>2026-04-20T15:49:53Z</time></trkpt><trkpt lat="45.7167129497403" lon="9.491928025690877"><ele>415.0</ele><time>2026-04-20T15:49:54Z</time></trkpt><trkpt lat="45.71677014984127" lon="9.491874193753052"><ele>415.00000000000006</ele><time>2026-04-20T15:49:55Z</time></trkpt><trkpt lat="45.71684222743563" lon="9.49183490281125"><ele>415.0</ele><time>2026-04-20T15:49:56Z</time></trkpt><trkpt lat="45.716929751831216" lon="9.491787924620322"><ele>418.00000000000006</ele><time>2026-04-20T15:49:57Z</time></trkpt><trkpt lat="45.71699470989572" lon="9.491768932533558"><ele>421.0</ele><time>2026-04-20T15:49:58Z</time></trkpt><trkpt lat="45.7170750760614" lon="9.491758678312426"><ele>424.0</ele><time>2026-04-20T15:49:59Z</time></trkpt><trkpt lat="45.71716231901942" lon="9.491735933371595"><ele>427.0</ele><time>2026-04-20T15:50:00Z</time></trkpt><trkpt lat="45.71724167622054" lon="9.491715870355272"><ele>430.00000000000006</ele><time>2026-04-20T15:50:01Z</time></trkpt><trkpt lat="45.71735341534659" lon="9.49166351403001"><ele>433.0</ele><time>2026-04-20T15:50:02Z</time></trkpt><trkpt lat="45.717465447168784" lon="9.491644617671495"><ele>433.0</ele><time>2026-04-20T15:50:04Z</time></trkpt><trkpt lat="45.717529320328566" lon="9.49162807809407"><ele>432.99999999999994</ele><time>2026-04-20T15:50:05Z</time></trkpt><trkpt lat="45.717630320209665" lon="9.491600044541459"><ele>432.99999999999994</ele><time>2026-04-20T15:50:07Z</time></trkpt><trkpt lat="45.717706584282496" lon="9.491678218295066"><ele>433.0</ele><time>2026-04-20T15:50:10Z</time></trkpt><trkpt lat="45.71764110967098" lon="9.491642405955828"><ele>433.0</ele><time>2026-04-20T15:50:14Z</time></trkpt><trkpt lat="45.717498921401685" lon="9.491738126727705"><ele>433.0</ele><time>2026-04-20T15:50:16Z</time></trkpt><trkpt lat="45.717435377663065" lon="9.491823209244355"><ele>432.99999999999994</ele><time>2026-04-20T15:50:19Z</time></trkpt><trkpt lat="45.71738450837581" lon="9.491886810820697"><ele>432.99999999999994</ele><time>2026-04-20T15:50:21Z</time></trkpt><trkpt lat="45.71729063606353" lon="9.492041062827779"><ele>433.0</ele><time>2026-04-20T15:50:23Z</time></trkpt><trkpt lat="45.71720488298956" lon="9.49208137282025"><ele>433.0</ele><time>2026-04-20T15:50:24Z</time></trkpt><trkpt lat="45.717091166889695" lon="9.492190309955104"><ele>433.2</ele><time>2026-04-20T15:50:26Z</time></trkpt><trkpt lat="45.71702073148709" lon="9.492239149079872"><ele>433.4</ele><time>2026-04-20T15:50:27Z</time></trkpt><trkpt lat="45.716969556239505" lon="9.492308013768367"><ele>433.59999999999997</ele><time>2026-04-20T15:50:28Z</time></trkpt><trkpt lat="45.71694077639989" lon="9.492417856135507"><ele>433.79999999999995</ele><time>2026-04-20T15:50:29Z</time></trkpt><trkpt lat="45.716923283773774" lon="9.492520225489702"><ele>434.0</ele><time>2026-04-20T15:50:30Z</time></trkpt><trkpt lat="45.716882038728286" lon="9.492725971840242"><ele>433.99999999999994</ele><time>2026-04-20T15:50:32Z</time></trkpt><trkpt lat="45.716876713009036" lon="9.492844984210741"><ele>434.0</ele><time>2026-04-20T15:50:33Z</time></trkpt><trkpt lat="45.71686165210444" lon="9.492960888513919"><ele>434.0</ele><time>2026-04-20T15:50:34Z</time></trkpt><trkpt lat="45.71686565684275" lon="9.493065149992622"><ele>434.0</ele><time>2026-04-20T15:50:35Z</time></trkpt><trkpt lat="45.71685252989832" lon="9.493173607890725"><ele>433.99999999999994</ele><time>2026-04-20T15:50:36Z</time></trkpt><trkpt lat="45.71679788688355" lon="9.493251774593514"><ele>434.0</ele><time>2026-04-20T15:50:37Z</time></trkpt><trkpt lat="45.71676141503713" lon="9.493361846124769"><ele>435.8333333333333</ele><time>2026-04-20T15:50:38Z</time></trkpt><trkpt lat="45.716726076957656" lon="9.493484269805867"><ele>437.66666666666663</ele><time>2026-04-20T15:50:39Z</time></trkpt><trkpt lat="45.71670159959374" lon="9.493578694493575"><ele>439.5</ele><time>2026-04-20T15:50:40Z</time></trkpt><trkpt lat="45.71666002178677" lon="9.493668337584507"><ele>441.33333333333337</ele><time>2026-04-20T15:50:42Z</time></trkpt><trkpt lat="45.7167696317088" lon="9.49370036123605"><ele>443.1666666666667</ele><time>2026-04-20T15:50:45Z</time></trkpt><trkpt lat="45.716804585980746" lon="9.493573447004518"><ele>445.0</ele><time>2026-04-20T15:50:46Z</time></trkpt><trkpt lat="45.71689242664765" lon="9.493526505573664"><ele>451.4</ele><time>2026-04-20T15:50:47Z</time></trkpt><trkpt lat="45.716964793356894" lon="9.493459016577681"><ele>457.8</ele><time>2026-04-20T15:50:48Z</time></trkpt><trkpt lat="45.71703253801146" lon="9.493407843128976"><ele>464.20000000000005</ele><time>2026-04-20T15:50:49Z</time></trkpt><trkpt lat="45.717102732921646" lon="9.49337749777879"><ele>470.6</ele><time>2026-04-20T15:50:50Z</time></trkpt><trkpt lat="45.71718653832146" lon="9.493331494966526"><ele>477.0</ele><time>2026-04-20T15:50:51Z</time></trkpt><trkpt lat="45.71728190519941" lon="9.493212857848558"><ele>477.0</ele><time>2026-04-20T15:50:52Z</time></trkpt><trkpt lat="45.71736607970731" lon="9.493106865594834"><ele>477.00000000000006</ele><time>2026-04-20T15:50:53Z</time></trkpt><trkpt lat="45.71744768131185" lon="9.493014564676887"><ele>477.00000000000006</ele><time>2026-04-20T15:50:54Z</time></trkpt><trkpt lat="45.71750786919528" lon="9.492921206786882"><ele>477.0</ele><time>2026-04-20T15:50:55Z</time></trkpt><trkpt lat="45.71759017050426" lon="9.492848018609372"><ele>477.0</ele><time>2026-04-20T15:50:56Z</time></trkpt><trkpt lat="45.717669847851816" lon="9.492778684860236"><ele>477.0</ele><time>2026-04-20T15:50:57Z</time></trkpt><trkpt lat="45.717787513100966" lon="9.492727615328127"><ele>477.00000000000006</ele><time>2026-04-20T15:50:59Z</time></trkpt><trkpt lat="45.717759775672576" lon="9.492917295466452"><ele>477.00000000000006</ele><time>2026-04-20T15:51:05Z</time></trkpt><trkpt lat="45.71768728991456" lon="9.492986762103646"><ele>477.0</ele><time>2026-04-20T15:51:06Z</time></trkpt><trkpt lat="45.71761504405897" lon="9.49304183128349"><ele>477.0</ele><time>2026-04-20T15:51:07Z</time></trkpt><trkpt lat="45.717580918134075" lon="9.493125088357427"><ele>477.0</ele><time>2026-04-20T15:51:08Z</time></trkpt><trkpt lat="45.71756262527276" lon="9.493232302082642"><ele>477.0</ele><time>2026-04-20T15:51:09Z</time></trkpt><trkpt lat="45.71756178992512" lon="9.493350058299137"><ele>477.0</ele><time>2026-04-20T15:51:10Z</time></trkpt><trkpt lat="45.71754702335332" lon="9.493463351135794"><ele>477.0</ele><time>2026-04-20T15:51:11Z</time></trkpt><trkpt lat="45.71750225599273" lon="9.493578435388857"><ele>477.0</ele><time>2026-04-20T15:51:12Z</time></trkpt><trkpt lat="45.71745791563482" lon="9.493689200687536"><ele>477.0</ele><time>2026-04-20T15:51:13Z</time></trkpt><trkpt lat="45.71739252262853" lon="9.493746854163746"><ele>479.3333333333333</ele><time>2026-04-20T15:51:14Z</time></trkpt><trkpt lat="45.71733405430492" lon="9.493819370749835"><ele>481.66666666666663</ele><time>2026-04-20T15:51:15Z</time></trkpt><trkpt lat="45.71722644445602" lon="9.493912126527272"><ele>484.0</ele><time>2026-04-20T15:51:17Z</time></trkpt><trkpt lat="45.717214223341195" lon="9.494009104640904"><ele>486.3333333333333</ele><time>2026-04-20T15:51:19Z</time></trkpt><trkpt lat="45.717226394189524" lon="9.494132502378475"><ele>488.66666666666663</ele><time>2026-04-20T15:51:21Z</time></trkpt><trkpt lat="45.7173095029584" lon="9.4941727967564"><ele>491.0</ele><time>2026-04-20T15:51:22Z</time></trkpt><trkpt lat="45.71737902216325" lon="9.494305451091853"><ele>491.0</ele><time>2026-04-20T15:51:24Z</time></trkpt><trkpt lat="45.71743214561863" lon="9.494554583827378"><ele>491.0</ele><time>2026-04-20T15:51:26Z</time></trkpt><trkpt lat="45.71744805591931" lon="9.494676244865351"><ele>491.0</ele><time>2026-04-20T15:51:27Z</time></trkpt><trkpt lat="45.71746776260331" lon="9.494783306294725"><ele>491.0</ele><time>2026-04-20T15:51:29Z</time></trkpt><trkpt lat="45.71758039313987" lon="9.494560376138992"><ele>490.99999999999994</ele><time>2026-04-20T15:51:35Z</time></trkpt><trkpt lat="45.71760223666801" lon="9.4944472829482"><ele>491.0</ele><time>2026-04-20T15:51:36Z</time></trkpt><trkpt lat="45.71762243681883" lon="9.494334031337935"><ele>491.0</ele><time>2026-04-20T15:51:37Z</time></trkpt><trkpt lat="45.717652771694794" lon="9.494217990205927"><ele>491.0</ele><time>2026-04-20T15:51:38Z</time></trkpt><trkpt lat="45.71769879853436" lon="9.494074360129158"><ele>490.99999999999994</ele><time>2026-04-20T15:51:40Z</time></trkpt><trkpt lat="45.71773980262118" lon="9.493993051153359"><ele>491.0</ele><time>2026-04-20T15:51:41Z</time></trkpt><trkpt lat="45.717797109736956" lon="9.49390999857239"><ele>493.49999999999994</ele><time>2026-04-20T15:51:43Z</time></trkpt><trkpt lat="45.71786788779229" lon="9.493812896301298"><ele>496.0</ele><time>2026-04-20T15:51:45Z</time></trkpt><trkpt lat="45.717924291436574" lon="9.49374400896153"><ele>498.5</ele><time>2026-04-20T15:51:46Z</time></trkpt><trkpt lat="45.71798488210758" lon="9.493657899430124"><ele>501.0</ele><time>2026-04-20T15:51:48Z</time></trkpt><trkpt lat="45.71807143581659" lon="9.493701760180613"><ele>503.49999999999994</ele><time>2026-04-20T15:51:49Z</time></trkpt><trkpt lat="45.71815202743736" lon="9.493687449211123"><ele>506.0</ele><time>2026-04-20T15:51:50Z</time></trkpt><trkpt lat="45.71823061463888" lon="9.493666615723024"><ele>506.0</ele><time>2026-04-20T15:51:51Z</time></trkpt><trkpt lat="45.71835043764049" lon="9.493631588939056"><ele>506.0</ele><time>2026-04-20T15:51:53Z</time></trkpt><trkpt lat="45.718411601810644" lon="9.493598492917052"><ele>506.0</ele><time>2026-04-20T15:51:54Z</time></trkpt><trkpt lat="45.71847041862836" lon="9.4935485575889"><ele>506.0</ele><time>2026-04-20T15:51:55Z</time></trkpt><trkpt lat="45.71851868031417" lon="9.493466387985398"><ele>506.0</ele><time>2026-04-20T15:51:56Z</time></trkpt><trkpt lat="45.71862748553073" lon="9.493369001331054"><ele>510.4</ele><time>2026-04-20T15:51:58Z</time></trkpt><trkpt lat="45.71876366841502" lon="9.493311837726356"><ele>514.8</ele><time>2026-04-20T15:52:00Z</time></trkpt><trkpt lat="45.71887921511749" lon="9.493304325064162"><ele>519.1999999999999</ele><time>2026-04-20T15:52:02Z</time></trkpt><trkpt lat="45.718945206950934" lon="9.493341567817756"><ele>523.6</ele><time>2026-04-20T15:52:03Z</time></trkpt><trkpt lat="45.7189275509359" lon="9.49347292073006"><ele>528.0</ele><time>2026-04-20T15:52:05Z</time></trkpt><trkpt lat="45.7188524939675" lon="9.493486301995778"><ele>528.0</ele><time>2026-04-20T15:52:07Z</time></trkpt><trkpt lat="45.718788764975606" lon="9.493512826012315"><ele>528.0</ele><time>2026-04-20T15:52:08Z</time></trkpt><trkpt lat="45.718703302206166" lon="9.493536366017825"><ele>528.0</ele><time>2026-04-20T15:52:09Z</time></trkpt><trkpt lat="45.718609318211485" lon="9.493545080627822"><ele>528.0</ele><time>2026-04-20T15:52:10Z</time></trkpt><trkpt lat="45.71850614282478" lon="9.493640050795038"><ele>528.0</ele><time>2026-04-20T15:52:11Z</time></trkpt><trkpt lat="45.71840669017438" lon="9.493689602280833"><ele>528.1999999999999</ele><time>2026-04-20T15:52:12Z</time></trkpt><trkpt lat="45.71828198130347" lon="9.493755553782266"><ele>528.4</ele><time>2026-04-20T15:52:13Z</time></trkpt><trkpt lat="45.71821174980916" lon="9.49382949481043"><ele>528.5999999999999</ele><time>2026-04-20T15:52:14Z</time></trkpt><trkpt lat="45.71825348486176" lon="9.493932539579708"><ele>528.8</ele><time>2026-04-20T15:52:19Z</time></trkpt><trkpt lat="45.718324951348656" lon="9.493902251588963"><ele>529.0</ele><time>2026-04-20T15:52:21Z</time></trkpt><trkpt lat="45.71840124337933" lon="9.493919879397277"><ele>529.0</ele><time>2026-04-20T15:52:23Z</time></trkpt><trkpt lat="45.71847360638557" lon="9.493960258724846"><ele>529.0</ele><time>2026-04-20T15:52:25Z</time></trkpt><trkpt lat="45.71854637604758" lon="9.493886501321889"><ele>529.0</ele><time>2026-04-20T15:52:26Z</time></trkpt><trkpt lat="45.71874314177761" lon="9.493883789297714"><ele>529.0</ele><time>2026-04-20T15:52:31Z</time></trkpt><trkpt lat="45.71903759371517" lon="9.493847000753608"><ele>535.0</ele><time>2026-04-20T15:52:34Z</time></trkpt><trkpt lat="45.71913729906359" lon="9.493807137836159"><ele>541.0</ele><time>2026-04-20T15:52:35Z</time></trkpt><trkpt lat="45.719205578271584" lon="9.493943467321204"><ele>547.0</ele><time>2026-04-20T15:52:42Z</time></trkpt><trkpt lat="45.71908680327853" lon="9.494024184830229"><ele>553.0</ele><time>2026-04-20T15:52:44Z</time></trkpt><trkpt lat="45.718960522373614" lon="9.49416307576622"><ele>553.0</ele><time>2026-04-20T15:52:46Z</time></trkpt><trkpt lat="45.718829778168576" lon="9.494300656537636"><ele>553.0</ele><time>2026-04-20T15:52:48Z</time></trkpt><trkpt lat="45.718774870365976" lon="9.494376645496436"><ele>553.0</ele><time>2026-04-20T15:52:49Z</time></trkpt><trkpt lat="45.71877717320253" lon="9.494470375680725"><ele>553.0</ele><time>2026-04-20T15:52:51Z</time></trkpt><trkpt lat="45.71896074692076" lon="9.494452069441623"><ele>553.0</ele><time>2026-04-20T15:52:55Z</time></trkpt><trkpt lat="45.71901721453445" lon="9.494388955424284"><ele>553.0</ele><time>2026-04-20T15:52:56Z</time></trkpt><trkpt lat="45.719071551691435" lon="9.494339770860657"><ele>553.0</ele><time>2026-04-20T15:52:57Z</time></trkpt><trkpt lat="45.7191686556527" lon="9.494281981957368"><ele>553.0</ele><time>2026-04-20T15:52:58Z</time></trkpt><trkpt lat="45.71924036072402" lon="9.494247032263406"><ele>553.0</ele><time>2026-04-20T15:52:59Z</time></trkpt><trkpt lat="45.719317932531226" lon="9.494222190923697"><ele>553.0</ele><time>2026-04-20T15:53:00Z</time></trkpt><trkpt lat="45.71940653119947" lon="9.49419875652117"><ele>554.8</ele><time>2026-04-20T15:53:01Z</time></trkpt><trkpt lat="45.71951477544688" lon="9.494229241371928"><ele>556.5999999999999</ele><time>2026-04-20T15:53:02Z</time></trkpt><trkpt lat="45.719605553371224" lon="9.494275430449031"><ele>558.4000000000001</ele><time>2026-04-20T15:53:03Z</time></trkpt><trkpt lat="45.719723710665015" lon="9.494290300126837"><ele>560.2</ele><time>2026-04-20T15:53:04Z</time></trkpt><trkpt lat="45.71984618504806" lon="9.494295271445118"><ele>562.0</ele><time>2026-04-20T15:53:05Z</time></trkpt><trkpt lat="45.71996925022807" lon="9.49429459957858"><ele>562.0</ele><time>2026-04-20T15:53:06Z</time></trkpt><trkpt lat="45.72007783187911" lon="9.494289336079278"><ele>562.0</ele><time>2026-04-20T15:53:07Z</time></trkpt><trkpt lat="45.72015985033682" lon="9.494257974095486"><ele>562.0</ele><time>2026-04-20T15:53:08Z</time></trkpt><trkpt lat="45.720264314989414" lon="9.494233504235288"><ele>562.0</ele><time>2026-04-20T15:53:09Z</time></trkpt><trkpt lat="45.72036123155293" lon="9.49426936935491"><ele>562.0</ele><time>2026-04-20T15:53:10Z</time></trkpt><trkpt lat="45.72043369050054" lon="9.494280377998107"><ele>562.0</ele><time>2026-04-20T15:53:11Z</time></trkpt><trkpt lat="45.720514085735005" lon="9.494294655961358"><ele>562.0</ele><time>2026-04-20T15:53:13Z</time></trkpt><trkpt lat="45.72049810302304" lon="9.49441589209588"><ele>562.0</ele><time>2026-04-20T15:53:15Z</time></trkpt><trkpt lat="45.720383520051314" lon="9.494511283852775"><ele>562.0</ele><time>2026-04-20T15:53:17Z</time></trkpt><trkpt lat="45.72029072543367" lon="9.494472628838789"><ele>562.0</ele><time>2026-04-20T15:53:18Z</time></trkpt><trkpt lat="45.72019342087441" lon="9.49446299541698"><ele>562.0</ele><time>2026-04-20T15:53:19Z</time></trkpt><trkpt lat="45.7201162658913" lon="9.49450498940155"><ele>562.0</ele><time>2026-04-20T15:53:20Z</time></trkpt><trkpt lat="45.72003383725519" lon="9.494558913980276"><ele>562.0</ele><time>2026-04-20T15:53:21Z</time></trkpt><trkpt lat="45.71993300893951" lon="9.494643536200767"><ele>562.0</ele><time>2026-04-20T15:53:22Z</time></trkpt><trkpt lat="45.71985727837102" lon="9.494738602131648"><ele>562.0</ele><time>2026-04-20T15:53:23Z</time></trkpt><trkpt lat="45.719819107737635" lon="9.494826033993236"><ele>568.75</ele><time>2026-04-20T15:53:25Z</time></trkpt><trkpt lat="45.719938513444184" lon="9.494759650926012"><ele>575.5</ele><time>2026-04-20T15:53:26Z</time></trkpt><trkpt lat="45.72002786535848" lon="9.494818321813147"><ele>582.25</ele><time>2026-04-20T15:53:30Z</time></trkpt><trkpt lat="45.72017452238193" lon="9.494762710370868"><ele>589.0</ele><time>2026-04-20T15:53:32Z</time></trkpt><trkpt lat="45.720269418798715" lon="9.494740606764688"><ele>590.0</ele><time>2026-04-20T15:53:33Z</time></trkpt><trkpt lat="45.720379487938416" lon="9.494762523428337"><ele>591.0</ele><time>2026-04-20T15:53:34Z</time></trkpt><trkpt lat="45.72051990163471" lon="9.494779530583486"><ele>592.0</ele><time>2026-04-20T15:53:35Z</time></trkpt><trkpt lat="45.720628050832254" lon="9.4947754494177"><ele>593.0</ele><time>2026-04-20T15:53:36Z</time></trkpt><trkpt lat="45.720695558073544" lon="9.49473786853448"><ele>594.0</ele><time>2026-04-20T15:53:37Z</time></trkpt><trkpt lat="45.720778849550136" lon="9.494714193496003"><ele>594.0</ele><time>2026-04-20T15:53:38Z</time></trkpt><trkpt lat="45.72087806642994" lon="9.494708929614502"><ele>594.0</ele><time>2026-04-20T15:53:39Z</time></trkpt><trkpt lat="45.72096923573502" lon="9.494690046484841"><ele>594.0</ele><time>2026-04-20T15:53:40Z</time></trkpt><trkpt lat="45.72108135698255" lon="9.494685621276764"><ele>594.0</ele><time>2026-04-20T15:53:41Z</time></trkpt><trkpt lat="45.72115796290389" lon="9.494664350446559"><ele>594.0</ele><time>2026-04-20T15:53:42Z</time></trkpt><trkpt lat="45.72122753511733" lon="9.49464727394492"><ele>596.6</ele><time>2026-04-20T15:53:43Z</time></trkpt><trkpt lat="45.721289450817714" lon="9.49470673893165"><ele>599.2</ele><time>2026-04-20T15:53:45Z</time></trkpt><trkpt lat="45.72134006217609" lon="9.49490035235199"><ele>601.8000000000001</ele><time>2026-04-20T15:53:47Z</time></trkpt><trkpt lat="45.72134257106604" lon="9.495030329821684"><ele>604.4</ele><time>2026-04-20T15:53:49Z</time></trkpt><trkpt lat="45.7212823353779" lon="9.49514552203114"><ele>607.0</ele><time>2026-04-20T15:53:51Z</time></trkpt><trkpt lat="45.721148533991" lon="9.49514579978059"><ele>602.6666666666667</ele><time>2026-04-20T15:53:53Z</time></trkpt><trkpt lat="45.72098175586799" lon="9.495194534927395"><ele>598.3333333333334</ele><time>2026-04-20T15:53:54Z</time></trkpt><trkpt lat="45.72082860403985" lon="9.495276895014934"><ele>594.0</ele><time>2026-04-20T15:53:55Z</time></trkpt><trkpt lat="45.72069894546704" lon="9.495325917569659"><ele>594.0</ele><time>2026-04-20T15:53:56Z</time></trkpt><trkpt lat="45.72057415253535" lon="9.49536034516902"><ele>594.0</ele><time>2026-04-20T15:53:57Z</time></trkpt><trkpt lat="45.7204827300996" lon="9.495350543664024"><ele>594.0</ele><time>2026-04-20T15:53:58Z</time></trkpt><trkpt lat="45.72042209922673" lon="9.49541167458811"><ele>594.0</ele><time>2026-04-20T15:54:00Z</time></trkpt><trkpt lat="45.72044588503957" lon="9.495543632539722"><ele>594.0</ele><time>2026-04-20T15:54:02Z</time></trkpt><trkpt lat="45.72050764619905" lon="9.495589487172216"><ele>598.4</ele><time>2026-04-20T15:54:03Z</time></trkpt><trkpt lat="45.72056908507765" lon="9.49562287625765"><ele>602.8</ele><time>2026-04-20T15:54:04Z</time></trkpt><trkpt lat="45.720667218933144" lon="9.495596986982665"><ele>607.2</ele><time>2026-04-20T15:54:05Z</time></trkpt><trkpt lat="45.72075225330703" lon="9.495573608035432"><ele>611.6</ele><time>2026-04-20T15:54:06Z</time></trkpt><trkpt lat="45.7208632516823" lon="9.495576549835455"><ele>616.0</ele><time>2026-04-20T15:54:07Z</time></trkpt><trkpt lat="45.720962640197996" lon="9.495616650816482"><ele>616.0</ele><time>2026-04-20T15:54:08Z</time></trkpt><trkpt lat="45.721046808242676" lon="9.495668428161052"><ele>616.0</ele><time>2026-04-20T15:54:09Z</time></trkpt><trkpt lat="45.721123396987466" lon="9.495730977571425"><ele>616.0</ele><time>2026-04-20T15:54:10Z</time></trkpt><trkpt lat="45.721212690819755" lon="9.495848478978429"><ele>616.0</ele><time>2026-04-20T15:54:11Z</time></trkpt><trkpt lat="45.72133737168722" lon="9.495977895639253"><ele>616.8</ele><time>2026-04-20T15:54:12Z</time></trkpt><trkpt lat="45.721442232462735" lon="9.496021503920428"><ele>617.6</ele><time>2026-04-20T15:54:14Z</time></trkpt><trkpt lat="45.721516447251716" lon="9.4959751970914"><ele>618.4</ele><time>2026-04-20T15:54:15Z</time></trkpt><trkpt lat="45.72157752983421" lon="9.49592675942422"><ele>619.2</ele><time>2026-04-20T15:54:16Z</time></trkpt><trkpt lat="45.721665326772374" lon="9.495782308796475"><ele>620.0</ele><time>2026-04-20T15:54:17Z</time></trkpt><trkpt lat="45.72173838830877" lon="9.495657988431104"><ele>620.0</ele><time>2026-04-20T15:54:18Z</time></trkpt><trkpt lat="45.72180489425962" lon="9.49554651608514"><ele>620.0</ele><time>2026-04-20T15:54:19Z</time></trkpt><trkpt lat="45.72187408943048" lon="9.495453643679324"><ele>620.0</ele><time>2026-04-20T15:54:20Z</time></trkpt><trkpt lat="45.72195788955918" lon="9.495332533997102"><ele>620.0</ele><time>2026-04-20T15:54:22Z</time></trkpt><trkpt lat="45.721980251297786" lon="9.49518278858793"><ele>620.0</ele><time>2026-04-20T15:54:23Z</time></trkpt><trkpt lat="45.721988570506916" lon="9.49497706192311"><ele>620.4</ele><time>2026-04-20T15:54:24Z</time></trkpt><trkpt lat="45.72200422662813" lon="9.494816813147526"><ele>620.8</ele><time>2026-04-20T15:54:25Z</time></trkpt><trkpt lat="45.72202039649459" lon="9.494677167407598"><ele>621.2</ele><time>2026-04-20T15:54:26Z</time></trkpt><trkpt lat="45.722040717191966" lon="9.494562273871736"><ele>621.6</ele><time>2026-04-20T15:54:27Z</time></trkpt><trkpt lat="45.722103830794566" lon="9.494413701628396"><ele>622.0</ele><time>2026-04-20T15:54:28Z</time></trkpt><trkpt lat="45.72215733794617" lon="9.494272618617229"><ele>622.0</ele><time>2026-04-20T15:54:29Z</time></trkpt><trkpt lat="45.72219340343279" lon="9.494111876401005"><ele>622.0</ele><time>2026-04-20T15:54:30Z</time></trkpt><trkpt lat="45.722225130981975" lon="9.493913832406184"><ele>622.0</ele><time>2026-04-20T15:54:31Z</time></trkpt><trkpt lat="45.72226732875451" lon="9.493662103472953"><ele>622.0</ele><time>2026-04-20T15:54:32Z</time></trkpt><trkpt lat="45.72229777668851" lon="9.49350243103431"><ele>622.0</ele><time>2026-04-20T15:54:33Z</time></trkpt><trkpt lat="45.72233359894217" lon="9.493385294575928"><ele>622.0</ele><time>2026-04-20T15:54:34Z</time></trkpt><trkpt lat="45.72236422583423" lon="9.493286276933215"><ele>622.0</ele><time>2026-04-20T15:54:35Z</time></trkpt><trkpt lat="45.72241850557784" lon="9.493194144144294"><ele>622.0</ele><time>2026-04-20T15:54:36Z</time></trkpt><trkpt lat="45.72247771837245" lon="9.493070252720504"><ele>622.0</ele><time>2026-04-20T15:54:37Z</time></trkpt><trkpt lat="45.722507820374666" lon="9.492875567043306"><ele>622.3333333333334</ele><time>2026-04-20T15:54:39Z</time></trkpt><trkpt lat="45.722506276373444" lon="9.492720652375365"><ele>622.6666666666667</ele><time>2026-04-20T15:54:40Z</time></trkpt><trkpt lat="45.722519190271036" lon="9.492582335651907"><ele>623.0</ele><time>2026-04-20T15:54:41Z</time></trkpt><trkpt lat="45.72253049717857" lon="9.492479756139405"><ele>623.3333333333334</ele><time>2026-04-20T15:54:42Z</time></trkpt><trkpt lat="45.72254849404527" lon="9.492389384312734"><ele>623.6666666666666</ele><time>2026-04-20T15:54:44Z</time></trkpt><trkpt lat="45.722614997585076" lon="9.492402241517343"><ele>624.0</ele><time>2026-04-20T15:54:45Z</time></trkpt><trkpt lat="45.722701102423216" lon="9.49240349511659"><ele>625.2</ele><time>2026-04-20T15:54:47Z</time></trkpt><trkpt lat="45.72273277621727" lon="9.492537710265594"><ele>626.4</ele><time>2026-04-20T15:54:48Z</time></trkpt><trkpt lat="45.72273906955742" lon="9.492640709505597"><ele>627.6</ele><time>2026-04-20T15:54:49Z</time></trkpt><trkpt lat="45.72277595292751" lon="9.492749070128408"><ele>628.8</ele><time>2026-04-20T15:54:50Z</time></trkpt><trkpt lat="45.72284507351265" lon="9.492903973654"><ele>630.0</ele><time>2026-04-20T15:54:52Z</time></trkpt><trkpt lat="45.72283708171312" lon="9.492999200053305"><ele>626.6</ele><time>2026-04-20T15:54:53Z</time></trkpt><trkpt lat="45.722812743388694" lon="9.49311098014112"><ele>623.2</ele><time>2026-04-20T15:54:56Z</time></trkpt><trkpt lat="45.72281687612327" lon="9.49325731711535"><ele>619.8</ele><time>2026-04-20T15:55:00Z</time></trkpt><trkpt lat="45.72282621266876" lon="9.493416157158876"><ele>616.4</ele><time>2026-04-20T15:55:02Z</time></trkpt><trkpt lat="45.72283253515336" lon="9.493536092240577"><ele>613.0</ele><time>2026-04-20T15:55:04Z</time></trkpt><trkpt lat="45.72287394308353" lon="9.49366881247025"><ele>611.8333333333334</ele><time>2026-04-20T15:55:07Z</time></trkpt><trkpt lat="45.722882859417446" lon="9.49378427728601"><ele>610.6666666666667</ele><time>2026-04-20T15:55:09Z</time></trkpt><trkpt lat="45.722873985639005" lon="9.493915361152252"><ele>609.5</ele><time>2026-04-20T15:55:11Z</time></trkpt><trkpt lat="45.72284176284554" lon="9.494015243431372"><ele>608.3333333333334</ele><time>2026-04-20T15:55:12Z</time></trkpt><trkpt lat="45.722805095573975" lon="9.49410715356366"><ele>607.1666666666666</ele><time>2026-04-20T15:55:13Z</time></trkpt><trkpt lat="45.72275547565879" lon="9.494223967600874"><ele>606.0</ele><time>2026-04-20T15:55:14Z</time></trkpt><trkpt lat="45.722717342015294" lon="9.494333969575184"><ele>605.5</ele><time>2026-04-20T15:55:15Z</time></trkpt><trkpt lat="45.72269543394315" lon="9.494421951482066"><ele>605.0</ele><time>2026-04-20T15:55:16Z</time></trkpt><trkpt lat="45.722677163725066" lon="9.494538389692202"><ele>604.5</ele><time>2026-04-20T15:55:18Z</time></trkpt><trkpt lat="45.72270002056793" lon="9.49468199453627"><ele>604.0</ele><time>2026-04-20T15:55:21Z</time></trkpt><trkpt lat="45.72275118768944" lon="9.494768179488174"><ele>603.5</ele><time>2026-04-20T15:55:22Z</time></trkpt><trkpt lat="45.72276099688095" lon="9.494868946152454"><ele>603.0</ele><time>2026-04-20T15:55:23Z</time></trkpt><trkpt lat="45.72280483987737" lon="9.494938232090936"><ele>603.0</ele><time>2026-04-20T15:55:24Z</time></trkpt><trkpt lat="45.72282517599164" lon="9.495033000676846"><ele>603.0</ele><time>2026-04-20T15:55:25Z</time></trkpt><trkpt lat="45.72283899422476" lon="9.495138740448283"><ele>603.0</ele><time>2026-04-20T15:55:26Z</time></trkpt><trkpt lat="45.72285231066441" lon="9.495238666952687"><ele>603.0</ele><time>2026-04-20T15:55:27Z</time></trkpt><trkpt lat="45.72282754424104" lon="9.495501121762489"><ele>603.0</ele><time>2026-04-20T15:55:29Z</time></trkpt><trkpt lat="45.72285936279011" lon="9.49571172188326"><ele>603.6</ele><time>2026-04-20T15:55:31Z</time></trkpt><trkpt lat="45.722872149029435" lon="9.495883554645753"><ele>604.1999999999999</ele><time>2026-04-20T15:55:32Z</time></trkpt><trkpt lat="45.72289694555167" lon="9.496025656428857"><ele>604.8</ele><time>2026-04-20T15:55:33Z</time></trkpt><trkpt lat="45.72290227528747" lon="9.496191486690034"><ele>605.4</ele><time>2026-04-20T15:55:34Z</time></trkpt><trkpt lat="45.72291796279525" lon="9.496340996443616"><ele>606.0</ele><time>2026-04-20T15:55:35Z</time></trkpt><trkpt lat="45.722912887925276" lon="9.496456198825445"><ele>606.3333333333334</ele><time>2026-04-20T15:55:36Z</time></trkpt><trkpt lat="45.72291543429715" lon="9.496558264314302"><ele>606.6666666666666</ele><time>2026-04-20T15:55:37Z</time></trkpt><trkpt lat="45.72291917401946" lon="9.496677646616696"><ele>607.0</ele><time>2026-04-20T15:55:38Z</time></trkpt><trkpt lat="45.722930419890936" lon="9.496775545880615"><ele>607.3333333333333</ele><time>2026-04-20T15:55:39Z</time></trkpt><trkpt lat="45.72295135613675" lon="9.496875303018273"><ele>607.6666666666666</ele><time>2026-04-20T15:55:40Z</time></trkpt><trkpt lat="45.72297523662195" lon="9.496969375798043"><ele>608.0</ele><time>2026-04-20T15:55:41Z</time></trkpt><trkpt lat="45.72300655822601" lon="9.497098608834307"><ele>608.0</ele><time>2026-04-20T15:55:43Z</time></trkpt><trkpt lat="45.72302577335674" lon="9.49721239193762"><ele>608.0</ele><time>2026-04-20T15:55:44Z</time></trkpt><trkpt lat="45.7230143472339" lon="9.497314065528608"><ele>608.0</ele><time>2026-04-20T15:55:45Z</time></trkpt><trkpt lat="45.72296467163913" lon="9.497433816703706"><ele>608.0</ele><time>2026-04-20T15:55:46Z</time></trkpt><trkpt lat="45.72294811143596" lon="9.497535726823783"><ele>608.0</ele><time>2026-04-20T15:55:47Z</time></trkpt><trkpt lat="45.72290272442442" lon="9.497652658217609"><ele>608.0</ele><time>2026-04-20T15:55:48Z</time></trkpt><trkpt lat="45.72286377670187" lon="9.497803183135604"><ele>605.8333333333333</ele><time>2026-04-20T15:55:50Z</time></trkpt><trkpt lat="45.72283642435761" lon="9.497960094082925"><ele>603.6666666666666</ele><time>2026-04-20T15:55:52Z</time></trkpt><trkpt lat="45.72279637193067" lon="9.498038721357478"><ele>601.5</ele><time>2026-04-20T15:55:53Z</time></trkpt><trkpt lat="45.72277473509791" lon="9.49815461346432"><ele>599.3333333333334</ele><time>2026-04-20T15:55:54Z</time></trkpt><trkpt lat="45.72274679500508" lon="9.49825108303059"><ele>597.1666666666667</ele><time>2026-04-20T15:55:55Z</time></trkpt><trkpt lat="45.722703095837474" lon="9.498388603553645"><ele>595.0</ele><time>2026-04-20T15:55:57Z</time></trkpt><trkpt lat="45.72263062011075" lon="9.498536069599414"><ele>598.0</ele><time>2026-04-20T15:55:59Z</time></trkpt><trkpt lat="45.72258287343576" lon="9.498628853568185"><ele>601.0</ele><time>2026-04-20T15:56:00Z</time></trkpt><trkpt lat="45.72254297075727" lon="9.498704868077008"><ele>604.0</ele><time>2026-04-20T15:56:01Z</time></trkpt><trkpt lat="45.72251346195405" lon="9.498784761188304"><ele>607.0</ele><time>2026-04-20T15:56:02Z</time></trkpt><trkpt lat="45.72244924880611" lon="9.498931630567757"><ele>610.0</ele><time>2026-04-20T15:56:04Z</time></trkpt><trkpt lat="45.722405545667165" lon="9.49902915988511"><ele>613.0</ele><time>2026-04-20T15:56:05Z</time></trkpt><trkpt lat="45.722363756765866" lon="9.499118649843158"><ele>613.0</ele><time>2026-04-20T15:56:06Z</time></trkpt><trkpt lat="45.722319391991576" lon="9.49920055372558"><ele>613.0</ele><time>2026-04-20T15:56:07Z</time></trkpt><trkpt lat="45.722294677099235" lon="9.499289848677803"><ele>613.0</ele><time>2026-04-20T15:56:08Z</time></trkpt><trkpt lat="45.72225483040326" lon="9.499385949877377"><ele>613.0</ele><time>2026-04-20T15:56:09Z</time></trkpt><trkpt lat="45.72222724811368" lon="9.499497716511955"><ele>613.0</ele><time>2026-04-20T15:56:10Z</time></trkpt><trkpt lat="45.72221053779489" lon="9.499618467005675"><ele>613.0</ele><time>2026-04-20T15:56:11Z</time></trkpt><trkpt lat="45.72218667755536" lon="9.499719068657145"><ele>609.0</ele><time>2026-04-20T15:56:12Z</time></trkpt><trkpt lat="45.72215386800303" lon="9.49984020357488"><ele>605.0</ele><time>2026-04-20T15:56:13Z</time></trkpt><trkpt lat="45.7221306996411" lon="9.499988007951254"><ele>601.0</ele><time>2026-04-20T15:56:14Z</time></trkpt><trkpt lat="45.722116969104036" lon="9.500115568983322"><ele>597.0</ele><time>2026-04-20T15:56:15Z</time></trkpt><trkpt lat="45.72209356853174" lon="9.500253965569714"><ele>593.0</ele><time>2026-04-20T15:56:17Z</time></trkpt><trkpt lat="45.72211441143448" lon="9.500382967944471"><ele>592.8</ele><time>2026-04-20T15:56:19Z</time></trkpt><trkpt lat="45.72212760850205" lon="9.500504901282136"><ele>592.5999999999999</ele><time>2026-04-20T15:56:20Z</time></trkpt><trkpt lat="45.722136386947696" lon="9.500646389966844"><ele>592.4000000000001</ele><time>2026-04-20T15:56:21Z</time></trkpt><trkpt lat="45.72218834747234" lon="9.500783808942957"><ele>592.2</ele><time>2026-04-20T15:56:22Z</time></trkpt><trkpt lat="45.722202629398886" lon="9.500897193826347"><ele>592.0</ele><time>2026-04-20T15:56:23Z</time></trkpt><trkpt lat="45.72224726929771" lon="9.50102074648219"><ele>592.0</ele><time>2026-04-20T15:56:24Z</time></trkpt><trkpt lat="45.72228912076854" lon="9.501160584963147"><ele>592.0</ele><time>2026-04-20T15:56:25Z</time></trkpt><trkpt lat="45.72234394736238" lon="9.501313066290534"><ele>592.0</ele><time>2026-04-20T15:56:27Z</time></trkpt><trkpt lat="45.72236686524897" lon="9.501417418078791"><ele>592.0</ele><time>2026-04-20T15:56:28Z</time></trkpt><trkpt lat="45.7224004624483" lon="9.501505656517116"><ele>592.0</ele><time>2026-04-20T15:56:29Z</time></trkpt><trkpt lat="45.722463667338246" lon="9.501660495133738"><ele>592.8000000000001</ele><time>2026-04-20T15:56:31Z</time></trkpt><trkpt lat="45.72251573354913" lon="9.501779135054521"><ele>593.6</ele><time>2026-04-20T15:56:33Z</time></trkpt><trkpt lat="45.722575365035546" lon="9.501915019569548"><ele>594.4000000000001</ele><time>2026-04-20T15:56:35Z</time></trkpt><trkpt lat="45.72263786073475" lon="9.501972992271945"><ele>595.2</ele><time>2026-04-20T15:56:36Z</time></trkpt><trkpt lat="45.722716815423404" lon="9.502079083304599"><ele>596.0</ele><time>2026-04-20T15:56:38Z</time></trkpt><trkpt lat="45.72272841160756" lon="9.502227064938701"><ele>596.0</ele><time>2026-04-20T15:56:40Z</time></trkpt><trkpt lat="45.722790804492234" lon="9.502298777755653"><ele>596.0</ele><time>2026-04-20T15:56:43Z</time></trkpt><trkpt lat="45.722825395912466" lon="9.502144302688455"><ele>596.0</ele><time>2026-04-20T15:56:46Z</time></trkpt><trkpt lat="45.722814233391404" lon="9.502049146030494"><ele>596.0</ele><time>2026-04-20T15:56:47Z</time></trkpt><trkpt lat="45.72277919678085" lon="9.501906595004218"><ele>596.0</ele><time>2026-04-20T15:56:48Z</time></trkpt><trkpt lat="45.722759545221976" lon="9.501818925573565"><ele>596.0</ele><time>2026-04-20T15:56:49Z</time></trkpt><trkpt lat="45.7227062176734" lon="9.501714783054895"><ele>596.0</ele><time>2026-04-20T15:56:51Z</time></trkpt><trkpt lat="45.722674568950055" lon="9.501615842835527"><ele>596.0</ele><time>2026-04-20T15:56:55Z</time></trkpt><trkpt lat="45.72267257024962" lon="9.501473954121085"><ele>596.0</ele><time>2026-04-20T15:56:57Z</time></trkpt><trkpt lat="45.72262818610884" lon="9.501366633686931"><ele>596.0</ele><time>2026-04-20T15:56:58Z</time></trkpt><trkpt lat="45.72260185039135" lon="9.5012657379373"><ele>596.0</ele><time>2026-04-20T15:56:59Z</time></trkpt><trkpt lat="45.72258592992378" lon="9.501155324832082"><ele>596.0</ele><time>2026-04-20T15:57:00Z</time></trkpt><trkpt lat="45.72258073000781" lon="9.50101230653179"><ele>595.5</ele><time>2026-04-20T15:57:02Z</time></trkpt><trkpt lat="45.72259414696483" lon="9.500920519083067"><ele>595.0</ele><time>2026-04-20T15:57:03Z</time></trkpt><trkpt lat="45.72259905955222" lon="9.500785993274224"><ele>594.5</ele><time>2026-04-20T15:57:04Z</time></trkpt><trkpt lat="45.72258409409365" lon="9.500651735711461"><ele>594.0</ele><time>2026-04-20T15:57:06Z</time></trkpt><trkpt lat="45.722601554104486" lon="9.500545050642042"><ele>593.5</ele><time>2026-04-20T15:57:08Z</time></trkpt><trkpt lat="45.722618086937835" lon="9.500436213613384"><ele>593.0</ele><time>2026-04-20T15:57:11Z</time></trkpt><trkpt lat="45.722662857822705" lon="9.500336234300423"><ele>593.0</ele><time>2026-04-20T15:57:13Z</time></trkpt><trkpt lat="45.72271247066136" lon="9.500412523135335"><ele>593.0</ele><time>2026-04-20T15:57:20Z</time></trkpt><trkpt lat="45.722686412266" lon="9.50054626850882"><ele>593.0</ele><time>2026-04-20T15:57:22Z</time></trkpt><trkpt lat="45.72270118635386" lon="9.500675712815427"><ele>593.0</ele><time>2026-04-20T15:57:24Z</time></trkpt><trkpt lat="45.72272510708098" lon="9.500860734157124"><ele>593.0</ele><time>2026-04-20T15:57:26Z</time></trkpt><trkpt lat="45.72273238142563" lon="9.501001599005182"><ele>592.8</ele><time>2026-04-20T15:57:28Z</time></trkpt><trkpt lat="45.722710783981775" lon="9.501097340288691"><ele>592.5999999999999</ele><time>2026-04-20T15:57:29Z</time></trkpt><trkpt lat="45.72270053331356" lon="9.501199844504207"><ele>592.4000000000001</ele><time>2026-04-20T15:57:30Z</time></trkpt><trkpt lat="45.72274760073865" lon="9.501335463539183"><ele>592.2</ele><time>2026-04-20T15:57:32Z</time></trkpt><trkpt lat="45.72279822378742" lon="9.501402741027151"><ele>592.0</ele><time>2026-04-20T15:57:33Z</time></trkpt><trkpt lat="45.722906907791966" lon="9.501533753755831"><ele>581.5</ele><time>2026-04-20T15:57:35Z</time></trkpt><trkpt lat="45.72297207025084" lon="9.501715828154065"><ele>571.0</ele><time>2026-04-20T15:57:36Z</time></trkpt><trkpt lat="45.72300067478526" lon="9.501831156902515"><ele>560.5</ele><time>2026-04-20T15:57:37Z</time></trkpt><trkpt lat="45.7230502478304" lon="9.501977493541979"><ele>550.0</ele><time>2026-04-20T15:57:38Z</time></trkpt><trkpt lat="45.72310735535917" lon="9.502133862911196"><ele>550.0</ele><time>2026-04-20T15:57:39Z</time></trkpt><trkpt lat="45.723157902911" lon="9.502243505240807"><ele>550.0</ele><time>2026-04-20T15:57:40Z</time></trkpt><trkpt lat="45.723228174130284" lon="9.502378965400045"><ele>550.0</ele><time>2026-04-20T15:57:42Z</time></trkpt><trkpt lat="45.723295173728616" lon="9.5023721770461"><ele>550.0</ele><time>2026-04-20T15:58:13Z</time></trkpt><trkpt lat="45.72335447371663" lon="9.50243869993568"><ele>550.0</ele><time>2026-04-20T15:58:25Z</time></trkpt><trkpt lat="45.72328118584159" lon="9.502492886545246"><ele>550.0</ele><time>2026-04-20T15:59:33Z</time></trkpt><trkpt lat="45.72334636697293" lon="9.50253344878486"><ele>550.0</ele><time>2026-04-20T15:59:40Z</time></trkpt><trkpt lat="45.723399116472976" lon="9.502608165752143"><ele>550.0</ele><time>2026-04-20T15:59:42Z</time></trkpt><trkpt lat="45.7233990446177" lon="9.502723935699523"><ele>550.0</ele><time>2026-04-20T15:59:44Z</time></trkpt><trkpt lat="45.7233580325061" lon="9.502794727798117"><ele>550.0</ele><time>2026-04-20T15:59:47Z</time></trkpt><trkpt lat="45.7233387557615" lon="9.502903614024417"><ele>550.0</ele><time>2026-04-20T15:59:50Z</time></trkpt><trkpt lat="45.72341413155616" lon="9.502956020121976"><ele>550.0</ele><time>2026-04-20T15:59:52Z</time></trkpt><trkpt lat="45.723468639861956" lon="9.50288469259325"><ele>550.0</ele><time>2026-04-20T15:59:54Z</time></trkpt><trkpt lat="45.72348168544165" lon="9.502757612000572"><ele>550.0</ele><time>2026-04-20T15:59:57Z</time></trkpt><trkpt lat="45.723482856661974" lon="9.502620434364763"><ele>550.0</ele><time>2026-04-20T15:59:59Z</time></trkpt><trkpt lat="45.72345250438414" lon="9.502510687658"><ele>550.0</ele><time>2026-04-20T16:00:01Z</time></trkpt><trkpt lat="45.72336426432951" lon="9.502471480535352"><ele>550.0</ele><time>2026-04-20T16:00:02Z</time></trkpt><trkpt lat="45.723347792535904" lon="9.502353686837715"><ele>550.0</ele><time>2026-04-20T16:00:04Z</time></trkpt><trkpt lat="45.723323183046446" lon="9.502234522565804"><ele>550.0</ele><time>2026-04-20T16:00:06Z</time></trkpt><trkpt lat="45.723295220608065" lon="9.502099124057963"><ele>550.0</ele><time>2026-04-20T16:00:08Z</time></trkpt><trkpt lat="45.72326024334436" lon="9.501957426247072"><ele>550.0</ele><time>2026-04-20T16:00:10Z</time></trkpt><trkpt lat="45.7232297917855" lon="9.501815138308185"><ele>550.0</ele><time>2026-04-20T16:00:12Z</time></trkpt><trkpt lat="45.72321276553067" lon="9.501672813741877"><ele>550.0</ele><time>2026-04-20T16:00:14Z</time></trkpt><trkpt lat="45.72318969311802" lon="9.501559972909588"><ele>549.1666666666667</ele><time>2026-04-20T16:00:16Z</time></trkpt><trkpt lat="45.723169394760916" lon="9.501449930290999"><ele>548.3333333333334</ele><time>2026-04-20T16:00:18Z</time></trkpt><trkpt lat="45.72314256610964" lon="9.501364643055318"><ele>547.5</ele><time>2026-04-20T16:00:20Z</time></trkpt><trkpt lat="45.7231421905317" lon="9.501270239742542"><ele>546.6666666666666</ele><time>2026-04-20T16:00:22Z</time></trkpt><trkpt lat="45.72314784336259" lon="9.501130757047727"><ele>545.8333333333333</ele><time>2026-04-20T16:00:25Z</time></trkpt><trkpt lat="45.72320560111947" lon="9.50106758547536"><ele>545.0</ele><time>2026-04-20T16:00:27Z</time></trkpt><trkpt lat="45.72315843953272" lon="9.50093719400151"><ele>545.0</ele><time>2026-04-20T16:00:29Z</time></trkpt><trkpt lat="45.72324020771316" lon="9.500935344267022"><ele>545.0</ele><time>2026-04-20T16:00:30Z</time></trkpt><trkpt lat="45.723289824662224" lon="9.50107519162613"><ele>545.0</ele><time>2026-04-20T16:00:32Z</time></trkpt><trkpt lat="45.72322417001336" lon="9.50126478061535"><ele>545.0</ele><time>2026-04-20T16:00:33Z</time></trkpt><trkpt lat="45.72309935581856" lon="9.501260994910929"><ele>544.2</ele><time>2026-04-20T16:00:34Z</time></trkpt><trkpt lat="45.72318902284537" lon="9.501349993946658"><ele>543.4</ele><time>2026-04-20T16:00:45Z</time></trkpt><trkpt lat="45.723235890133964" lon="9.50143834052876"><ele>542.6</ele><time>2026-04-20T16:00:47Z</time></trkpt><trkpt lat="45.723291684559015" lon="9.501526142721506"><ele>541.8</ele><time>2026-04-20T16:00:49Z</time></trkpt><trkpt lat="45.723350676282834" lon="9.501639968896688"><ele>541.0</ele><time>2026-04-20T16:00:51Z</time></trkpt><trkpt lat="45.72342525031993" lon="9.501827863869696"><ele>541.0</ele><time>2026-04-20T16:00:53Z</time></trkpt><trkpt lat="45.72350631991392" lon="9.501967266786899"><ele>541.0</ele><time>2026-04-20T16:00:55Z</time></trkpt><trkpt lat="45.72355424123661" lon="9.50208674016329"><ele>541.0</ele><time>2026-04-20T16:00:57Z</time></trkpt><trkpt lat="45.723596725228404" lon="9.50221422689769"><ele>541.0</ele><time>2026-04-20T16:00:59Z</time></trkpt><trkpt lat="45.72365478564466" lon="9.502318113907231"><ele>541.0</ele><time>2026-04-20T16:01:02Z</time></trkpt><trkpt lat="45.72368277154513" lon="9.502399022747403"><ele>536.8333333333334</ele><time>2026-04-20T16:01:03Z</time></trkpt><trkpt lat="45.72375607632345" lon="9.5025317866913"><ele>532.6666666666667</ele><time>2026-04-20T16:01:05Z</time></trkpt><trkpt lat="45.723802916315066" lon="9.502612453573038"><ele>528.5</ele><time>2026-04-20T16:01:06Z</time></trkpt><trkpt lat="45.7238454767904" lon="9.502683849533197"><ele>524.3333333333334</ele><time>2026-04-20T16:01:08Z</time></trkpt><trkpt lat="45.7239182366476" lon="9.502821640295325"><ele>520.1666666666666</ele><time>2026-04-20T16:01:10.999Z</time></trkpt><trkpt lat="45.72396431292595" lon="9.502893342262961"><ele>516.0</ele><time>2026-04-20T16:01:11.999Z</time></trkpt><trkpt lat="45.72401440648628" lon="9.502972482846276"><ele>516.0</ele><time>2026-04-20T16:01:12.999Z</time></trkpt><trkpt lat="45.724052890470404" lon="9.50307774240528"><ele>516.0</ele><time>2026-04-20T16:01:13.999Z</time></trkpt><trkpt lat="45.72409401774612" lon="9.503192326798535"><ele>516.0</ele><time>2026-04-20T16:01:16Z</time></trkpt><trkpt lat="45.724112978765255" lon="9.503294621879748"><ele>516.0</ele><time>2026-04-20T16:01:18Z</time></trkpt><trkpt lat="45.72413508034853" lon="9.503401091272545"><ele>516.0</ele><time>2026-04-20T16:01:20Z</time></trkpt><trkpt lat="45.724154989570515" lon="9.503521626161353"><ele>516.0</ele><time>2026-04-20T16:01:22Z</time></trkpt><trkpt lat="45.72422963577404" lon="9.503365570026043"><ele>516.0</ele><time>2026-04-20T16:01:24Z</time></trkpt><trkpt lat="45.72420407566092" lon="9.50321332340325"><ele>516.0</ele><time>2026-04-20T16:01:26Z</time></trkpt><trkpt lat="45.72418885904458" lon="9.503100131082416"><ele>516.0</ele><time>2026-04-20T16:01:28Z</time></trkpt><trkpt lat="45.72417623316217" lon="9.502969927440152"><ele>516.0</ele><time>2026-04-20T16:01:30Z</time></trkpt><trkpt lat="45.72410397829308" lon="9.50293056740006"><ele>516.0</ele><time>2026-04-20T16:01:31Z</time></trkpt><trkpt lat="45.72407497029772" lon="9.502803949389047"><ele>514.8333333333334</ele><time>2026-04-20T16:01:33Z</time></trkpt><trkpt lat="45.724060254311034" lon="9.50267019738395"><ele>513.6666666666666</ele><time>2026-04-20T16:01:35Z</time></trkpt><trkpt lat="45.72401330401006" lon="9.502551723762537"><ele>512.5</ele><time>2026-04-20T16:01:37Z</time></trkpt><trkpt lat="45.723987548797695" lon="9.502442283072238"><ele>511.3333333333333</ele><time>2026-04-20T16:01:39Z</time></trkpt><trkpt lat="45.72395803529908" lon="9.502362362168327"><ele>510.16666666666663</ele><time>2026-04-20T16:01:40Z</time></trkpt><trkpt lat="45.723950255057794" lon="9.502240720573079"><ele>509.0</ele><time>2026-04-20T16:01:42Z</time></trkpt><trkpt lat="45.723909230022805" lon="9.50213069395835"><ele>507.66666666666663</ele><time>2026-04-20T16:01:44Z</time></trkpt><trkpt lat="45.723881889984206" lon="9.501994726587736"><ele>506.3333333333333</ele><time>2026-04-20T16:01:46Z</time></trkpt><trkpt lat="45.72381452607024" lon="9.501884246105794"><ele>505.0</ele><time>2026-04-20T16:01:48Z</time></trkpt><trkpt lat="45.72377484730142" lon="9.501771402135619"><ele>503.66666666666663</ele><time>2026-04-20T16:01:50Z</time></trkpt><trkpt lat="45.72375311821409" lon="9.501675571346437"><ele>502.3333333333333</ele><time>2026-04-20T16:01:51Z</time></trkpt><trkpt lat="45.723727232586796" lon="9.501589374843466"><ele>501.0</ele><time>2026-04-20T16:01:53Z</time></trkpt><trkpt lat="45.7237105270412" lon="9.501500839171038"><ele>501.0</ele><time>2026-04-20T16:01:55Z</time></trkpt><trkpt lat="45.7237378040998" lon="9.501401630837616"><ele>501.0</ele><time>2026-04-20T16:01:58Z</time></trkpt><trkpt lat="45.723860443182566" lon="9.501570650366508"><ele>501.0</ele><time>2026-04-20T16:01:59Z</time></trkpt><trkpt lat="45.72381863219206" lon="9.501671312421122"><ele>501.0</ele><time>2026-04-20T16:02:00Z</time></trkpt><trkpt lat="45.723691119550935" lon="9.501621557180822"><ele>501.0</ele><time>2026-04-20T16:02:01Z</time></trkpt><trkpt lat="45.72376780095891" lon="9.501652386885967"><ele>501.0</ele><time>2026-04-20T16:02:05Z</time></trkpt><trkpt lat="45.72385210263967" lon="9.501781457697911"><ele>501.0</ele><time>2026-04-20T16:02:07Z</time></trkpt><trkpt lat="45.72390447653136" lon="9.501857038068076"><ele>501.0</ele><time>2026-04-20T16:02:09Z</time></trkpt><trkpt lat="45.723984265080546" lon="9.501990774730132"><ele>501.0</ele><time>2026-04-20T16:02:11Z</time></trkpt><trkpt lat="45.7240278241921" lon="9.502063256660872"><ele>502.3333333333333</ele><time>2026-04-20T16:02:13Z</time></trkpt><trkpt lat="45.724092761081415" lon="9.502150670592815"><ele>503.66666666666663</ele><time>2026-04-20T16:02:14Z</time></trkpt><trkpt lat="45.72417476092279" lon="9.50228514788002"><ele>505.0</ele><time>2026-04-20T16:02:16Z</time></trkpt><trkpt lat="45.72421288371051" lon="9.502384779978854"><ele>506.3333333333333</ele><time>2026-04-20T16:02:18Z</time></trkpt><trkpt lat="45.72425845673408" lon="9.502469775734054"><ele>507.66666666666663</ele><time>2026-04-20T16:02:20Z</time></trkpt><trkpt lat="45.72431982609185" lon="9.502545234961607"><ele>509.0</ele><time>2026-04-20T16:02:23Z</time></trkpt><trkpt lat="45.724358861333826" lon="9.502619162837032"><ele>503.4</ele><time>2026-04-20T16:02:24Z</time></trkpt><trkpt lat="45.724434516550346" lon="9.502753923159508"><ele>497.79999999999995</ele><time>2026-04-20T16:02:26Z</time></trkpt><trkpt lat="45.724500335637174" lon="9.502865999666614"><ele>492.20000000000005</ele><time>2026-04-20T16:02:27Z</time></trkpt><trkpt lat="45.72454976707209" lon="9.502941987966386"><ele>486.6</ele><time>2026-04-20T16:02:28Z</time></trkpt><trkpt lat="45.724608803546346" lon="9.503041100838375"><ele>481.0</ele><time>2026-04-20T16:02:29Z</time></trkpt><trkpt lat="45.7246642208491" lon="9.503127460153607"><ele>481.0</ele><time>2026-04-20T16:02:30Z</time></trkpt><trkpt lat="45.72472420018149" lon="9.503221282656416"><ele>481.0</ele><time>2026-04-20T16:02:31Z</time></trkpt><trkpt lat="45.72480486298697" lon="9.503376503885217"><ele>481.0</ele><time>2026-04-20T16:02:33Z</time></trkpt><trkpt lat="45.72488981551487" lon="9.503485272379796"><ele>481.0</ele><time>2026-04-20T16:02:35Z</time></trkpt><trkpt lat="45.724986442647264" lon="9.503634148079334"><ele>481.83333333333337</ele><time>2026-04-20T16:02:37Z</time></trkpt><trkpt lat="45.72503408356455" lon="9.50375479113675"><ele>482.6666666666667</ele><time>2026-04-20T16:02:39Z</time></trkpt><trkpt lat="45.72508510234447" lon="9.50384456316476"><ele>483.5</ele><time>2026-04-20T16:02:41Z</time></trkpt><trkpt lat="45.72513563274088" lon="9.503899617859068"><ele>484.33333333333337</ele><time>2026-04-20T16:02:43Z</time></trkpt><trkpt lat="45.7251890912568" lon="9.504013070337248"><ele>485.1666666666667</ele><time>2026-04-20T16:02:45Z</time></trkpt><trkpt lat="45.72525771788911" lon="9.504128742266897"><ele>486.0</ele><time>2026-04-20T16:02:47Z</time></trkpt><trkpt lat="45.72533766916375" lon="9.504273400435178"><ele>479.8</ele><time>2026-04-20T16:02:49Z</time></trkpt><trkpt lat="45.72540377250278" lon="9.504396985646554"><ele>473.6</ele><time>2026-04-20T16:02:51Z</time></trkpt><trkpt lat="45.72544804722957" lon="9.504470919312546"><ele>467.4</ele><time>2026-04-20T16:02:53Z</time></trkpt><trkpt lat="45.725389570313396" lon="9.504611760150356"><ele>461.2</ele><time>2026-04-20T16:02:54.999Z</time></trkpt><trkpt lat="45.72537630505806" lon="9.504729600044158"><ele>455.0</ele><time>2026-04-20T16:02:57.999Z</time></trkpt><trkpt lat="45.72545362006782" lon="9.504741545864011"><ele>454.2</ele><time>2026-04-20T16:02:59.999Z</time></trkpt><trkpt lat="45.725475087576655" lon="9.504579228060196"><ele>453.4</ele><time>2026-04-20T16:03:01.999Z</time></trkpt><trkpt lat="45.7254525653458" lon="9.504425591664347"><ele>452.6</ele><time>2026-04-20T16:03:03.999Z</time></trkpt><trkpt lat="45.7254398674488" lon="9.504326585208114"><ele>451.8</ele><time>2026-04-20T16:03:04.999Z</time></trkpt><trkpt lat="45.72543163030972" lon="9.504236403057499"><ele>451.0</ele><time>2026-04-20T16:03:05.999Z</time></trkpt><trkpt lat="45.72536909996971" lon="9.504098438389187"><ele>451.0</ele><time>2026-04-20T16:03:07.999Z</time></trkpt><trkpt lat="45.725327705454305" lon="9.503949885787788"><ele>451.0</ele><time>2026-04-20T16:03:09.999Z</time></trkpt><trkpt lat="45.72530714408615" lon="9.503812933253224"><ele>451.0</ele><time>2026-04-20T16:03:11.999Z</time></trkpt><trkpt lat="45.72523555294918" lon="9.50369304708396"><ele>451.0</ele><time>2026-04-20T16:03:13.999Z</time></trkpt><trkpt lat="45.72517249906649" lon="9.503531329198696"><ele>451.0</ele><time>2026-04-20T16:03:15.999Z</time></trkpt><trkpt lat="45.72513868373243" lon="9.50345254227916"><ele>453.1428571428571</ele><time>2026-04-20T16:03:16.999Z</time></trkpt><trkpt lat="45.72509312966519" lon="9.503379319574748"><ele>455.28571428571433</ele><time>2026-04-20T16:03:17.999Z</time></trkpt><trkpt lat="45.72504514563561" lon="9.503302603840613"><ele>457.42857142857144</ele><time>2026-04-20T16:03:18.999Z</time></trkpt><trkpt lat="45.72501782418911" lon="9.503217494155189"><ele>459.57142857142856</ele><time>2026-04-20T16:03:19.999Z</time></trkpt><trkpt lat="45.72499166424422" lon="9.5030973882187"><ele>461.71428571428567</ele><time>2026-04-20T16:03:22Z</time></trkpt><trkpt lat="45.72495260333329" lon="9.503007518768944"><ele>463.8571428571429</ele><time>2026-04-20T16:03:23Z</time></trkpt><trkpt lat="45.72491710436199" lon="9.502911714524016"><ele>466.0</ele><time>2026-04-20T16:03:25Z</time></trkpt><trkpt lat="45.72486082901833" lon="9.502826544893795"><ele>466.0</ele><time>2026-04-20T16:03:27Z</time></trkpt><trkpt lat="45.7249239302857" lon="9.502820091011664"><ele>466.0</ele><time>2026-04-20T16:03:33Z</time></trkpt><trkpt lat="45.72496902915449" lon="9.5029277886118"><ele>466.0</ele><time>2026-04-20T16:03:35Z</time></trkpt><trkpt lat="45.72504595552387" lon="9.503056678889266"><ele>466.0</ele><time>2026-04-20T16:03:37Z</time></trkpt><trkpt lat="45.72511218055299" lon="9.503186361755386"><ele>466.0</ele><time>2026-04-20T16:03:39Z</time></trkpt><trkpt lat="45.72515689314857" lon="9.503262625704652"><ele>463.50000000000006</ele><time>2026-04-20T16:03:40Z</time></trkpt><trkpt lat="45.72523946950965" lon="9.503359426147139"><ele>461.0</ele><time>2026-04-20T16:03:41Z</time></trkpt><trkpt lat="45.725277018501096" lon="9.503433759772273"><ele>458.5</ele><time>2026-04-20T16:03:42Z</time></trkpt><trkpt lat="45.72533353497378" lon="9.503485278380648"><ele>456.0</ele><time>2026-04-20T16:03:43Z</time></trkpt><trkpt lat="45.72536903971959" lon="9.503568522166093"><ele>453.50000000000006</ele><time>2026-04-20T16:03:44Z</time></trkpt><trkpt lat="45.72543085290385" lon="9.503663297380315"><ele>451.0</ele><time>2026-04-20T16:03:46Z</time></trkpt><trkpt lat="45.72548356398673" lon="9.5037526436883"><ele>451.0</ele><time>2026-04-20T16:03:47Z</time></trkpt><trkpt lat="45.725552552319265" lon="9.503870884917363"><ele>451.0</ele><time>2026-04-20T16:03:49Z</time></trkpt><trkpt lat="45.72562374345759" lon="9.504046217624582"><ele>451.0</ele><time>2026-04-20T16:03:51Z</time></trkpt><trkpt lat="45.72565917773754" lon="9.504175902730804"><ele>451.0</ele><time>2026-04-20T16:03:53Z</time></trkpt><trkpt lat="45.72568472726324" lon="9.504324655972134"><ele>451.00000000000006</ele><time>2026-04-20T16:03:55Z</time></trkpt><trkpt lat="45.72572029898289" lon="9.504501041543103"><ele>451.0</ele><time>2026-04-20T16:03:57Z</time></trkpt><trkpt lat="45.72572023227972" lon="9.504602327456036"><ele>451.0</ele><time>2026-04-20T16:03:58Z</time></trkpt><trkpt lat="45.725734047482995" lon="9.504719251737123"><ele>451.0</ele><time>2026-04-20T16:03:59Z</time></trkpt><trkpt lat="45.725765271638835" lon="9.50484246242551"><ele>451.00000000000006</ele><time>2026-04-20T16:04:00Z</time></trkpt><trkpt lat="45.72577796558087" lon="9.504945754214637"><ele>451.0</ele><time>2026-04-20T16:04:01Z</time></trkpt><trkpt lat="45.7257918922175" lon="9.505056695160533"><ele>451.6666666666667</ele><time>2026-04-20T16:04:02Z</time></trkpt><trkpt lat="45.72581075063247" lon="9.505142796845304"><ele>452.33333333333337</ele><time>2026-04-20T16:04:03Z</time></trkpt><trkpt lat="45.725815848216676" lon="9.505244175111711"><ele>453.0</ele><time>2026-04-20T16:04:04Z</time></trkpt><trkpt lat="45.72584944678022" lon="9.505340272270539"><ele>453.66666666666663</ele><time>2026-04-20T16:04:05Z</time></trkpt><trkpt lat="45.72588302835997" lon="9.505446168263767"><ele>454.3333333333333</ele><time>2026-04-20T16:04:06Z</time></trkpt><trkpt lat="45.72598383146827" lon="9.505571528119011"><ele>455.0</ele><time>2026-04-20T16:04:08Z</time></trkpt><trkpt lat="45.726092053883086" lon="9.505594334297815"><ele>455.0</ele><time>2026-04-20T16:04:10Z</time></trkpt><trkpt lat="45.7261931189473" lon="9.505627890243753"><ele>455.0</ele><time>2026-04-20T16:04:13Z</time></trkpt><trkpt lat="45.72623337149153" lon="9.505474348665748"><ele>455.0</ele><time>2026-04-20T16:04:15Z</time></trkpt><trkpt lat="45.726139184230604" lon="9.505378090266491"><ele>455.0</ele><time>2026-04-20T16:04:17Z</time></trkpt><trkpt lat="45.72603763209249" lon="9.505296791256393"><ele>455.0</ele><time>2026-04-20T16:04:19Z</time></trkpt><trkpt lat="45.72596549573763" lon="9.50519081266531"><ele>455.0</ele><time>2026-04-20T16:04:21Z</time></trkpt><trkpt lat="45.725945416445796" lon="9.505041778455343"><ele>455.0</ele><time>2026-04-20T16:04:23Z</time></trkpt><trkpt lat="45.72591363816138" lon="9.504900351311438"><ele>455.0</ele><time>2026-04-20T16:04:25Z</time></trkpt><trkpt lat="45.725992626636035" lon="9.504858398399993"><ele>455.0</ele><time>2026-04-20T16:04:29Z</time></trkpt><trkpt lat="45.72601546302046" lon="9.504981624867327"><ele>455.0</ele><time>2026-04-20T16:04:32Z</time></trkpt><trkpt lat="45.72605603083161" lon="9.505085780501084"><ele>455.0</ele><time>2026-04-20T16:04:33Z</time></trkpt><trkpt lat="45.726116576813425" lon="9.505174769930967"><ele>455.0</ele><time>2026-04-20T16:04:34Z</time></trkpt><trkpt lat="45.72619253191057" lon="9.50523874682908"><ele>455.0</ele><time>2026-04-20T16:04:36Z</time></trkpt><trkpt lat="45.72618492730007" lon="9.505058538839485"><ele>455.0</ele><time>2026-04-20T16:04:37Z</time></trkpt><trkpt lat="45.72612259763445" lon="9.5049917069019"><ele>448.4</ele><time>2026-04-20T16:04:39Z</time></trkpt><trkpt lat="45.72610762421493" lon="9.504898883150744"><ele>441.8</ele><time>2026-04-20T16:04:40Z</time></trkpt><trkpt lat="45.72606551141505" lon="9.504718723487317"><ele>435.20000000000005</ele><time>2026-04-20T16:04:42Z</time></trkpt><trkpt lat="45.726077744275784" lon="9.504569077534253"><ele>428.6</ele><time>2026-04-20T16:04:44Z</time></trkpt><trkpt lat="45.726103129635554" lon="9.504456401320837"><ele>422.0</ele><time>2026-04-20T16:04:46Z</time></trkpt><trkpt lat="45.72615759723996" lon="9.50429569794989"><ele>420.8</ele><time>2026-04-20T16:04:48Z</time></trkpt><trkpt lat="45.72622102757984" lon="9.50415244125233"><ele>419.6</ele><time>2026-04-20T16:04:50Z</time></trkpt><trkpt lat="45.72628096915793" lon="9.504106309139987"><ele>418.40000000000003</ele><time>2026-04-20T16:04:52Z</time></trkpt><trkpt lat="45.72633460451265" lon="9.504286728799896"><ele>417.20000000000005</ele><time>2026-04-20T16:04:57Z</time></trkpt><trkpt lat="45.726243293489944" lon="9.50439960688969"><ele>416.0</ele><time>2026-04-20T16:04:58Z</time></trkpt><trkpt lat="45.72624457588677" lon="9.504543038755589"><ele>417.20000000000005</ele><time>2026-04-20T16:05:00Z</time></trkpt><trkpt lat="45.7262588045946" lon="9.5046529645219"><ele>418.40000000000003</ele><time>2026-04-20T16:05:01Z</time></trkpt><trkpt lat="45.726389172191084" lon="9.504699240235443"><ele>419.6</ele><time>2026-04-20T16:05:02Z</time></trkpt><trkpt lat="45.72641336074652" lon="9.504872135726123"><ele>420.8</ele><time>2026-04-20T16:05:04Z</time></trkpt><trkpt lat="45.72643423627369" lon="9.504971070794674"><ele>422.0</ele><time>2026-04-20T16:05:05Z</time></trkpt><trkpt lat="45.72647094162305" lon="9.50517843773664"><ele>422.0</ele><time>2026-04-20T16:05:07Z</time></trkpt><trkpt lat="45.7265296842239" lon="9.505292941056712"><ele>422.0</ele><time>2026-04-20T16:05:09Z</time></trkpt><trkpt lat="45.72661825780723" lon="9.505417381323154"><ele>422.0</ele><time>2026-04-20T16:05:11Z</time></trkpt><trkpt lat="45.726688155632246" lon="9.505543673170141"><ele>422.0</ele><time>2026-04-20T16:05:13Z</time></trkpt><trkpt lat="45.7267247225887" lon="9.5056751534451"><ele>422.0</ele><time>2026-04-20T16:05:14.999Z</time></trkpt><trkpt lat="45.72676152574946" lon="9.505768202758809"><ele>421.66666666666663</ele><time>2026-04-20T16:05:15.999Z</time></trkpt><trkpt lat="45.72680170013437" lon="9.50584056356237"><ele>421.3333333333333</ele><time>2026-04-20T16:05:16.999Z</time></trkpt><trkpt lat="45.726837889494114" lon="9.505927461856311"><ele>421.0</ele><time>2026-04-20T16:05:17.999Z</time></trkpt><trkpt lat="45.726855852276195" lon="9.50602517003485"><ele>420.66666666666663</ele><time>2026-04-20T16:05:19.999Z</time></trkpt><trkpt lat="45.72687167603575" lon="9.50616497755142"><ele>420.3333333333333</ele><time>2026-04-20T16:05:21.999Z</time></trkpt><trkpt lat="45.726866916085534" lon="9.50625749516025"><ele>420.0</ele><time>2026-04-20T16:05:22.999Z</time></trkpt><trkpt lat="45.726815854079064" lon="9.506348191928604"><ele>420.0</ele><time>2026-04-20T16:05:23.999Z</time></trkpt><trkpt lat="45.72676122345815" lon="9.506431363836175"><ele>420.0</ele><time>2026-04-20T16:05:24.999Z</time></trkpt><trkpt lat="45.72673687137678" lon="9.50652588659763"><ele>420.0</ele><time>2026-04-20T16:05:25.999Z</time></trkpt><trkpt lat="45.72669692216629" lon="9.506704975223967"><ele>420.0</ele><time>2026-04-20T16:05:28Z</time></trkpt><trkpt lat="45.726679607513546" lon="9.506818007042517"><ele>420.0</ele><time>2026-04-20T16:05:30Z</time></trkpt><trkpt lat="45.726732485563616" lon="9.50695432905684"><ele>420.0</ele><time>2026-04-20T16:05:32Z</time></trkpt><trkpt lat="45.726760058035495" lon="9.507049563800903"><ele>420.0</ele><time>2026-04-20T16:05:34Z</time></trkpt><trkpt lat="45.72681307462181" lon="9.507135815055834"><ele>420.0</ele><time>2026-04-20T16:05:37Z</time></trkpt><trkpt lat="45.726760502320964" lon="9.507310357340538"><ele>420.0</ele><time>2026-04-20T16:05:40Z</time></trkpt><trkpt lat="45.72679627463456" lon="9.507389870692489"><ele>420.0</ele><time>2026-04-20T16:05:42Z</time></trkpt><trkpt lat="45.726844542415414" lon="9.507324277009982"><ele>420.0</ele><time>2026-04-20T16:05:45Z</time></trkpt><trkpt lat="45.72686115789017" lon="9.507175898381108"><ele>420.0</ele><time>2026-04-20T16:05:47Z</time></trkpt><trkpt lat="45.72685859267306" lon="9.507058238289313"><ele>420.0</ele><time>2026-04-20T16:05:49Z</time></trkpt><trkpt lat="45.72682625578503" lon="9.506959158758885"><ele>420.0</ele><time>2026-04-20T16:05:51Z</time></trkpt><trkpt lat="45.72683994796924" lon="9.50682377633028"><ele>420.0</ele><time>2026-04-20T16:05:53Z</time></trkpt><trkpt lat="45.72691188792818" lon="9.506745077962542"><ele>420.0</ele><time>2026-04-20T16:05:55Z</time></trkpt><trkpt lat="45.72694594492415" lon="9.506635198720357"><ele>420.0</ele><time>2026-04-20T16:05:56Z</time></trkpt><trkpt lat="45.72697126745679" lon="9.50654129032183"><ele>412.0</ele><time>2026-04-20T16:05:57Z</time></trkpt><trkpt lat="45.727005206567085" lon="9.50645716908862"><ele>404.0</ele><time>2026-04-20T16:05:58Z</time></trkpt><trkpt lat="45.727064137113025" lon="9.506318876015266"><ele>396.0</ele><time>2026-04-20T16:06:00Z</time></trkpt><trkpt lat="45.727113945872375" lon="9.506210115996078"><ele>388.0</ele><time>2026-04-20T16:06:02Z</time></trkpt><trkpt lat="45.72718161147927" lon="9.50611022205011"><ele>380.0</ele><time>2026-04-20T16:06:04Z</time></trkpt><trkpt lat="45.72721434422573" lon="9.505918218232038"><ele>380.0</ele><time>2026-04-20T16:06:06Z</time></trkpt><trkpt lat="45.72720286388783" lon="9.505817938853287"><ele>380.0</ele><time>2026-04-20T16:06:07Z</time></trkpt><trkpt lat="45.72715067348989" lon="9.505713312807995"><ele>380.0</ele><time>2026-04-20T16:06:08Z</time></trkpt><trkpt lat="45.72710911172111" lon="9.505633966395502"><ele>380.0</ele><time>2026-04-20T16:06:09Z</time></trkpt><trkpt lat="45.72706383649303" lon="9.505502986534788"><ele>380.0</ele><time>2026-04-20T16:06:11Z</time></trkpt><trkpt lat="45.7270128984865" lon="9.505352794893026"><ele>380.0</ele><time>2026-04-20T16:06:13Z</time></trkpt><trkpt lat="45.72696949804261" lon="9.50520656713064"><ele>378.83333333333337</ele><time>2026-04-20T16:06:15Z</time></trkpt><trkpt lat="45.726956865755824" lon="9.505096873984666"><ele>377.6666666666667</ele><time>2026-04-20T16:06:17Z</time></trkpt><trkpt lat="45.72697476804492" lon="9.504990118605738"><ele>376.5</ele><time>2026-04-20T16:06:20Z</time></trkpt><trkpt lat="45.72703681164164" lon="9.50501960036909"><ele>375.3333333333333</ele><time>2026-04-20T16:06:24Z</time></trkpt><trkpt lat="45.72703618056791" lon="9.505112496646332"><ele>374.16666666666663</ele><time>2026-04-20T16:06:26Z</time></trkpt><trkpt lat="45.72710871302712" lon="9.505258763000247"><ele>373.0</ele><time>2026-04-20T16:06:28Z</time></trkpt><trkpt lat="45.72712491471636" lon="9.505347096967494"><ele>374.16666666666663</ele><time>2026-04-20T16:06:29Z</time></trkpt><trkpt lat="45.72715464088796" lon="9.505441439528004"><ele>375.3333333333333</ele><time>2026-04-20T16:06:30Z</time></trkpt><trkpt lat="45.7272028355392" lon="9.50551893927927"><ele>376.5</ele><time>2026-04-20T16:06:32Z</time></trkpt><trkpt lat="45.72726098598737" lon="9.505607368821536"><ele>377.6666666666667</ele><time>2026-04-20T16:06:33Z</time></trkpt><trkpt lat="45.72731820876521" lon="9.505688552087324"><ele>378.83333333333337</ele><time>2026-04-20T16:06:35Z</time></trkpt><trkpt lat="45.727374954041686" lon="9.505773115667571"><ele>380.0</ele><time>2026-04-20T16:06:37Z</time></trkpt><trkpt lat="45.7274148941098" lon="9.50593027858573"><ele>380.0</ele><time>2026-04-20T16:06:39Z</time></trkpt><trkpt lat="45.727403498552015" lon="9.506019221022791"><ele>380.0</ele><time>2026-04-20T16:06:40Z</time></trkpt><trkpt lat="45.72736925247587" lon="9.506153273462917"><ele>380.0</ele><time>2026-04-20T16:06:42Z</time></trkpt><trkpt lat="45.727327459428736" lon="9.506306372916532"><ele>380.0</ele><time>2026-04-20T16:06:44Z</time></trkpt><trkpt lat="45.72729538632959" lon="9.506398930307107"><ele>380.0</ele><time>2026-04-20T16:06:45Z</time></trkpt><trkpt lat="45.72730048853045" lon="9.506528460072406"><ele>380.0</ele><time>2026-04-20T16:06:47Z</time></trkpt><trkpt lat="45.72728198171318" lon="9.506752529556664"><ele>379.2</ele><time>2026-04-20T16:06:49Z</time></trkpt><trkpt lat="45.727278891089895" lon="9.506864673858164"><ele>378.4</ele><time>2026-04-20T16:06:50Z</time></trkpt><trkpt lat="45.72728633371106" lon="9.507050399770407"><ele>377.6</ele><time>2026-04-20T16:06:52Z</time></trkpt><trkpt lat="45.72730440226635" lon="9.50721059349493"><ele>376.8</ele><time>2026-04-20T16:06:54Z</time></trkpt><trkpt lat="45.727317444389136" lon="9.507319315257797"><ele>376.0</ele><time>2026-04-20T16:06:55Z</time></trkpt><trkpt lat="45.727333057378544" lon="9.507496120306598"><ele>375.0</ele><time>2026-04-20T16:06:57Z</time></trkpt><trkpt lat="45.727339578374036" lon="9.507705257248222"><ele>374.0</ele><time>2026-04-20T16:06:59Z</time></trkpt><trkpt lat="45.72733688570433" lon="9.507843257284415"><ele>373.0</ele><time>2026-04-20T16:07:00Z</time></trkpt><trkpt lat="45.72734267858543" lon="9.50797221024942"><ele>372.0</ele><time>2026-04-20T16:07:02Z</time></trkpt><trkpt lat="45.727328662610006" lon="9.508078302991526"><ele>371.0</ele><time>2026-04-20T16:07:03Z</time></trkpt><trkpt lat="45.727338122290156" lon="9.508175499515817"><ele>370.1666666666667</ele><time>2026-04-20T16:07:04Z</time></trkpt><trkpt lat="45.72733853012067" lon="9.508268074162222"><ele>369.33333333333337</ele><time>2026-04-20T16:07:05Z</time></trkpt><trkpt lat="45.72733876984616" lon="9.508409658150306"><ele>368.5</ele><time>2026-04-20T16:07:07Z</time></trkpt><trkpt lat="45.72731506426436" lon="9.50857417763889"><ele>367.6666666666667</ele><time>2026-04-20T16:07:09Z</time></trkpt><trkpt lat="45.727327774764696" lon="9.508679746437302"><ele>366.8333333333333</ele><time>2026-04-20T16:07:11Z</time></trkpt><trkpt lat="45.727334160340796" lon="9.508812924064898"><ele>366.0</ele><time>2026-04-20T16:07:13Z</time></trkpt><trkpt lat="45.727371199583935" lon="9.508918014029183"><ele>365.75</ele><time>2026-04-20T16:07:15Z</time></trkpt><trkpt lat="45.72739753372526" lon="9.509029553668256"><ele>365.5</ele><time>2026-04-20T16:07:16Z</time></trkpt><trkpt lat="45.727427772127335" lon="9.509138775755039"><ele>365.25</ele><time>2026-04-20T16:07:18Z</time></trkpt><trkpt lat="45.72748707782366" lon="9.509264611117322"><ele>365.0</ele><time>2026-04-20T16:07:20Z</time></trkpt><trkpt lat="45.727535352214765" lon="9.509629140994639"><ele>364.25</ele><time>2026-04-20T16:07:24Z</time></trkpt><trkpt lat="45.72753241234884" lon="9.509773932858247"><ele>363.5</ele><time>2026-04-20T16:07:25Z</time></trkpt><trkpt lat="45.72753348124931" lon="9.50999653889056"><ele>362.75</ele><time>2026-04-20T16:07:26Z</time></trkpt><trkpt lat="45.7275217866959" lon="9.510174443700805"><ele>362.0</ele><time>2026-04-20T16:07:27Z</time></trkpt><trkpt lat="45.72754950731392" lon="9.510340187699905"><ele>361.6</ele><time>2026-04-20T16:07:27.999Z</time></trkpt><trkpt lat="45.72755815144463" lon="9.51045763856778"><ele>361.20000000000005</ele><time>2026-04-20T16:07:28.999Z</time></trkpt><trkpt lat="45.72756475806181" lon="9.510576312957038"><ele>360.8</ele><time>2026-04-20T16:07:29.999Z</time></trkpt><trkpt lat="45.72755747711874" lon="9.510791670254637"><ele>360.4</ele><time>2026-04-20T16:07:34Z</time></trkpt><trkpt lat="45.72758358737777" lon="9.510902220682718"><ele>360.0</ele><time>2026-04-20T16:07:35Z</time></trkpt><trkpt lat="45.72761891894193" lon="9.511072151625298"><ele>360.0</ele><time>2026-04-20T16:07:36Z</time></trkpt><trkpt lat="45.727638020997816" lon="9.511235313683397"><ele>360.0</ele><time>2026-04-20T16:07:38Z</time></trkpt><trkpt lat="45.72763296320957" lon="9.511332291179526"><ele>360.0</ele><time>2026-04-20T16:07:39Z</time></trkpt><trkpt lat="45.72760190879971" lon="9.511494329456559"><ele>360.0</ele><time>2026-04-20T16:07:41Z</time></trkpt><trkpt lat="45.727603434003136" lon="9.51167149270348"><ele>360.0</ele><time>2026-04-20T16:07:43Z</time></trkpt><trkpt lat="45.72757301166444" lon="9.511791926184085"><ele>360.0</ele><time>2026-04-20T16:07:44Z</time></trkpt><trkpt lat="45.72757465748255" lon="9.511892304184661"><ele>360.0</ele><time>2026-04-20T16:07:45Z</time></trkpt><trkpt lat="45.72754657905951" lon="9.512038890470901"><ele>360.0</ele><time>2026-04-20T16:07:47Z</time></trkpt><trkpt lat="45.727534400443886" lon="9.512179797312884"><ele>360.0</ele><time>2026-04-20T16:07:49Z</time></trkpt><trkpt lat="45.727519273794684" lon="9.512305840930544"><ele>360.0</ele><time>2026-04-20T16:07:51Z</time></trkpt><trkpt lat="45.727506558639696" lon="9.512442424000303"><ele>360.0</ele><time>2026-04-20T16:07:53Z</time></trkpt><trkpt lat="45.727488264901154" lon="9.512539327225328"><ele>360.0</ele><time>2026-04-20T16:07:55Z</time></trkpt><trkpt lat="45.72746658540005" lon="9.512626183125775"><ele>360.0</ele><time>2026-04-20T16:07:57Z</time></trkpt><trkpt lat="45.72745837907101" lon="9.512716955008994"><ele>360.0</ele><time>2026-04-20T16:08:01Z</time></trkpt><trkpt lat="45.7274581908534" lon="9.512591196252405"><ele>360.0</ele><time>2026-04-20T16:08:10Z</time></trkpt><trkpt lat="45.72748492928478" lon="9.512474007611535"><ele>360.0</ele><time>2026-04-20T16:08:12Z</time></trkpt><trkpt lat="45.72749069737448" lon="9.51233447079043"><ele>360.0</ele><time>2026-04-20T16:08:13Z</time></trkpt><trkpt lat="45.72750193265434" lon="9.512213008851365"><ele>360.0</ele><time>2026-04-20T16:08:14Z</time></trkpt><trkpt lat="45.727519810726456" lon="9.512101664684064"><ele>360.0</ele><time>2026-04-20T16:08:15Z</time></trkpt><trkpt lat="45.72755659737899" lon="9.511949884602993"><ele>360.0</ele><time>2026-04-20T16:08:17Z</time></trkpt><trkpt lat="45.72757618063164" lon="9.511798122616566"><ele>360.0</ele><time>2026-04-20T16:08:19Z</time></trkpt><trkpt lat="45.727612343908206" lon="9.511695536038664"><ele>360.0</ele><time>2026-04-20T16:08:21Z</time></trkpt><trkpt lat="45.727642490155375" lon="9.511573940861958"><ele>360.0</ele><time>2026-04-20T16:08:23Z</time></trkpt><trkpt lat="45.72766215114912" lon="9.511394153398225"><ele>360.0</ele><time>2026-04-20T16:08:25Z</time></trkpt><trkpt lat="45.72763576755802" lon="9.511300040753095"><ele>360.0</ele><time>2026-04-20T16:08:26Z</time></trkpt><trkpt lat="45.72762592634847" lon="9.511209855386943"><ele>360.0</ele><time>2026-04-20T16:08:27Z</time></trkpt><trkpt lat="45.727607381720766" lon="9.511052902552821"><ele>360.0</ele><time>2026-04-20T16:08:29Z</time></trkpt><trkpt lat="45.727615613054056" lon="9.510921983549848"><ele>360.0</ele><time>2026-04-20T16:08:31Z</time></trkpt><trkpt lat="45.72760305254079" lon="9.510833107894758"><ele>360.0</ele><time>2026-04-20T16:08:35Z</time></trkpt><trkpt lat="45.7275125911466" lon="9.510823624528218"><ele>360.0</ele><time>2026-04-20T16:08:47Z</time></trkpt><trkpt lat="45.72738595941845" lon="9.510916934165389"><ele>360.0</ele><time>2026-04-20T16:08:49Z</time></trkpt><trkpt lat="45.72730900449904" lon="9.510903373346721"><ele>360.0</ele><time>2026-04-20T16:08:53Z</time></trkpt><trkpt lat="45.72725758690128" lon="9.51079975287754"><ele>360.0</ele><time>2026-04-20T16:08:55Z</time></trkpt><trkpt lat="45.7272371740805" lon="9.510667627264109"><ele>360.0</ele><time>2026-04-20T16:08:56Z</time></trkpt><trkpt lat="45.727210653596664" lon="9.51056730671859"><ele>360.0</ele><time>2026-04-20T16:08:57Z</time></trkpt><trkpt lat="45.72717775992519" lon="9.5104580994743"><ele>360.0</ele><time>2026-04-20T16:08:58Z</time></trkpt><trkpt lat="45.72711706047894" lon="9.510292739219041"><ele>360.3333333333333</ele><time>2026-04-20T16:09:00Z</time></trkpt><trkpt lat="45.72706994493165" lon="9.510218478000695"><ele>360.6666666666667</ele><time>2026-04-20T16:09:01Z</time></trkpt><trkpt lat="45.727027472029775" lon="9.510134208390989"><ele>361.0</ele><time>2026-04-20T16:09:02Z</time></trkpt><trkpt lat="45.72696463296586" lon="9.510059263366525"><ele>361.33333333333337</ele><time>2026-04-20T16:09:03Z</time></trkpt><trkpt lat="45.726908778923296" lon="9.509981784225301"><ele>361.6666666666667</ele><time>2026-04-20T16:09:04Z</time></trkpt><trkpt lat="45.72685562342063" lon="9.5098880347256"><ele>362.0</ele><time>2026-04-20T16:09:05Z</time></trkpt><trkpt lat="45.726804962225955" lon="9.509822577949574"><ele>364.40000000000003</ele><time>2026-04-20T16:09:07Z</time></trkpt><trkpt lat="45.72675211018032" lon="9.50970823618858"><ele>366.8</ele><time>2026-04-20T16:09:09Z</time></trkpt><trkpt lat="45.72670476253842" lon="9.50956610195359"><ele>369.2</ele><time>2026-04-20T16:09:11Z</time></trkpt><trkpt lat="45.72667245614272" lon="9.509481006981606"><ele>371.6</ele><time>2026-04-20T16:09:12Z</time></trkpt><trkpt lat="45.726625791631136" lon="9.50937956936512"><ele>374.0</ele><time>2026-04-20T16:09:13Z</time></trkpt><trkpt lat="45.726530613404805" lon="9.509268204868075"><ele>375.83333333333337</ele><time>2026-04-20T16:09:15Z</time></trkpt><trkpt lat="45.72646558573692" lon="9.509226533756818"><ele>377.6666666666667</ele><time>2026-04-20T16:09:16Z</time></trkpt><trkpt lat="45.726405408673266" lon="9.509196166851797"><ele>379.5</ele><time>2026-04-20T16:09:17Z</time></trkpt><trkpt lat="45.72632776730979" lon="9.509161356356323"><ele>381.33333333333337</ele><time>2026-04-20T16:09:18Z</time></trkpt><trkpt lat="45.72622546590309" lon="9.509111173590798"><ele>383.1666666666667</ele><time>2026-04-20T16:09:20Z</time></trkpt><trkpt lat="45.72614360640125" lon="9.509009415124007"><ele>385.0</ele><time>2026-04-20T16:09:22Z</time></trkpt><trkpt lat="45.72606676684555" lon="9.508930641542438"><ele>385.6666666666667</ele><time>2026-04-20T16:09:23Z</time></trkpt><trkpt lat="45.72599378041761" lon="9.508838766322334"><ele>386.33333333333337</ele><time>2026-04-20T16:09:24Z</time></trkpt><trkpt lat="45.72593257035159" lon="9.508765180059534"><ele>387.0</ele><time>2026-04-20T16:09:25Z</time></trkpt><trkpt lat="45.72588541613849" lon="9.508697915322935"><ele>387.66666666666663</ele><time>2026-04-20T16:09:26Z</time></trkpt><trkpt lat="45.725838202273415" lon="9.508624957386402"><ele>388.3333333333333</ele><time>2026-04-20T16:09:27Z</time></trkpt><trkpt lat="45.72579789163952" lon="9.508548883732342"><ele>389.0</ele><time>2026-04-20T16:09:28Z</time></trkpt><trkpt lat="45.725742003169266" lon="9.508404841871517"><ele>388.99999999999994</ele><time>2026-04-20T16:09:30Z</time></trkpt><trkpt lat="45.72570902105218" lon="9.508293542049287"><ele>389.0</ele><time>2026-04-20T16:09:32Z</time></trkpt><trkpt lat="45.72566420498523" lon="9.508142014286095"><ele>389.0</ele><time>2026-04-20T16:09:34Z</time></trkpt><trkpt lat="45.725657290400896" lon="9.508044161245556"><ele>389.0</ele><time>2026-04-20T16:09:35Z</time></trkpt><trkpt lat="45.72566903797392" lon="9.507945502461476"><ele>388.99999999999994</ele><time>2026-04-20T16:09:36.999Z</time></trkpt><trkpt lat="45.72568762263084" lon="9.507840971190719"><ele>389.0</ele><time>2026-04-20T16:09:38.999Z</time></trkpt><trkpt lat="45.72570881000433" lon="9.507716766470718"><ele>391.16666666666663</ele><time>2026-04-20T16:09:42Z</time></trkpt><trkpt lat="45.72572192727122" lon="9.507599169214974"><ele>393.3333333333333</ele><time>2026-04-20T16:09:44Z</time></trkpt><trkpt lat="45.72571193456542" lon="9.507474827896804"><ele>395.5</ele><time>2026-04-20T16:09:46Z</time></trkpt><trkpt lat="45.72566735481863" lon="9.507408223443365"><ele>397.66666666666663</ele><time>2026-04-20T16:09:47Z</time></trkpt><trkpt lat="45.725552606095924" lon="9.507452018062162"><ele>399.8333333333333</ele><time>2026-04-20T16:09:49Z</time></trkpt><trkpt lat="45.7256416885867" lon="9.507440553702239"><ele>402.0</ele><time>2026-04-20T16:10:07Z</time></trkpt><trkpt lat="45.72569499571896" lon="9.5076100433042"><ele>402.0</ele><time>2026-04-20T16:10:11Z</time></trkpt><trkpt lat="45.725663786758886" lon="9.507776300093745"><ele>402.0</ele><time>2026-04-20T16:10:13Z</time></trkpt><trkpt lat="45.725634449591304" lon="9.507879399440966"><ele>402.0</ele><time>2026-04-20T16:10:14Z</time></trkpt><trkpt lat="45.72564626120557" lon="9.507974916331708"><ele>402.0</ele><time>2026-04-20T16:10:15Z</time></trkpt><trkpt lat="45.72563547166973" lon="9.508131939147464"><ele>402.0</ele><time>2026-04-20T16:10:17Z</time></trkpt><trkpt lat="45.72566925825856" lon="9.508295732817963"><ele>399.40000000000003</ele><time>2026-04-20T16:10:19Z</time></trkpt><trkpt lat="45.72569665260994" lon="9.508379446162486"><ele>396.8</ele><time>2026-04-20T16:10:20Z</time></trkpt><trkpt lat="45.72575926031503" lon="9.50851625355384"><ele>394.2</ele><time>2026-04-20T16:10:22Z</time></trkpt><trkpt lat="45.725813986597714" lon="9.508642146662938"><ele>391.6</ele><time>2026-04-20T16:10:24Z</time></trkpt><trkpt lat="45.725872824893194" lon="9.50873998677739"><ele>389.0</ele><time>2026-04-20T16:10:26Z</time></trkpt><trkpt lat="45.72596308919893" lon="9.508826651160275"><ele>388.2</ele><time>2026-04-20T16:10:28Z</time></trkpt><trkpt lat="45.726063680877004" lon="9.50894534388524"><ele>387.4</ele><time>2026-04-20T16:10:30Z</time></trkpt><trkpt lat="45.7261049094589" lon="9.509021724322928"><ele>386.6</ele><time>2026-04-20T16:10:31Z</time></trkpt><trkpt lat="45.72618500292875" lon="9.50913996236713"><ele>385.8</ele><time>2026-04-20T16:10:33Z</time></trkpt><trkpt lat="45.72625751196095" lon="9.50920580112088"><ele>385.0</ele><time>2026-04-20T16:10:35Z</time></trkpt><trkpt lat="45.726364162629224" lon="9.50924494581234"><ele>385.00000000000006</ele><time>2026-04-20T16:10:37Z</time></trkpt><trkpt lat="45.72643328240052" lon="9.50926047938393"><ele>385.0</ele><time>2026-04-20T16:10:38Z</time></trkpt><trkpt lat="45.72652711653703" lon="9.509311958307771"><ele>385.0</ele><time>2026-04-20T16:10:40Z</time></trkpt><trkpt lat="45.72660054800321" lon="9.509420249788127"><ele>385.0</ele><time>2026-04-20T16:10:42Z</time></trkpt><trkpt lat="45.72662602081168" lon="9.509506990290298"><ele>385.00000000000006</ele><time>2026-04-20T16:10:43Z</time></trkpt><trkpt lat="45.72666975246109" lon="9.509576620776587"><ele>385.0</ele><time>2026-04-20T16:10:44Z</time></trkpt><trkpt lat="45.72671326567973" lon="9.50972153602184"><ele>383.1666666666667</ele><time>2026-04-20T16:10:46Z</time></trkpt><trkpt lat="45.726753709779295" lon="9.509805881898398"><ele>381.33333333333337</ele><time>2026-04-20T16:10:48Z</time></trkpt><trkpt lat="45.72680969516959" lon="9.509865447790874"><ele>379.5</ele><time>2026-04-20T16:10:51Z</time></trkpt><trkpt lat="45.726851353705925" lon="9.509944985146449"><ele>377.6666666666667</ele><time>2026-04-20T16:10:53Z</time></trkpt><trkpt lat="45.726922453535245" lon="9.510011369277994"><ele>375.83333333333337</ele><time>2026-04-20T16:10:55Z</time></trkpt><trkpt lat="45.72697428335766" lon="9.51011664355591"><ele>374.0</ele><time>2026-04-20T16:10:57Z</time></trkpt><trkpt lat="45.727031126635325" lon="9.510225825151153"><ele>372.0</ele><time>2026-04-20T16:10:59Z</time></trkpt><trkpt lat="45.72709297312477" lon="9.510346790714724"><ele>370.0</ele><time>2026-04-20T16:11:01Z</time></trkpt><trkpt lat="45.72712769944899" lon="9.510436736153588"><ele>368.0</ele><time>2026-04-20T16:11:02Z</time></trkpt><trkpt lat="45.72717251275382" lon="9.510511936901407"><ele>366.0</ele><time>2026-04-20T16:11:03Z</time></trkpt><trkpt lat="45.727213768633085" lon="9.510655699930457"><ele>364.0</ele><time>2026-04-20T16:11:05Z</time></trkpt><trkpt lat="45.72723129735466" lon="9.510776421264673"><ele>362.0</ele><time>2026-04-20T16:11:07Z</time></trkpt><trkpt lat="45.727264337759166" lon="9.510875725217472"><ele>361.6666666666667</ele><time>2026-04-20T16:11:09Z</time></trkpt><trkpt lat="45.727328133747704" lon="9.510977797074883"><ele>361.33333333333337</ele><time>2026-04-20T16:11:12Z</time></trkpt><trkpt lat="45.72739897210433" lon="9.51099910337672"><ele>361.0</ele><time>2026-04-20T16:11:16Z</time></trkpt><trkpt lat="45.72747935313618" lon="9.510933165288323"><ele>360.6666666666667</ele><time>2026-04-20T16:11:18Z</time></trkpt><trkpt lat="45.72752249846302" lon="9.510866415799361"><ele>360.3333333333333</ele><time>2026-04-20T16:11:20Z</time></trkpt><trkpt lat="45.72758934194325" lon="9.510750898512786"><ele>360.0</ele><time>2026-04-20T16:11:23Z</time></trkpt><trkpt lat="45.727588038284225" lon="9.510601108614129"><ele>360.0</ele><time>2026-04-20T16:11:24Z</time></trkpt><trkpt lat="45.72758669901224" lon="9.510455550235978"><ele>360.0</ele><time>2026-04-20T16:11:25Z</time></trkpt><trkpt lat="45.72758604384858" lon="9.510310486564357"><ele>360.0</ele><time>2026-04-20T16:11:26Z</time></trkpt><trkpt lat="45.72758554200441" lon="9.510184315349607"><ele>360.0</ele><time>2026-04-20T16:11:27Z</time></trkpt><trkpt lat="45.72758409312624" lon="9.510056148637785"><ele>360.0</ele><time>2026-04-20T16:11:28Z</time></trkpt><trkpt lat="45.72758778573663" lon="9.509911880642557"><ele>360.4</ele><time>2026-04-20T16:11:29Z</time></trkpt><trkpt lat="45.72757555935204" lon="9.50977894312829"><ele>360.8</ele><time>2026-04-20T16:11:30Z</time></trkpt><trkpt lat="45.72759075799591" lon="9.50964082783132"><ele>361.20000000000005</ele><time>2026-04-20T16:11:31Z</time></trkpt><trkpt lat="45.72759468887709" lon="9.509504581278554"><ele>361.6</ele><time>2026-04-20T16:11:32Z</time></trkpt><trkpt lat="45.72759788355346" lon="9.50938254491716"><ele>362.0</ele><time>2026-04-20T16:11:33Z</time></trkpt><trkpt lat="45.72760798983925" lon="9.509269470415983"><ele>362.5</ele><time>2026-04-20T16:11:34Z</time></trkpt><trkpt lat="45.72760287550551" lon="9.509171962223254"><ele>363.0</ele><time>2026-04-20T16:11:35Z</time></trkpt><trkpt lat="45.72761747842118" lon="9.509072602997772"><ele>363.5</ele><time>2026-04-20T16:11:36Z</time></trkpt><trkpt lat="45.72763240883032" lon="9.508958812763973"><ele>364.0</ele><time>2026-04-20T16:11:37Z</time></trkpt><trkpt lat="45.72764320664695" lon="9.50883693743746"><ele>364.5</ele><time>2026-04-20T16:11:38Z</time></trkpt><trkpt lat="45.72762663761541" lon="9.508736993114008"><ele>365.0</ele><time>2026-04-20T16:11:39Z</time></trkpt><trkpt lat="45.72765986421195" lon="9.508634166965058"><ele>365.1666666666667</ele><time>2026-04-20T16:11:40Z</time></trkpt><trkpt lat="45.72768285763968" lon="9.508520009785306"><ele>365.33333333333337</ele><time>2026-04-20T16:11:40.999Z</time></trkpt><trkpt lat="45.727712004785246" lon="9.508439281413933"><ele>365.5</ele><time>2026-04-20T16:11:41.999Z</time></trkpt><trkpt lat="45.72776827339237" lon="9.508359418294491"><ele>365.6666666666667</ele><time>2026-04-20T16:11:42.999Z</time></trkpt><trkpt lat="45.727820291508635" lon="9.50827082953448"><ele>365.8333333333333</ele><time>2026-04-20T16:11:43.999Z</time></trkpt><trkpt lat="45.727860599683076" lon="9.50819128173656"><ele>366.0</ele><time>2026-04-20T16:11:44.999Z</time></trkpt><trkpt lat="45.72791159332566" lon="9.50807932315243"><ele>358.8</ele><time>2026-04-20T16:11:46Z</time></trkpt><trkpt lat="45.72794640506816" lon="9.507957279717576"><ele>351.6</ele><time>2026-04-20T16:11:47Z</time></trkpt><trkpt lat="45.72796837886141" lon="9.507810316616935"><ele>344.4</ele><time>2026-04-20T16:11:48Z</time></trkpt><trkpt lat="45.72798980100758" lon="9.50767762516196"><ele>337.2</ele><time>2026-04-20T16:11:49Z</time></trkpt><trkpt lat="45.72801945031041" lon="9.507539785246285"><ele>330.0</ele><time>2026-04-20T16:11:50Z</time></trkpt><trkpt lat="45.728051432891235" lon="9.50740478855509"><ele>330.0</ele><time>2026-04-20T16:11:51Z</time></trkpt><trkpt lat="45.728087929422614" lon="9.50728477093627"><ele>330.0</ele><time>2026-04-20T16:11:52Z</time></trkpt><trkpt lat="45.72812152251777" lon="9.507171771218584"><ele>330.0</ele><time>2026-04-20T16:11:53Z</time></trkpt><trkpt lat="45.72815752918614" lon="9.507047594321559"><ele>330.0</ele><time>2026-04-20T16:11:54Z</time></trkpt><trkpt lat="45.7281841278777" lon="9.50690789719029"><ele>330.0</ele><time>2026-04-20T16:11:55Z</time></trkpt><trkpt lat="45.72825069248212" lon="9.506809479116484"><ele>330.5</ele><time>2026-04-20T16:11:56Z</time></trkpt><trkpt lat="45.72827049960763" lon="9.506698217340228"><ele>331.0</ele><time>2026-04-20T16:11:57Z</time></trkpt><trkpt lat="45.72829564511117" lon="9.506586299835163"><ele>331.5</ele><time>2026-04-20T16:11:58Z</time></trkpt><trkpt lat="45.72832506012228" lon="9.506470189042258"><ele>332.0</ele><time>2026-04-20T16:11:59Z</time></trkpt><trkpt lat="45.72834419568597" lon="9.506381874809389"><ele>332.5</ele><time>2026-04-20T16:12:00Z</time></trkpt><trkpt lat="45.728398811293204" lon="9.506220957296417"><ele>333.0</ele><time>2026-04-20T16:12:02Z</time></trkpt><trkpt lat="45.728422001238904" lon="9.506135024788808"><ele>333.3333333333333</ele><time>2026-04-20T16:12:03Z</time></trkpt><trkpt lat="45.72843842792386" lon="9.506046299413159"><ele>333.6666666666667</ele><time>2026-04-20T16:12:04Z</time></trkpt><trkpt lat="45.72845933408738" lon="9.505891464358918"><ele>334.0</ele><time>2026-04-20T16:12:06Z</time></trkpt><trkpt lat="45.72843908629594" lon="9.505784766333216"><ele>334.33333333333337</ele><time>2026-04-20T16:12:07Z</time></trkpt><trkpt lat="45.728428212403784" lon="9.505684852018423"><ele>334.6666666666667</ele><time>2026-04-20T16:12:08Z</time></trkpt><trkpt lat="45.728402197023705" lon="9.505574960674416"><ele>335.0</ele><time>2026-04-20T16:12:09Z</time></trkpt><trkpt lat="45.72836984025946" lon="9.505450800960485"><ele>334.4</ele><time>2026-04-20T16:12:10Z</time></trkpt><trkpt lat="45.728341507825405" lon="9.505331047961082"><ele>333.8</ele><time>2026-04-20T16:12:11Z</time></trkpt><trkpt lat="45.72832096887651" lon="9.505201009412081"><ele>333.20000000000005</ele><time>2026-04-20T16:12:12Z</time></trkpt><trkpt lat="45.72832971246066" lon="9.505073088739941"><ele>332.6</ele><time>2026-04-20T16:12:13Z</time></trkpt><trkpt lat="45.728341197867344" lon="9.504943916959297"><ele>332.0</ele><time>2026-04-20T16:12:14Z</time></trkpt><trkpt lat="45.72837058116086" lon="9.504807647714943"><ele>332.0</ele><time>2026-04-20T16:12:15Z</time></trkpt><trkpt lat="45.72838780013126" lon="9.50467699846441"><ele>332.0</ele><time>2026-04-20T16:12:16Z</time></trkpt><trkpt lat="45.72838520525177" lon="9.504559188121089"><ele>332.0</ele><time>2026-04-20T16:12:17Z</time></trkpt><trkpt lat="45.72837934637535" lon="9.504452236502207"><ele>332.0</ele><time>2026-04-20T16:12:18Z</time></trkpt><trkpt lat="45.728377764893914" lon="9.5043366175884"><ele>332.0</ele><time>2026-04-20T16:12:19Z</time></trkpt><trkpt lat="45.72837603276505" lon="9.50423139604757"><ele>332.0</ele><time>2026-04-20T16:12:20Z</time></trkpt><trkpt lat="45.728381013869246" lon="9.504131367865787"><ele>331.33333333333337</ele><time>2026-04-20T16:12:21Z</time></trkpt><trkpt lat="45.72836414334176" lon="9.504019760898196"><ele>330.6666666666667</ele><time>2026-04-20T16:12:22Z</time></trkpt><trkpt lat="45.72834273897028" lon="9.503912607860459"><ele>330.0</ele><time>2026-04-20T16:12:23Z</time></trkpt><trkpt lat="45.72831960804762" lon="9.503814809770079"><ele>329.3333333333333</ele><time>2026-04-20T16:12:24Z</time></trkpt><trkpt lat="45.72831097282675" lon="9.503720553007064"><ele>328.66666666666663</ele><time>2026-04-20T16:12:25Z</time></trkpt><trkpt lat="45.728293399024636" lon="9.503626589080785"><ele>328.0</ele><time>2026-04-20T16:12:26Z</time></trkpt><trkpt lat="45.728284961540815" lon="9.503499847405454"><ele>327.3333333333333</ele><time>2026-04-20T16:12:28Z</time></trkpt><trkpt lat="45.72829388921143" lon="9.50338085040257"><ele>326.66666666666663</ele><time>2026-04-20T16:12:30Z</time></trkpt><trkpt lat="45.72832740515798" lon="9.503262139986923"><ele>326.0</ele><time>2026-04-20T16:12:32Z</time></trkpt><trkpt lat="45.72842460749747" lon="9.503168956831232"><ele>325.3333333333333</ele><time>2026-04-20T16:12:34Z</time></trkpt><trkpt lat="45.72850293241737" lon="9.503122437681835"><ele>324.6666666666667</ele><time>2026-04-20T16:12:35Z</time></trkpt><trkpt lat="45.72857267810397" lon="9.50311722680132"><ele>324.0</ele><time>2026-04-20T16:12:36Z</time></trkpt><trkpt lat="45.72863966066576" lon="9.50312157879385"><ele>322.0</ele><time>2026-04-20T16:12:37Z</time></trkpt><trkpt lat="45.72871970769634" lon="9.503151134203216"><ele>320.0</ele><time>2026-04-20T16:12:38Z</time></trkpt><trkpt lat="45.728793872499" lon="9.5031683475981"><ele>318.0</ele><time>2026-04-20T16:12:39Z</time></trkpt><trkpt lat="45.72886941451857" lon="9.503185448377712"><ele>316.0</ele><time>2026-04-20T16:12:40Z</time></trkpt><trkpt lat="45.72895111159824" lon="9.503200267561006"><ele>314.0</ele><time>2026-04-20T16:12:41Z</time></trkpt><trkpt lat="45.72903412458173" lon="9.503216618206887"><ele>312.0</ele><time>2026-04-20T16:12:42Z</time></trkpt><trkpt lat="45.729119096215015" lon="9.503231510693684"><ele>312.0</ele><time>2026-04-20T16:12:43Z</time></trkpt><trkpt lat="45.72919856226816" lon="9.503245188871887"><ele>312.0</ele><time>2026-04-20T16:12:44Z</time></trkpt><trkpt lat="45.72927688702668" lon="9.503257544681107"><ele>312.0</ele><time>2026-04-20T16:12:45Z</time></trkpt><trkpt lat="45.72935475192815" lon="9.503267120052033"><ele>312.0</ele><time>2026-04-20T16:12:46Z</time></trkpt><trkpt lat="45.729419890821276" lon="9.503269562357461"><ele>312.0</ele><time>2026-04-20T16:12:47Z</time></trkpt><trkpt lat="45.729525896332056" lon="9.503284165054435"><ele>312.0</ele><time>2026-04-20T16:12:49Z</time></trkpt><trkpt lat="45.72962252156884" lon="9.503325962806946"><ele>310.4</ele><time>2026-04-20T16:12:51Z</time></trkpt><trkpt lat="45.72971158796432" lon="9.50336852960708"><ele>308.79999999999995</ele><time>2026-04-20T16:12:53Z</time></trkpt><trkpt lat="45.7298265905289" lon="9.50346756579708"><ele>307.2</ele><time>2026-04-20T16:12:55Z</time></trkpt><trkpt lat="45.729893187810305" lon="9.50352052605406"><ele>305.59999999999997</ele><time>2026-04-20T16:12:56Z</time></trkpt><trkpt lat="45.72997127351443" lon="9.50355140718814"><ele>304.0</ele><time>2026-04-20T16:12:57Z</time></trkpt><trkpt lat="45.730051241281934" lon="9.503544014598392"><ele>304.0</ele><time>2026-04-20T16:12:58Z</time></trkpt><trkpt lat="45.73013617658767" lon="9.503481780466121"><ele>304.0</ele><time>2026-04-20T16:12:59Z</time></trkpt><trkpt lat="45.730193947832085" lon="9.503424661866536"><ele>304.0</ele><time>2026-04-20T16:13:00Z</time></trkpt><trkpt lat="45.730263349042936" lon="9.503410895916515"><ele>304.0</ele><time>2026-04-20T16:13:01Z</time></trkpt><trkpt lat="45.73034434025844" lon="9.503424130462964"><ele>304.0</ele><time>2026-04-20T16:13:02Z</time></trkpt><trkpt lat="45.73040946316328" lon="9.503477961115722"><ele>304.0</ele><time>2026-04-20T16:13:03Z</time></trkpt><trkpt lat="45.73047733736021" lon="9.503490552652275"><ele>304.3333333333333</ele><time>2026-04-20T16:13:04Z</time></trkpt><trkpt lat="45.73056022115812" lon="9.503504381025248"><ele>304.66666666666663</ele><time>2026-04-20T16:13:05Z</time></trkpt><trkpt lat="45.73064307317282" lon="9.503531332912527"><ele>305.0</ele><time>2026-04-20T16:13:06Z</time></trkpt><trkpt lat="45.73070394411198" lon="9.503564502890585"><ele>305.3333333333333</ele><time>2026-04-20T16:13:07Z</time></trkpt><trkpt lat="45.73077632987355" lon="9.503603289596313"><ele>305.6666666666667</ele><time>2026-04-20T16:13:08Z</time></trkpt><trkpt lat="45.73088417272505" lon="9.50364808471791"><ele>306.0</ele><time>2026-04-20T16:13:10Z</time></trkpt><trkpt lat="45.73098920237229" lon="9.50363861928153"><ele>306.0</ele><time>2026-04-20T16:13:12Z</time></trkpt><trkpt lat="45.7310082573996" lon="9.503407624977216"><ele>306.0</ele><time>2026-04-20T16:13:13Z</time></trkpt><trkpt lat="45.73102397601011" lon="9.50328966354652"><ele>306.0</ele><time>2026-04-20T16:13:14Z</time></trkpt><trkpt lat="45.731065436605945" lon="9.503182328053414"><ele>306.0</ele><time>2026-04-20T16:13:15Z</time></trkpt><trkpt lat="45.731094328913215" lon="9.503060646541247"><ele>306.0</ele><time>2026-04-20T16:13:16Z</time></trkpt><trkpt lat="45.73111930919015" lon="9.502944474463128"><ele>306.0</ele><time>2026-04-20T16:13:17Z</time></trkpt><trkpt lat="45.73114588904232" lon="9.502834548441603"><ele>306.0</ele><time>2026-04-20T16:13:18Z</time></trkpt><trkpt lat="45.73117339148035" lon="9.50272641123563"><ele>306.0</ele><time>2026-04-20T16:13:19Z</time></trkpt><trkpt lat="45.73119661570485" lon="9.502620724564562"><ele>306.0</ele><time>2026-04-20T16:13:20Z</time></trkpt><trkpt lat="45.73122848119943" lon="9.502469390998556"><ele>306.0</ele><time>2026-04-20T16:13:22Z</time></trkpt><trkpt lat="45.73126703126152" lon="9.502394044470584"><ele>306.0</ele><time>2026-04-20T16:13:24Z</time></trkpt><trkpt lat="45.73133558194658" lon="9.502378723242918"><ele>306.0</ele><time>2026-04-20T16:13:26Z</time></trkpt><trkpt lat="45.7314314491853" lon="9.502330472790986"><ele>306.0</ele><time>2026-04-20T16:13:43Z</time></trkpt><trkpt lat="45.73144727275501" lon="9.502222748561325"><ele>306.0</ele><time>2026-04-20T16:13:44Z</time></trkpt><trkpt lat="45.731450087703564" lon="9.502088670872473"><ele>306.0</ele><time>2026-04-20T16:13:45Z</time></trkpt><trkpt lat="45.731451050957304" lon="9.50194017927057"><ele>306.0</ele><time>2026-04-20T16:13:46Z</time></trkpt><trkpt lat="45.7314518138218" lon="9.501768538424486"><ele>305.5</ele><time>2026-04-20T16:13:47Z</time></trkpt><trkpt lat="45.73146140012997" lon="9.501586527165498"><ele>305.0</ele><time>2026-04-20T16:13:48Z</time></trkpt><trkpt lat="45.73149443266693" lon="9.50139028833578"><ele>304.5</ele><time>2026-04-20T16:13:49Z</time></trkpt><trkpt lat="45.731524498456196" lon="9.501176835649435"><ele>304.0</ele><time>2026-04-20T16:13:50Z</time></trkpt><trkpt lat="45.73155611662393" lon="9.500967029232644"><ele>303.66666666666663</ele><time>2026-04-20T16:13:51Z</time></trkpt><trkpt lat="45.73159046198213" lon="9.50076160764487"><ele>303.3333333333333</ele><time>2026-04-20T16:13:52Z</time></trkpt><trkpt lat="45.731623880295906" lon="9.500521631230246"><ele>303.0</ele><time>2026-04-20T16:13:53Z</time></trkpt><trkpt lat="45.73166266312408" lon="9.500316990906608"><ele>302.0</ele><time>2026-04-20T16:13:54Z</time></trkpt><trkpt lat="45.7316933327201" lon="9.500106661070213"><ele>301.0</ele><time>2026-04-20T16:13:55Z</time></trkpt><trkpt lat="45.731727455706064" lon="9.499896592362903"><ele>300.0</ele><time>2026-04-20T16:13:56Z</time></trkpt><trkpt lat="45.73175566997525" lon="9.499686198144557"><ele>298.75</ele><time>2026-04-20T16:13:57Z</time></trkpt><trkpt lat="45.73179294227767" lon="9.499483424206742"><ele>297.5</ele><time>2026-04-20T16:13:58Z</time></trkpt><trkpt lat="45.73182834512895" lon="9.49929360293137"><ele>296.25</ele><time>2026-04-20T16:13:59Z</time></trkpt><trkpt lat="45.731856314778184" lon="9.499099202284098"><ele>295.0</ele><time>2026-04-20T16:14:00Z</time></trkpt><trkpt lat="45.731883743672135" lon="9.498878932220551"><ele>297.66666666666663</ele><time>2026-04-20T16:14:01Z</time></trkpt><trkpt lat="45.73191911439354" lon="9.49865095123438"><ele>300.3333333333333</ele><time>2026-04-20T16:14:02Z</time></trkpt><trkpt lat="45.73195584857842" lon="9.498417495072525"><ele>303.0</ele><time>2026-04-20T16:14:03Z</time></trkpt><trkpt lat="45.73199174348001" lon="9.498187145925172"><ele>303.0</ele><time>2026-04-20T16:14:04Z</time></trkpt><trkpt lat="45.73203093149427" lon="9.497968393514704"><ele>303.0</ele><time>2026-04-20T16:14:05Z</time></trkpt><trkpt lat="45.7320698382639" lon="9.497738813023247"><ele>303.0</ele><time>2026-04-20T16:14:06Z</time></trkpt><trkpt lat="45.73210580619734" lon="9.497535051744357"><ele>302.25</ele><time>2026-04-20T16:14:07Z</time></trkpt><trkpt lat="45.73213230664195" lon="9.497345101552986"><ele>301.5</ele><time>2026-04-20T16:14:08Z</time></trkpt><trkpt lat="45.73216624408059" lon="9.497143098542097"><ele>300.75</ele><time>2026-04-20T16:14:09Z</time></trkpt><trkpt lat="45.73219586042695" lon="9.496943095127401"><ele>300.0</ele><time>2026-04-20T16:14:10Z</time></trkpt><trkpt lat="45.73222738459666" lon="9.496733906613837"><ele>298.3333333333333</ele><time>2026-04-20T16:14:11Z</time></trkpt><trkpt lat="45.732255310141774" lon="9.496526296496645"><ele>296.66666666666663</ele><time>2026-04-20T16:14:12Z</time></trkpt><trkpt lat="45.73229555064025" lon="9.496310435083037"><ele>295.0</ele><time>2026-04-20T16:14:13Z</time></trkpt><trkpt lat="45.732328510348964" lon="9.496071670874617"><ele>291.5</ele><time>2026-04-20T16:14:14Z</time></trkpt><trkpt lat="45.7323952435262" lon="9.495794471941982"><ele>288.0</ele><time>2026-04-20T16:14:15Z</time></trkpt><trkpt lat="45.732471539530486" lon="9.495436709774916"><ele>288.0</ele><time>2026-04-20T16:14:16Z</time></trkpt><trkpt lat="45.73249538406902" lon="9.495220887855497"><ele>288.0</ele><time>2026-04-20T16:14:18Z</time></trkpt><trkpt lat="45.73254337923651" lon="9.495029864410423"><ele>288.0</ele><time>2026-04-20T16:14:19Z</time></trkpt><trkpt lat="45.73259793767344" lon="9.49484260536683"><ele>288.0</ele><time>2026-04-20T16:14:20Z</time></trkpt><trkpt lat="45.73264642834716" lon="9.494660527663457"><ele>288.5</ele><time>2026-04-20T16:14:21Z</time></trkpt><trkpt lat="45.732684704377355" lon="9.494496323328134"><ele>289.0</ele><time>2026-04-20T16:14:22Z</time></trkpt><trkpt lat="45.73272955722692" lon="9.494328965315212"><ele>289.5</ele><time>2026-04-20T16:14:23Z</time></trkpt><trkpt lat="45.73277395740156" lon="9.49418236312533"><ele>290.0</ele><time>2026-04-20T16:14:24Z</time></trkpt><trkpt lat="45.73281053225655" lon="9.494043708554731"><ele>290.4</ele><time>2026-04-20T16:14:25Z</time></trkpt><trkpt lat="45.73284297384818" lon="9.4939039718273"><ele>290.8</ele><time>2026-04-20T16:14:26Z</time></trkpt><trkpt lat="45.732882296501714" lon="9.493767916975013"><ele>291.2</ele><time>2026-04-20T16:14:27Z</time></trkpt><trkpt lat="45.73294161406296" lon="9.49366671833211"><ele>291.6</ele><time>2026-04-20T16:14:28Z</time></trkpt><trkpt lat="45.73299407520528" lon="9.493581464726859"><ele>292.0</ele><time>2026-04-20T16:14:29Z</time></trkpt><trkpt lat="45.7330292363158" lon="9.49345086192127"><ele>292.0</ele><time>2026-04-20T16:14:30Z</time></trkpt><trkpt lat="45.73303919985408" lon="9.493273871032379"><ele>292.0</ele><time>2026-04-20T16:14:31Z</time></trkpt><trkpt lat="45.73307017510087" lon="9.493097220648341"><ele>292.0</ele><time>2026-04-20T16:14:32Z</time></trkpt><trkpt lat="45.733133988233895" lon="9.4929101160274"><ele>292.0</ele><time>2026-04-20T16:14:33Z</time></trkpt><trkpt lat="45.73319149090366" lon="9.492692258157218"><ele>290.3333333333333</ele><time>2026-04-20T16:14:34Z</time></trkpt><trkpt lat="45.73326297090136" lon="9.492467938460118"><ele>288.6666666666667</ele><time>2026-04-20T16:14:35Z</time></trkpt><trkpt lat="45.73332365077519" lon="9.49223760984674"><ele>287.0</ele><time>2026-04-20T16:14:36Z</time></trkpt><trkpt lat="45.73338061971308" lon="9.492006203114139"><ele>286.0</ele><time>2026-04-20T16:14:37Z</time></trkpt><trkpt lat="45.733441147923806" lon="9.491774887019234"><ele>285.0</ele><time>2026-04-20T16:14:38Z</time></trkpt><trkpt lat="45.733508456532306" lon="9.491552102679547"><ele>284.0</ele><time>2026-04-20T16:14:39Z</time></trkpt><trkpt lat="45.73356882409592" lon="9.491334929004823"><ele>281.0</ele><time>2026-04-20T16:14:40Z</time></trkpt><trkpt lat="45.73363515175993" lon="9.491113144975007"><ele>278.0</ele><time>2026-04-20T16:14:41Z</time></trkpt><trkpt lat="45.73369117692542" lon="9.490893035151853"><ele>275.0</ele><time>2026-04-20T16:14:42Z</time></trkpt><trkpt lat="45.73375488886543" lon="9.490679778104521"><ele>275.0</ele><time>2026-04-20T16:14:43Z</time></trkpt><trkpt lat="45.733816328573866" lon="9.490472463767432"><ele>275.0</ele><time>2026-04-20T16:14:44Z</time></trkpt><trkpt lat="45.73386803294682" lon="9.490280620191072"><ele>275.0</ele><time>2026-04-20T16:14:45Z</time></trkpt><trkpt lat="45.73392234760723" lon="9.49008721854849"><ele>275.0</ele><time>2026-04-20T16:14:46Z</time></trkpt><trkpt lat="45.73398071417372" lon="9.489879245471315"><ele>274.25</ele><time>2026-04-20T16:14:47Z</time></trkpt><trkpt lat="45.73403614743046" lon="9.489674674234378"><ele>273.5</ele><time>2026-04-20T16:14:48Z</time></trkpt><trkpt lat="45.73409753295392" lon="9.489471019117738"><ele>272.75</ele><time>2026-04-20T16:14:49Z</time></trkpt><trkpt lat="45.73414820396482" lon="9.489283170485656"><ele>272.0</ele><time>2026-04-20T16:14:50Z</time></trkpt><trkpt lat="45.73416720591998" lon="9.489152109786493"><ele>271.33333333333337</ele><time>2026-04-20T16:14:51Z</time></trkpt><trkpt lat="45.73421869929134" lon="9.488965496443843"><ele>270.6666666666667</ele><time>2026-04-20T16:14:52Z</time></trkpt><trkpt lat="45.73429076434147" lon="9.488717807073291"><ele>270.0</ele><time>2026-04-20T16:14:53Z</time></trkpt><trkpt lat="45.734405473890284" lon="9.48844275210445"><ele>269.5</ele><time>2026-04-20T16:14:54Z</time></trkpt><trkpt lat="45.73448057835404" lon="9.48825434243656"><ele>269.0</ele><time>2026-04-20T16:14:55Z</time></trkpt><trkpt lat="45.73455411549984" lon="9.48808147927967"><ele>268.5</ele><time>2026-04-20T16:14:56Z</time></trkpt><trkpt lat="45.73463874519555" lon="9.487901084493048"><ele>268.0</ele><time>2026-04-20T16:14:57Z</time></trkpt><trkpt lat="45.7347264856806" lon="9.487733359659126"><ele>268.0</ele><time>2026-04-20T16:14:58Z</time></trkpt><trkpt lat="45.734824381639946" lon="9.487566367146359"><ele>268.0</ele><time>2026-04-20T16:14:59Z</time></trkpt><trkpt lat="45.73491929289126" lon="9.487405078811266"><ele>268.0</ele><time>2026-04-20T16:15:00Z</time></trkpt><trkpt lat="45.735022254044985" lon="9.487252148193768"><ele>268.0</ele><time>2026-04-20T16:15:01Z</time></trkpt><trkpt lat="45.73513856603395" lon="9.48711999000908"><ele>268.25</ele><time>2026-04-20T16:15:02Z</time></trkpt><trkpt lat="45.73525371538395" lon="9.48698856186602"><ele>268.5</ele><time>2026-04-20T16:15:03Z</time></trkpt><trkpt lat="45.73537182650574" lon="9.48686531659812"><ele>268.75</ele><time>2026-04-20T16:15:04Z</time></trkpt><trkpt lat="45.73549784921608" lon="9.486752298016055"><ele>269.0</ele><time>2026-04-20T16:15:05Z</time></trkpt><trkpt lat="45.73562408055946" lon="9.486645002256905"><ele>269.0</ele><time>2026-04-20T16:15:06Z</time></trkpt><trkpt lat="45.735756142979376" lon="9.486531327296152"><ele>269.0</ele><time>2026-04-20T16:15:07Z</time></trkpt><trkpt lat="45.735877596795326" lon="9.48641070702632"><ele>269.0</ele><time>2026-04-20T16:15:08Z</time></trkpt><trkpt lat="45.735995712626355" lon="9.486310423465307"><ele>269.0</ele><time>2026-04-20T16:15:09Z</time></trkpt><trkpt lat="45.73612045839666" lon="9.486204644438118"><ele>268.25</ele><time>2026-04-20T16:15:10Z</time></trkpt><trkpt lat="45.73623324510881" lon="9.486099095141338"><ele>267.5</ele><time>2026-04-20T16:15:11Z</time></trkpt><trkpt lat="45.73633638541325" lon="9.486006658926325"><ele>266.75</ele><time>2026-04-20T16:15:12Z</time></trkpt><trkpt lat="45.73643150970494" lon="9.485915367276649"><ele>266.0</ele><time>2026-04-20T16:15:13Z</time></trkpt><trkpt lat="45.73652432030995" lon="9.485850393284473"><ele>266.0</ele><time>2026-04-20T16:15:14Z</time></trkpt><trkpt lat="45.736615739087256" lon="9.485809797402013"><ele>266.0</ele><time>2026-04-20T16:15:15Z</time></trkpt><trkpt lat="45.73671775966376" lon="9.485814262066436"><ele>266.0</ele><time>2026-04-20T16:15:16Z</time></trkpt><trkpt lat="45.7368134861704" lon="9.485845767024042"><ele>266.0</ele><time>2026-04-20T16:15:17Z</time></trkpt><trkpt lat="45.73690791709148" lon="9.485915168300362"><ele>266.0</ele><time>2026-04-20T16:15:18Z</time></trkpt><trkpt lat="45.736961448393295" lon="9.485970245916947"><ele>265.0</ele><time>2026-04-20T16:15:19Z</time></trkpt><trkpt lat="45.73712558991254" lon="9.48598002685269"><ele>264.0</ele><time>2026-04-20T16:15:21Z</time></trkpt><trkpt lat="45.737295244307134" lon="9.485876774163797"><ele>263.0</ele><time>2026-04-20T16:15:22Z</time></trkpt><trkpt lat="45.73746188644107" lon="9.485877457969492"><ele>263.0</ele><time>2026-04-20T16:15:23Z</time></trkpt><trkpt lat="45.73758222123779" lon="9.485990884528094"><ele>263.0</ele><time>2026-04-20T16:15:24Z</time></trkpt><trkpt lat="45.737570182748996" lon="9.486090438575653"><ele>263.0</ele><time>2026-04-20T16:15:25Z</time></trkpt><trkpt lat="45.73761071590566" lon="9.486167952837539"><ele>263.0</ele><time>2026-04-20T16:15:26Z</time></trkpt><trkpt lat="45.737717390368324" lon="9.486338205866526"><ele>263.0</ele><time>2026-04-20T16:15:28Z</time></trkpt><trkpt lat="45.73776105528628" lon="9.486404048511059"><ele>262.8</ele><time>2026-04-20T16:15:29Z</time></trkpt><trkpt lat="45.73782401181099" lon="9.48650146821149"><ele>262.6</ele><time>2026-04-20T16:15:32Z</time></trkpt><trkpt lat="45.737898409376825" lon="9.48657618259895"><ele>262.4</ele><time>2026-04-20T16:15:34Z</time></trkpt><trkpt lat="45.73800266101436" lon="9.486630790796688"><ele>262.2</ele><time>2026-04-20T16:15:36Z</time></trkpt><trkpt lat="45.73811961163785" lon="9.486610264666384"><ele>262.0</ele><time>2026-04-20T16:15:38Z</time></trkpt><trkpt lat="45.73819405258844" lon="9.486573534994621"><ele>262.0</ele><time>2026-04-20T16:15:39Z</time></trkpt><trkpt lat="45.73827416330192" lon="9.486503729394373"><ele>262.0</ele><time>2026-04-20T16:15:40Z</time></trkpt><trkpt lat="45.738351845838906" lon="9.486400818834108"><ele>262.0</ele><time>2026-04-20T16:15:41Z</time></trkpt><trkpt lat="45.73840684139631" lon="9.486276746142236"><ele>262.0</ele><time>2026-04-20T16:15:42Z</time></trkpt><trkpt lat="45.738442994065764" lon="9.486127574489306"><ele>262.0</ele><time>2026-04-20T16:15:43Z</time></trkpt><trkpt lat="45.73845775026698" lon="9.48596631613901"><ele>261.4</ele><time>2026-04-20T16:15:44Z</time></trkpt><trkpt lat="45.73847231359816" lon="9.485814073158704"><ele>260.79999999999995</ele><time>2026-04-20T16:15:45Z</time></trkpt><trkpt lat="45.73848684952524" lon="9.485675405124251"><ele>260.2</ele><time>2026-04-20T16:15:46Z</time></trkpt><trkpt lat="45.73851068266855" lon="9.485530429756068"><ele>259.59999999999997</ele><time>2026-04-20T16:15:47Z</time></trkpt><trkpt lat="45.73854220110298" lon="9.485383274550816"><ele>259.0</ele><time>2026-04-20T16:15:48Z</time></trkpt><trkpt lat="45.73858325640029" lon="9.485223719240707"><ele>261.75</ele><time>2026-04-20T16:15:49Z</time></trkpt><trkpt lat="45.73863299505074" lon="9.485052021147741"><ele>264.5</ele><time>2026-04-20T16:15:50Z</time></trkpt><trkpt lat="45.73867738891924" lon="9.484896093693568"><ele>267.25</ele><time>2026-04-20T16:15:50.999Z</time></trkpt><trkpt lat="45.73872399115927" lon="9.48474907401129"><ele>270.0</ele><time>2026-04-20T16:15:51.999Z</time></trkpt><trkpt lat="45.73877925127086" lon="9.48460035542723"><ele>269.8</ele><time>2026-04-20T16:15:52.999Z</time></trkpt><trkpt lat="45.73883514535516" lon="9.484471497269407"><ele>269.6</ele><time>2026-04-20T16:15:53.999Z</time></trkpt><trkpt lat="45.738902368073155" lon="9.48436068101434"><ele>269.4</ele><time>2026-04-20T16:15:54.999Z</time></trkpt><trkpt lat="45.73897899591997" lon="9.484254546280583"><ele>269.2</ele><time>2026-04-20T16:15:55.999Z</time></trkpt><trkpt lat="45.73905176997265" lon="9.48412023355499"><ele>269.0</ele><time>2026-04-20T16:15:56.999Z</time></trkpt><trkpt lat="45.73917737115621" lon="9.484048013579265"><ele>269.0</ele><time>2026-04-20T16:15:58Z</time></trkpt><trkpt lat="45.7392834726901" lon="9.483965331453485"><ele>269.0</ele><time>2026-04-20T16:15:59Z</time></trkpt><trkpt lat="45.73938668319555" lon="9.483880503698236"><ele>269.0</ele><time>2026-04-20T16:16:00Z</time></trkpt><trkpt lat="45.73949111588493" lon="9.48380702563578"><ele>269.0</ele><time>2026-04-20T16:16:01Z</time></trkpt><trkpt lat="45.739612222081" lon="9.483760091404976"><ele>267.75</ele><time>2026-04-20T16:16:02Z</time></trkpt><trkpt lat="45.739730360893546" lon="9.483731662865347"><ele>266.5</ele><time>2026-04-20T16:16:03Z</time></trkpt><trkpt lat="45.73986603152853" lon="9.483694854987506"><ele>265.25</ele><time>2026-04-20T16:16:04Z</time></trkpt><trkpt lat="45.74004417640893" lon="9.483640179443373"><ele>264.0</ele><time>2026-04-20T16:16:05Z</time></trkpt><trkpt lat="45.74020439777895" lon="9.483637870302255"><ele>266.0</ele><time>2026-04-20T16:16:06Z</time></trkpt><trkpt lat="45.74030464754191" lon="9.483672747566612"><ele>268.0</ele><time>2026-04-20T16:16:07Z</time></trkpt><trkpt lat="45.74037791529485" lon="9.483693062342931"><ele>270.0</ele><time>2026-04-20T16:16:08Z</time></trkpt><trkpt lat="45.740490018156656" lon="9.483724656393823"><ele>272.0</ele><time>2026-04-20T16:16:09Z</time></trkpt><trkpt lat="45.74059551278597" lon="9.483752623939216"><ele>274.0</ele><time>2026-04-20T16:16:10Z</time></trkpt><trkpt lat="45.740691024638295" lon="9.483771115447565"><ele>274.0</ele><time>2026-04-20T16:16:11Z</time></trkpt><trkpt lat="45.740784370334005" lon="9.483780305548041"><ele>274.0</ele><time>2026-04-20T16:16:12Z</time></trkpt><trkpt lat="45.74088445947628" lon="9.483743576088617"><ele>274.0</ele><time>2026-04-20T16:16:13Z</time></trkpt><trkpt lat="45.74097387237078" lon="9.483703876763695"><ele>274.0</ele><time>2026-04-20T16:16:14Z</time></trkpt><trkpt lat="45.74108882489266" lon="9.483654502050372"><ele>274.0</ele><time>2026-04-20T16:16:15Z</time></trkpt><trkpt lat="45.74119953210005" lon="9.483566030807944"><ele>276.66666666666663</ele><time>2026-04-20T16:16:16Z</time></trkpt><trkpt lat="45.74134355317589" lon="9.483457667825043"><ele>279.3333333333333</ele><time>2026-04-20T16:16:17Z</time></trkpt><trkpt lat="45.7415119292969" lon="9.483332874241992"><ele>282.0</ele><time>2026-04-20T16:16:18Z</time></trkpt><trkpt lat="45.74165408966839" lon="9.483227552311298"><ele>282.0</ele><time>2026-04-20T16:16:19Z</time></trkpt><trkpt lat="45.74179834151922" lon="9.48312130040241"><ele>282.0</ele><time>2026-04-20T16:16:20Z</time></trkpt><trkpt lat="45.74194917518954" lon="9.483015201507845"><ele>282.0</ele><time>2026-04-20T16:16:21Z</time></trkpt><trkpt lat="45.74208448876225" lon="9.482904954666568"><ele>284.0</ele><time>2026-04-20T16:16:22Z</time></trkpt><trkpt lat="45.7422093709453" lon="9.482794235315605"><ele>286.0</ele><time>2026-04-20T16:16:23Z</time></trkpt><trkpt lat="45.74233723081797" lon="9.48266853741301"><ele>288.0</ele><time>2026-04-20T16:16:24Z</time></trkpt><trkpt lat="45.74245885048571" lon="9.482532204283372"><ele>288.0</ele><time>2026-04-20T16:16:25Z</time></trkpt><trkpt lat="45.74258147081518" lon="9.482423019796018"><ele>288.0</ele><time>2026-04-20T16:16:26Z</time></trkpt><trkpt lat="45.74270355148442" lon="9.482331603459706"><ele>288.0</ele><time>2026-04-20T16:16:27Z</time></trkpt><trkpt lat="45.742832887739596" lon="9.482245821623772"><ele>288.0</ele><time>2026-04-20T16:16:28Z</time></trkpt><trkpt lat="45.742953244403736" lon="9.482159621907849"><ele>290.25</ele><time>2026-04-20T16:16:29Z</time></trkpt><trkpt lat="45.743064984821594" lon="9.482061875225574"><ele>292.5</ele><time>2026-04-20T16:16:30Z</time></trkpt><trkpt lat="45.74317316582862" lon="9.481972283688355"><ele>294.75</ele><time>2026-04-20T16:16:31Z</time></trkpt><trkpt lat="45.74327927337205" lon="9.481879993163366"><ele>297.0</ele><time>2026-04-20T16:16:32Z</time></trkpt><trkpt lat="45.74335413415968" lon="9.481787495415942"><ele>297.0</ele><time>2026-04-20T16:16:33Z</time></trkpt><trkpt lat="45.743424312730944" lon="9.481673503892733"><ele>297.0</ele><time>2026-04-20T16:16:34Z</time></trkpt><trkpt lat="45.743483992847686" lon="9.481532757338389"><ele>297.0</ele><time>2026-04-20T16:16:35Z</time></trkpt><trkpt lat="45.74355278888169" lon="9.481395691310764"><ele>297.0</ele><time>2026-04-20T16:16:36Z</time></trkpt><trkpt lat="45.74361762883514" lon="9.481275041140666"><ele>297.0</ele><time>2026-04-20T16:16:37Z</time></trkpt><trkpt lat="45.74366643277107" lon="9.481175585708625"><ele>298.6666666666667</ele><time>2026-04-20T16:16:38Z</time></trkpt><trkpt lat="45.7437037842632" lon="9.481098809817487"><ele>300.3333333333333</ele><time>2026-04-20T16:16:39Z</time></trkpt><trkpt lat="45.743774777283484" lon="9.481099467814696"><ele>302.0</ele><time>2026-04-20T16:16:41Z</time></trkpt><trkpt lat="45.74381122320059" lon="9.481275157620463"><ele>303.66666666666663</ele><time>2026-04-20T16:16:43Z</time></trkpt><trkpt lat="45.743773117698254" lon="9.481391324542702"><ele>305.3333333333333</ele><time>2026-04-20T16:16:44Z</time></trkpt><trkpt lat="45.743764724510626" lon="9.481520825477777"><ele>307.0</ele><time>2026-04-20T16:16:45Z</time></trkpt><trkpt lat="45.743763317697706" lon="9.481619989057249"><ele>309.0</ele><time>2026-04-20T16:16:46Z</time></trkpt><trkpt lat="45.74385209879967" lon="9.48175940224946"><ele>311.0</ele><time>2026-04-20T16:16:48Z</time></trkpt><trkpt lat="45.74392833402571" lon="9.48176606098208"><ele>313.0</ele><time>2026-04-20T16:16:49Z</time></trkpt><trkpt lat="45.7440006213952" lon="9.48175082179574"><ele>315.0</ele><time>2026-04-20T16:16:50Z</time></trkpt><trkpt lat="45.744090797877384" lon="9.481743060746485"><ele>317.0</ele><time>2026-04-20T16:16:51Z</time></trkpt><trkpt lat="45.74418071272011" lon="9.48175129626133"><ele>317.0</ele><time>2026-04-20T16:16:52Z</time></trkpt><trkpt lat="45.744259179668454" lon="9.481758882683597"><ele>317.0</ele><time>2026-04-20T16:16:53Z</time></trkpt><trkpt lat="45.744348930604204" lon="9.481776322582759"><ele>317.0</ele><time>2026-04-20T16:16:54Z</time></trkpt><trkpt lat="45.74441539902813" lon="9.481783909697032"><ele>317.0</ele><time>2026-04-20T16:16:55Z</time></trkpt><trkpt lat="45.744512596505054" lon="9.481792598872154"><ele>317.0</ele><time>2026-04-20T16:16:56Z</time></trkpt><trkpt lat="45.744575394888" lon="9.481799080284205"><ele>317.0</ele><time>2026-04-20T16:16:57Z</time></trkpt><trkpt lat="45.744653173082675" lon="9.48179826688885"><ele>317.33333333333337</ele><time>2026-04-20T16:16:58Z</time></trkpt><trkpt lat="45.74471345626275" lon="9.481829998431587"><ele>317.6666666666667</ele><time>2026-04-20T16:16:59Z</time></trkpt><trkpt lat="45.74479544036782" lon="9.481904584613552"><ele>318.0</ele><time>2026-04-20T16:17:01Z</time></trkpt><trkpt lat="45.74483046537686" lon="9.482025683265954"><ele>318.3333333333333</ele><time>2026-04-20T16:17:03Z</time></trkpt><trkpt lat="45.744831296034214" lon="9.482125318686657"><ele>318.66666666666663</ele><time>2026-04-20T16:17:04Z</time></trkpt><trkpt lat="45.74481741125612" lon="9.482227590745932"><ele>319.0</ele><time>2026-04-20T16:17:05Z</time></trkpt><trkpt lat="45.744800771153095" lon="9.482328583835068"><ele>318.2</ele><time>2026-04-20T16:17:06Z</time></trkpt><trkpt lat="45.7447915457111" lon="9.482444943005804"><ele>317.4</ele><time>2026-04-20T16:17:07Z</time></trkpt><trkpt lat="45.744786782546015" lon="9.48258873570326"><ele>316.6</ele><time>2026-04-20T16:17:08Z</time></trkpt><trkpt lat="45.744783175553934" lon="9.482725267268712"><ele>315.8</ele><time>2026-04-20T16:17:09Z</time></trkpt><trkpt lat="45.744781900544375" lon="9.48285419226539"><ele>315.0</ele><time>2026-04-20T16:17:10Z</time></trkpt><trkpt lat="45.7448013331657" lon="9.48298301183434"><ele>315.0</ele><time>2026-04-20T16:17:11Z</time></trkpt><trkpt lat="45.744840430269456" lon="9.483096232172398"><ele>315.0</ele><time>2026-04-20T16:17:12Z</time></trkpt><trkpt lat="45.74489382938198" lon="9.4832178438741"><ele>315.0</ele><time>2026-04-20T16:17:13Z</time></trkpt><trkpt lat="45.744984409209906" lon="9.48331934655545"><ele>315.0</ele><time>2026-04-20T16:17:14Z</time></trkpt><trkpt lat="45.74509957910519" lon="9.48339800352636"><ele>315.0</ele><time>2026-04-20T16:17:15Z</time></trkpt><trkpt lat="45.745212212093364" lon="9.48347019021254"><ele>317.0</ele><time>2026-04-20T16:17:16Z</time></trkpt><trkpt lat="45.745324946805745" lon="9.483527391904365"><ele>319.0</ele><time>2026-04-20T16:17:17Z</time></trkpt><trkpt lat="45.74544131443774" lon="9.48356116538279"><ele>321.0</ele><time>2026-04-20T16:17:18Z</time></trkpt><trkpt lat="45.74555631350944" lon="9.483577692762884"><ele>323.0</ele><time>2026-04-20T16:17:19Z</time></trkpt><trkpt lat="45.74566530365041" lon="9.483575398501795"><ele>323.0</ele><time>2026-04-20T16:17:20Z</time></trkpt><trkpt lat="45.74577612922423" lon="9.483564500200872"><ele>323.0</ele><time>2026-04-20T16:17:21Z</time></trkpt><trkpt lat="45.745885980173604" lon="9.48354650266943"><ele>323.0</ele><time>2026-04-20T16:17:22Z</time></trkpt><trkpt lat="45.74600725257589" lon="9.483543624372468"><ele>323.0</ele><time>2026-04-20T16:17:23Z</time></trkpt><trkpt lat="45.74612246038572" lon="9.483552188710558"><ele>324.59999999999997</ele><time>2026-04-20T16:17:24Z</time></trkpt><trkpt lat="45.74624329348083" lon="9.483577344567804"><ele>326.2</ele><time>2026-04-20T16:17:25Z</time></trkpt><trkpt lat="45.74634760515869" lon="9.48363354104006"><ele>327.8</ele><time>2026-04-20T16:17:26Z</time></trkpt><trkpt lat="45.74642926218836" lon="9.483735313742303"><ele>329.4</ele><time>2026-04-20T16:17:27Z</time></trkpt><trkpt lat="45.74650172858831" lon="9.483830327200804"><ele>331.0</ele><time>2026-04-20T16:17:28Z</time></trkpt><trkpt lat="45.746561115856146" lon="9.4839215212815"><ele>332.20000000000005</ele><time>2026-04-20T16:17:29Z</time></trkpt><trkpt lat="45.746601446740854" lon="9.483999222980868"><ele>333.40000000000003</ele><time>2026-04-20T16:17:30Z</time></trkpt><trkpt lat="45.746668758477014" lon="9.484099230608244"><ele>334.6</ele><time>2026-04-20T16:17:32Z</time></trkpt><trkpt lat="45.74672620155002" lon="9.484247918362232"><ele>335.8</ele><time>2026-04-20T16:17:35Z</time></trkpt><trkpt lat="45.746775477613156" lon="9.484354953083063"><ele>337.0</ele><time>2026-04-20T16:17:36Z</time></trkpt><trkpt lat="45.74683554616042" lon="9.484484717000875"><ele>339.6</ele><time>2026-04-20T16:17:37Z</time></trkpt><trkpt lat="45.74690358966387" lon="9.484641208941875"><ele>342.20000000000005</ele><time>2026-04-20T16:17:38Z</time></trkpt><trkpt lat="45.74695564836637" lon="9.48474817194003"><ele>344.8</ele><time>2026-04-20T16:17:39Z</time></trkpt><trkpt lat="45.74700568176259" lon="9.484861942207864"><ele>347.4</ele><time>2026-04-20T16:17:40Z</time></trkpt><trkpt lat="45.74703785684651" lon="9.48494331329729"><ele>350.0</ele><time>2026-04-20T16:17:41Z</time></trkpt><trkpt lat="45.747071045586054" lon="9.485041995571006"><ele>350.0</ele><time>2026-04-20T16:17:42Z</time></trkpt><trkpt lat="45.747117927294326" lon="9.485155534506772"><ele>350.0</ele><time>2026-04-20T16:17:43Z</time></trkpt><trkpt lat="45.74714038700768" lon="9.48527950319359"><ele>350.0</ele><time>2026-04-20T16:17:44Z</time></trkpt><trkpt lat="45.74715486695724" lon="9.485408738393932"><ele>350.0</ele><time>2026-04-20T16:17:45Z</time></trkpt><trkpt lat="45.74717333931131" lon="9.485533597156595"><ele>350.0</ele><time>2026-04-20T16:17:46Z</time></trkpt><trkpt lat="45.74720251582603" lon="9.485644892584423"><ele>350.0</ele><time>2026-04-20T16:17:47Z</time></trkpt><trkpt lat="45.74724799774967" lon="9.4857409226347"><ele>349.25</ele><time>2026-04-20T16:17:48Z</time></trkpt><trkpt lat="45.74737322305736" lon="9.485885658874532"><ele>348.5</ele><time>2026-04-20T16:17:49.999Z</time></trkpt><trkpt lat="45.74747374924418" lon="9.485922516491842"><ele>347.75</ele><time>2026-04-20T16:17:50.999Z</time></trkpt><trkpt lat="45.74758474941984" lon="9.485933467133908"><ele>347.0</ele><time>2026-04-20T16:17:51.999Z</time></trkpt><trkpt lat="45.74769902445481" lon="9.485922409770025"><ele>348.0</ele><time>2026-04-20T16:17:52.999Z</time></trkpt><trkpt lat="45.747814561022004" lon="9.485932256696294"><ele>349.0</ele><time>2026-04-20T16:17:53.999Z</time></trkpt><trkpt lat="45.74791274690444" lon="9.485958297332658"><ele>350.0</ele><time>2026-04-20T16:17:54.999Z</time></trkpt><trkpt lat="45.748014429489494" lon="9.485990084854862"><ele>351.0</ele><time>2026-04-20T16:17:55.999Z</time></trkpt><trkpt lat="45.74811207844025" lon="9.486048981676467"><ele>352.0</ele><time>2026-04-20T16:17:56.999Z</time></trkpt><trkpt lat="45.74820503791599" lon="9.486120601993813"><ele>352.0</ele><time>2026-04-20T16:17:57.999Z</time></trkpt><trkpt lat="45.74829358975219" lon="9.486191209990254"><ele>352.0</ele><time>2026-04-20T16:17:58.999Z</time></trkpt><trkpt lat="45.748381547931544" lon="9.486255604407292"><ele>352.0</ele><time>2026-04-20T16:17:59.999Z</time></trkpt><trkpt lat="45.74847157901084" lon="9.486314033748414"><ele>352.0</ele><time>2026-04-20T16:18:00.999Z</time></trkpt><trkpt lat="45.74857218056973" lon="9.486348463464703"><ele>352.0</ele><time>2026-04-20T16:18:01.999Z</time></trkpt><trkpt lat="45.748669070386704" lon="9.486353729022596"><ele>350.75</ele><time>2026-04-20T16:18:02.999Z</time></trkpt><trkpt lat="45.74878040642461" lon="9.486334986854734"><ele>349.5</ele><time>2026-04-20T16:18:04Z</time></trkpt><trkpt lat="45.748878609960975" lon="9.486261124080658"><ele>348.25</ele><time>2026-04-20T16:18:05Z</time></trkpt><trkpt lat="45.74897527719314" lon="9.486158557700481"><ele>347.0</ele><time>2026-04-20T16:18:06Z</time></trkpt><trkpt lat="45.749064514104596" lon="9.486046900377909"><ele>347.0</ele><time>2026-04-20T16:18:07Z</time></trkpt><trkpt lat="45.749129569529885" lon="9.485904336265282"><ele>347.0</ele><time>2026-04-20T16:18:08Z</time></trkpt><trkpt lat="45.749197596380796" lon="9.485785981212837"><ele>347.0</ele><time>2026-04-20T16:18:09Z</time></trkpt><trkpt lat="45.74925899653571" lon="9.48564716575253"><ele>347.0</ele><time>2026-04-20T16:18:10Z</time></trkpt><trkpt lat="45.749306817061054" lon="9.485520388150547"><ele>347.0</ele><time>2026-04-20T16:18:11Z</time></trkpt><trkpt lat="45.74935184178755" lon="9.485369885832926"><ele>347.25</ele><time>2026-04-20T16:18:12Z</time></trkpt><trkpt lat="45.74939392445941" lon="9.485229047221635"><ele>347.5</ele><time>2026-04-20T16:18:13Z</time></trkpt><trkpt lat="45.74943573270943" lon="9.485064741927525"><ele>347.75</ele><time>2026-04-20T16:18:14Z</time></trkpt><trkpt lat="45.74948559959216" lon="9.484908002792768"><ele>348.0</ele><time>2026-04-20T16:18:15Z</time></trkpt><trkpt lat="45.74953883698435" lon="9.484753602985624"><ele>348.0</ele><time>2026-04-20T16:18:16Z</time></trkpt><trkpt lat="45.74959928255465" lon="9.484604983969382"><ele>348.0</ele><time>2026-04-20T16:18:17Z</time></trkpt><trkpt lat="45.74968193650587" lon="9.484450364056912"><ele>348.0</ele><time>2026-04-20T16:18:18Z</time></trkpt><trkpt lat="45.74979868420088" lon="9.484273511264721"><ele>348.0</ele><time>2026-04-20T16:18:19Z</time></trkpt><trkpt lat="45.74993963607389" lon="9.484049142605995"><ele>348.25</ele><time>2026-04-20T16:18:20Z</time></trkpt><trkpt lat="45.749957687255005" lon="9.483842160234406"><ele>348.5</ele><time>2026-04-20T16:18:22Z</time></trkpt><trkpt lat="45.750028921322354" lon="9.483682056041474"><ele>348.75</ele><time>2026-04-20T16:18:23Z</time></trkpt><trkpt lat="45.750097950558754" lon="9.483522594567576"><ele>349.0</ele><time>2026-04-20T16:18:24Z</time></trkpt><trkpt lat="45.750164889099196" lon="9.483366447305617"><ele>348.5</ele><time>2026-04-20T16:18:25Z</time></trkpt><trkpt lat="45.750221712752435" lon="9.483209744830594"><ele>348.0</ele><time>2026-04-20T16:18:26Z</time></trkpt><trkpt lat="45.75028790424505" lon="9.48305505169104"><ele>347.5</ele><time>2026-04-20T16:18:27Z</time></trkpt><trkpt lat="45.750339190630825" lon="9.482888591616629"><ele>347.0</ele><time>2026-04-20T16:18:28Z</time></trkpt><trkpt lat="45.750412850608555" lon="9.48271090659981"><ele>347.0</ele><time>2026-04-20T16:18:29Z</time></trkpt><trkpt lat="45.75048118041785" lon="9.482521450967331"><ele>347.0</ele><time>2026-04-20T16:18:30Z</time></trkpt><trkpt lat="45.75054628013173" lon="9.482350331691713"><ele>347.0</ele><time>2026-04-20T16:18:31Z</time></trkpt><trkpt lat="45.75061490440207" lon="9.482175080096562"><ele>347.0</ele><time>2026-04-20T16:18:32Z</time></trkpt><trkpt lat="45.750710936640516" lon="9.48202105097866"><ele>348.0</ele><time>2026-04-20T16:18:33Z</time></trkpt><trkpt lat="45.75081997123596" lon="9.481898711501943"><ele>349.0</ele><time>2026-04-20T16:18:34Z</time></trkpt><trkpt lat="45.75094517666751" lon="9.481808455977504"><ele>350.0</ele><time>2026-04-20T16:18:35Z</time></trkpt><trkpt lat="45.75107756227432" lon="9.481736624680563"><ele>351.0</ele><time>2026-04-20T16:18:36Z</time></trkpt><trkpt lat="45.75121267862759" lon="9.481721060983404"><ele>351.0</ele><time>2026-04-20T16:18:37Z</time></trkpt><trkpt lat="45.751334719739674" lon="9.481727698274765"><ele>351.0</ele><time>2026-04-20T16:18:38Z</time></trkpt><trkpt lat="45.75147102156206" lon="9.481730776201585"><ele>351.0</ele><time>2026-04-20T16:18:39Z</time></trkpt><trkpt lat="45.75161491395271" lon="9.481737301686765"><ele>351.0</ele><time>2026-04-20T16:18:40Z</time></trkpt><trkpt lat="45.751761222321115" lon="9.481741801156916"><ele>351.5</ele><time>2026-04-20T16:18:41Z</time></trkpt><trkpt lat="45.75190173948236" lon="9.481740736037686"><ele>352.0</ele><time>2026-04-20T16:18:42Z</time></trkpt><trkpt lat="45.75205053815848" lon="9.481739383769"><ele>352.5</ele><time>2026-04-20T16:18:43Z</time></trkpt><trkpt lat="45.752200719351414" lon="9.481740093681092"><ele>353.0</ele><time>2026-04-20T16:18:44Z</time></trkpt><trkpt lat="45.752356687836155" lon="9.481746753285488"><ele>353.0</ele><time>2026-04-20T16:18:45Z</time></trkpt><trkpt lat="45.75249183529467" lon="9.481756732112881"><ele>353.0</ele><time>2026-04-20T16:18:46Z</time></trkpt><trkpt lat="45.752625260754215" lon="9.481742180974896"><ele>353.0</ele><time>2026-04-20T16:18:47Z</time></trkpt><trkpt lat="45.75274437724742" lon="9.481737146846342"><ele>353.0</ele><time>2026-04-20T16:18:48Z</time></trkpt><trkpt lat="45.75286186404609" lon="9.481733369050286"><ele>353.79999999999995</ele><time>2026-04-20T16:18:49Z</time></trkpt><trkpt lat="45.75298121526111" lon="9.48174655522341"><ele>354.6</ele><time>2026-04-20T16:18:50Z</time></trkpt><trkpt lat="45.75308287581922" lon="9.481754655291365"><ele>355.4</ele><time>2026-04-20T16:18:51Z</time></trkpt><trkpt lat="45.753165499314136" lon="9.481726184544346"><ele>356.20000000000005</ele><time>2026-04-20T16:18:52Z</time></trkpt><trkpt lat="45.75326394421655" lon="9.481721188481862"><ele>357.0</ele><time>2026-04-20T16:18:53Z</time></trkpt><trkpt lat="45.75335869348992" lon="9.481708964478573"><ele>357.0</ele><time>2026-04-20T16:18:54Z</time></trkpt><trkpt lat="45.75349361837372" lon="9.48168514215852"><ele>357.0</ele><time>2026-04-20T16:18:55Z</time></trkpt><trkpt lat="45.7536238589907" lon="9.48166196293291"><ele>357.0</ele><time>2026-04-20T16:18:56Z</time></trkpt><trkpt lat="45.75375519142374" lon="9.481660799507825"><ele>357.0</ele><time>2026-04-20T16:18:57Z</time></trkpt><trkpt lat="45.75385940504469" lon="9.481666043186015"><ele>358.1666666666667</ele><time>2026-04-20T16:18:58Z</time></trkpt><trkpt lat="45.75393464647202" lon="9.481639578692997"><ele>359.3333333333333</ele><time>2026-04-20T16:18:59Z</time></trkpt><trkpt lat="45.75400477584872" lon="9.481607003197176"><ele>360.5</ele><time>2026-04-20T16:19:00Z</time></trkpt><trkpt lat="45.754071111837554" lon="9.481526648946554"><ele>361.66666666666663</ele><time>2026-04-20T16:19:01Z</time></trkpt><trkpt lat="45.75414357508817" lon="9.481443813198986"><ele>362.8333333333333</ele><time>2026-04-20T16:19:02Z</time></trkpt><trkpt lat="45.754247321541854" lon="9.481364349985014"><ele>364.0</ele><time>2026-04-20T16:19:03Z</time></trkpt><trkpt lat="45.75435102413047" lon="9.481335718022661"><ele>366.25</ele><time>2026-04-20T16:19:04Z</time></trkpt><trkpt lat="45.754474616093155" lon="9.481355919896975"><ele>368.5</ele><time>2026-04-20T16:19:05Z</time></trkpt><trkpt lat="45.754588177194314" lon="9.481419027531533"><ele>370.75</ele><time>2026-04-20T16:19:06Z</time></trkpt><trkpt lat="45.754701421313854" lon="9.481426504365452"><ele>373.0</ele><time>2026-04-20T16:19:07Z</time></trkpt><trkpt lat="45.75482620305991" lon="9.48141542663769"><ele>373.0</ele><time>2026-04-20T16:19:08Z</time></trkpt><trkpt lat="45.754953220744085" lon="9.481413562687571"><ele>373.0</ele><time>2026-04-20T16:19:09Z</time></trkpt><trkpt lat="45.755084870805156" lon="9.481367510411754"><ele>373.0</ele><time>2026-04-20T16:19:10Z</time></trkpt><trkpt lat="45.755207792022595" lon="9.48134225060621"><ele>373.0</ele><time>2026-04-20T16:19:11Z</time></trkpt><trkpt lat="45.75533540856042" lon="9.48128774092066"><ele>374.25</ele><time>2026-04-20T16:19:12Z</time></trkpt><trkpt lat="45.75546894106132" lon="9.4812705279477"><ele>375.5</ele><time>2026-04-20T16:19:13Z</time></trkpt><trkpt lat="45.75561958152127" lon="9.481261249631949"><ele>376.75</ele><time>2026-04-20T16:19:14Z</time></trkpt><trkpt lat="45.755761488222745" lon="9.481243398838378"><ele>378.0</ele><time>2026-04-20T16:19:15Z</time></trkpt><trkpt lat="45.75589602945231" lon="9.48122325394249"><ele>372.0</ele><time>2026-04-20T16:19:16Z</time></trkpt><trkpt lat="45.75602943256764" lon="9.481201434861163"><ele>366.0</ele><time>2026-04-20T16:19:17Z</time></trkpt><trkpt lat="45.756159426834174" lon="9.481178778536442"><ele>360.0</ele><time>2026-04-20T16:19:18Z</time></trkpt><trkpt lat="45.75629653453098" lon="9.481138924846473"><ele>354.0</ele><time>2026-04-20T16:19:19Z</time></trkpt><trkpt lat="45.756443141291314" lon="9.481083857573925"><ele>354.0</ele><time>2026-04-20T16:19:20Z</time></trkpt><trkpt lat="45.75656869853325" lon="9.481007293168608"><ele>354.0</ele><time>2026-04-20T16:19:21Z</time></trkpt><trkpt lat="45.7567027814631" lon="9.48091739773736"><ele>354.0</ele><time>2026-04-20T16:19:22Z</time></trkpt><trkpt lat="45.75682441340354" lon="9.480830478956683"><ele>354.0</ele><time>2026-04-20T16:19:23Z</time></trkpt><trkpt lat="45.75694782594544" lon="9.480740076484791"><ele>354.75</ele><time>2026-04-20T16:19:24Z</time></trkpt><trkpt lat="45.75708658907318" lon="9.480664528201117"><ele>355.5</ele><time>2026-04-20T16:19:25Z</time></trkpt><trkpt lat="45.75721633037248" lon="9.48060136302902"><ele>356.25</ele><time>2026-04-20T16:19:26Z</time></trkpt><trkpt lat="45.757357115400474" lon="9.480570717561463"><ele>357.0</ele><time>2026-04-20T16:19:27Z</time></trkpt><trkpt lat="45.757498853552136" lon="9.4805574651142"><ele>357.0</ele><time>2026-04-20T16:19:28Z</time></trkpt><trkpt lat="45.757640019070315" lon="9.48056952985817"><ele>357.0</ele><time>2026-04-20T16:19:29Z</time></trkpt><trkpt lat="45.757796804348" lon="9.480585640732478"><ele>357.0</ele><time>2026-04-20T16:19:30Z</time></trkpt><trkpt lat="45.75794606826318" lon="9.480601392496277"><ele>357.0</ele><time>2026-04-20T16:19:31Z</time></trkpt><trkpt lat="45.75808946607597" lon="9.480621024915589"><ele>356.75</ele><time>2026-04-20T16:19:32Z</time></trkpt><trkpt lat="45.7582287571876" lon="9.48063554890949"><ele>356.5</ele><time>2026-04-20T16:19:33Z</time></trkpt><trkpt lat="45.758373280641685" lon="9.480654541650223"><ele>356.25</ele><time>2026-04-20T16:19:34Z</time></trkpt><trkpt lat="45.75850620501987" lon="9.480671129872555"><ele>356.0</ele><time>2026-04-20T16:19:35Z</time></trkpt><trkpt lat="45.758646654878355" lon="9.480711215386846"><ele>354.5</ele><time>2026-04-20T16:19:36Z</time></trkpt><trkpt lat="45.758773230865586" lon="9.480773272334707"><ele>353.0</ele><time>2026-04-20T16:19:37Z</time></trkpt><trkpt lat="45.75891088735049" lon="9.480829018711946"><ele>351.5</ele><time>2026-04-20T16:19:38Z</time></trkpt><trkpt lat="45.75905062496987" lon="9.480891450829308"><ele>350.0</ele><time>2026-04-20T16:19:39Z</time></trkpt><trkpt lat="45.759177119973444" lon="9.480955447084215"><ele>350.0</ele><time>2026-04-20T16:19:40Z</time></trkpt><trkpt lat="45.75930269335063" lon="9.481030836504544"><ele>350.0</ele><time>2026-04-20T16:19:41Z</time></trkpt><trkpt lat="45.75942492115515" lon="9.481136271404056"><ele>350.0</ele><time>2026-04-20T16:19:42Z</time></trkpt><trkpt lat="45.75953368159807" lon="9.481233420803491"><ele>350.0</ele><time>2026-04-20T16:19:43Z</time></trkpt><trkpt lat="45.75964359441032" lon="9.481340908941592"><ele>353.4</ele><time>2026-04-20T16:19:44Z</time></trkpt><trkpt lat="45.759738323550785" lon="9.481414139257163"><ele>356.8</ele><time>2026-04-20T16:19:45Z</time></trkpt><trkpt lat="45.75984893439148" lon="9.481488473695673"><ele>360.20000000000005</ele><time>2026-04-20T16:19:46Z</time></trkpt><trkpt lat="45.75991832944999" lon="9.48146565797523"><ele>363.6</ele><time>2026-04-20T16:19:47Z</time></trkpt><trkpt lat="45.76002615532019" lon="9.481404161167593"><ele>367.0</ele><time>2026-04-20T16:19:48Z</time></trkpt><trkpt lat="45.760109171014385" lon="9.481313088200976"><ele>364.5</ele><time>2026-04-20T16:19:49Z</time></trkpt><trkpt lat="45.76021837675313" lon="9.48124952796237"><ele>362.0</ele><time>2026-04-20T16:19:50Z</time></trkpt><trkpt lat="45.76033075187508" lon="9.481221417604463"><ele>359.5</ele><time>2026-04-20T16:19:51Z</time></trkpt><trkpt lat="45.760456624561506" lon="9.481262766645866"><ele>357.0</ele><time>2026-04-20T16:19:52Z</time></trkpt><trkpt lat="45.7605672681115" lon="9.481375849983618"><ele>357.0</ele><time>2026-04-20T16:19:53Z</time></trkpt><trkpt lat="45.76067576639978" lon="9.481460632706215"><ele>357.0</ele><time>2026-04-20T16:19:54Z</time></trkpt><trkpt lat="45.76077137121091" lon="9.481558089687018"><ele>357.0</ele><time>2026-04-20T16:19:55Z</time></trkpt><trkpt lat="45.76086935032621" lon="9.481650286425577"><ele>357.0</ele><time>2026-04-20T16:19:56Z</time></trkpt><trkpt lat="45.76098379947837" lon="9.481745742791867"><ele>354.0</ele><time>2026-04-20T16:19:56.999Z</time></trkpt><trkpt lat="45.76112476430559" lon="9.481820689626197"><ele>351.0</ele><time>2026-04-20T16:19:57.999Z</time></trkpt><trkpt lat="45.76126393189563" lon="9.481879201632307"><ele>348.0</ele><time>2026-04-20T16:19:58.999Z</time></trkpt><trkpt lat="45.761419109158346" lon="9.481945006730784"><ele>348.0</ele><time>2026-04-20T16:19:59.999Z</time></trkpt><trkpt lat="45.76156883778559" lon="9.482007675656126"><ele>348.0</ele><time>2026-04-20T16:20:00.999Z</time></trkpt><trkpt lat="45.76174133001158" lon="9.482017313831955"><ele>348.0</ele><time>2026-04-20T16:20:01.999Z</time></trkpt><trkpt lat="45.76189310709835" lon="9.482008053580351"><ele>348.3333333333333</ele><time>2026-04-20T16:20:03Z</time></trkpt><trkpt lat="45.76204631316546" lon="9.481970380954442"><ele>348.66666666666663</ele><time>2026-04-20T16:20:03.999Z</time></trkpt><trkpt lat="45.762196613031215" lon="9.481923563663099"><ele>349.0</ele><time>2026-04-20T16:20:04.999Z</time></trkpt><trkpt lat="45.76236522118532" lon="9.48188756920597"><ele>349.0</ele><time>2026-04-20T16:20:05.999Z</time></trkpt><trkpt lat="45.76255881128591" lon="9.481888356869941"><ele>349.0</ele><time>2026-04-20T16:20:06.999Z</time></trkpt><trkpt lat="45.76277106433249" lon="9.481867169945557"><ele>349.0</ele><time>2026-04-20T16:20:07.999Z</time></trkpt><trkpt lat="45.762958951116474" lon="9.481796119515446"><ele>347.5</ele><time>2026-04-20T16:20:08.999Z</time></trkpt><trkpt lat="45.762940195152716" lon="9.481696778137174"><ele>346.0</ele><time>2026-04-20T16:20:10Z</time></trkpt><trkpt lat="45.763081535355056" lon="9.48160997048276"><ele>344.5</ele><time>2026-04-20T16:20:11Z</time></trkpt><trkpt lat="45.7632253228604" lon="9.481526175071155"><ele>343.0</ele><time>2026-04-20T16:20:12Z</time></trkpt><trkpt lat="45.763366267213314" lon="9.481434689928902"><ele>343.0</ele><time>2026-04-20T16:20:13Z</time></trkpt><trkpt lat="45.76351110041267" lon="9.481340819049128"><ele>343.0</ele><time>2026-04-20T16:20:14Z</time></trkpt><trkpt lat="45.763663230328135" lon="9.481248871746029"><ele>343.0</ele><time>2026-04-20T16:20:15Z</time></trkpt><trkpt lat="45.76381053784553" lon="9.481157232765629"><ele>346.66666666666663</ele><time>2026-04-20T16:20:16Z</time></trkpt><trkpt lat="45.76396552590609" lon="9.481070902999239"><ele>350.3333333333333</ele><time>2026-04-20T16:20:17Z</time></trkpt><trkpt lat="45.764117858779635" lon="9.480975506041162"><ele>354.0</ele><time>2026-04-20T16:20:18Z</time></trkpt><trkpt lat="45.764266586733704" lon="9.480885505056136"><ele>354.3333333333333</ele><time>2026-04-20T16:20:19Z</time></trkpt><trkpt lat="45.76441953485334" lon="9.480815263365098"><ele>354.66666666666663</ele><time>2026-04-20T16:20:20Z</time></trkpt><trkpt lat="45.76458137572808" lon="9.480769087050534"><ele>355.0</ele><time>2026-04-20T16:20:21Z</time></trkpt><trkpt lat="45.76473920876585" lon="9.480756295187616"><ele>355.0</ele><time>2026-04-20T16:20:22Z</time></trkpt><trkpt lat="45.76489564091085" lon="9.480770365312084"><ele>355.0</ele><time>2026-04-20T16:20:23Z</time></trkpt><trkpt lat="45.765045826296344" lon="9.480804103475771"><ele>355.0</ele><time>2026-04-20T16:20:24Z</time></trkpt><trkpt lat="45.765197031997765" lon="9.480827271423424"><ele>356.25</ele><time>2026-04-20T16:20:25Z</time></trkpt><trkpt lat="45.76534456015097" lon="9.480839941044838"><ele>357.5</ele><time>2026-04-20T16:20:26Z</time></trkpt><trkpt lat="45.76549393944586" lon="9.48081596316543"><ele>358.75</ele><time>2026-04-20T16:20:27Z</time></trkpt><trkpt lat="45.765636774978006" lon="9.480747276396773"><ele>360.0</ele><time>2026-04-20T16:20:28Z</time></trkpt><trkpt lat="45.76577504539438" lon="9.480653234063615"><ele>360.0</ele><time>2026-04-20T16:20:29Z</time></trkpt><trkpt lat="45.765901792695594" lon="9.480549422643819"><ele>360.0</ele><time>2026-04-20T16:20:30Z</time></trkpt><trkpt lat="45.766034201691" lon="9.48043860041732"><ele>360.0</ele><time>2026-04-20T16:20:31Z</time></trkpt><trkpt lat="45.766171998420475" lon="9.48033159895112"><ele>359.6666666666667</ele><time>2026-04-20T16:20:32Z</time></trkpt><trkpt lat="45.766309288429134" lon="9.480217755047361"><ele>359.33333333333337</ele><time>2026-04-20T16:20:33Z</time></trkpt><trkpt lat="45.76645234566807" lon="9.480118048253356"><ele>359.0</ele><time>2026-04-20T16:20:34Z</time></trkpt><trkpt lat="45.766597712446284" lon="9.480009324213563"><ele>359.0</ele><time>2026-04-20T16:20:35Z</time></trkpt><trkpt lat="45.76673768614103" lon="9.479917684734502"><ele>359.0</ele><time>2026-04-20T16:20:36Z</time></trkpt><trkpt lat="45.76688429025919" lon="9.479819666371695"><ele>359.0</ele><time>2026-04-20T16:20:37Z</time></trkpt><trkpt lat="45.76702751833967" lon="9.479718099025419"><ele>360.0</ele><time>2026-04-20T16:20:38Z</time></trkpt><trkpt lat="45.76717463950949" lon="9.479613262807716"><ele>361.0</ele><time>2026-04-20T16:20:39Z</time></trkpt><trkpt lat="45.767312717702154" lon="9.479512613061122"><ele>362.0</ele><time>2026-04-20T16:20:40Z</time></trkpt><trkpt lat="45.767461167768104" lon="9.479405779920725"><ele>362.0</ele><time>2026-04-20T16:20:41Z</time></trkpt><trkpt lat="45.76760964207855" lon="9.479297990459811"><ele>362.0</ele><time>2026-04-20T16:20:42Z</time></trkpt><trkpt lat="45.76775884467971" lon="9.47918217005748"><ele>362.0</ele><time>2026-04-20T16:20:43Z</time></trkpt><trkpt lat="45.767899726595026" lon="9.479072997066455"><ele>362.0</ele><time>2026-04-20T16:20:44Z</time></trkpt><trkpt lat="45.768031984327344" lon="9.478953214058707"><ele>362.0</ele><time>2026-04-20T16:20:45Z</time></trkpt><trkpt lat="45.76817108301021" lon="9.478857161700407"><ele>362.0</ele><time>2026-04-20T16:20:46Z</time></trkpt><trkpt lat="45.768322600993216" lon="9.478758698191923"><ele>362.0</ele><time>2026-04-20T16:20:47Z</time></trkpt><trkpt lat="45.76847198393511" lon="9.478656507318345"><ele>362.0</ele><time>2026-04-20T16:20:48Z</time></trkpt><trkpt lat="45.76862108222198" lon="9.4785585000633"><ele>362.0</ele><time>2026-04-20T16:20:49Z</time></trkpt><trkpt lat="45.76877234955269" lon="9.478447655334772"><ele>362.0</ele><time>2026-04-20T16:20:50Z</time></trkpt><trkpt lat="45.768904726013474" lon="9.478363032349936"><ele>362.0</ele><time>2026-04-20T16:20:51Z</time></trkpt><trkpt lat="45.76903469762129" lon="9.478272097572383"><ele>362.0</ele><time>2026-04-20T16:20:52Z</time></trkpt><trkpt lat="45.769159913811386" lon="9.478181626002268"><ele>362.0</ele><time>2026-04-20T16:20:53Z</time></trkpt><trkpt lat="45.769276457656574" lon="9.478100493012098"><ele>362.5</ele><time>2026-04-20T16:20:54Z</time></trkpt><trkpt lat="45.769382922737506" lon="9.47801547721824"><ele>363.0</ele><time>2026-04-20T16:20:55Z</time></trkpt><trkpt lat="45.76947189700618" lon="9.477931503393075"><ele>363.5</ele><time>2026-04-20T16:20:56Z</time></trkpt><trkpt lat="45.76958544380896" lon="9.477822549767646"><ele>364.0</ele><time>2026-04-20T16:20:57Z</time></trkpt><trkpt lat="45.76968613188319" lon="9.477734478606147"><ele>365.79999999999995</ele><time>2026-04-20T16:20:58Z</time></trkpt><trkpt lat="45.769782315420365" lon="9.477649447173187"><ele>367.59999999999997</ele><time>2026-04-20T16:20:59Z</time></trkpt><trkpt lat="45.76986873112797" lon="9.477578199225196"><ele>369.4</ele><time>2026-04-20T16:21:00Z</time></trkpt><trkpt lat="45.76994275325203" lon="9.477516399401663"><ele>371.2</ele><time>2026-04-20T16:21:01Z</time></trkpt><trkpt lat="45.7700331797114" lon="9.477461412404267"><ele>373.0</ele><time>2026-04-20T16:21:02Z</time></trkpt><trkpt lat="45.77010659796758" lon="9.477403094640719"><ele>373.0</ele><time>2026-04-20T16:21:03Z</time></trkpt><trkpt lat="45.7701788016802" lon="9.477343129729503"><ele>373.0</ele><time>2026-04-20T16:21:04Z</time></trkpt><trkpt lat="45.770250144671685" lon="9.477283198886767"><ele>373.0</ele><time>2026-04-20T16:21:05Z</time></trkpt><trkpt lat="45.77034200315936" lon="9.47720011164717"><ele>373.0</ele><time>2026-04-20T16:21:07Z</time></trkpt><trkpt lat="45.77040987529296" lon="9.477109826294585"><ele>373.0</ele><time>2026-04-20T16:21:10Z</time></trkpt><trkpt lat="45.7705244364423" lon="9.47699376937187"><ele>372.79999999999995</ele><time>2026-04-20T16:21:12Z</time></trkpt><trkpt lat="45.77056523160103" lon="9.476919047320534"><ele>372.6</ele><time>2026-04-20T16:21:13Z</time></trkpt><trkpt lat="45.7706286652058" lon="9.476858602954735"><ele>372.4</ele><time>2026-04-20T16:21:15Z</time></trkpt><trkpt lat="45.770712220819604" lon="9.476935194574555"><ele>372.20000000000005</ele><time>2026-04-20T16:21:17Z</time></trkpt><trkpt lat="45.770797280877034" lon="9.477027413804269"><ele>372.0</ele><time>2026-04-20T16:21:19Z</time></trkpt><trkpt lat="45.770886491723566" lon="9.477118261418136"><ele>371.6</ele><time>2026-04-20T16:21:21Z</time></trkpt><trkpt lat="45.770976626152105" lon="9.47722997949229"><ele>371.20000000000005</ele><time>2026-04-20T16:21:22Z</time></trkpt><trkpt lat="45.771031362570874" lon="9.477344158479003"><ele>370.8</ele><time>2026-04-20T16:21:23Z</time></trkpt><trkpt lat="45.77104178832288" lon="9.47747772806531"><ele>370.4</ele><time>2026-04-20T16:21:24Z</time></trkpt><trkpt lat="45.771047706106174" lon="9.477588727178032"><ele>370.0</ele><time>2026-04-20T16:21:25Z</time></trkpt><trkpt lat="45.77104782364247" lon="9.477741531768794"><ele>371.2</ele><time>2026-04-20T16:21:27Z</time></trkpt><trkpt lat="45.77103078847453" lon="9.477889720756803"><ele>372.4</ele><time>2026-04-20T16:21:29Z</time></trkpt><trkpt lat="45.77100629677913" lon="9.477974326338812"><ele>373.6</ele><time>2026-04-20T16:21:32Z</time></trkpt><trkpt lat="45.77095568234604" lon="9.478104515259403"><ele>374.8</ele><time>2026-04-20T16:21:33Z</time></trkpt><trkpt lat="45.77092845789071" lon="9.478195869423502"><ele>376.0</ele><time>2026-04-20T16:21:34Z</time></trkpt><trkpt lat="45.770866541266585" lon="9.478340987590007"><ele>377.8</ele><time>2026-04-20T16:21:36Z</time></trkpt><trkpt lat="45.77075802517665" lon="9.478422420890395"><ele>379.6</ele><time>2026-04-20T16:21:38Z</time></trkpt><trkpt lat="45.77069359301009" lon="9.478508238273081"><ele>381.4</ele><time>2026-04-20T16:21:39Z</time></trkpt><trkpt lat="45.77061887945657" lon="9.478614718518221"><ele>383.2</ele><time>2026-04-20T16:21:41Z</time></trkpt><trkpt lat="45.7705670102037" lon="9.478670215400744"><ele>385.0</ele><time>2026-04-20T16:21:42Z</time></trkpt><trkpt lat="45.770473260506" lon="9.47876950719731"><ele>386.33333333333337</ele><time>2026-04-20T16:21:44Z</time></trkpt><trkpt lat="45.77041046325027" lon="9.47882538568125"><ele>387.6666666666667</ele><time>2026-04-20T16:21:46Z</time></trkpt><trkpt lat="45.77035067643351" lon="9.478888755464745"><ele>389.0</ele><time>2026-04-20T16:21:47Z</time></trkpt><trkpt lat="45.77029404018859" lon="9.478967635500316"><ele>390.33333333333337</ele><time>2026-04-20T16:21:48Z</time></trkpt><trkpt lat="45.77022063745845" lon="9.479038585186894"><ele>391.6666666666667</ele><time>2026-04-20T16:21:49Z</time></trkpt><trkpt lat="45.770142935909234" lon="9.479121432021559"><ele>393.0</ele><time>2026-04-20T16:21:50Z</time></trkpt><trkpt lat="45.77005664604339" lon="9.4792149933701"><ele>393.0</ele><time>2026-04-20T16:21:51Z</time></trkpt><trkpt lat="45.7699649710004" lon="9.479314602597608"><ele>393.0</ele><time>2026-04-20T16:21:52Z</time></trkpt><trkpt lat="45.76987542220769" lon="9.479415220421503"><ele>393.0</ele><time>2026-04-20T16:21:53Z</time></trkpt><trkpt lat="45.769795312377894" lon="9.4795111287177"><ele>393.0</ele><time>2026-04-20T16:21:54Z</time></trkpt><trkpt lat="45.76973499340933" lon="9.47957904430108"><ele>393.0</ele><time>2026-04-20T16:21:55Z</time></trkpt><trkpt lat="45.76968176438433" lon="9.479736976049654"><ele>395.8333333333333</ele><time>2026-04-20T16:21:57Z</time></trkpt><trkpt lat="45.769678562917456" lon="9.479833590940718"><ele>398.66666666666663</ele><time>2026-04-20T16:21:58Z</time></trkpt><trkpt lat="45.769694906056976" lon="9.479943655895473"><ele>401.5</ele><time>2026-04-20T16:21:59Z</time></trkpt><trkpt lat="45.769719717958274" lon="9.480032951867894"><ele>404.3333333333333</ele><time>2026-04-20T16:22:00Z</time></trkpt><trkpt lat="45.76976170656064" lon="9.48014546892579"><ele>407.16666666666663</ele><time>2026-04-20T16:22:02Z</time></trkpt><trkpt lat="45.76976618386966" lon="9.480279256574986"><ele>410.0</ele><time>2026-04-20T16:22:04Z</time></trkpt><trkpt lat="45.76979773634417" lon="9.48038654449901"><ele>409.99999999999994</ele><time>2026-04-20T16:22:06Z</time></trkpt><trkpt lat="45.76990467543782" lon="9.480391467763951"><ele>410.0</ele><time>2026-04-20T16:22:08Z</time></trkpt><trkpt lat="45.769948896326476" lon="9.480321245983104"><ele>410.0</ele><time>2026-04-20T16:22:09Z</time></trkpt><trkpt lat="45.769981540504055" lon="9.480231487913473"><ele>410.0</ele><time>2026-04-20T16:22:10Z</time></trkpt><trkpt lat="45.77000841743311" lon="9.480145654069792"><ele>409.99999999999994</ele><time>2026-04-20T16:22:11Z</time></trkpt><trkpt lat="45.77010234790817" lon="9.480044179222615"><ele>410.0</ele><time>2026-04-20T16:22:13Z</time></trkpt><trkpt lat="45.770166374049296" lon="9.48002833067535"><ele>411.66666666666663</ele><time>2026-04-20T16:22:15Z</time></trkpt><trkpt lat="45.77025548088943" lon="9.479979645611891"><ele>413.3333333333333</ele><time>2026-04-20T16:22:17Z</time></trkpt><trkpt lat="45.77031334626058" lon="9.479936056425252"><ele>415.0</ele><time>2026-04-20T16:22:18Z</time></trkpt><trkpt lat="45.77037939578252" lon="9.479909553797148"><ele>416.66666666666663</ele><time>2026-04-20T16:22:19Z</time></trkpt><trkpt lat="45.77044366192763" lon="9.479893269658769"><ele>418.3333333333333</ele><time>2026-04-20T16:22:20Z</time></trkpt><trkpt lat="45.77050727292873" lon="9.479888603832444"><ele>420.0</ele><time>2026-04-20T16:22:21Z</time></trkpt><trkpt lat="45.770600885004825" lon="9.47985984194568"><ele>420.0</ele><time>2026-04-20T16:22:22Z</time></trkpt><trkpt lat="45.770690480096306" lon="9.479875105402543"><ele>420.0</ele><time>2026-04-20T16:22:25Z</time></trkpt><trkpt lat="45.77076752881197" lon="9.479866195647814"><ele>420.0</ele><time>2026-04-20T16:22:27Z</time></trkpt><trkpt lat="45.77085066196245" lon="9.479872650696727"><ele>420.0</ele><time>2026-04-20T16:22:29Z</time></trkpt><trkpt lat="45.77097172554753" lon="9.479869844596598"><ele>420.0</ele><time>2026-04-20T16:22:31Z</time></trkpt><trkpt lat="45.77105163869805" lon="9.479867444041146"><ele>422.6</ele><time>2026-04-20T16:22:32Z</time></trkpt><trkpt lat="45.77115761167726" lon="9.479865282326198"><ele>425.2</ele><time>2026-04-20T16:22:33Z</time></trkpt><trkpt lat="45.7712525102933" lon="9.479866588980228"><ele>427.79999999999995</ele><time>2026-04-20T16:22:34Z</time></trkpt><trkpt lat="45.771348145129956" lon="9.479873702381958"><ele>430.4</ele><time>2026-04-20T16:22:35Z</time></trkpt><trkpt lat="45.77143147729372" lon="9.479881416537825"><ele>433.0</ele><time>2026-04-20T16:22:36Z</time></trkpt><trkpt lat="45.771510304128654" lon="9.47986474340604"><ele>433.00000000000006</ele><time>2026-04-20T16:22:37Z</time></trkpt><trkpt lat="45.7715895762434" lon="9.479827165125014"><ele>433.0</ele><time>2026-04-20T16:22:38Z</time></trkpt><trkpt lat="45.771656793272825" lon="9.479776976556154"><ele>433.0</ele><time>2026-04-20T16:22:39Z</time></trkpt><trkpt lat="45.77173063246195" lon="9.479746690337626"><ele>433.0</ele><time>2026-04-20T16:22:40Z</time></trkpt><trkpt lat="45.771819962418455" lon="9.47972469472706"><ele>433.00000000000006</ele><time>2026-04-20T16:22:42Z</time></trkpt><trkpt lat="45.77186888330225" lon="9.47981399214038"><ele>433.0</ele><time>2026-04-20T16:22:44Z</time></trkpt><trkpt lat="45.77183823918099" lon="9.479959565810123"><ele>433.0</ele><time>2026-04-20T16:22:46Z</time></trkpt><trkpt lat="45.771737974021605" lon="9.480067892249863"><ele>432.99999999999994</ele><time>2026-04-20T16:22:48Z</time></trkpt><trkpt lat="45.771683210570785" lon="9.480119809732"><ele>432.99999999999994</ele><time>2026-04-20T16:22:49Z</time></trkpt><trkpt lat="45.77163130027834" lon="9.480282571919005"><ele>433.0</ele><time>2026-04-20T16:22:51Z</time></trkpt><trkpt lat="45.77161565972577" lon="9.480373463218545"><ele>433.0</ele><time>2026-04-20T16:22:52Z</time></trkpt><trkpt lat="45.771609004515945" lon="9.48047481343584"><ele>434.83333333333337</ele><time>2026-04-20T16:22:53Z</time></trkpt><trkpt lat="45.7715988875256" lon="9.480571165333245"><ele>436.6666666666667</ele><time>2026-04-20T16:22:54Z</time></trkpt><trkpt lat="45.77158433075161" lon="9.480664755300712"><ele>438.5</ele><time>2026-04-20T16:22:55Z</time></trkpt><trkpt lat="45.77157423317576" lon="9.480761225710264"><ele>440.33333333333337</ele><time>2026-04-20T16:22:56Z</time></trkpt><trkpt lat="45.7715497443837" lon="9.480940266883072"><ele>442.1666666666667</ele><time>2026-04-20T16:22:58Z</time></trkpt><trkpt lat="45.77153306817546" lon="9.481028652142102"><ele>444.0</ele><time>2026-04-20T16:22:59Z</time></trkpt><trkpt lat="45.77152312320937" lon="9.481176292900589"><ele>446.1666666666667</ele><time>2026-04-20T16:23:01Z</time></trkpt><trkpt lat="45.771532200370096" lon="9.48127638562221"><ele>448.33333333333337</ele><time>2026-04-20T16:23:04Z</time></trkpt><trkpt lat="45.77145181748537" lon="9.48130516204579"><ele>450.5</ele><time>2026-04-20T16:23:07Z</time></trkpt><trkpt lat="45.77134218368011" lon="9.481275204094816"><ele>452.6666666666667</ele><time>2026-04-20T16:23:09Z</time></trkpt><trkpt lat="45.77126231018728" lon="9.481289497664886"><ele>454.83333333333337</ele><time>2026-04-20T16:23:11Z</time></trkpt><trkpt lat="45.771201374853085" lon="9.481355818657708"><ele>457.0</ele><time>2026-04-20T16:23:13Z</time></trkpt><trkpt lat="45.77116341985334" lon="9.481446041839954"><ele>457.00000000000006</ele><time>2026-04-20T16:23:15Z</time></trkpt><trkpt lat="45.77110266398148" lon="9.48152658850094"><ele>457.0</ele><time>2026-04-20T16:23:18Z</time></trkpt><trkpt lat="45.77102211919082" lon="9.481469276291646"><ele>457.0</ele><time>2026-04-20T16:23:22Z</time></trkpt><trkpt lat="45.77095914900323" lon="9.4813732535046"><ele>457.0</ele><time>2026-04-20T16:23:24Z</time></trkpt><trkpt lat="45.770880095661234" lon="9.481316512642477"><ele>457.00000000000006</ele><time>2026-04-20T16:23:27Z</time></trkpt><trkpt lat="45.77079959385127" lon="9.481351451094143"><ele>457.0</ele><time>2026-04-20T16:23:29Z</time></trkpt><trkpt lat="45.77073567509136" lon="9.481361678603388"><ele>456.0</ele><time>2026-04-20T16:23:30Z</time></trkpt><trkpt lat="45.770656528471456" lon="9.481381257034196"><ele>455.00000000000006</ele><time>2026-04-20T16:23:32Z</time></trkpt><trkpt lat="45.77053206578797" lon="9.481411007600993"><ele>454.00000000000006</ele><time>2026-04-20T16:23:34Z</time></trkpt><trkpt lat="45.770464070177496" lon="9.481428567981789"><ele>453.0</ele><time>2026-04-20T16:23:35Z</time></trkpt><trkpt lat="45.770369611310215" lon="9.481425791890006"><ele>452.0</ele><time>2026-04-20T16:23:37Z</time></trkpt><trkpt lat="45.770286519887335" lon="9.481450901548271"><ele>452.0</ele><time>2026-04-20T16:23:40Z</time></trkpt><trkpt lat="45.77029577592011" lon="9.481564169604447"><ele>452.0</ele><time>2026-04-20T16:23:43Z</time></trkpt><trkpt lat="45.7702985823898" lon="9.481655058493732"><ele>452.0</ele><time>2026-04-20T16:23:45Z</time></trkpt><trkpt lat="45.7702266972488" lon="9.481667870837974"><ele>452.0</ele><time>2026-04-20T16:23:50Z</time></trkpt><trkpt lat="45.77018117680957" lon="9.481735654488539"><ele>448.0</ele><time>2026-04-20T16:24:11Z</time></trkpt><trkpt lat="45.77012944579492" lon="9.481816955358292"><ele>448.0</ele><time>2026-04-20T16:24:14Z</time></trkpt></trkseg></trk></gpx>